<?xml version="1.0" encoding="UTF-8" standalone="no" ?>
<gpx xmlns="http://www.topografix.com/GPX/1/1" xmlns:xsi="http://www.w3.org/2001/XMLSchema-instance" xsi:schemaLocation="http://www.topografix.com/GPX/1/1 http://www.topografix.com/GPX/1/1/gpx.xsd" version="1.1" creator="VisuGPX - https://www.visugpx.com">
  <metadata>
    <name>Vosges du Nord 2025-07-09 J3</name>
  </metadata>
  <trk>
    <name><![CDATA[9 mai 2025 à 07:29:56]]></name>
    <extensions>
      <line xmlns="http://www.topografix.com/GPX/gpx_style/0/2">
        <color>0000FF</color>
        <width>4</width>
      </line>
    </extensions>
    <trkseg>
      <trkpt lat="49.04256" lon="7.73034">
        <ele>353</ele>
        <time>2025-05-09T05:29:57.000Z</time>
      </trkpt>
      <trkpt lat="49.04257" lon="7.73035">
        <ele>353</ele>
        <time>2025-05-09T05:29:58.000Z</time>
      </trkpt>
      <trkpt lat="49.04244" lon="7.73045">
        <ele>354</ele>
        <time>2025-05-09T05:30:09.000Z</time>
      </trkpt>
      <trkpt lat="49.04239" lon="7.73046">
        <ele>353</ele>
        <time>2025-05-09T05:30:19.000Z</time>
      </trkpt>
      <trkpt lat="49.04235" lon="7.73051">
        <ele>353</ele>
        <time>2025-05-09T05:30:26.000Z</time>
      </trkpt>
      <trkpt lat="49.0423" lon="7.73051">
        <ele>353</ele>
        <time>2025-05-09T05:30:32.000Z</time>
      </trkpt>
      <trkpt lat="49.04217" lon="7.7306">
        <ele>352</ele>
        <time>2025-05-09T05:30:44.000Z</time>
      </trkpt>
      <trkpt lat="49.04214" lon="7.73066">
        <ele>352</ele>
        <time>2025-05-09T05:30:50.000Z</time>
      </trkpt>
      <trkpt lat="49.04206" lon="7.73074">
        <ele>352</ele>
        <time>2025-05-09T05:30:59.000Z</time>
      </trkpt>
      <trkpt lat="49.04203" lon="7.7308">
        <ele>351</ele>
        <time>2025-05-09T05:31:06.000Z</time>
      </trkpt>
      <trkpt lat="49.04199" lon="7.73083">
        <ele>351</ele>
        <time>2025-05-09T05:31:10.000Z</time>
      </trkpt>
      <trkpt lat="49.04191" lon="7.7309">
        <ele>351</ele>
        <time>2025-05-09T05:31:16.000Z</time>
      </trkpt>
      <trkpt lat="49.04185" lon="7.73088">
        <ele>351</ele>
        <time>2025-05-09T05:31:19.000Z</time>
      </trkpt>
      <trkpt lat="49.0418" lon="7.73088">
        <ele>350</ele>
        <time>2025-05-09T05:31:23.000Z</time>
      </trkpt>
      <trkpt lat="49.04172" lon="7.73092">
        <ele>351</ele>
        <time>2025-05-09T05:31:30.000Z</time>
      </trkpt>
      <trkpt lat="49.04168" lon="7.73093">
        <ele>350</ele>
        <time>2025-05-09T05:31:35.000Z</time>
      </trkpt>
      <trkpt lat="49.04164" lon="7.73093">
        <ele>351</ele>
        <time>2025-05-09T05:31:39.000Z</time>
      </trkpt>
      <trkpt lat="49.04156" lon="7.73097">
        <ele>350</ele>
        <time>2025-05-09T05:31:49.000Z</time>
      </trkpt>
      <trkpt lat="49.04151" lon="7.73099">
        <ele>350</ele>
        <time>2025-05-09T05:31:51.000Z</time>
      </trkpt>
      <trkpt lat="49.04147" lon="7.73102">
        <ele>350</ele>
        <time>2025-05-09T05:31:56.000Z</time>
      </trkpt>
      <trkpt lat="49.04143" lon="7.73107">
        <ele>349</ele>
        <time>2025-05-09T05:32:01.000Z</time>
      </trkpt>
      <trkpt lat="49.04137" lon="7.73111">
        <ele>349</ele>
        <time>2025-05-09T05:32:05.000Z</time>
      </trkpt>
      <trkpt lat="49.0413" lon="7.73109">
        <ele>349</ele>
        <time>2025-05-09T05:32:13.000Z</time>
      </trkpt>
      <trkpt lat="49.04125" lon="7.73113">
        <ele>349</ele>
        <time>2025-05-09T05:32:19.000Z</time>
      </trkpt>
      <trkpt lat="49.04118" lon="7.73112">
        <ele>349</ele>
        <time>2025-05-09T05:32:22.000Z</time>
      </trkpt>
      <trkpt lat="49.04114" lon="7.73114">
        <ele>349</ele>
        <time>2025-05-09T05:32:26.000Z</time>
      </trkpt>
      <trkpt lat="49.04107" lon="7.73119">
        <ele>348</ele>
        <time>2025-05-09T05:32:35.000Z</time>
      </trkpt>
      <trkpt lat="49.04099" lon="7.73119">
        <ele>348</ele>
        <time>2025-05-09T05:32:40.000Z</time>
      </trkpt>
      <trkpt lat="49.04071" lon="7.73128">
        <ele>347</ele>
        <time>2025-05-09T05:33:03.000Z</time>
      </trkpt>
      <trkpt lat="49.04066" lon="7.73135">
        <ele>349</ele>
        <time>2025-05-09T05:33:16.000Z</time>
      </trkpt>
      <trkpt lat="49.04061" lon="7.73134">
        <ele>349</ele>
        <time>2025-05-09T05:33:18.000Z</time>
      </trkpt>
      <trkpt lat="49.04057" lon="7.73132">
        <ele>349</ele>
        <time>2025-05-09T05:33:23.000Z</time>
      </trkpt>
      <trkpt lat="49.04051" lon="7.73138">
        <ele>349</ele>
        <time>2025-05-09T05:33:32.000Z</time>
      </trkpt>
      <trkpt lat="49.04047" lon="7.73137">
        <ele>350</ele>
        <time>2025-05-09T05:33:36.000Z</time>
      </trkpt>
      <trkpt lat="49.04041" lon="7.73135">
        <ele>350</ele>
        <time>2025-05-09T05:33:41.000Z</time>
      </trkpt>
      <trkpt lat="49.04037" lon="7.7314">
        <ele>350</ele>
        <time>2025-05-09T05:33:45.000Z</time>
      </trkpt>
      <trkpt lat="49.04033" lon="7.73145">
        <ele>350</ele>
        <time>2025-05-09T05:33:52.000Z</time>
      </trkpt>
      <trkpt lat="49.04026" lon="7.73145">
        <ele>351</ele>
        <time>2025-05-09T05:34:00.000Z</time>
      </trkpt>
      <trkpt lat="49.04022" lon="7.73148">
        <ele>351</ele>
        <time>2025-05-09T05:34:03.000Z</time>
      </trkpt>
      <trkpt lat="49.04012" lon="7.73149">
        <ele>351</ele>
        <time>2025-05-09T05:34:11.000Z</time>
      </trkpt>
      <trkpt lat="49.04" lon="7.73152">
        <ele>351</ele>
        <time>2025-05-09T05:34:20.000Z</time>
      </trkpt>
      <trkpt lat="49.03995" lon="7.73151">
        <ele>352</ele>
        <time>2025-05-09T05:34:26.000Z</time>
      </trkpt>
      <trkpt lat="49.03989" lon="7.73151">
        <ele>352</ele>
        <time>2025-05-09T05:34:30.000Z</time>
      </trkpt>
      <trkpt lat="49.03983" lon="7.7315">
        <ele>352</ele>
        <time>2025-05-09T05:34:33.000Z</time>
      </trkpt>
      <trkpt lat="49.03979" lon="7.73153">
        <ele>353</ele>
        <time>2025-05-09T05:34:40.000Z</time>
      </trkpt>
      <trkpt lat="49.03975" lon="7.73157">
        <ele>352</ele>
        <time>2025-05-09T05:34:44.000Z</time>
      </trkpt>
      <trkpt lat="49.03958" lon="7.73158">
        <ele>353</ele>
        <time>2025-05-09T05:35:01.000Z</time>
      </trkpt>
      <trkpt lat="49.03951" lon="7.73165">
        <ele>353</ele>
        <time>2025-05-09T05:35:09.000Z</time>
      </trkpt>
      <trkpt lat="49.03936" lon="7.73162">
        <ele>354</ele>
        <time>2025-05-09T05:35:21.000Z</time>
      </trkpt>
      <trkpt lat="49.03929" lon="7.73162">
        <ele>353</ele>
        <time>2025-05-09T05:35:28.000Z</time>
      </trkpt>
      <trkpt lat="49.03916" lon="7.73163">
        <ele>354</ele>
        <time>2025-05-09T05:35:40.000Z</time>
      </trkpt>
      <trkpt lat="49.03911" lon="7.73166">
        <ele>354</ele>
        <time>2025-05-09T05:35:46.000Z</time>
      </trkpt>
      <trkpt lat="49.03899" lon="7.73168">
        <ele>354</ele>
        <time>2025-05-09T05:36:06.000Z</time>
      </trkpt>
      <trkpt lat="49.03893" lon="7.73168">
        <ele>355</ele>
        <time>2025-05-09T05:36:10.000Z</time>
      </trkpt>
      <trkpt lat="49.03873" lon="7.73171">
        <ele>356</ele>
        <time>2025-05-09T05:36:26.000Z</time>
      </trkpt>
      <trkpt lat="49.03867" lon="7.73171">
        <ele>356</ele>
        <time>2025-05-09T05:36:31.000Z</time>
      </trkpt>
      <trkpt lat="49.03862" lon="7.73172">
        <ele>356</ele>
        <time>2025-05-09T05:36:35.000Z</time>
      </trkpt>
      <trkpt lat="49.03857" lon="7.73169">
        <ele>356</ele>
        <time>2025-05-09T05:36:40.000Z</time>
      </trkpt>
      <trkpt lat="49.03844" lon="7.73172">
        <ele>356</ele>
        <time>2025-05-09T05:36:50.000Z</time>
      </trkpt>
      <trkpt lat="49.03835" lon="7.73172">
        <ele>356</ele>
        <time>2025-05-09T05:36:57.000Z</time>
      </trkpt>
      <trkpt lat="49.03827" lon="7.73167">
        <ele>356</ele>
        <time>2025-05-09T05:37:05.000Z</time>
      </trkpt>
      <trkpt lat="49.03823" lon="7.73165">
        <ele>356</ele>
        <time>2025-05-09T05:37:08.000Z</time>
      </trkpt>
      <trkpt lat="49.03818" lon="7.73167">
        <ele>357</ele>
        <time>2025-05-09T05:37:15.000Z</time>
      </trkpt>
      <trkpt lat="49.03805" lon="7.73169">
        <ele>358</ele>
        <time>2025-05-09T05:37:25.000Z</time>
      </trkpt>
      <trkpt lat="49.038" lon="7.73165">
        <ele>358</ele>
        <time>2025-05-09T05:37:30.000Z</time>
      </trkpt>
      <trkpt lat="49.03795" lon="7.73165">
        <ele>358</ele>
        <time>2025-05-09T05:37:37.000Z</time>
      </trkpt>
      <trkpt lat="49.03783" lon="7.73166">
        <ele>358</ele>
        <time>2025-05-09T05:37:53.000Z</time>
      </trkpt>
      <trkpt lat="49.03772" lon="7.73167">
        <ele>359</ele>
        <time>2025-05-09T05:38:03.000Z</time>
      </trkpt>
      <trkpt lat="49.03765" lon="7.73169">
        <ele>360</ele>
        <time>2025-05-09T05:38:13.000Z</time>
      </trkpt>
      <trkpt lat="49.03751" lon="7.73173">
        <ele>360</ele>
        <time>2025-05-09T05:38:27.000Z</time>
      </trkpt>
      <trkpt lat="49.03744" lon="7.73175">
        <ele>361</ele>
        <time>2025-05-09T05:38:35.000Z</time>
      </trkpt>
      <trkpt lat="49.03739" lon="7.73174">
        <ele>361</ele>
        <time>2025-05-09T05:38:39.000Z</time>
      </trkpt>
      <trkpt lat="49.03733" lon="7.73174">
        <ele>362</ele>
        <time>2025-05-09T05:38:45.000Z</time>
      </trkpt>
      <trkpt lat="49.03725" lon="7.73177">
        <ele>363</ele>
        <time>2025-05-09T05:38:54.000Z</time>
      </trkpt>
      <trkpt lat="49.0372" lon="7.73177">
        <ele>362</ele>
        <time>2025-05-09T05:38:57.000Z</time>
      </trkpt>
      <trkpt lat="49.03703" lon="7.73188">
        <ele>362</ele>
        <time>2025-05-09T05:39:09.000Z</time>
      </trkpt>
      <trkpt lat="49.03696" lon="7.73191">
        <ele>362</ele>
        <time>2025-05-09T05:39:17.000Z</time>
      </trkpt>
      <trkpt lat="49.03691" lon="7.732">
        <ele>363</ele>
        <time>2025-05-09T05:39:26.000Z</time>
      </trkpt>
      <trkpt lat="49.03682" lon="7.73202">
        <ele>364</ele>
        <time>2025-05-09T05:39:35.000Z</time>
      </trkpt>
      <trkpt lat="49.03675" lon="7.73203">
        <ele>365</ele>
        <time>2025-05-09T05:39:41.000Z</time>
      </trkpt>
      <trkpt lat="49.03668" lon="7.73209">
        <ele>365</ele>
        <time>2025-05-09T05:39:51.000Z</time>
      </trkpt>
      <trkpt lat="49.03663" lon="7.73209">
        <ele>365</ele>
        <time>2025-05-09T05:39:54.000Z</time>
      </trkpt>
      <trkpt lat="49.03659" lon="7.7321">
        <ele>366</ele>
        <time>2025-05-09T05:39:58.000Z</time>
      </trkpt>
      <trkpt lat="49.03656" lon="7.73215">
        <ele>366</ele>
        <time>2025-05-09T05:40:02.000Z</time>
      </trkpt>
      <trkpt lat="49.0365" lon="7.73216">
        <ele>367</ele>
        <time>2025-05-09T05:40:09.000Z</time>
      </trkpt>
      <trkpt lat="49.03639" lon="7.73224">
        <ele>367</ele>
        <time>2025-05-09T05:40:24.000Z</time>
      </trkpt>
      <trkpt lat="49.03635" lon="7.73229">
        <ele>368</ele>
        <time>2025-05-09T05:40:28.000Z</time>
      </trkpt>
      <trkpt lat="49.03631" lon="7.73237">
        <ele>368</ele>
        <time>2025-05-09T05:40:35.000Z</time>
      </trkpt>
      <trkpt lat="49.03627" lon="7.7324">
        <ele>368</ele>
        <time>2025-05-09T05:40:38.000Z</time>
      </trkpt>
      <trkpt lat="49.03624" lon="7.73244">
        <ele>368</ele>
        <time>2025-05-09T05:40:42.000Z</time>
      </trkpt>
      <trkpt lat="49.03621" lon="7.73251">
        <ele>368</ele>
        <time>2025-05-09T05:40:46.000Z</time>
      </trkpt>
      <trkpt lat="49.03619" lon="7.73256">
        <ele>368</ele>
        <time>2025-05-09T05:40:50.000Z</time>
      </trkpt>
      <trkpt lat="49.03604" lon="7.73266">
        <ele>368</ele>
        <time>2025-05-09T05:41:01.000Z</time>
      </trkpt>
      <trkpt lat="49.036" lon="7.73266">
        <ele>368</ele>
        <time>2025-05-09T05:41:04.000Z</time>
      </trkpt>
      <trkpt lat="49.03593" lon="7.73268">
        <ele>368</ele>
        <time>2025-05-09T05:41:08.000Z</time>
      </trkpt>
      <trkpt lat="49.03589" lon="7.73269">
        <ele>369</ele>
        <time>2025-05-09T05:41:13.000Z</time>
      </trkpt>
      <trkpt lat="49.03568" lon="7.73268">
        <ele>371</ele>
        <time>2025-05-09T05:41:33.000Z</time>
      </trkpt>
      <trkpt lat="49.03563" lon="7.73268">
        <ele>371</ele>
        <time>2025-05-09T05:41:38.000Z</time>
      </trkpt>
      <trkpt lat="49.03558" lon="7.73271">
        <ele>371</ele>
        <time>2025-05-09T05:41:45.000Z</time>
      </trkpt>
      <trkpt lat="49.0355" lon="7.73271">
        <ele>372</ele>
        <time>2025-05-09T05:41:52.000Z</time>
      </trkpt>
      <trkpt lat="49.03544" lon="7.73273">
        <ele>373</ele>
        <time>2025-05-09T05:42:00.000Z</time>
      </trkpt>
      <trkpt lat="49.03539" lon="7.73273">
        <ele>373</ele>
        <time>2025-05-09T05:42:04.000Z</time>
      </trkpt>
      <trkpt lat="49.03535" lon="7.73274">
        <ele>373</ele>
        <time>2025-05-09T05:42:07.000Z</time>
      </trkpt>
      <trkpt lat="49.03523" lon="7.73272">
        <ele>373</ele>
        <time>2025-05-09T05:42:16.000Z</time>
      </trkpt>
      <trkpt lat="49.03515" lon="7.73275">
        <ele>374</ele>
        <time>2025-05-09T05:42:26.000Z</time>
      </trkpt>
      <trkpt lat="49.03502" lon="7.73274">
        <ele>374</ele>
        <time>2025-05-09T05:42:38.000Z</time>
      </trkpt>
      <trkpt lat="49.03488" lon="7.73273">
        <ele>375</ele>
        <time>2025-05-09T05:42:52.000Z</time>
      </trkpt>
      <trkpt lat="49.03481" lon="7.73272">
        <ele>375</ele>
        <time>2025-05-09T05:42:58.000Z</time>
      </trkpt>
      <trkpt lat="49.0347" lon="7.73269">
        <ele>375</ele>
        <time>2025-05-09T05:43:08.000Z</time>
      </trkpt>
      <trkpt lat="49.03466" lon="7.73268">
        <ele>375</ele>
        <time>2025-05-09T05:43:11.000Z</time>
      </trkpt>
      <trkpt lat="49.03461" lon="7.73263">
        <ele>375</ele>
        <time>2025-05-09T05:43:17.000Z</time>
      </trkpt>
      <trkpt lat="49.03455" lon="7.73267">
        <ele>375</ele>
        <time>2025-05-09T05:43:23.000Z</time>
      </trkpt>
      <trkpt lat="49.0345" lon="7.73266">
        <ele>375</ele>
        <time>2025-05-09T05:43:26.000Z</time>
      </trkpt>
      <trkpt lat="49.03441" lon="7.73275">
        <ele>376</ele>
        <time>2025-05-09T05:43:38.000Z</time>
      </trkpt>
      <trkpt lat="49.03432" lon="7.73275">
        <ele>377</ele>
        <time>2025-05-09T05:43:45.000Z</time>
      </trkpt>
      <trkpt lat="49.03423" lon="7.73281">
        <ele>378</ele>
        <time>2025-05-09T05:43:53.000Z</time>
      </trkpt>
      <trkpt lat="49.03418" lon="7.73279">
        <ele>378</ele>
        <time>2025-05-09T05:43:57.000Z</time>
      </trkpt>
      <trkpt lat="49.03412" lon="7.73279">
        <ele>379</ele>
        <time>2025-05-09T05:44:06.000Z</time>
      </trkpt>
      <trkpt lat="49.03407" lon="7.73279">
        <ele>380</ele>
        <time>2025-05-09T05:44:10.000Z</time>
      </trkpt>
      <trkpt lat="49.03403" lon="7.73276">
        <ele>380</ele>
        <time>2025-05-09T05:44:14.000Z</time>
      </trkpt>
      <trkpt lat="49.03398" lon="7.73277">
        <ele>380</ele>
        <time>2025-05-09T05:44:17.000Z</time>
      </trkpt>
      <trkpt lat="49.03386" lon="7.73281">
        <ele>381</ele>
        <time>2025-05-09T05:44:29.000Z</time>
      </trkpt>
      <trkpt lat="49.03382" lon="7.73291">
        <ele>382</ele>
        <time>2025-05-09T05:44:36.000Z</time>
      </trkpt>
      <trkpt lat="49.03381" lon="7.73299">
        <ele>383</ele>
        <time>2025-05-09T05:44:41.000Z</time>
      </trkpt>
      <trkpt lat="49.03377" lon="7.73303">
        <ele>384</ele>
        <time>2025-05-09T05:44:46.000Z</time>
      </trkpt>
      <trkpt lat="49.03371" lon="7.73305">
        <ele>383</ele>
        <time>2025-05-09T05:44:52.000Z</time>
      </trkpt>
      <trkpt lat="49.03367" lon="7.73309">
        <ele>383</ele>
        <time>2025-05-09T05:44:56.000Z</time>
      </trkpt>
      <trkpt lat="49.03361" lon="7.73309">
        <ele>383</ele>
        <time>2025-05-09T05:45:02.000Z</time>
      </trkpt>
      <trkpt lat="49.03357" lon="7.73315">
        <ele>383</ele>
        <time>2025-05-09T05:45:07.000Z</time>
      </trkpt>
      <trkpt lat="49.03349" lon="7.73326">
        <ele>383</ele>
        <time>2025-05-09T05:45:18.000Z</time>
      </trkpt>
      <trkpt lat="49.03341" lon="7.73352">
        <ele>383</ele>
        <time>2025-05-09T05:45:37.000Z</time>
      </trkpt>
      <trkpt lat="49.0334" lon="7.73367">
        <ele>383</ele>
        <time>2025-05-09T05:45:48.000Z</time>
      </trkpt>
      <trkpt lat="49.0334" lon="7.73374">
        <ele>383</ele>
        <time>2025-05-09T05:45:53.000Z</time>
      </trkpt>
      <trkpt lat="49.03339" lon="7.7338">
        <ele>383</ele>
        <time>2025-05-09T05:45:57.000Z</time>
      </trkpt>
      <trkpt lat="49.03336" lon="7.73387">
        <ele>383</ele>
        <time>2025-05-09T05:46:02.000Z</time>
      </trkpt>
      <trkpt lat="49.03333" lon="7.73411">
        <ele>383</ele>
        <time>2025-05-09T05:46:17.000Z</time>
      </trkpt>
      <trkpt lat="49.03333" lon="7.73434">
        <ele>384</ele>
        <time>2025-05-09T05:46:33.000Z</time>
      </trkpt>
      <trkpt lat="49.03337" lon="7.73468">
        <ele>384</ele>
        <time>2025-05-09T05:46:53.000Z</time>
      </trkpt>
      <trkpt lat="49.03338" lon="7.73475">
        <ele>384</ele>
        <time>2025-05-09T05:46:58.000Z</time>
      </trkpt>
      <trkpt lat="49.03339" lon="7.73483">
        <ele>384</ele>
        <time>2025-05-09T05:47:02.000Z</time>
      </trkpt>
      <trkpt lat="49.03349" lon="7.73531">
        <ele>385</ele>
        <time>2025-05-09T05:47:32.000Z</time>
      </trkpt>
      <trkpt lat="49.03353" lon="7.73541">
        <ele>385</ele>
        <time>2025-05-09T05:47:40.000Z</time>
      </trkpt>
      <trkpt lat="49.03347" lon="7.7355">
        <ele>385</ele>
        <time>2025-05-09T05:47:53.000Z</time>
      </trkpt>
      <trkpt lat="49.03342" lon="7.73557">
        <ele>382</ele>
        <time>2025-05-09T05:48:01.000Z</time>
      </trkpt>
      <trkpt lat="49.03341" lon="7.73563">
        <ele>382</ele>
        <time>2025-05-09T05:48:05.000Z</time>
      </trkpt>
      <trkpt lat="49.03339" lon="7.73571">
        <ele>380</ele>
        <time>2025-05-09T05:48:13.000Z</time>
      </trkpt>
      <trkpt lat="49.0334" lon="7.73579">
        <ele>379</ele>
        <time>2025-05-09T05:48:19.000Z</time>
      </trkpt>
      <trkpt lat="49.03353" lon="7.73611">
        <ele>376</ele>
        <time>2025-05-09T05:48:46.000Z</time>
      </trkpt>
      <trkpt lat="49.03359" lon="7.7362">
        <ele>376</ele>
        <time>2025-05-09T05:48:56.000Z</time>
      </trkpt>
      <trkpt lat="49.03373" lon="7.73628">
        <ele>375</ele>
        <time>2025-05-09T05:49:11.000Z</time>
      </trkpt>
      <trkpt lat="49.03382" lon="7.73635">
        <ele>372</ele>
        <time>2025-05-09T05:49:20.000Z</time>
      </trkpt>
      <trkpt lat="49.03394" lon="7.73629">
        <ele>369</ele>
        <time>2025-05-09T05:49:30.000Z</time>
      </trkpt>
      <trkpt lat="49.03411" lon="7.73617">
        <ele>367</ele>
        <time>2025-05-09T05:49:48.000Z</time>
      </trkpt>
      <trkpt lat="49.0344" lon="7.73621">
        <ele>364</ele>
        <time>2025-05-09T05:50:11.000Z</time>
      </trkpt>
      <trkpt lat="49.03446" lon="7.73624">
        <ele>364</ele>
        <time>2025-05-09T05:50:16.000Z</time>
      </trkpt>
      <trkpt lat="49.03455" lon="7.73626">
        <ele>363</ele>
        <time>2025-05-09T05:50:25.000Z</time>
      </trkpt>
      <trkpt lat="49.03459" lon="7.73624">
        <ele>363</ele>
        <time>2025-05-09T05:50:29.000Z</time>
      </trkpt>
      <trkpt lat="49.03475" lon="7.73627">
        <ele>362</ele>
        <time>2025-05-09T05:50:47.000Z</time>
      </trkpt>
      <trkpt lat="49.0348" lon="7.73625">
        <ele>362</ele>
        <time>2025-05-09T05:50:53.000Z</time>
      </trkpt>
      <trkpt lat="49.03485" lon="7.73627">
        <ele>362</ele>
        <time>2025-05-09T05:50:58.000Z</time>
      </trkpt>
      <trkpt lat="49.03493" lon="7.7363">
        <ele>362</ele>
        <time>2025-05-09T05:51:05.000Z</time>
      </trkpt>
      <trkpt lat="49.03499" lon="7.73629">
        <ele>362</ele>
        <time>2025-05-09T05:51:12.000Z</time>
      </trkpt>
      <trkpt lat="49.03504" lon="7.73627">
        <ele>361</ele>
        <time>2025-05-09T05:51:18.000Z</time>
      </trkpt>
      <trkpt lat="49.03509" lon="7.73624">
        <ele>362</ele>
        <time>2025-05-09T05:51:24.000Z</time>
      </trkpt>
      <trkpt lat="49.03515" lon="7.73625">
        <ele>362</ele>
        <time>2025-05-09T05:51:27.000Z</time>
      </trkpt>
      <trkpt lat="49.0352" lon="7.73622">
        <ele>362</ele>
        <time>2025-05-09T05:51:32.000Z</time>
      </trkpt>
      <trkpt lat="49.03526" lon="7.73625">
        <ele>362</ele>
        <time>2025-05-09T05:51:35.000Z</time>
      </trkpt>
      <trkpt lat="49.03529" lon="7.7363">
        <ele>362</ele>
        <time>2025-05-09T05:51:38.000Z</time>
      </trkpt>
      <trkpt lat="49.03536" lon="7.73634">
        <ele>362</ele>
        <time>2025-05-09T05:51:46.000Z</time>
      </trkpt>
      <trkpt lat="49.03539" lon="7.73637">
        <ele>361</ele>
        <time>2025-05-09T05:51:51.000Z</time>
      </trkpt>
      <trkpt lat="49.03546" lon="7.73638">
        <ele>362</ele>
        <time>2025-05-09T05:52:03.000Z</time>
      </trkpt>
      <trkpt lat="49.03551" lon="7.73638">
        <ele>361</ele>
        <time>2025-05-09T05:52:07.000Z</time>
      </trkpt>
      <trkpt lat="49.03556" lon="7.73641">
        <ele>361</ele>
        <time>2025-05-09T05:52:11.000Z</time>
      </trkpt>
      <trkpt lat="49.0356" lon="7.73641">
        <ele>361</ele>
        <time>2025-05-09T05:52:15.000Z</time>
      </trkpt>
      <trkpt lat="49.03575" lon="7.73642">
        <ele>361</ele>
        <time>2025-05-09T05:52:31.000Z</time>
      </trkpt>
      <trkpt lat="49.03597" lon="7.73647">
        <ele>361</ele>
        <time>2025-05-09T05:52:51.000Z</time>
      </trkpt>
      <trkpt lat="49.03612" lon="7.7365">
        <ele>362</ele>
        <time>2025-05-09T05:53:03.000Z</time>
      </trkpt>
      <trkpt lat="49.03619" lon="7.73652">
        <ele>361</ele>
        <time>2025-05-09T05:53:11.000Z</time>
      </trkpt>
      <trkpt lat="49.03652" lon="7.73658">
        <ele>360</ele>
        <time>2025-05-09T05:53:39.000Z</time>
      </trkpt>
      <trkpt lat="49.03665" lon="7.73662">
        <ele>361</ele>
        <time>2025-05-09T05:53:50.000Z</time>
      </trkpt>
      <trkpt lat="49.03669" lon="7.73664">
        <ele>362</ele>
        <time>2025-05-09T05:53:55.000Z</time>
      </trkpt>
      <trkpt lat="49.03689" lon="7.73671">
        <ele>362</ele>
        <time>2025-05-09T05:54:13.000Z</time>
      </trkpt>
      <trkpt lat="49.03696" lon="7.73674">
        <ele>363</ele>
        <time>2025-05-09T05:54:22.000Z</time>
      </trkpt>
      <trkpt lat="49.037" lon="7.73675">
        <ele>362</ele>
        <time>2025-05-09T05:54:26.000Z</time>
      </trkpt>
      <trkpt lat="49.03723" lon="7.73686">
        <ele>361</ele>
        <time>2025-05-09T05:54:52.000Z</time>
      </trkpt>
      <trkpt lat="49.03731" lon="7.73689">
        <ele>361</ele>
        <time>2025-05-09T05:55:02.000Z</time>
      </trkpt>
      <trkpt lat="49.03754" lon="7.73702">
        <ele>360</ele>
        <time>2025-05-09T05:55:29.000Z</time>
      </trkpt>
      <trkpt lat="49.03759" lon="7.73705">
        <ele>360</ele>
        <time>2025-05-09T05:55:33.000Z</time>
      </trkpt>
      <trkpt lat="49.03771" lon="7.73714">
        <ele>358</ele>
        <time>2025-05-09T05:55:45.000Z</time>
      </trkpt>
      <trkpt lat="49.03779" lon="7.7372">
        <ele>359</ele>
        <time>2025-05-09T05:55:53.000Z</time>
      </trkpt>
      <trkpt lat="49.03794" lon="7.73736">
        <ele>360</ele>
        <time>2025-05-09T05:56:10.000Z</time>
      </trkpt>
      <trkpt lat="49.03797" lon="7.73741">
        <ele>360</ele>
        <time>2025-05-09T05:56:16.000Z</time>
      </trkpt>
      <trkpt lat="49.03803" lon="7.7375">
        <ele>359</ele>
        <time>2025-05-09T05:56:29.000Z</time>
      </trkpt>
      <trkpt lat="49.03808" lon="7.73758">
        <ele>359</ele>
        <time>2025-05-09T05:56:36.000Z</time>
      </trkpt>
      <trkpt lat="49.03811" lon="7.73764">
        <ele>359</ele>
        <time>2025-05-09T05:56:39.000Z</time>
      </trkpt>
      <trkpt lat="49.03814" lon="7.73768">
        <ele>358</ele>
        <time>2025-05-09T05:56:43.000Z</time>
      </trkpt>
      <trkpt lat="49.03816" lon="7.73773">
        <ele>358</ele>
        <time>2025-05-09T05:56:46.000Z</time>
      </trkpt>
      <trkpt lat="49.03819" lon="7.7378">
        <ele>358</ele>
        <time>2025-05-09T05:56:51.000Z</time>
      </trkpt>
      <trkpt lat="49.03821" lon="7.73784">
        <ele>358</ele>
        <time>2025-05-09T05:56:56.000Z</time>
      </trkpt>
      <trkpt lat="49.03832" lon="7.7381">
        <ele>359</ele>
        <time>2025-05-09T05:57:16.000Z</time>
      </trkpt>
      <trkpt lat="49.03837" lon="7.73833">
        <ele>358</ele>
        <time>2025-05-09T05:57:32.000Z</time>
      </trkpt>
      <trkpt lat="49.03841" lon="7.73838">
        <ele>358</ele>
        <time>2025-05-09T05:57:37.000Z</time>
      </trkpt>
      <trkpt lat="49.03843" lon="7.73849">
        <ele>359</ele>
        <time>2025-05-09T05:57:43.000Z</time>
      </trkpt>
      <trkpt lat="49.03844" lon="7.7386">
        <ele>359</ele>
        <time>2025-05-09T05:57:51.000Z</time>
      </trkpt>
      <trkpt lat="49.03844" lon="7.73901">
        <ele>352</ele>
        <time>2025-05-09T05:58:26.000Z</time>
      </trkpt>
      <trkpt lat="49.03862" lon="7.73935">
        <ele>353</ele>
        <time>2025-05-09T05:58:46.000Z</time>
      </trkpt>
      <trkpt lat="49.03866" lon="7.73958">
        <ele>354</ele>
        <time>2025-05-09T05:59:02.000Z</time>
      </trkpt>
      <trkpt lat="49.03866" lon="7.73965">
        <ele>355</ele>
        <time>2025-05-09T05:59:07.000Z</time>
      </trkpt>
      <trkpt lat="49.03864" lon="7.73972">
        <ele>355</ele>
        <time>2025-05-09T05:59:12.000Z</time>
      </trkpt>
      <trkpt lat="49.03861" lon="7.7398">
        <ele>355</ele>
        <time>2025-05-09T05:59:29.000Z</time>
      </trkpt>
      <trkpt lat="49.03866" lon="7.74034">
        <ele>358</ele>
        <time>2025-05-09T06:00:02.000Z</time>
      </trkpt>
      <trkpt lat="49.03869" lon="7.74066">
        <ele>360</ele>
        <time>2025-05-09T06:00:24.000Z</time>
      </trkpt>
      <trkpt lat="49.03866" lon="7.74087">
        <ele>361</ele>
        <time>2025-05-09T06:00:40.000Z</time>
      </trkpt>
      <trkpt lat="49.03866" lon="7.74105">
        <ele>357</ele>
        <time>2025-05-09T06:00:56.000Z</time>
      </trkpt>
      <trkpt lat="49.03858" lon="7.74116">
        <ele>354</ele>
        <time>2025-05-09T06:01:10.000Z</time>
      </trkpt>
      <trkpt lat="49.03854" lon="7.74107">
        <ele>352</ele>
        <time>2025-05-09T06:01:22.000Z</time>
      </trkpt>
      <trkpt lat="49.03846" lon="7.74099">
        <ele>349</ele>
        <time>2025-05-09T06:01:29.000Z</time>
      </trkpt>
      <trkpt lat="49.03846" lon="7.74101">
        <ele>345</ele>
        <time>2025-05-09T06:01:47.000Z</time>
      </trkpt>
      <trkpt lat="49.03845" lon="7.74108">
        <ele>345</ele>
        <time>2025-05-09T06:01:51.000Z</time>
      </trkpt>
      <trkpt lat="49.03839" lon="7.74116">
        <ele>344</ele>
        <time>2025-05-09T06:01:57.000Z</time>
      </trkpt>
      <trkpt lat="49.03838" lon="7.74123">
        <ele>344</ele>
        <time>2025-05-09T06:02:00.000Z</time>
      </trkpt>
      <trkpt lat="49.03839" lon="7.7413">
        <ele>343</ele>
        <time>2025-05-09T06:02:02.000Z</time>
      </trkpt>
      <trkpt lat="49.03847" lon="7.74137">
        <ele>343</ele>
        <time>2025-05-09T06:02:04.000Z</time>
      </trkpt>
      <trkpt lat="49.03847" lon="7.74142">
        <ele>342</ele>
        <time>2025-05-09T06:02:09.000Z</time>
      </trkpt>
      <trkpt lat="49.03838" lon="7.74189">
        <ele>336</ele>
        <time>2025-05-09T06:02:42.000Z</time>
      </trkpt>
      <trkpt lat="49.03831" lon="7.74219">
        <ele>334</ele>
        <time>2025-05-09T06:02:59.000Z</time>
      </trkpt>
      <trkpt lat="49.03827" lon="7.74229">
        <ele>333</ele>
        <time>2025-05-09T06:03:06.000Z</time>
      </trkpt>
      <trkpt lat="49.03822" lon="7.74229">
        <ele>332</ele>
        <time>2025-05-09T06:03:09.000Z</time>
      </trkpt>
      <trkpt lat="49.03811" lon="7.74231">
        <ele>331</ele>
        <time>2025-05-09T06:03:14.000Z</time>
      </trkpt>
      <trkpt lat="49.03803" lon="7.74239">
        <ele>330</ele>
        <time>2025-05-09T06:03:22.000Z</time>
      </trkpt>
      <trkpt lat="49.03799" lon="7.74236">
        <ele>330</ele>
        <time>2025-05-09T06:03:25.000Z</time>
      </trkpt>
      <trkpt lat="49.03794" lon="7.74236">
        <ele>329</ele>
        <time>2025-05-09T06:03:28.000Z</time>
      </trkpt>
      <trkpt lat="49.03784" lon="7.7424">
        <ele>328</ele>
        <time>2025-05-09T06:03:36.000Z</time>
      </trkpt>
      <trkpt lat="49.0377" lon="7.7425">
        <ele>327</ele>
        <time>2025-05-09T06:03:49.000Z</time>
      </trkpt>
      <trkpt lat="49.03745" lon="7.74282">
        <ele>322</ele>
        <time>2025-05-09T06:04:22.000Z</time>
      </trkpt>
      <trkpt lat="49.0374" lon="7.74289">
        <ele>322</ele>
        <time>2025-05-09T06:04:29.000Z</time>
      </trkpt>
      <trkpt lat="49.03736" lon="7.74293">
        <ele>322</ele>
        <time>2025-05-09T06:04:34.000Z</time>
      </trkpt>
      <trkpt lat="49.03731" lon="7.74297">
        <ele>321</ele>
        <time>2025-05-09T06:04:55.000Z</time>
      </trkpt>
      <trkpt lat="49.03729" lon="7.74305">
        <ele>321</ele>
        <time>2025-05-09T06:04:59.000Z</time>
      </trkpt>
      <trkpt lat="49.03727" lon="7.7431">
        <ele>321</ele>
        <time>2025-05-09T06:05:02.000Z</time>
      </trkpt>
      <trkpt lat="49.03726" lon="7.74317">
        <ele>319</ele>
        <time>2025-05-09T06:05:10.000Z</time>
      </trkpt>
      <trkpt lat="49.03728" lon="7.74327">
        <ele>320</ele>
        <time>2025-05-09T06:05:28.000Z</time>
      </trkpt>
      <trkpt lat="49.0373" lon="7.74338">
        <ele>321</ele>
        <time>2025-05-09T06:05:56.000Z</time>
      </trkpt>
      <trkpt lat="49.03727" lon="7.7435">
        <ele>320</ele>
        <time>2025-05-09T06:06:06.000Z</time>
      </trkpt>
      <trkpt lat="49.03732" lon="7.74359">
        <ele>319</ele>
        <time>2025-05-09T06:06:14.000Z</time>
      </trkpt>
      <trkpt lat="49.03743" lon="7.74367">
        <ele>318</ele>
        <time>2025-05-09T06:06:28.000Z</time>
      </trkpt>
      <trkpt lat="49.03753" lon="7.74377">
        <ele>316</ele>
        <time>2025-05-09T06:06:38.000Z</time>
      </trkpt>
      <trkpt lat="49.03765" lon="7.74393">
        <ele>316</ele>
        <time>2025-05-09T06:06:51.000Z</time>
      </trkpt>
      <trkpt lat="49.03773" lon="7.74413">
        <ele>318</ele>
        <time>2025-05-09T06:07:03.000Z</time>
      </trkpt>
      <trkpt lat="49.03777" lon="7.74414">
        <ele>318</ele>
        <time>2025-05-09T06:07:07.000Z</time>
      </trkpt>
      <trkpt lat="49.03781" lon="7.74423">
        <ele>319</ele>
        <time>2025-05-09T06:07:15.000Z</time>
      </trkpt>
      <trkpt lat="49.03786" lon="7.74428">
        <ele>321</ele>
        <time>2025-05-09T06:07:21.000Z</time>
      </trkpt>
      <trkpt lat="49.03794" lon="7.74431">
        <ele>322</ele>
        <time>2025-05-09T06:07:35.000Z</time>
      </trkpt>
      <trkpt lat="49.03796" lon="7.74435">
        <ele>322</ele>
        <time>2025-05-09T06:07:38.000Z</time>
      </trkpt>
      <trkpt lat="49.03798" lon="7.74442">
        <ele>323</ele>
        <time>2025-05-09T06:07:44.000Z</time>
      </trkpt>
      <trkpt lat="49.03801" lon="7.74447">
        <ele>323</ele>
        <time>2025-05-09T06:07:47.000Z</time>
      </trkpt>
      <trkpt lat="49.03801" lon="7.74456">
        <ele>324</ele>
        <time>2025-05-09T06:07:53.000Z</time>
      </trkpt>
      <trkpt lat="49.03804" lon="7.74463">
        <ele>325</ele>
        <time>2025-05-09T06:08:02.000Z</time>
      </trkpt>
      <trkpt lat="49.03812" lon="7.74477">
        <ele>326</ele>
        <time>2025-05-09T06:08:11.000Z</time>
      </trkpt>
      <trkpt lat="49.03819" lon="7.74477">
        <ele>327</ele>
        <time>2025-05-09T06:08:18.000Z</time>
      </trkpt>
      <trkpt lat="49.03825" lon="7.7448">
        <ele>328</ele>
        <time>2025-05-09T06:08:24.000Z</time>
      </trkpt>
      <trkpt lat="49.0383" lon="7.74489">
        <ele>329</ele>
        <time>2025-05-09T06:08:27.000Z</time>
      </trkpt>
      <trkpt lat="49.0383" lon="7.74495">
        <ele>329</ele>
        <time>2025-05-09T06:08:31.000Z</time>
      </trkpt>
      <trkpt lat="49.0383" lon="7.74507">
        <ele>329</ele>
        <time>2025-05-09T06:08:36.000Z</time>
      </trkpt>
      <trkpt lat="49.03829" lon="7.74513">
        <ele>330</ele>
        <time>2025-05-09T06:08:40.000Z</time>
      </trkpt>
      <trkpt lat="49.0383" lon="7.7452">
        <ele>330</ele>
        <time>2025-05-09T06:08:45.000Z</time>
      </trkpt>
      <trkpt lat="49.03832" lon="7.74526">
        <ele>330</ele>
        <time>2025-05-09T06:08:50.000Z</time>
      </trkpt>
      <trkpt lat="49.03836" lon="7.74536">
        <ele>330</ele>
        <time>2025-05-09T06:09:01.000Z</time>
      </trkpt>
      <trkpt lat="49.0384" lon="7.74539">
        <ele>332</ele>
        <time>2025-05-09T06:09:07.000Z</time>
      </trkpt>
      <trkpt lat="49.0384" lon="7.74553">
        <ele>333</ele>
        <time>2025-05-09T06:09:17.000Z</time>
      </trkpt>
      <trkpt lat="49.03845" lon="7.7457">
        <ele>334</ele>
        <time>2025-05-09T06:09:29.000Z</time>
      </trkpt>
      <trkpt lat="49.03849" lon="7.74593">
        <ele>333</ele>
        <time>2025-05-09T06:09:46.000Z</time>
      </trkpt>
      <trkpt lat="49.03854" lon="7.74606">
        <ele>334</ele>
        <time>2025-05-09T06:09:54.000Z</time>
      </trkpt>
      <trkpt lat="49.03855" lon="7.74613">
        <ele>334</ele>
        <time>2025-05-09T06:09:59.000Z</time>
      </trkpt>
      <trkpt lat="49.03857" lon="7.74621">
        <ele>335</ele>
        <time>2025-05-09T06:10:06.000Z</time>
      </trkpt>
      <trkpt lat="49.03859" lon="7.74628">
        <ele>335</ele>
        <time>2025-05-09T06:10:09.000Z</time>
      </trkpt>
      <trkpt lat="49.03863" lon="7.74647">
        <ele>335</ele>
        <time>2025-05-09T06:10:18.000Z</time>
      </trkpt>
      <trkpt lat="49.03866" lon="7.74653">
        <ele>336</ele>
        <time>2025-05-09T06:10:21.000Z</time>
      </trkpt>
      <trkpt lat="49.03868" lon="7.74672">
        <ele>337</ele>
        <time>2025-05-09T06:10:32.000Z</time>
      </trkpt>
      <trkpt lat="49.03868" lon="7.7469">
        <ele>337</ele>
        <time>2025-05-09T06:10:42.000Z</time>
      </trkpt>
      <trkpt lat="49.03868" lon="7.74698">
        <ele>337</ele>
        <time>2025-05-09T06:10:48.000Z</time>
      </trkpt>
      <trkpt lat="49.03867" lon="7.74712">
        <ele>337</ele>
        <time>2025-05-09T06:10:55.000Z</time>
      </trkpt>
      <trkpt lat="49.03867" lon="7.74727">
        <ele>337</ele>
        <time>2025-05-09T06:11:04.000Z</time>
      </trkpt>
      <trkpt lat="49.03867" lon="7.74738">
        <ele>337</ele>
        <time>2025-05-09T06:11:09.000Z</time>
      </trkpt>
      <trkpt lat="49.03867" lon="7.74748">
        <ele>338</ele>
        <time>2025-05-09T06:11:16.000Z</time>
      </trkpt>
      <trkpt lat="49.03865" lon="7.7477">
        <ele>342</ele>
        <time>2025-05-09T06:11:40.000Z</time>
      </trkpt>
      <trkpt lat="49.03863" lon="7.7478">
        <ele>343</ele>
        <time>2025-05-09T06:11:46.000Z</time>
      </trkpt>
      <trkpt lat="49.03854" lon="7.74814">
        <ele>342</ele>
        <time>2025-05-09T06:12:04.000Z</time>
      </trkpt>
      <trkpt lat="49.03851" lon="7.74816">
        <ele>342</ele>
        <time>2025-05-09T06:12:13.000Z</time>
      </trkpt>
      <trkpt lat="49.03846" lon="7.7483">
        <ele>341</ele>
        <time>2025-05-09T06:12:24.000Z</time>
      </trkpt>
      <trkpt lat="49.03829" lon="7.74866">
        <ele>341</ele>
        <time>2025-05-09T06:12:49.000Z</time>
      </trkpt>
      <trkpt lat="49.03817" lon="7.74878">
        <ele>341</ele>
        <time>2025-05-09T06:12:59.000Z</time>
      </trkpt>
      <trkpt lat="49.03802" lon="7.7488">
        <ele>340</ele>
        <time>2025-05-09T06:13:11.000Z</time>
      </trkpt>
      <trkpt lat="49.03788" lon="7.74879">
        <ele>340</ele>
        <time>2025-05-09T06:13:20.000Z</time>
      </trkpt>
      <trkpt lat="49.03783" lon="7.74872">
        <ele>340</ele>
        <time>2025-05-09T06:13:24.000Z</time>
      </trkpt>
      <trkpt lat="49.03777" lon="7.74872">
        <ele>340</ele>
        <time>2025-05-09T06:13:30.000Z</time>
      </trkpt>
      <trkpt lat="49.03764" lon="7.74874">
        <ele>339</ele>
        <time>2025-05-09T06:13:45.000Z</time>
      </trkpt>
      <trkpt lat="49.03759" lon="7.74876">
        <ele>339</ele>
        <time>2025-05-09T06:13:50.000Z</time>
      </trkpt>
      <trkpt lat="49.03754" lon="7.74877">
        <ele>339</ele>
        <time>2025-05-09T06:13:55.000Z</time>
      </trkpt>
      <trkpt lat="49.03711" lon="7.74886">
        <ele>338</ele>
        <time>2025-05-09T06:14:27.000Z</time>
      </trkpt>
      <trkpt lat="49.03673" lon="7.74892">
        <ele>337</ele>
        <time>2025-05-09T06:15:00.000Z</time>
      </trkpt>
      <trkpt lat="49.03648" lon="7.74902">
        <ele>336</ele>
        <time>2025-05-09T06:15:22.000Z</time>
      </trkpt>
      <trkpt lat="49.03621" lon="7.74926">
        <ele>335</ele>
        <time>2025-05-09T06:15:50.000Z</time>
      </trkpt>
      <trkpt lat="49.03618" lon="7.7493">
        <ele>335</ele>
        <time>2025-05-09T06:15:55.000Z</time>
      </trkpt>
      <trkpt lat="49.03614" lon="7.74935">
        <ele>335</ele>
        <time>2025-05-09T06:15:59.000Z</time>
      </trkpt>
      <trkpt lat="49.0361" lon="7.74938">
        <ele>335</ele>
        <time>2025-05-09T06:16:03.000Z</time>
      </trkpt>
      <trkpt lat="49.03597" lon="7.74955">
        <ele>334</ele>
        <time>2025-05-09T06:16:21.000Z</time>
      </trkpt>
      <trkpt lat="49.03576" lon="7.74996">
        <ele>333</ele>
        <time>2025-05-09T06:16:54.000Z</time>
      </trkpt>
      <trkpt lat="49.03574" lon="7.75003">
        <ele>333</ele>
        <time>2025-05-09T06:16:58.000Z</time>
      </trkpt>
      <trkpt lat="49.03567" lon="7.75025">
        <ele>332</ele>
        <time>2025-05-09T06:17:12.000Z</time>
      </trkpt>
      <trkpt lat="49.03565" lon="7.75033">
        <ele>333</ele>
        <time>2025-05-09T06:17:16.000Z</time>
      </trkpt>
      <trkpt lat="49.03558" lon="7.75069">
        <ele>331</ele>
        <time>2025-05-09T06:17:36.000Z</time>
      </trkpt>
      <trkpt lat="49.03555" lon="7.75083">
        <ele>332</ele>
        <time>2025-05-09T06:17:45.000Z</time>
      </trkpt>
      <trkpt lat="49.03554" lon="7.75093">
        <ele>331</ele>
        <time>2025-05-09T06:17:51.000Z</time>
      </trkpt>
      <trkpt lat="49.03553" lon="7.75099">
        <ele>332</ele>
        <time>2025-05-09T06:17:54.000Z</time>
      </trkpt>
      <trkpt lat="49.03552" lon="7.75107">
        <ele>332</ele>
        <time>2025-05-09T06:17:56.000Z</time>
      </trkpt>
      <trkpt lat="49.03552" lon="7.75146">
        <ele>330</ele>
        <time>2025-05-09T06:18:21.000Z</time>
      </trkpt>
      <trkpt lat="49.03552" lon="7.75153">
        <ele>330</ele>
        <time>2025-05-09T06:18:29.000Z</time>
      </trkpt>
      <trkpt lat="49.03552" lon="7.75161">
        <ele>331</ele>
        <time>2025-05-09T06:18:36.000Z</time>
      </trkpt>
      <trkpt lat="49.03552" lon="7.75172">
        <ele>331</ele>
        <time>2025-05-09T06:18:38.000Z</time>
      </trkpt>
      <trkpt lat="49.03549" lon="7.75177">
        <ele>332</ele>
        <time>2025-05-09T06:18:40.000Z</time>
      </trkpt>
      <trkpt lat="49.0356" lon="7.75183">
        <ele>333</ele>
        <time>2025-05-09T06:18:48.000Z</time>
      </trkpt>
      <trkpt lat="49.03565" lon="7.75178">
        <ele>335</ele>
        <time>2025-05-09T06:18:55.000Z</time>
      </trkpt>
      <trkpt lat="49.03571" lon="7.7518">
        <ele>335</ele>
        <time>2025-05-09T06:18:58.000Z</time>
      </trkpt>
      <trkpt lat="49.0357" lon="7.75177">
        <ele>337</ele>
        <time>2025-05-09T06:19:15.000Z</time>
      </trkpt>
      <trkpt lat="49.03564" lon="7.75177">
        <ele>337</ele>
        <time>2025-05-09T06:19:18.000Z</time>
      </trkpt>
      <trkpt lat="49.03554" lon="7.75186">
        <ele>336</ele>
        <time>2025-05-09T06:19:56.000Z</time>
      </trkpt>
      <trkpt lat="49.03558" lon="7.75191">
        <ele>336</ele>
        <time>2025-05-09T06:20:43.000Z</time>
      </trkpt>
      <trkpt lat="49.03565" lon="7.75188">
        <ele>336</ele>
        <time>2025-05-09T06:20:58.000Z</time>
      </trkpt>
      <trkpt lat="49.03564" lon="7.75181">
        <ele>336</ele>
        <time>2025-05-09T06:21:06.000Z</time>
      </trkpt>
      <trkpt lat="49.03565" lon="7.75173">
        <ele>336</ele>
        <time>2025-05-09T06:21:21.000Z</time>
      </trkpt>
      <trkpt lat="49.03558" lon="7.75173">
        <ele>335</ele>
        <time>2025-05-09T06:21:40.000Z</time>
      </trkpt>
      <trkpt lat="49.03557" lon="7.75172">
        <ele>335</ele>
        <time>2025-05-09T06:22:02.000Z</time>
      </trkpt>
      <trkpt lat="49.03552" lon="7.7515">
        <ele>331</ele>
        <time>2025-05-09T06:22:22.000Z</time>
      </trkpt>
      <trkpt lat="49.03551" lon="7.75159">
        <ele>328</ele>
        <time>2025-05-09T06:22:40.000Z</time>
      </trkpt>
      <trkpt lat="49.03552" lon="7.75172">
        <ele>328</ele>
        <time>2025-05-09T06:22:45.000Z</time>
      </trkpt>
      <trkpt lat="49.03552" lon="7.75179">
        <ele>328</ele>
        <time>2025-05-09T06:22:49.000Z</time>
      </trkpt>
      <trkpt lat="49.03556" lon="7.75228">
        <ele>327</ele>
        <time>2025-05-09T06:23:18.000Z</time>
      </trkpt>
      <trkpt lat="49.03557" lon="7.75242">
        <ele>326</ele>
        <time>2025-05-09T06:23:26.000Z</time>
      </trkpt>
      <trkpt lat="49.03559" lon="7.75256">
        <ele>326</ele>
        <time>2025-05-09T06:23:35.000Z</time>
      </trkpt>
      <trkpt lat="49.0356" lon="7.7527">
        <ele>326</ele>
        <time>2025-05-09T06:23:43.000Z</time>
      </trkpt>
      <trkpt lat="49.03564" lon="7.75326">
        <ele>324</ele>
        <time>2025-05-09T06:24:15.000Z</time>
      </trkpt>
      <trkpt lat="49.03568" lon="7.75372">
        <ele>323</ele>
        <time>2025-05-09T06:24:41.000Z</time>
      </trkpt>
      <trkpt lat="49.03565" lon="7.75432">
        <ele>321</ele>
        <time>2025-05-09T06:25:13.000Z</time>
      </trkpt>
      <trkpt lat="49.03565" lon="7.7544">
        <ele>321</ele>
        <time>2025-05-09T06:25:16.000Z</time>
      </trkpt>
      <trkpt lat="49.03565" lon="7.75446">
        <ele>322</ele>
        <time>2025-05-09T06:25:21.000Z</time>
      </trkpt>
      <trkpt lat="49.03564" lon="7.75454">
        <ele>321</ele>
        <time>2025-05-09T06:25:24.000Z</time>
      </trkpt>
      <trkpt lat="49.03559" lon="7.75518">
        <ele>319</ele>
        <time>2025-05-09T06:25:58.000Z</time>
      </trkpt>
      <trkpt lat="49.03559" lon="7.75525">
        <ele>319</ele>
        <time>2025-05-09T06:26:02.000Z</time>
      </trkpt>
      <trkpt lat="49.03557" lon="7.7556">
        <ele>318</ele>
        <time>2025-05-09T06:26:33.000Z</time>
      </trkpt>
      <trkpt lat="49.03557" lon="7.75574">
        <ele>317</ele>
        <time>2025-05-09T06:26:39.000Z</time>
      </trkpt>
      <trkpt lat="49.03558" lon="7.75581">
        <ele>317</ele>
        <time>2025-05-09T06:26:44.000Z</time>
      </trkpt>
      <trkpt lat="49.03557" lon="7.75588">
        <ele>317</ele>
        <time>2025-05-09T06:26:49.000Z</time>
      </trkpt>
      <trkpt lat="49.03558" lon="7.75596">
        <ele>317</ele>
        <time>2025-05-09T06:26:53.000Z</time>
      </trkpt>
      <trkpt lat="49.03552" lon="7.75654">
        <ele>315</ele>
        <time>2025-05-09T06:27:27.000Z</time>
      </trkpt>
      <trkpt lat="49.03551" lon="7.75661">
        <ele>315</ele>
        <time>2025-05-09T06:27:32.000Z</time>
      </trkpt>
      <trkpt lat="49.03548" lon="7.7567">
        <ele>315</ele>
        <time>2025-05-09T06:27:39.000Z</time>
      </trkpt>
      <trkpt lat="49.03547" lon="7.75677">
        <ele>315</ele>
        <time>2025-05-09T06:27:43.000Z</time>
      </trkpt>
      <trkpt lat="49.03547" lon="7.75686">
        <ele>315</ele>
        <time>2025-05-09T06:27:50.000Z</time>
      </trkpt>
      <trkpt lat="49.03545" lon="7.75735">
        <ele>313</ele>
        <time>2025-05-09T06:28:23.000Z</time>
      </trkpt>
      <trkpt lat="49.03545" lon="7.75741">
        <ele>313</ele>
        <time>2025-05-09T06:28:36.000Z</time>
      </trkpt>
      <trkpt lat="49.03546" lon="7.75751">
        <ele>313</ele>
        <time>2025-05-09T06:28:47.000Z</time>
      </trkpt>
      <trkpt lat="49.03547" lon="7.75762">
        <ele>313</ele>
        <time>2025-05-09T06:28:59.000Z</time>
      </trkpt>
      <trkpt lat="49.03547" lon="7.75768">
        <ele>312</ele>
        <time>2025-05-09T06:29:05.000Z</time>
      </trkpt>
      <trkpt lat="49.03548" lon="7.75784">
        <ele>311</ele>
        <time>2025-05-09T06:29:15.000Z</time>
      </trkpt>
      <trkpt lat="49.03549" lon="7.75791">
        <ele>311</ele>
        <time>2025-05-09T06:29:21.000Z</time>
      </trkpt>
      <trkpt lat="49.03557" lon="7.75828">
        <ele>310</ele>
        <time>2025-05-09T06:29:46.000Z</time>
      </trkpt>
      <trkpt lat="49.03574" lon="7.75873">
        <ele>308</ele>
        <time>2025-05-09T06:30:17.000Z</time>
      </trkpt>
      <trkpt lat="49.03586" lon="7.75914">
        <ele>306</ele>
        <time>2025-05-09T06:30:42.000Z</time>
      </trkpt>
      <trkpt lat="49.03589" lon="7.7595">
        <ele>304</ele>
        <time>2025-05-09T06:31:05.000Z</time>
      </trkpt>
      <trkpt lat="49.03589" lon="7.75995">
        <ele>302</ele>
        <time>2025-05-09T06:31:32.000Z</time>
      </trkpt>
      <trkpt lat="49.03586" lon="7.76012">
        <ele>300</ele>
        <time>2025-05-09T06:31:47.000Z</time>
      </trkpt>
      <trkpt lat="49.03581" lon="7.76016">
        <ele>299</ele>
        <time>2025-05-09T06:31:51.000Z</time>
      </trkpt>
      <trkpt lat="49.03578" lon="7.7602">
        <ele>299</ele>
        <time>2025-05-09T06:31:54.000Z</time>
      </trkpt>
      <trkpt lat="49.0358" lon="7.76037">
        <ele>297</ele>
        <time>2025-05-09T06:32:05.000Z</time>
      </trkpt>
      <trkpt lat="49.03589" lon="7.76055">
        <ele>295</ele>
        <time>2025-05-09T06:32:17.000Z</time>
      </trkpt>
      <trkpt lat="49.03596" lon="7.76091">
        <ele>290</ele>
        <time>2025-05-09T06:32:43.000Z</time>
      </trkpt>
      <trkpt lat="49.03611" lon="7.7613">
        <ele>281</ele>
        <time>2025-05-09T06:33:21.000Z</time>
      </trkpt>
      <trkpt lat="49.03629" lon="7.76165">
        <ele>276</ele>
        <time>2025-05-09T06:33:47.000Z</time>
      </trkpt>
      <trkpt lat="49.03639" lon="7.76178">
        <ele>273</ele>
        <time>2025-05-09T06:34:00.000Z</time>
      </trkpt>
      <trkpt lat="49.03665" lon="7.76203">
        <ele>268</ele>
        <time>2025-05-09T06:34:32.000Z</time>
      </trkpt>
      <trkpt lat="49.03681" lon="7.76222">
        <ele>267</ele>
        <time>2025-05-09T06:34:51.000Z</time>
      </trkpt>
      <trkpt lat="49.03697" lon="7.76241">
        <ele>262</ele>
        <time>2025-05-09T06:35:24.000Z</time>
      </trkpt>
      <trkpt lat="49.03716" lon="7.76266">
        <ele>257</ele>
        <time>2025-05-09T06:35:51.000Z</time>
      </trkpt>
      <trkpt lat="49.0372" lon="7.76263">
        <ele>256</ele>
        <time>2025-05-09T06:35:53.000Z</time>
      </trkpt>
      <trkpt lat="49.03726" lon="7.76277">
        <ele>254</ele>
        <time>2025-05-09T06:36:03.000Z</time>
      </trkpt>
      <trkpt lat="49.03727" lon="7.76284">
        <ele>253</ele>
        <time>2025-05-09T06:36:07.000Z</time>
      </trkpt>
      <trkpt lat="49.03743" lon="7.76326">
        <ele>245</ele>
        <time>2025-05-09T06:36:40.000Z</time>
      </trkpt>
      <trkpt lat="49.03749" lon="7.76352">
        <ele>240</ele>
        <time>2025-05-09T06:37:01.000Z</time>
      </trkpt>
      <trkpt lat="49.03759" lon="7.76367">
        <ele>237</ele>
        <time>2025-05-09T06:37:14.000Z</time>
      </trkpt>
      <trkpt lat="49.03768" lon="7.76371">
        <ele>236</ele>
        <time>2025-05-09T06:37:20.000Z</time>
      </trkpt>
      <trkpt lat="49.03771" lon="7.7638">
        <ele>234</ele>
        <time>2025-05-09T06:37:27.000Z</time>
      </trkpt>
      <trkpt lat="49.03771" lon="7.76396">
        <ele>231</ele>
        <time>2025-05-09T06:37:48.000Z</time>
      </trkpt>
      <trkpt lat="49.03773" lon="7.7641">
        <ele>230</ele>
        <time>2025-05-09T06:37:59.000Z</time>
      </trkpt>
      <trkpt lat="49.03772" lon="7.76417">
        <ele>229</ele>
        <time>2025-05-09T06:38:03.000Z</time>
      </trkpt>
      <trkpt lat="49.03765" lon="7.76427">
        <ele>228</ele>
        <time>2025-05-09T06:38:06.000Z</time>
      </trkpt>
      <trkpt lat="49.03766" lon="7.76432">
        <ele>228</ele>
        <time>2025-05-09T06:38:09.000Z</time>
      </trkpt>
      <trkpt lat="49.03782" lon="7.76478">
        <ele>222</ele>
        <time>2025-05-09T06:38:40.000Z</time>
      </trkpt>
      <trkpt lat="49.03789" lon="7.76484">
        <ele>220</ele>
        <time>2025-05-09T06:38:48.000Z</time>
      </trkpt>
      <trkpt lat="49.0379" lon="7.76492">
        <ele>222</ele>
        <time>2025-05-09T06:38:52.000Z</time>
      </trkpt>
      <trkpt lat="49.03796" lon="7.76487">
        <ele>221</ele>
        <time>2025-05-09T06:38:53.000Z</time>
      </trkpt>
      <trkpt lat="49.03798" lon="7.76492">
        <ele>219</ele>
        <time>2025-05-09T06:38:57.000Z</time>
      </trkpt>
      <trkpt lat="49.03807" lon="7.76506">
        <ele>217</ele>
        <time>2025-05-09T06:39:12.000Z</time>
      </trkpt>
      <trkpt lat="49.03812" lon="7.76506">
        <ele>217</ele>
        <time>2025-05-09T06:39:18.000Z</time>
      </trkpt>
      <trkpt lat="49.03817" lon="7.76502">
        <ele>215</ele>
        <time>2025-05-09T06:39:26.000Z</time>
      </trkpt>
      <trkpt lat="49.0382" lon="7.76503">
        <ele>213</ele>
        <time>2025-05-09T06:40:37.000Z</time>
      </trkpt>
      <trkpt lat="49.03829" lon="7.76498">
        <ele>212</ele>
        <time>2025-05-09T06:40:46.000Z</time>
      </trkpt>
      <trkpt lat="49.03834" lon="7.76494">
        <ele>212</ele>
        <time>2025-05-09T06:40:51.000Z</time>
      </trkpt>
      <trkpt lat="49.03839" lon="7.76494">
        <ele>211</ele>
        <time>2025-05-09T06:40:54.000Z</time>
      </trkpt>
      <trkpt lat="49.03847" lon="7.76502">
        <ele>211</ele>
        <time>2025-05-09T06:41:00.000Z</time>
      </trkpt>
      <trkpt lat="49.03852" lon="7.76502">
        <ele>211</ele>
        <time>2025-05-09T06:41:03.000Z</time>
      </trkpt>
      <trkpt lat="49.03856" lon="7.76501">
        <ele>210</ele>
        <time>2025-05-09T06:41:08.000Z</time>
      </trkpt>
      <trkpt lat="49.03862" lon="7.76505">
        <ele>211</ele>
        <time>2025-05-09T06:41:12.000Z</time>
      </trkpt>
      <trkpt lat="49.03863" lon="7.76514">
        <ele>211</ele>
        <time>2025-05-09T06:41:16.000Z</time>
      </trkpt>
      <trkpt lat="49.03869" lon="7.76522">
        <ele>210</ele>
        <time>2025-05-09T06:41:23.000Z</time>
      </trkpt>
      <trkpt lat="49.03873" lon="7.76529">
        <ele>210</ele>
        <time>2025-05-09T06:41:26.000Z</time>
      </trkpt>
      <trkpt lat="49.03871" lon="7.76533">
        <ele>210</ele>
        <time>2025-05-09T06:41:48.000Z</time>
      </trkpt>
      <trkpt lat="49.0388" lon="7.76542">
        <ele>210</ele>
        <time>2025-05-09T06:41:55.000Z</time>
      </trkpt>
      <trkpt lat="49.03886" lon="7.76553">
        <ele>210</ele>
        <time>2025-05-09T06:42:03.000Z</time>
      </trkpt>
      <trkpt lat="49.03893" lon="7.76562">
        <ele>211</ele>
        <time>2025-05-09T06:42:10.000Z</time>
      </trkpt>
      <trkpt lat="49.03904" lon="7.76583">
        <ele>212</ele>
        <time>2025-05-09T06:42:26.000Z</time>
      </trkpt>
      <trkpt lat="49.03906" lon="7.76589">
        <ele>213</ele>
        <time>2025-05-09T06:42:30.000Z</time>
      </trkpt>
      <trkpt lat="49.03909" lon="7.76608">
        <ele>213</ele>
        <time>2025-05-09T06:42:44.000Z</time>
      </trkpt>
      <trkpt lat="49.03914" lon="7.76613">
        <ele>214</ele>
        <time>2025-05-09T06:42:52.000Z</time>
      </trkpt>
      <trkpt lat="49.0392" lon="7.76619">
        <ele>215</ele>
        <time>2025-05-09T06:43:05.000Z</time>
      </trkpt>
      <trkpt lat="49.03926" lon="7.76623">
        <ele>216</ele>
        <time>2025-05-09T06:43:18.000Z</time>
      </trkpt>
      <trkpt lat="49.03938" lon="7.76628">
        <ele>219</ele>
        <time>2025-05-09T06:43:35.000Z</time>
      </trkpt>
      <trkpt lat="49.03943" lon="7.76627">
        <ele>220</ele>
        <time>2025-05-09T06:43:43.000Z</time>
      </trkpt>
      <trkpt lat="49.03948" lon="7.76626">
        <ele>220</ele>
        <time>2025-05-09T06:43:47.000Z</time>
      </trkpt>
      <trkpt lat="49.03974" lon="7.76615">
        <ele>225</ele>
        <time>2025-05-09T06:44:22.000Z</time>
      </trkpt>
      <trkpt lat="49.03979" lon="7.76606">
        <ele>226</ele>
        <time>2025-05-09T06:44:29.000Z</time>
      </trkpt>
      <trkpt lat="49.03997" lon="7.7661">
        <ele>228</ele>
        <time>2025-05-09T06:44:48.000Z</time>
      </trkpt>
      <trkpt lat="49.04002" lon="7.76614">
        <ele>228</ele>
        <time>2025-05-09T06:44:51.000Z</time>
      </trkpt>
      <trkpt lat="49.04006" lon="7.76619">
        <ele>229</ele>
        <time>2025-05-09T06:44:54.000Z</time>
      </trkpt>
      <trkpt lat="49.04027" lon="7.76636">
        <ele>231</ele>
        <time>2025-05-09T06:45:16.000Z</time>
      </trkpt>
      <trkpt lat="49.04033" lon="7.76647">
        <ele>232</ele>
        <time>2025-05-09T06:45:27.000Z</time>
      </trkpt>
      <trkpt lat="49.04038" lon="7.76651">
        <ele>232</ele>
        <time>2025-05-09T06:45:31.000Z</time>
      </trkpt>
      <trkpt lat="49.04042" lon="7.7666">
        <ele>233</ele>
        <time>2025-05-09T06:45:39.000Z</time>
      </trkpt>
      <trkpt lat="49.04049" lon="7.76665">
        <ele>234</ele>
        <time>2025-05-09T06:45:48.000Z</time>
      </trkpt>
      <trkpt lat="49.04052" lon="7.76676">
        <ele>236</ele>
        <time>2025-05-09T06:46:01.000Z</time>
      </trkpt>
      <trkpt lat="49.04056" lon="7.76681">
        <ele>237</ele>
        <time>2025-05-09T06:46:07.000Z</time>
      </trkpt>
      <trkpt lat="49.04064" lon="7.7669">
        <ele>239</ele>
        <time>2025-05-09T06:46:18.000Z</time>
      </trkpt>
      <trkpt lat="49.04079" lon="7.7671">
        <ele>242</ele>
        <time>2025-05-09T06:46:37.000Z</time>
      </trkpt>
      <trkpt lat="49.04082" lon="7.76719">
        <ele>242</ele>
        <time>2025-05-09T06:46:43.000Z</time>
      </trkpt>
      <trkpt lat="49.04092" lon="7.76726">
        <ele>244</ele>
        <time>2025-05-09T06:46:53.000Z</time>
      </trkpt>
      <trkpt lat="49.04097" lon="7.7675">
        <ele>245</ele>
        <time>2025-05-09T06:47:04.000Z</time>
      </trkpt>
      <trkpt lat="49.041" lon="7.76756">
        <ele>246</ele>
        <time>2025-05-09T06:47:12.000Z</time>
      </trkpt>
      <trkpt lat="49.04105" lon="7.76758">
        <ele>246</ele>
        <time>2025-05-09T06:47:17.000Z</time>
      </trkpt>
      <trkpt lat="49.04107" lon="7.76764">
        <ele>247</ele>
        <time>2025-05-09T06:47:21.000Z</time>
      </trkpt>
      <trkpt lat="49.04111" lon="7.7677">
        <ele>247</ele>
        <time>2025-05-09T06:47:28.000Z</time>
      </trkpt>
      <trkpt lat="49.04117" lon="7.76771">
        <ele>248</ele>
        <time>2025-05-09T06:47:32.000Z</time>
      </trkpt>
      <trkpt lat="49.04122" lon="7.76778">
        <ele>249</ele>
        <time>2025-05-09T06:47:39.000Z</time>
      </trkpt>
      <trkpt lat="49.0412" lon="7.76785">
        <ele>249</ele>
        <time>2025-05-09T06:47:43.000Z</time>
      </trkpt>
      <trkpt lat="49.04121" lon="7.76802">
        <ele>250</ele>
        <time>2025-05-09T06:47:53.000Z</time>
      </trkpt>
      <trkpt lat="49.04125" lon="7.76802">
        <ele>252</ele>
        <time>2025-05-09T06:48:02.000Z</time>
      </trkpt>
      <trkpt lat="49.04128" lon="7.76816">
        <ele>253</ele>
        <time>2025-05-09T06:48:13.000Z</time>
      </trkpt>
      <trkpt lat="49.04131" lon="7.76822">
        <ele>254</ele>
        <time>2025-05-09T06:48:19.000Z</time>
      </trkpt>
      <trkpt lat="49.04133" lon="7.76831">
        <ele>255</ele>
        <time>2025-05-09T06:48:27.000Z</time>
      </trkpt>
      <trkpt lat="49.04138" lon="7.76837">
        <ele>256</ele>
        <time>2025-05-09T06:48:36.000Z</time>
      </trkpt>
      <trkpt lat="49.04141" lon="7.76843">
        <ele>257</ele>
        <time>2025-05-09T06:48:40.000Z</time>
      </trkpt>
      <trkpt lat="49.04143" lon="7.76849">
        <ele>257</ele>
        <time>2025-05-09T06:48:45.000Z</time>
      </trkpt>
      <trkpt lat="49.04146" lon="7.76855">
        <ele>258</ele>
        <time>2025-05-09T06:48:50.000Z</time>
      </trkpt>
      <trkpt lat="49.04152" lon="7.76858">
        <ele>258</ele>
        <time>2025-05-09T06:48:55.000Z</time>
      </trkpt>
      <trkpt lat="49.04153" lon="7.76869">
        <ele>259</ele>
        <time>2025-05-09T06:49:01.000Z</time>
      </trkpt>
      <trkpt lat="49.04157" lon="7.76873">
        <ele>260</ele>
        <time>2025-05-09T06:49:05.000Z</time>
      </trkpt>
      <trkpt lat="49.04161" lon="7.7688">
        <ele>260</ele>
        <time>2025-05-09T06:49:13.000Z</time>
      </trkpt>
      <trkpt lat="49.04164" lon="7.76887">
        <ele>261</ele>
        <time>2025-05-09T06:49:21.000Z</time>
      </trkpt>
      <trkpt lat="49.04166" lon="7.76893">
        <ele>262</ele>
        <time>2025-05-09T06:49:25.000Z</time>
      </trkpt>
      <trkpt lat="49.04172" lon="7.76898">
        <ele>262</ele>
        <time>2025-05-09T06:49:33.000Z</time>
      </trkpt>
      <trkpt lat="49.04173" lon="7.76904">
        <ele>263</ele>
        <time>2025-05-09T06:49:39.000Z</time>
      </trkpt>
      <trkpt lat="49.04177" lon="7.7691">
        <ele>265</ele>
        <time>2025-05-09T06:49:47.000Z</time>
      </trkpt>
      <trkpt lat="49.04181" lon="7.76914">
        <ele>265</ele>
        <time>2025-05-09T06:49:50.000Z</time>
      </trkpt>
      <trkpt lat="49.04185" lon="7.76929">
        <ele>267</ele>
        <time>2025-05-09T06:50:04.000Z</time>
      </trkpt>
      <trkpt lat="49.04193" lon="7.76941">
        <ele>269</ele>
        <time>2025-05-09T06:50:16.000Z</time>
      </trkpt>
      <trkpt lat="49.04198" lon="7.76945">
        <ele>271</ele>
        <time>2025-05-09T06:50:27.000Z</time>
      </trkpt>
      <trkpt lat="49.04201" lon="7.76951">
        <ele>272</ele>
        <time>2025-05-09T06:50:31.000Z</time>
      </trkpt>
      <trkpt lat="49.04203" lon="7.76967">
        <ele>274</ele>
        <time>2025-05-09T06:50:47.000Z</time>
      </trkpt>
      <trkpt lat="49.04203" lon="7.76973">
        <ele>275</ele>
        <time>2025-05-09T06:50:53.000Z</time>
      </trkpt>
      <trkpt lat="49.04203" lon="7.76983">
        <ele>275</ele>
        <time>2025-05-09T06:50:56.000Z</time>
      </trkpt>
      <trkpt lat="49.04202" lon="7.76989">
        <ele>276</ele>
        <time>2025-05-09T06:51:00.000Z</time>
      </trkpt>
      <trkpt lat="49.04206" lon="7.76997">
        <ele>277</ele>
        <time>2025-05-09T06:51:09.000Z</time>
      </trkpt>
      <trkpt lat="49.04208" lon="7.77003">
        <ele>278</ele>
        <time>2025-05-09T06:51:13.000Z</time>
      </trkpt>
      <trkpt lat="49.04216" lon="7.77012">
        <ele>280</ele>
        <time>2025-05-09T06:51:25.000Z</time>
      </trkpt>
      <trkpt lat="49.04216" lon="7.77022">
        <ele>282</ele>
        <time>2025-05-09T06:51:43.000Z</time>
      </trkpt>
      <trkpt lat="49.04223" lon="7.77046">
        <ele>287</ele>
        <time>2025-05-09T06:52:13.000Z</time>
      </trkpt>
      <trkpt lat="49.04223" lon="7.77056">
        <ele>288</ele>
        <time>2025-05-09T06:52:21.000Z</time>
      </trkpt>
      <trkpt lat="49.04225" lon="7.77062">
        <ele>289</ele>
        <time>2025-05-09T06:52:26.000Z</time>
      </trkpt>
      <trkpt lat="49.04228" lon="7.77106">
        <ele>295</ele>
        <time>2025-05-09T06:53:01.000Z</time>
      </trkpt>
      <trkpt lat="49.0423" lon="7.77119">
        <ele>298</ele>
        <time>2025-05-09T06:53:14.000Z</time>
      </trkpt>
      <trkpt lat="49.0424" lon="7.77127">
        <ele>301</ele>
        <time>2025-05-09T06:53:30.000Z</time>
      </trkpt>
      <trkpt lat="49.04242" lon="7.77139">
        <ele>303</ele>
        <time>2025-05-09T06:53:44.000Z</time>
      </trkpt>
      <trkpt lat="49.04245" lon="7.77168">
        <ele>308</ele>
        <time>2025-05-09T06:54:11.000Z</time>
      </trkpt>
      <trkpt lat="49.04253" lon="7.77175">
        <ele>310</ele>
        <time>2025-05-09T06:54:21.000Z</time>
      </trkpt>
      <trkpt lat="49.04257" lon="7.77175">
        <ele>310</ele>
        <time>2025-05-09T06:54:25.000Z</time>
      </trkpt>
      <trkpt lat="49.04266" lon="7.77185">
        <ele>310</ele>
        <time>2025-05-09T06:54:37.000Z</time>
      </trkpt>
      <trkpt lat="49.04269" lon="7.77194">
        <ele>311</ele>
        <time>2025-05-09T06:54:43.000Z</time>
      </trkpt>
      <trkpt lat="49.04276" lon="7.77202">
        <ele>311</ele>
        <time>2025-05-09T06:54:51.000Z</time>
      </trkpt>
      <trkpt lat="49.0428" lon="7.77205">
        <ele>312</ele>
        <time>2025-05-09T06:54:54.000Z</time>
      </trkpt>
      <trkpt lat="49.04288" lon="7.77216">
        <ele>314</ele>
        <time>2025-05-09T06:55:08.000Z</time>
      </trkpt>
      <trkpt lat="49.04299" lon="7.77223">
        <ele>315</ele>
        <time>2025-05-09T06:55:18.000Z</time>
      </trkpt>
      <trkpt lat="49.04303" lon="7.7723">
        <ele>316</ele>
        <time>2025-05-09T06:55:26.000Z</time>
      </trkpt>
      <trkpt lat="49.04305" lon="7.77236">
        <ele>316</ele>
        <time>2025-05-09T06:55:32.000Z</time>
      </trkpt>
      <trkpt lat="49.0431" lon="7.77239">
        <ele>317</ele>
        <time>2025-05-09T06:55:37.000Z</time>
      </trkpt>
      <trkpt lat="49.04312" lon="7.77246">
        <ele>319</ele>
        <time>2025-05-09T06:55:45.000Z</time>
      </trkpt>
      <trkpt lat="49.04314" lon="7.77253">
        <ele>320</ele>
        <time>2025-05-09T06:55:51.000Z</time>
      </trkpt>
      <trkpt lat="49.04318" lon="7.77258">
        <ele>320</ele>
        <time>2025-05-09T06:55:56.000Z</time>
      </trkpt>
      <trkpt lat="49.04324" lon="7.77263">
        <ele>322</ele>
        <time>2025-05-09T06:56:07.000Z</time>
      </trkpt>
      <trkpt lat="49.04337" lon="7.77266">
        <ele>324</ele>
        <time>2025-05-09T06:56:24.000Z</time>
      </trkpt>
      <trkpt lat="49.04341" lon="7.77271">
        <ele>324</ele>
        <time>2025-05-09T06:56:29.000Z</time>
      </trkpt>
      <trkpt lat="49.04344" lon="7.77277">
        <ele>325</ele>
        <time>2025-05-09T06:56:34.000Z</time>
      </trkpt>
      <trkpt lat="49.0435" lon="7.7728">
        <ele>326</ele>
        <time>2025-05-09T06:56:41.000Z</time>
      </trkpt>
      <trkpt lat="49.04355" lon="7.77282">
        <ele>327</ele>
        <time>2025-05-09T06:56:46.000Z</time>
      </trkpt>
      <trkpt lat="49.04365" lon="7.77285">
        <ele>328</ele>
        <time>2025-05-09T06:56:57.000Z</time>
      </trkpt>
      <trkpt lat="49.0437" lon="7.77288">
        <ele>329</ele>
        <time>2025-05-09T06:57:02.000Z</time>
      </trkpt>
      <trkpt lat="49.04377" lon="7.77286">
        <ele>329</ele>
        <time>2025-05-09T06:57:13.000Z</time>
      </trkpt>
      <trkpt lat="49.04382" lon="7.77282">
        <ele>330</ele>
        <time>2025-05-09T06:57:19.000Z</time>
      </trkpt>
      <trkpt lat="49.04387" lon="7.77284">
        <ele>331</ele>
        <time>2025-05-09T06:57:27.000Z</time>
      </trkpt>
      <trkpt lat="49.04391" lon="7.77287">
        <ele>332</ele>
        <time>2025-05-09T06:57:30.000Z</time>
      </trkpt>
      <trkpt lat="49.04397" lon="7.77285">
        <ele>333</ele>
        <time>2025-05-09T06:57:37.000Z</time>
      </trkpt>
      <trkpt lat="49.04401" lon="7.77289">
        <ele>334</ele>
        <time>2025-05-09T06:57:42.000Z</time>
      </trkpt>
      <trkpt lat="49.04406" lon="7.7729">
        <ele>334</ele>
        <time>2025-05-09T06:57:46.000Z</time>
      </trkpt>
      <trkpt lat="49.04411" lon="7.7729">
        <ele>335</ele>
        <time>2025-05-09T06:57:50.000Z</time>
      </trkpt>
      <trkpt lat="49.04415" lon="7.77298">
        <ele>335</ele>
        <time>2025-05-09T06:57:57.000Z</time>
      </trkpt>
      <trkpt lat="49.04416" lon="7.77305">
        <ele>336</ele>
        <time>2025-05-09T06:58:04.000Z</time>
      </trkpt>
      <trkpt lat="49.04419" lon="7.77311">
        <ele>337</ele>
        <time>2025-05-09T06:58:40.000Z</time>
      </trkpt>
      <trkpt lat="49.04424" lon="7.77306">
        <ele>338</ele>
        <time>2025-05-09T06:58:50.000Z</time>
      </trkpt>
      <trkpt lat="49.04449" lon="7.77309">
        <ele>341</ele>
        <time>2025-05-09T06:59:15.000Z</time>
      </trkpt>
      <trkpt lat="49.04453" lon="7.77312">
        <ele>342</ele>
        <time>2025-05-09T06:59:19.000Z</time>
      </trkpt>
      <trkpt lat="49.04465" lon="7.77328">
        <ele>343</ele>
        <time>2025-05-09T06:59:35.000Z</time>
      </trkpt>
      <trkpt lat="49.04471" lon="7.77331">
        <ele>343</ele>
        <time>2025-05-09T06:59:41.000Z</time>
      </trkpt>
      <trkpt lat="49.04478" lon="7.77334">
        <ele>344</ele>
        <time>2025-05-09T06:59:49.000Z</time>
      </trkpt>
      <trkpt lat="49.04485" lon="7.77336">
        <ele>344</ele>
        <time>2025-05-09T06:59:55.000Z</time>
      </trkpt>
      <trkpt lat="49.0449" lon="7.77335">
        <ele>345</ele>
        <time>2025-05-09T07:00:05.000Z</time>
      </trkpt>
      <trkpt lat="49.04522" lon="7.77332">
        <ele>347</ele>
        <time>2025-05-09T07:00:39.000Z</time>
      </trkpt>
      <trkpt lat="49.04526" lon="7.77332">
        <ele>347</ele>
        <time>2025-05-09T07:00:43.000Z</time>
      </trkpt>
      <trkpt lat="49.04533" lon="7.77332">
        <ele>348</ele>
        <time>2025-05-09T07:00:51.000Z</time>
      </trkpt>
      <trkpt lat="49.04538" lon="7.77333">
        <ele>348</ele>
        <time>2025-05-09T07:00:56.000Z</time>
      </trkpt>
      <trkpt lat="49.04544" lon="7.7733">
        <ele>348</ele>
        <time>2025-05-09T07:01:04.000Z</time>
      </trkpt>
      <trkpt lat="49.04548" lon="7.7733">
        <ele>348</ele>
        <time>2025-05-09T07:01:08.000Z</time>
      </trkpt>
      <trkpt lat="49.04554" lon="7.77332">
        <ele>349</ele>
        <time>2025-05-09T07:01:12.000Z</time>
      </trkpt>
      <trkpt lat="49.04554" lon="7.77329">
        <ele>350</ele>
        <time>2025-05-09T07:01:41.000Z</time>
      </trkpt>
      <trkpt lat="49.04568" lon="7.77338">
        <ele>348</ele>
        <time>2025-05-09T07:01:52.000Z</time>
      </trkpt>
      <trkpt lat="49.04576" lon="7.77343">
        <ele>348</ele>
        <time>2025-05-09T07:01:59.000Z</time>
      </trkpt>
      <trkpt lat="49.0458" lon="7.77344">
        <ele>348</ele>
        <time>2025-05-09T07:02:03.000Z</time>
      </trkpt>
      <trkpt lat="49.04586" lon="7.77347">
        <ele>348</ele>
        <time>2025-05-09T07:02:08.000Z</time>
      </trkpt>
      <trkpt lat="49.04591" lon="7.77346">
        <ele>348</ele>
        <time>2025-05-09T07:02:13.000Z</time>
      </trkpt>
      <trkpt lat="49.04599" lon="7.77351">
        <ele>347</ele>
        <time>2025-05-09T07:02:22.000Z</time>
      </trkpt>
      <trkpt lat="49.04611" lon="7.77366">
        <ele>347</ele>
        <time>2025-05-09T07:02:37.000Z</time>
      </trkpt>
      <trkpt lat="49.04614" lon="7.7737">
        <ele>347</ele>
        <time>2025-05-09T07:02:41.000Z</time>
      </trkpt>
      <trkpt lat="49.0462" lon="7.77374">
        <ele>347</ele>
        <time>2025-05-09T07:02:47.000Z</time>
      </trkpt>
      <trkpt lat="49.04629" lon="7.77383">
        <ele>347</ele>
        <time>2025-05-09T07:02:58.000Z</time>
      </trkpt>
      <trkpt lat="49.04637" lon="7.77392">
        <ele>347</ele>
        <time>2025-05-09T07:03:06.000Z</time>
      </trkpt>
      <trkpt lat="49.04655" lon="7.77428">
        <ele>344</ele>
        <time>2025-05-09T07:06:46.000Z</time>
      </trkpt>
      <trkpt lat="49.04664" lon="7.77434">
        <ele>344</ele>
        <time>2025-05-09T07:06:55.000Z</time>
      </trkpt>
      <trkpt lat="49.04668" lon="7.77437">
        <ele>344</ele>
        <time>2025-05-09T07:06:59.000Z</time>
      </trkpt>
      <trkpt lat="49.04671" lon="7.77445">
        <ele>344</ele>
        <time>2025-05-09T07:07:06.000Z</time>
      </trkpt>
      <trkpt lat="49.0468" lon="7.7745">
        <ele>344</ele>
        <time>2025-05-09T07:07:14.000Z</time>
      </trkpt>
      <trkpt lat="49.04686" lon="7.77447">
        <ele>344</ele>
        <time>2025-05-09T07:07:21.000Z</time>
      </trkpt>
      <trkpt lat="49.04696" lon="7.77452">
        <ele>344</ele>
        <time>2025-05-09T07:07:29.000Z</time>
      </trkpt>
      <trkpt lat="49.047" lon="7.77456">
        <ele>344</ele>
        <time>2025-05-09T07:07:32.000Z</time>
      </trkpt>
      <trkpt lat="49.04714" lon="7.77475">
        <ele>344</ele>
        <time>2025-05-09T07:07:49.000Z</time>
      </trkpt>
      <trkpt lat="49.0475" lon="7.77442">
        <ele>345</ele>
        <time>2025-05-09T07:11:03.000Z</time>
      </trkpt>
      <trkpt lat="49.04751" lon="7.77442">
        <ele>345</ele>
        <time>2025-05-09T07:11:04.000Z</time>
      </trkpt>
      <trkpt lat="49.04766" lon="7.77432">
        <ele>346</ele>
        <time>2025-05-09T07:11:23.000Z</time>
      </trkpt>
      <trkpt lat="49.04772" lon="7.77431">
        <ele>347</ele>
        <time>2025-05-09T07:11:30.000Z</time>
      </trkpt>
      <trkpt lat="49.04787" lon="7.7744">
        <ele>349</ele>
        <time>2025-05-09T07:11:47.000Z</time>
      </trkpt>
      <trkpt lat="49.04794" lon="7.77448">
        <ele>351</ele>
        <time>2025-05-09T07:11:57.000Z</time>
      </trkpt>
      <trkpt lat="49.04812" lon="7.77455">
        <ele>356</ele>
        <time>2025-05-09T07:12:27.000Z</time>
      </trkpt>
      <trkpt lat="49.04819" lon="7.77459">
        <ele>358</ele>
        <time>2025-05-09T07:12:39.000Z</time>
      </trkpt>
      <trkpt lat="49.04823" lon="7.77459">
        <ele>359</ele>
        <time>2025-05-09T07:12:45.000Z</time>
      </trkpt>
      <trkpt lat="49.0483" lon="7.77464">
        <ele>360</ele>
        <time>2025-05-09T07:12:56.000Z</time>
      </trkpt>
      <trkpt lat="49.04837" lon="7.77475">
        <ele>362</ele>
        <time>2025-05-09T07:13:09.000Z</time>
      </trkpt>
      <trkpt lat="49.04845" lon="7.77482">
        <ele>363</ele>
        <time>2025-05-09T07:13:19.000Z</time>
      </trkpt>
      <trkpt lat="49.04871" lon="7.775">
        <ele>367</ele>
        <time>2025-05-09T07:13:55.000Z</time>
      </trkpt>
      <trkpt lat="49.04894" lon="7.77514">
        <ele>371</ele>
        <time>2025-05-09T07:14:28.000Z</time>
      </trkpt>
      <trkpt lat="49.04922" lon="7.77529">
        <ele>376</ele>
        <time>2025-05-09T07:15:07.000Z</time>
      </trkpt>
      <trkpt lat="49.04941" lon="7.7754">
        <ele>382</ele>
        <time>2025-05-09T07:15:37.000Z</time>
      </trkpt>
      <trkpt lat="49.0497" lon="7.77561">
        <ele>385</ele>
        <time>2025-05-09T07:16:10.000Z</time>
      </trkpt>
      <trkpt lat="49.0499" lon="7.7758">
        <ele>388</ele>
        <time>2025-05-09T07:16:41.000Z</time>
      </trkpt>
      <trkpt lat="49.0501" lon="7.77601">
        <ele>393</ele>
        <time>2025-05-09T07:17:13.000Z</time>
      </trkpt>
      <trkpt lat="49.05033" lon="7.77628">
        <ele>397</ele>
        <time>2025-05-09T07:17:46.000Z</time>
      </trkpt>
      <trkpt lat="49.05057" lon="7.77656">
        <ele>401</ele>
        <time>2025-05-09T07:18:22.000Z</time>
      </trkpt>
      <trkpt lat="49.05075" lon="7.77677">
        <ele>405</ele>
        <time>2025-05-09T07:18:54.000Z</time>
      </trkpt>
      <trkpt lat="49.05084" lon="7.77691">
        <ele>406</ele>
        <time>2025-05-09T07:19:07.000Z</time>
      </trkpt>
      <trkpt lat="49.05088" lon="7.77694">
        <ele>406</ele>
        <time>2025-05-09T07:19:11.000Z</time>
      </trkpt>
      <trkpt lat="49.05116" lon="7.77728">
        <ele>412</ele>
        <time>2025-05-09T07:19:48.000Z</time>
      </trkpt>
      <trkpt lat="49.0512" lon="7.77733">
        <ele>413</ele>
        <time>2025-05-09T07:19:54.000Z</time>
      </trkpt>
      <trkpt lat="49.05128" lon="7.77739">
        <ele>414</ele>
        <time>2025-05-09T07:19:58.000Z</time>
      </trkpt>
      <trkpt lat="49.05134" lon="7.77741">
        <ele>414</ele>
        <time>2025-05-09T07:20:02.000Z</time>
      </trkpt>
      <trkpt lat="49.05152" lon="7.77759">
        <ele>418</ele>
        <time>2025-05-09T07:20:30.000Z</time>
      </trkpt>
      <trkpt lat="49.05155" lon="7.77769">
        <ele>419</ele>
        <time>2025-05-09T07:20:39.000Z</time>
      </trkpt>
      <trkpt lat="49.05159" lon="7.77773">
        <ele>419</ele>
        <time>2025-05-09T07:20:42.000Z</time>
      </trkpt>
      <trkpt lat="49.05165" lon="7.77777">
        <ele>421</ele>
        <time>2025-05-09T07:20:55.000Z</time>
      </trkpt>
      <trkpt lat="49.05171" lon="7.77778">
        <ele>421</ele>
        <time>2025-05-09T07:20:58.000Z</time>
      </trkpt>
      <trkpt lat="49.05172" lon="7.77784">
        <ele>422</ele>
        <time>2025-05-09T07:21:06.000Z</time>
      </trkpt>
      <trkpt lat="49.05183" lon="7.77789">
        <ele>424</ele>
        <time>2025-05-09T07:21:16.000Z</time>
      </trkpt>
      <trkpt lat="49.0519" lon="7.77803">
        <ele>426</ele>
        <time>2025-05-09T07:21:26.000Z</time>
      </trkpt>
      <trkpt lat="49.05197" lon="7.77805">
        <ele>427</ele>
        <time>2025-05-09T07:21:35.000Z</time>
      </trkpt>
      <trkpt lat="49.052" lon="7.77812">
        <ele>428</ele>
        <time>2025-05-09T07:21:44.000Z</time>
      </trkpt>
      <trkpt lat="49.05204" lon="7.77818">
        <ele>429</ele>
        <time>2025-05-09T07:21:50.000Z</time>
      </trkpt>
      <trkpt lat="49.05215" lon="7.77827">
        <ele>431</ele>
        <time>2025-05-09T07:22:02.000Z</time>
      </trkpt>
      <trkpt lat="49.0522" lon="7.77828">
        <ele>431</ele>
        <time>2025-05-09T07:22:06.000Z</time>
      </trkpt>
      <trkpt lat="49.05249" lon="7.77851">
        <ele>436</ele>
        <time>2025-05-09T07:22:39.000Z</time>
      </trkpt>
      <trkpt lat="49.05252" lon="7.77857">
        <ele>437</ele>
        <time>2025-05-09T07:22:49.000Z</time>
      </trkpt>
      <trkpt lat="49.05259" lon="7.77867">
        <ele>438</ele>
        <time>2025-05-09T07:22:58.000Z</time>
      </trkpt>
      <trkpt lat="49.0527" lon="7.77872">
        <ele>439</ele>
        <time>2025-05-09T07:23:12.000Z</time>
      </trkpt>
      <trkpt lat="49.05275" lon="7.77878">
        <ele>440</ele>
        <time>2025-05-09T07:23:20.000Z</time>
      </trkpt>
      <trkpt lat="49.05281" lon="7.77882">
        <ele>441</ele>
        <time>2025-05-09T07:23:23.000Z</time>
      </trkpt>
      <trkpt lat="49.05293" lon="7.77895">
        <ele>444</ele>
        <time>2025-05-09T07:23:44.000Z</time>
      </trkpt>
      <trkpt lat="49.05296" lon="7.77901">
        <ele>444</ele>
        <time>2025-05-09T07:23:46.000Z</time>
      </trkpt>
      <trkpt lat="49.05315" lon="7.77912">
        <ele>447</ele>
        <time>2025-05-09T07:24:07.000Z</time>
      </trkpt>
      <trkpt lat="49.05319" lon="7.77919">
        <ele>448</ele>
        <time>2025-05-09T07:24:14.000Z</time>
      </trkpt>
      <trkpt lat="49.05332" lon="7.77933">
        <ele>451</ele>
        <time>2025-05-09T07:24:39.000Z</time>
      </trkpt>
      <trkpt lat="49.05355" lon="7.77956">
        <ele>455</ele>
        <time>2025-05-09T07:25:13.000Z</time>
      </trkpt>
      <trkpt lat="49.05362" lon="7.77963">
        <ele>457</ele>
        <time>2025-05-09T07:25:24.000Z</time>
      </trkpt>
      <trkpt lat="49.0539" lon="7.77998">
        <ele>461</ele>
        <time>2025-05-09T07:25:58.000Z</time>
      </trkpt>
      <trkpt lat="49.05395" lon="7.77999">
        <ele>461</ele>
        <time>2025-05-09T07:26:02.000Z</time>
      </trkpt>
      <trkpt lat="49.05395" lon="7.78006">
        <ele>463</ele>
        <time>2025-05-09T07:26:11.000Z</time>
      </trkpt>
      <trkpt lat="49.05399" lon="7.78011">
        <ele>463</ele>
        <time>2025-05-09T07:26:16.000Z</time>
      </trkpt>
      <trkpt lat="49.05411" lon="7.78013">
        <ele>465</ele>
        <time>2025-05-09T07:26:27.000Z</time>
      </trkpt>
      <trkpt lat="49.05415" lon="7.78023">
        <ele>467</ele>
        <time>2025-05-09T07:26:36.000Z</time>
      </trkpt>
      <trkpt lat="49.05418" lon="7.78031">
        <ele>468</ele>
        <time>2025-05-09T07:26:43.000Z</time>
      </trkpt>
      <trkpt lat="49.05418" lon="7.7804">
        <ele>469</ele>
        <time>2025-05-09T07:26:49.000Z</time>
      </trkpt>
      <trkpt lat="49.05423" lon="7.78045">
        <ele>470</ele>
        <time>2025-05-09T07:26:56.000Z</time>
      </trkpt>
      <trkpt lat="49.05429" lon="7.78051">
        <ele>472</ele>
        <time>2025-05-09T07:27:09.000Z</time>
      </trkpt>
      <trkpt lat="49.05428" lon="7.78062">
        <ele>474</ele>
        <time>2025-05-09T07:27:21.000Z</time>
      </trkpt>
      <trkpt lat="49.05433" lon="7.78081">
        <ele>478</ele>
        <time>2025-05-09T07:27:45.000Z</time>
      </trkpt>
      <trkpt lat="49.05449" lon="7.781">
        <ele>481</ele>
        <time>2025-05-09T07:28:09.000Z</time>
      </trkpt>
      <trkpt lat="49.05454" lon="7.78105">
        <ele>481</ele>
        <time>2025-05-09T07:28:15.000Z</time>
      </trkpt>
      <trkpt lat="49.05457" lon="7.7811">
        <ele>481</ele>
        <time>2025-05-09T07:28:18.000Z</time>
      </trkpt>
      <trkpt lat="49.05456" lon="7.78122">
        <ele>482</ele>
        <time>2025-05-09T07:28:27.000Z</time>
      </trkpt>
      <trkpt lat="49.05455" lon="7.78132">
        <ele>481</ele>
        <time>2025-05-09T07:28:35.000Z</time>
      </trkpt>
      <trkpt lat="49.05446" lon="7.78169">
        <ele>477</ele>
        <time>2025-05-09T07:29:01.000Z</time>
      </trkpt>
      <trkpt lat="49.05431" lon="7.78217">
        <ele>472</ele>
        <time>2025-05-09T07:29:37.000Z</time>
      </trkpt>
      <trkpt lat="49.05428" lon="7.78222">
        <ele>472</ele>
        <time>2025-05-09T07:29:41.000Z</time>
      </trkpt>
      <trkpt lat="49.05422" lon="7.78237">
        <ele>470</ele>
        <time>2025-05-09T07:29:53.000Z</time>
      </trkpt>
      <trkpt lat="49.054" lon="7.7828">
        <ele>466</ele>
        <time>2025-05-09T07:30:30.000Z</time>
      </trkpt>
      <trkpt lat="49.05393" lon="7.78293">
        <ele>465</ele>
        <time>2025-05-09T07:30:41.000Z</time>
      </trkpt>
      <trkpt lat="49.05389" lon="7.78303">
        <ele>465</ele>
        <time>2025-05-09T07:30:49.000Z</time>
      </trkpt>
      <trkpt lat="49.05385" lon="7.78309">
        <ele>461</ele>
        <time>2025-05-09T07:30:54.000Z</time>
      </trkpt>
      <trkpt lat="49.05382" lon="7.78315">
        <ele>463</ele>
        <time>2025-05-09T07:30:58.000Z</time>
      </trkpt>
      <trkpt lat="49.0538" lon="7.78321">
        <ele>463</ele>
        <time>2025-05-09T07:31:02.000Z</time>
      </trkpt>
      <trkpt lat="49.05374" lon="7.78331">
        <ele>461</ele>
        <time>2025-05-09T07:31:11.000Z</time>
      </trkpt>
      <trkpt lat="49.05371" lon="7.78336">
        <ele>461</ele>
        <time>2025-05-09T07:31:15.000Z</time>
      </trkpt>
      <trkpt lat="49.05364" lon="7.78351">
        <ele>460</ele>
        <time>2025-05-09T07:31:27.000Z</time>
      </trkpt>
      <trkpt lat="49.05363" lon="7.78358">
        <ele>459</ele>
        <time>2025-05-09T07:31:33.000Z</time>
      </trkpt>
      <trkpt lat="49.05342" lon="7.78391">
        <ele>456</ele>
        <time>2025-05-09T07:32:04.000Z</time>
      </trkpt>
      <trkpt lat="49.05331" lon="7.78406">
        <ele>455</ele>
        <time>2025-05-09T07:32:18.000Z</time>
      </trkpt>
      <trkpt lat="49.05327" lon="7.78413">
        <ele>455</ele>
        <time>2025-05-09T07:32:24.000Z</time>
      </trkpt>
      <trkpt lat="49.05303" lon="7.78445">
        <ele>451</ele>
        <time>2025-05-09T07:32:54.000Z</time>
      </trkpt>
      <trkpt lat="49.05291" lon="7.7846">
        <ele>449</ele>
        <time>2025-05-09T07:33:09.000Z</time>
      </trkpt>
      <trkpt lat="49.05287" lon="7.78465">
        <ele>448</ele>
        <time>2025-05-09T07:33:13.000Z</time>
      </trkpt>
      <trkpt lat="49.05258" lon="7.78495">
        <ele>445</ele>
        <time>2025-05-09T07:33:46.000Z</time>
      </trkpt>
      <trkpt lat="49.0524" lon="7.78509">
        <ele>443</ele>
        <time>2025-05-09T07:34:05.000Z</time>
      </trkpt>
      <trkpt lat="49.05236" lon="7.78515">
        <ele>442</ele>
        <time>2025-05-09T07:34:11.000Z</time>
      </trkpt>
      <trkpt lat="49.05232" lon="7.78519">
        <ele>442</ele>
        <time>2025-05-09T07:34:15.000Z</time>
      </trkpt>
      <trkpt lat="49.05228" lon="7.78523">
        <ele>442</ele>
        <time>2025-05-09T07:34:19.000Z</time>
      </trkpt>
      <trkpt lat="49.05223" lon="7.78523">
        <ele>442</ele>
        <time>2025-05-09T07:34:22.000Z</time>
      </trkpt>
      <trkpt lat="49.05189" lon="7.78555">
        <ele>439</ele>
        <time>2025-05-09T07:35:14.000Z</time>
      </trkpt>
      <trkpt lat="49.05164" lon="7.78578">
        <ele>437</ele>
        <time>2025-05-09T07:35:48.000Z</time>
      </trkpt>
      <trkpt lat="49.05127" lon="7.78611">
        <ele>433</ele>
        <time>2025-05-09T07:36:25.000Z</time>
      </trkpt>
      <trkpt lat="49.05123" lon="7.78615">
        <ele>433</ele>
        <time>2025-05-09T07:36:28.000Z</time>
      </trkpt>
      <trkpt lat="49.05119" lon="7.78618">
        <ele>432</ele>
        <time>2025-05-09T07:36:36.000Z</time>
      </trkpt>
      <trkpt lat="49.05115" lon="7.78626">
        <ele>430</ele>
        <time>2025-05-09T07:37:17.000Z</time>
      </trkpt>
      <trkpt lat="49.05107" lon="7.78628">
        <ele>427</ele>
        <time>2025-05-09T07:37:25.000Z</time>
      </trkpt>
      <trkpt lat="49.05103" lon="7.78631">
        <ele>426</ele>
        <time>2025-05-09T07:37:29.000Z</time>
      </trkpt>
      <trkpt lat="49.05097" lon="7.78632">
        <ele>425</ele>
        <time>2025-05-09T07:37:35.000Z</time>
      </trkpt>
      <trkpt lat="49.05095" lon="7.78645">
        <ele>423</ele>
        <time>2025-05-09T07:37:44.000Z</time>
      </trkpt>
      <trkpt lat="49.0509" lon="7.78653">
        <ele>422</ele>
        <time>2025-05-09T07:37:52.000Z</time>
      </trkpt>
      <trkpt lat="49.05089" lon="7.78661">
        <ele>422</ele>
        <time>2025-05-09T07:37:56.000Z</time>
      </trkpt>
      <trkpt lat="49.05083" lon="7.78668">
        <ele>421</ele>
        <time>2025-05-09T07:38:07.000Z</time>
      </trkpt>
      <trkpt lat="49.05081" lon="7.78675">
        <ele>420</ele>
        <time>2025-05-09T07:38:15.000Z</time>
      </trkpt>
      <trkpt lat="49.05077" lon="7.78678">
        <ele>419</ele>
        <time>2025-05-09T07:38:19.000Z</time>
      </trkpt>
      <trkpt lat="49.05071" lon="7.7869">
        <ele>418</ele>
        <time>2025-05-09T07:38:26.000Z</time>
      </trkpt>
      <trkpt lat="49.05053" lon="7.78742">
        <ele>411</ele>
        <time>2025-05-09T07:38:58.000Z</time>
      </trkpt>
      <trkpt lat="49.05053" lon="7.78771">
        <ele>408</ele>
        <time>2025-05-09T07:39:15.000Z</time>
      </trkpt>
      <trkpt lat="49.05059" lon="7.78792">
        <ele>406</ele>
        <time>2025-05-09T07:39:28.000Z</time>
      </trkpt>
      <trkpt lat="49.05064" lon="7.78805">
        <ele>405</ele>
        <time>2025-05-09T07:39:33.000Z</time>
      </trkpt>
      <trkpt lat="49.05085" lon="7.78848">
        <ele>399</ele>
        <time>2025-05-09T07:40:10.000Z</time>
      </trkpt>
      <trkpt lat="49.05092" lon="7.78858">
        <ele>397</ele>
        <time>2025-05-09T07:40:17.000Z</time>
      </trkpt>
      <trkpt lat="49.05097" lon="7.78867">
        <ele>397</ele>
        <time>2025-05-09T07:40:21.000Z</time>
      </trkpt>
      <trkpt lat="49.05107" lon="7.78863">
        <ele>395</ele>
        <time>2025-05-09T07:40:31.000Z</time>
      </trkpt>
      <trkpt lat="49.05112" lon="7.78861">
        <ele>395</ele>
        <time>2025-05-09T07:40:33.000Z</time>
      </trkpt>
      <trkpt lat="49.05123" lon="7.78866">
        <ele>394</ele>
        <time>2025-05-09T07:40:42.000Z</time>
      </trkpt>
      <trkpt lat="49.05126" lon="7.78872">
        <ele>394</ele>
        <time>2025-05-09T07:40:44.000Z</time>
      </trkpt>
      <trkpt lat="49.0513" lon="7.78873">
        <ele>393</ele>
        <time>2025-05-09T07:40:47.000Z</time>
      </trkpt>
      <trkpt lat="49.05134" lon="7.78882">
        <ele>392</ele>
        <time>2025-05-09T07:40:53.000Z</time>
      </trkpt>
      <trkpt lat="49.05139" lon="7.78889">
        <ele>391</ele>
        <time>2025-05-09T07:40:58.000Z</time>
      </trkpt>
      <trkpt lat="49.05151" lon="7.78905">
        <ele>388</ele>
        <time>2025-05-09T07:41:08.000Z</time>
      </trkpt>
      <trkpt lat="49.05151" lon="7.78911">
        <ele>388</ele>
        <time>2025-05-09T07:41:13.000Z</time>
      </trkpt>
      <trkpt lat="49.05156" lon="7.78917">
        <ele>387</ele>
        <time>2025-05-09T07:41:18.000Z</time>
      </trkpt>
      <trkpt lat="49.0516" lon="7.78934">
        <ele>384</ele>
        <time>2025-05-09T07:41:35.000Z</time>
      </trkpt>
      <trkpt lat="49.05171" lon="7.78937">
        <ele>383</ele>
        <time>2025-05-09T07:41:40.000Z</time>
      </trkpt>
      <trkpt lat="49.05179" lon="7.78948">
        <ele>381</ele>
        <time>2025-05-09T07:41:52.000Z</time>
      </trkpt>
      <trkpt lat="49.05185" lon="7.78956">
        <ele>380</ele>
        <time>2025-05-09T07:41:57.000Z</time>
      </trkpt>
      <trkpt lat="49.05187" lon="7.78966">
        <ele>379</ele>
        <time>2025-05-09T07:42:03.000Z</time>
      </trkpt>
      <trkpt lat="49.05194" lon="7.78968">
        <ele>378</ele>
        <time>2025-05-09T07:42:08.000Z</time>
      </trkpt>
      <trkpt lat="49.05202" lon="7.78984">
        <ele>376</ele>
        <time>2025-05-09T07:42:18.000Z</time>
      </trkpt>
      <trkpt lat="49.05218" lon="7.78985">
        <ele>375</ele>
        <time>2025-05-09T07:42:29.000Z</time>
      </trkpt>
      <trkpt lat="49.0523" lon="7.79007">
        <ele>371</ele>
        <time>2025-05-09T07:42:48.000Z</time>
      </trkpt>
      <trkpt lat="49.05236" lon="7.7901">
        <ele>370</ele>
        <time>2025-05-09T07:42:55.000Z</time>
      </trkpt>
      <trkpt lat="49.05242" lon="7.79014">
        <ele>370</ele>
        <time>2025-05-09T07:42:57.000Z</time>
      </trkpt>
      <trkpt lat="49.05245" lon="7.79022">
        <ele>369</ele>
        <time>2025-05-09T07:43:04.000Z</time>
      </trkpt>
      <trkpt lat="49.05253" lon="7.79026">
        <ele>368</ele>
        <time>2025-05-09T07:43:08.000Z</time>
      </trkpt>
      <trkpt lat="49.05262" lon="7.7903">
        <ele>367</ele>
        <time>2025-05-09T07:43:15.000Z</time>
      </trkpt>
      <trkpt lat="49.05269" lon="7.79038">
        <ele>365</ele>
        <time>2025-05-09T07:43:23.000Z</time>
      </trkpt>
      <trkpt lat="49.0527" lon="7.79048">
        <ele>364</ele>
        <time>2025-05-09T07:43:29.000Z</time>
      </trkpt>
      <trkpt lat="49.05274" lon="7.79054">
        <ele>363</ele>
        <time>2025-05-09T07:43:33.000Z</time>
      </trkpt>
      <trkpt lat="49.05276" lon="7.79062">
        <ele>363</ele>
        <time>2025-05-09T07:43:37.000Z</time>
      </trkpt>
      <trkpt lat="49.0528" lon="7.79067">
        <ele>363</ele>
        <time>2025-05-09T07:43:41.000Z</time>
      </trkpt>
      <trkpt lat="49.05287" lon="7.7908">
        <ele>360</ele>
        <time>2025-05-09T07:43:53.000Z</time>
      </trkpt>
      <trkpt lat="49.05298" lon="7.79095">
        <ele>358</ele>
        <time>2025-05-09T07:44:06.000Z</time>
      </trkpt>
      <trkpt lat="49.0531" lon="7.79122">
        <ele>355</ele>
        <time>2025-05-09T07:44:25.000Z</time>
      </trkpt>
      <trkpt lat="49.05313" lon="7.79174">
        <ele>350</ele>
        <time>2025-05-09T07:45:02.000Z</time>
      </trkpt>
      <trkpt lat="49.05313" lon="7.79181">
        <ele>350</ele>
        <time>2025-05-09T07:45:07.000Z</time>
      </trkpt>
      <trkpt lat="49.05315" lon="7.79205">
        <ele>347</ele>
        <time>2025-05-09T07:45:22.000Z</time>
      </trkpt>
      <trkpt lat="49.05313" lon="7.79261">
        <ele>341</ele>
        <time>2025-05-09T07:45:55.000Z</time>
      </trkpt>
      <trkpt lat="49.05313" lon="7.7928">
        <ele>340</ele>
        <time>2025-05-09T07:46:08.000Z</time>
      </trkpt>
      <trkpt lat="49.05316" lon="7.79291">
        <ele>340</ele>
        <time>2025-05-09T07:46:17.000Z</time>
      </trkpt>
      <trkpt lat="49.05317" lon="7.79299">
        <ele>340</ele>
        <time>2025-05-09T07:46:21.000Z</time>
      </trkpt>
      <trkpt lat="49.05317" lon="7.79308">
        <ele>339</ele>
        <time>2025-05-09T07:46:25.000Z</time>
      </trkpt>
      <trkpt lat="49.05316" lon="7.79315">
        <ele>339</ele>
        <time>2025-05-09T07:46:29.000Z</time>
      </trkpt>
      <trkpt lat="49.05317" lon="7.7933">
        <ele>339</ele>
        <time>2025-05-09T07:46:36.000Z</time>
      </trkpt>
      <trkpt lat="49.05318" lon="7.79337">
        <ele>339</ele>
        <time>2025-05-09T07:46:39.000Z</time>
      </trkpt>
      <trkpt lat="49.05319" lon="7.79352">
        <ele>338</ele>
        <time>2025-05-09T07:46:46.000Z</time>
      </trkpt>
      <trkpt lat="49.0532" lon="7.79363">
        <ele>338</ele>
        <time>2025-05-09T07:46:52.000Z</time>
      </trkpt>
      <trkpt lat="49.05318" lon="7.79369">
        <ele>338</ele>
        <time>2025-05-09T07:46:56.000Z</time>
      </trkpt>
      <trkpt lat="49.05323" lon="7.79375">
        <ele>338</ele>
        <time>2025-05-09T07:47:04.000Z</time>
      </trkpt>
      <trkpt lat="49.05321" lon="7.79383">
        <ele>339</ele>
        <time>2025-05-09T07:47:10.000Z</time>
      </trkpt>
      <trkpt lat="49.05316" lon="7.79394">
        <ele>338</ele>
        <time>2025-05-09T07:47:18.000Z</time>
      </trkpt>
      <trkpt lat="49.05312" lon="7.79397">
        <ele>338</ele>
        <time>2025-05-09T07:47:21.000Z</time>
      </trkpt>
      <trkpt lat="49.05309" lon="7.79409">
        <ele>339</ele>
        <time>2025-05-09T07:47:31.000Z</time>
      </trkpt>
      <trkpt lat="49.05303" lon="7.79408">
        <ele>340</ele>
        <time>2025-05-09T07:47:37.000Z</time>
      </trkpt>
      <trkpt lat="49.05299" lon="7.79411">
        <ele>341</ele>
        <time>2025-05-09T07:47:41.000Z</time>
      </trkpt>
      <trkpt lat="49.053" lon="7.794">
        <ele>341</ele>
        <time>2025-05-09T07:47:51.000Z</time>
      </trkpt>
      <trkpt lat="49.05306" lon="7.794">
        <ele>341</ele>
        <time>2025-05-09T07:47:57.000Z</time>
      </trkpt>
      <trkpt lat="49.0531" lon="7.794">
        <ele>342</ele>
        <time>2025-05-09T07:48:05.000Z</time>
      </trkpt>
      <trkpt lat="49.05318" lon="7.79404">
        <ele>341</ele>
        <time>2025-05-09T07:48:09.000Z</time>
      </trkpt>
      <trkpt lat="49.05321" lon="7.794">
        <ele>341</ele>
        <time>2025-05-09T07:48:14.000Z</time>
      </trkpt>
      <trkpt lat="49.05326" lon="7.79399">
        <ele>341</ele>
        <time>2025-05-09T07:48:18.000Z</time>
      </trkpt>
      <trkpt lat="49.05329" lon="7.79406">
        <ele>341</ele>
        <time>2025-05-09T07:48:22.000Z</time>
      </trkpt>
      <trkpt lat="49.05333" lon="7.79417">
        <ele>342</ele>
        <time>2025-05-09T07:48:39.000Z</time>
      </trkpt>
      <trkpt lat="49.05334" lon="7.79425">
        <ele>342</ele>
        <time>2025-05-09T07:48:44.000Z</time>
      </trkpt>
      <trkpt lat="49.05336" lon="7.79432">
        <ele>342</ele>
        <time>2025-05-09T07:48:48.000Z</time>
      </trkpt>
      <trkpt lat="49.05338" lon="7.7944">
        <ele>342</ele>
        <time>2025-05-09T07:48:52.000Z</time>
      </trkpt>
      <trkpt lat="49.05342" lon="7.79455">
        <ele>343</ele>
        <time>2025-05-09T07:49:04.000Z</time>
      </trkpt>
      <trkpt lat="49.05344" lon="7.79465">
        <ele>343</ele>
        <time>2025-05-09T07:49:12.000Z</time>
      </trkpt>
      <trkpt lat="49.05347" lon="7.79471">
        <ele>342</ele>
        <time>2025-05-09T07:49:23.000Z</time>
      </trkpt>
      <trkpt lat="49.05343" lon="7.79473">
        <ele>343</ele>
        <time>2025-05-09T07:50:02.000Z</time>
      </trkpt>
      <trkpt lat="49.05337" lon="7.79474">
        <ele>343</ele>
        <time>2025-05-09T07:50:05.000Z</time>
      </trkpt>
      <trkpt lat="49.0533" lon="7.7948">
        <ele>343</ele>
        <time>2025-05-09T07:50:08.000Z</time>
      </trkpt>
      <trkpt lat="49.05332" lon="7.79483">
        <ele>343</ele>
        <time>2025-05-09T07:51:01.000Z</time>
      </trkpt>
      <trkpt lat="49.05338" lon="7.79487">
        <ele>343</ele>
        <time>2025-05-09T07:51:13.000Z</time>
      </trkpt>
      <trkpt lat="49.05344" lon="7.7948">
        <ele>344</ele>
        <time>2025-05-09T07:51:20.000Z</time>
      </trkpt>
      <trkpt lat="49.05349" lon="7.79479">
        <ele>344</ele>
        <time>2025-05-09T07:51:22.000Z</time>
      </trkpt>
      <trkpt lat="49.05353" lon="7.79479">
        <ele>344</ele>
        <time>2025-05-09T07:51:26.000Z</time>
      </trkpt>
      <trkpt lat="49.05353" lon="7.79489">
        <ele>344</ele>
        <time>2025-05-09T07:51:30.000Z</time>
      </trkpt>
      <trkpt lat="49.05356" lon="7.79494">
        <ele>344</ele>
        <time>2025-05-09T07:51:33.000Z</time>
      </trkpt>
      <trkpt lat="49.05359" lon="7.795">
        <ele>345</ele>
        <time>2025-05-09T07:51:37.000Z</time>
      </trkpt>
      <trkpt lat="49.05359" lon="7.79511">
        <ele>345</ele>
        <time>2025-05-09T07:51:46.000Z</time>
      </trkpt>
      <trkpt lat="49.05361" lon="7.79525">
        <ele>346</ele>
        <time>2025-05-09T07:51:57.000Z</time>
      </trkpt>
      <trkpt lat="49.0536" lon="7.79534">
        <ele>346</ele>
        <time>2025-05-09T07:52:04.000Z</time>
      </trkpt>
      <trkpt lat="49.05363" lon="7.7955">
        <ele>347</ele>
        <time>2025-05-09T07:52:16.000Z</time>
      </trkpt>
      <trkpt lat="49.05364" lon="7.79556">
        <ele>347</ele>
        <time>2025-05-09T07:52:21.000Z</time>
      </trkpt>
      <trkpt lat="49.05367" lon="7.79571">
        <ele>347</ele>
        <time>2025-05-09T07:52:32.000Z</time>
      </trkpt>
      <trkpt lat="49.0537" lon="7.79577">
        <ele>347</ele>
        <time>2025-05-09T07:52:36.000Z</time>
      </trkpt>
      <trkpt lat="49.0537" lon="7.79584">
        <ele>347</ele>
        <time>2025-05-09T07:52:41.000Z</time>
      </trkpt>
      <trkpt lat="49.05374" lon="7.7961">
        <ele>349</ele>
        <time>2025-05-09T07:53:00.000Z</time>
      </trkpt>
      <trkpt lat="49.05376" lon="7.79616">
        <ele>349</ele>
        <time>2025-05-09T07:53:03.000Z</time>
      </trkpt>
      <trkpt lat="49.05377" lon="7.79624">
        <ele>350</ele>
        <time>2025-05-09T07:53:07.000Z</time>
      </trkpt>
      <trkpt lat="49.0538" lon="7.79632">
        <ele>350</ele>
        <time>2025-05-09T07:53:27.000Z</time>
      </trkpt>
      <trkpt lat="49.05385" lon="7.79632">
        <ele>349</ele>
        <time>2025-05-09T07:53:41.000Z</time>
      </trkpt>
      <trkpt lat="49.05388" lon="7.79645">
        <ele>347</ele>
        <time>2025-05-09T07:53:54.000Z</time>
      </trkpt>
      <trkpt lat="49.05388" lon="7.79652">
        <ele>347</ele>
        <time>2025-05-09T07:53:57.000Z</time>
      </trkpt>
      <trkpt lat="49.05397" lon="7.79665">
        <ele>345</ele>
        <time>2025-05-09T07:54:06.000Z</time>
      </trkpt>
      <trkpt lat="49.05399" lon="7.79674">
        <ele>345</ele>
        <time>2025-05-09T07:54:12.000Z</time>
      </trkpt>
      <trkpt lat="49.05398" lon="7.79681">
        <ele>346</ele>
        <time>2025-05-09T07:54:15.000Z</time>
      </trkpt>
      <trkpt lat="49.05398" lon="7.79687">
        <ele>346</ele>
        <time>2025-05-09T07:54:18.000Z</time>
      </trkpt>
      <trkpt lat="49.05394" lon="7.79709">
        <ele>346</ele>
        <time>2025-05-09T07:54:29.000Z</time>
      </trkpt>
      <trkpt lat="49.05394" lon="7.79716">
        <ele>347</ele>
        <time>2025-05-09T07:54:33.000Z</time>
      </trkpt>
      <trkpt lat="49.05399" lon="7.79736">
        <ele>348</ele>
        <time>2025-05-09T07:54:45.000Z</time>
      </trkpt>
      <trkpt lat="49.05399" lon="7.79749">
        <ele>349</ele>
        <time>2025-05-09T07:54:53.000Z</time>
      </trkpt>
      <trkpt lat="49.05401" lon="7.79754">
        <ele>349</ele>
        <time>2025-05-09T07:54:57.000Z</time>
      </trkpt>
      <trkpt lat="49.05401" lon="7.79767">
        <ele>350</ele>
        <time>2025-05-09T07:55:07.000Z</time>
      </trkpt>
      <trkpt lat="49.05402" lon="7.79799">
        <ele>352</ele>
        <time>2025-05-09T07:55:27.000Z</time>
      </trkpt>
      <trkpt lat="49.05403" lon="7.79807">
        <ele>352</ele>
        <time>2025-05-09T07:55:32.000Z</time>
      </trkpt>
      <trkpt lat="49.05403" lon="7.79814">
        <ele>353</ele>
        <time>2025-05-09T07:55:36.000Z</time>
      </trkpt>
      <trkpt lat="49.05404" lon="7.79821">
        <ele>353</ele>
        <time>2025-05-09T07:55:40.000Z</time>
      </trkpt>
      <trkpt lat="49.05405" lon="7.79846">
        <ele>354</ele>
        <time>2025-05-09T07:55:53.000Z</time>
      </trkpt>
      <trkpt lat="49.05402" lon="7.79855">
        <ele>354</ele>
        <time>2025-05-09T07:55:57.000Z</time>
      </trkpt>
      <trkpt lat="49.05397" lon="7.79857">
        <ele>354</ele>
        <time>2025-05-09T07:56:00.000Z</time>
      </trkpt>
      <trkpt lat="49.05381" lon="7.79863">
        <ele>354</ele>
        <time>2025-05-09T07:56:08.000Z</time>
      </trkpt>
      <trkpt lat="49.05377" lon="7.79868">
        <ele>354</ele>
        <time>2025-05-09T07:56:11.000Z</time>
      </trkpt>
      <trkpt lat="49.05371" lon="7.79883">
        <ele>355</ele>
        <time>2025-05-09T07:56:18.000Z</time>
      </trkpt>
      <trkpt lat="49.05364" lon="7.79894">
        <ele>354</ele>
        <time>2025-05-09T07:56:26.000Z</time>
      </trkpt>
      <trkpt lat="49.0536" lon="7.79896">
        <ele>354</ele>
        <time>2025-05-09T07:56:30.000Z</time>
      </trkpt>
      <trkpt lat="49.05338" lon="7.79908">
        <ele>354</ele>
        <time>2025-05-09T07:56:48.000Z</time>
      </trkpt>
      <trkpt lat="49.05313" lon="7.79925">
        <ele>358</ele>
        <time>2025-05-09T07:57:24.000Z</time>
      </trkpt>
      <trkpt lat="49.0529" lon="7.79954">
        <ele>362</ele>
        <time>2025-05-09T07:57:49.000Z</time>
      </trkpt>
      <trkpt lat="49.05287" lon="7.7996">
        <ele>362</ele>
        <time>2025-05-09T07:57:52.000Z</time>
      </trkpt>
      <trkpt lat="49.05274" lon="7.79982">
        <ele>365</ele>
        <time>2025-05-09T07:58:13.000Z</time>
      </trkpt>
      <trkpt lat="49.05271" lon="7.79988">
        <ele>365</ele>
        <time>2025-05-09T07:58:17.000Z</time>
      </trkpt>
      <trkpt lat="49.05265" lon="7.80003">
        <ele>367</ele>
        <time>2025-05-09T07:58:27.000Z</time>
      </trkpt>
      <trkpt lat="49.05258" lon="7.80008">
        <ele>368</ele>
        <time>2025-05-09T07:58:37.000Z</time>
      </trkpt>
      <trkpt lat="49.05241" lon="7.80032">
        <ele>370</ele>
        <time>2025-05-09T07:58:58.000Z</time>
      </trkpt>
      <trkpt lat="49.05235" lon="7.80032">
        <ele>371</ele>
        <time>2025-05-09T07:59:04.000Z</time>
      </trkpt>
      <trkpt lat="49.05229" lon="7.80038">
        <ele>372</ele>
        <time>2025-05-09T07:59:12.000Z</time>
      </trkpt>
      <trkpt lat="49.05218" lon="7.80053">
        <ele>373</ele>
        <time>2025-05-09T07:59:23.000Z</time>
      </trkpt>
      <trkpt lat="49.05214" lon="7.80055">
        <ele>373</ele>
        <time>2025-05-09T07:59:26.000Z</time>
      </trkpt>
      <trkpt lat="49.05209" lon="7.80056">
        <ele>374</ele>
        <time>2025-05-09T07:59:30.000Z</time>
      </trkpt>
      <trkpt lat="49.05189" lon="7.80039">
        <ele>375</ele>
        <time>2025-05-09T07:59:47.000Z</time>
      </trkpt>
      <trkpt lat="49.05183" lon="7.80038">
        <ele>377</ele>
        <time>2025-05-09T07:59:56.000Z</time>
      </trkpt>
      <trkpt lat="49.05179" lon="7.80039">
        <ele>377</ele>
        <time>2025-05-09T07:59:59.000Z</time>
      </trkpt>
      <trkpt lat="49.05173" lon="7.8004">
        <ele>377</ele>
        <time>2025-05-09T08:00:03.000Z</time>
      </trkpt>
      <trkpt lat="49.05168" lon="7.80037">
        <ele>377</ele>
        <time>2025-05-09T08:00:09.000Z</time>
      </trkpt>
      <trkpt lat="49.05159" lon="7.80036">
        <ele>378</ele>
        <time>2025-05-09T08:00:17.000Z</time>
      </trkpt>
      <trkpt lat="49.05152" lon="7.80033">
        <ele>379</ele>
        <time>2025-05-09T08:00:26.000Z</time>
      </trkpt>
      <trkpt lat="49.05147" lon="7.80035">
        <ele>381</ele>
        <time>2025-05-09T08:00:35.000Z</time>
      </trkpt>
      <trkpt lat="49.05141" lon="7.80033">
        <ele>382</ele>
        <time>2025-05-09T08:00:38.000Z</time>
      </trkpt>
      <trkpt lat="49.05129" lon="7.80035">
        <ele>384</ele>
        <time>2025-05-09T08:00:55.000Z</time>
      </trkpt>
      <trkpt lat="49.05124" lon="7.80039">
        <ele>384</ele>
        <time>2025-05-09T08:00:58.000Z</time>
      </trkpt>
      <trkpt lat="49.05115" lon="7.80038">
        <ele>385</ele>
        <time>2025-05-09T08:01:08.000Z</time>
      </trkpt>
      <trkpt lat="49.05109" lon="7.80036">
        <ele>385</ele>
        <time>2025-05-09T08:01:14.000Z</time>
      </trkpt>
      <trkpt lat="49.05103" lon="7.80035">
        <ele>385</ele>
        <time>2025-05-09T08:01:19.000Z</time>
      </trkpt>
      <trkpt lat="49.05097" lon="7.80034">
        <ele>385</ele>
        <time>2025-05-09T08:01:24.000Z</time>
      </trkpt>
      <trkpt lat="49.05093" lon="7.80035">
        <ele>385</ele>
        <time>2025-05-09T08:01:28.000Z</time>
      </trkpt>
      <trkpt lat="49.05088" lon="7.80038">
        <ele>384</ele>
        <time>2025-05-09T08:01:38.000Z</time>
      </trkpt>
      <trkpt lat="49.05083" lon="7.80054">
        <ele>384</ele>
        <time>2025-05-09T08:01:49.000Z</time>
      </trkpt>
      <trkpt lat="49.05083" lon="7.80061">
        <ele>384</ele>
        <time>2025-05-09T08:01:52.000Z</time>
      </trkpt>
      <trkpt lat="49.05083" lon="7.80086">
        <ele>384</ele>
        <time>2025-05-09T08:02:06.000Z</time>
      </trkpt>
      <trkpt lat="49.05091" lon="7.80141">
        <ele>382</ele>
        <time>2025-05-09T08:02:38.000Z</time>
      </trkpt>
      <trkpt lat="49.05092" lon="7.80148">
        <ele>382</ele>
        <time>2025-05-09T08:02:43.000Z</time>
      </trkpt>
      <trkpt lat="49.05095" lon="7.80209">
        <ele>380</ele>
        <time>2025-05-09T08:03:17.000Z</time>
      </trkpt>
      <trkpt lat="49.05096" lon="7.80217">
        <ele>380</ele>
        <time>2025-05-09T08:03:21.000Z</time>
      </trkpt>
      <trkpt lat="49.05096" lon="7.80236">
        <ele>379</ele>
        <time>2025-05-09T08:03:31.000Z</time>
      </trkpt>
      <trkpt lat="49.05096" lon="7.80243">
        <ele>379</ele>
        <time>2025-05-09T08:03:35.000Z</time>
      </trkpt>
      <trkpt lat="49.05095" lon="7.8025">
        <ele>379</ele>
        <time>2025-05-09T08:03:39.000Z</time>
      </trkpt>
      <trkpt lat="49.05095" lon="7.80272">
        <ele>379</ele>
        <time>2025-05-09T08:03:51.000Z</time>
      </trkpt>
      <trkpt lat="49.05093" lon="7.80286">
        <ele>378</ele>
        <time>2025-05-09T08:03:58.000Z</time>
      </trkpt>
      <trkpt lat="49.05091" lon="7.80316">
        <ele>377</ele>
        <time>2025-05-09T08:04:15.000Z</time>
      </trkpt>
      <trkpt lat="49.05092" lon="7.80307">
        <ele>377</ele>
        <time>2025-05-09T08:04:42.000Z</time>
      </trkpt>
      <trkpt lat="49.05091" lon="7.80324">
        <ele>376</ele>
        <time>2025-05-09T08:04:59.000Z</time>
      </trkpt>
      <trkpt lat="49.05085" lon="7.80357">
        <ele>375</ele>
        <time>2025-05-09T08:05:18.000Z</time>
      </trkpt>
      <trkpt lat="49.05069" lon="7.80394">
        <ele>373</ele>
        <time>2025-05-09T08:08:10.000Z</time>
      </trkpt>
      <trkpt lat="49.05059" lon="7.80411">
        <ele>372</ele>
        <time>2025-05-09T08:08:21.000Z</time>
      </trkpt>
      <trkpt lat="49.05054" lon="7.80425">
        <ele>372</ele>
        <time>2025-05-09T08:08:30.000Z</time>
      </trkpt>
      <trkpt lat="49.05051" lon="7.8044">
        <ele>371</ele>
        <time>2025-05-09T08:08:37.000Z</time>
      </trkpt>
      <trkpt lat="49.05051" lon="7.80448">
        <ele>371</ele>
        <time>2025-05-09T08:08:41.000Z</time>
      </trkpt>
      <trkpt lat="49.05051" lon="7.80455">
        <ele>370</ele>
        <time>2025-05-09T08:08:45.000Z</time>
      </trkpt>
      <trkpt lat="49.05051" lon="7.80463">
        <ele>370</ele>
        <time>2025-05-09T08:08:49.000Z</time>
      </trkpt>
      <trkpt lat="49.05052" lon="7.8047">
        <ele>369</ele>
        <time>2025-05-09T08:08:53.000Z</time>
      </trkpt>
      <trkpt lat="49.05052" lon="7.80477">
        <ele>369</ele>
        <time>2025-05-09T08:08:57.000Z</time>
      </trkpt>
      <trkpt lat="49.05053" lon="7.80485">
        <ele>369</ele>
        <time>2025-05-09T08:09:02.000Z</time>
      </trkpt>
      <trkpt lat="49.05053" lon="7.80493">
        <ele>369</ele>
        <time>2025-05-09T08:09:07.000Z</time>
      </trkpt>
      <trkpt lat="49.05053" lon="7.80501">
        <ele>368</ele>
        <time>2025-05-09T08:09:11.000Z</time>
      </trkpt>
      <trkpt lat="49.05052" lon="7.80523">
        <ele>367</ele>
        <time>2025-05-09T08:09:27.000Z</time>
      </trkpt>
      <trkpt lat="49.0505" lon="7.80529">
        <ele>367</ele>
        <time>2025-05-09T08:09:31.000Z</time>
      </trkpt>
      <trkpt lat="49.05046" lon="7.80533">
        <ele>366</ele>
        <time>2025-05-09T08:09:35.000Z</time>
      </trkpt>
      <trkpt lat="49.05042" lon="7.80534">
        <ele>365</ele>
        <time>2025-05-09T08:09:40.000Z</time>
      </trkpt>
      <trkpt lat="49.05023" lon="7.80528">
        <ele>363</ele>
        <time>2025-05-09T08:09:56.000Z</time>
      </trkpt>
      <trkpt lat="49.05016" lon="7.8053">
        <ele>363</ele>
        <time>2025-05-09T08:10:02.000Z</time>
      </trkpt>
      <trkpt lat="49.05012" lon="7.8054">
        <ele>361</ele>
        <time>2025-05-09T08:10:15.000Z</time>
      </trkpt>
      <trkpt lat="49.0502" lon="7.80538">
        <ele>359</ele>
        <time>2025-05-09T08:10:42.000Z</time>
      </trkpt>
      <trkpt lat="49.05009" lon="7.80574">
        <ele>357</ele>
        <time>2025-05-09T08:11:02.000Z</time>
      </trkpt>
      <trkpt lat="49.0501" lon="7.80603">
        <ele>356</ele>
        <time>2025-05-09T08:11:16.000Z</time>
      </trkpt>
      <trkpt lat="49.05009" lon="7.8061">
        <ele>356</ele>
        <time>2025-05-09T08:11:20.000Z</time>
      </trkpt>
      <trkpt lat="49.05014" lon="7.80617">
        <ele>355</ele>
        <time>2025-05-09T08:11:28.000Z</time>
      </trkpt>
      <trkpt lat="49.05018" lon="7.80635">
        <ele>354</ele>
        <time>2025-05-09T08:11:39.000Z</time>
      </trkpt>
      <trkpt lat="49.05018" lon="7.80644">
        <ele>353</ele>
        <time>2025-05-09T08:11:45.000Z</time>
      </trkpt>
      <trkpt lat="49.0502" lon="7.8065">
        <ele>353</ele>
        <time>2025-05-09T08:11:48.000Z</time>
      </trkpt>
      <trkpt lat="49.0502" lon="7.80666">
        <ele>353</ele>
        <time>2025-05-09T08:11:59.000Z</time>
      </trkpt>
      <trkpt lat="49.05025" lon="7.80693">
        <ele>351</ele>
        <time>2025-05-09T08:12:15.000Z</time>
      </trkpt>
      <trkpt lat="49.05026" lon="7.80703">
        <ele>350</ele>
        <time>2025-05-09T08:12:23.000Z</time>
      </trkpt>
      <trkpt lat="49.05028" lon="7.8071">
        <ele>350</ele>
        <time>2025-05-09T08:12:28.000Z</time>
      </trkpt>
      <trkpt lat="49.05029" lon="7.80726">
        <ele>349</ele>
        <time>2025-05-09T08:12:40.000Z</time>
      </trkpt>
      <trkpt lat="49.05034" lon="7.80738">
        <ele>348</ele>
        <time>2025-05-09T08:12:46.000Z</time>
      </trkpt>
      <trkpt lat="49.05037" lon="7.80756">
        <ele>346</ele>
        <time>2025-05-09T08:12:58.000Z</time>
      </trkpt>
      <trkpt lat="49.05037" lon="7.80763">
        <ele>346</ele>
        <time>2025-05-09T08:13:03.000Z</time>
      </trkpt>
      <trkpt lat="49.05038" lon="7.80787">
        <ele>344</ele>
        <time>2025-05-09T08:13:18.000Z</time>
      </trkpt>
      <trkpt lat="49.05032" lon="7.80806">
        <ele>343</ele>
        <time>2025-05-09T08:13:27.000Z</time>
      </trkpt>
      <trkpt lat="49.05036" lon="7.80812">
        <ele>343</ele>
        <time>2025-05-09T08:13:32.000Z</time>
      </trkpt>
      <trkpt lat="49.05034" lon="7.80819">
        <ele>342</ele>
        <time>2025-05-09T08:13:36.000Z</time>
      </trkpt>
      <trkpt lat="49.05022" lon="7.8086">
        <ele>338</ele>
        <time>2025-05-09T08:14:11.000Z</time>
      </trkpt>
      <trkpt lat="49.05014" lon="7.80863">
        <ele>336</ele>
        <time>2025-05-09T08:14:19.000Z</time>
      </trkpt>
      <trkpt lat="49.05009" lon="7.80868">
        <ele>337</ele>
        <time>2025-05-09T08:14:24.000Z</time>
      </trkpt>
      <trkpt lat="49.05005" lon="7.80871">
        <ele>337</ele>
        <time>2025-05-09T08:14:28.000Z</time>
      </trkpt>
      <trkpt lat="49.04996" lon="7.8088">
        <ele>334</ele>
        <time>2025-05-09T08:14:38.000Z</time>
      </trkpt>
      <trkpt lat="49.04973" lon="7.80916">
        <ele>332</ele>
        <time>2025-05-09T08:15:02.000Z</time>
      </trkpt>
      <trkpt lat="49.04969" lon="7.80924">
        <ele>331</ele>
        <time>2025-05-09T08:15:09.000Z</time>
      </trkpt>
      <trkpt lat="49.04967" lon="7.80929">
        <ele>331</ele>
        <time>2025-05-09T08:15:11.000Z</time>
      </trkpt>
      <trkpt lat="49.04963" lon="7.80946">
        <ele>329</ele>
        <time>2025-05-09T08:15:24.000Z</time>
      </trkpt>
      <trkpt lat="49.04962" lon="7.80956">
        <ele>328</ele>
        <time>2025-05-09T08:15:32.000Z</time>
      </trkpt>
      <trkpt lat="49.04964" lon="7.80982">
        <ele>326</ele>
        <time>2025-05-09T08:15:47.000Z</time>
      </trkpt>
      <trkpt lat="49.04961" lon="7.81004">
        <ele>325</ele>
        <time>2025-05-09T08:15:59.000Z</time>
      </trkpt>
      <trkpt lat="49.0495" lon="7.81042">
        <ele>322</ele>
        <time>2025-05-09T08:16:20.000Z</time>
      </trkpt>
      <trkpt lat="49.04947" lon="7.81067">
        <ele>321</ele>
        <time>2025-05-09T08:16:34.000Z</time>
      </trkpt>
      <trkpt lat="49.0493" lon="7.81111">
        <ele>318</ele>
        <time>2025-05-09T08:17:04.000Z</time>
      </trkpt>
      <trkpt lat="49.04927" lon="7.81116">
        <ele>318</ele>
        <time>2025-05-09T08:17:07.000Z</time>
      </trkpt>
      <trkpt lat="49.04919" lon="7.81126">
        <ele>317</ele>
        <time>2025-05-09T08:17:15.000Z</time>
      </trkpt>
      <trkpt lat="49.04911" lon="7.8115">
        <ele>315</ele>
        <time>2025-05-09T08:17:30.000Z</time>
      </trkpt>
      <trkpt lat="49.04911" lon="7.81157">
        <ele>315</ele>
        <time>2025-05-09T08:17:32.000Z</time>
      </trkpt>
      <trkpt lat="49.0491" lon="7.81173">
        <ele>314</ele>
        <time>2025-05-09T08:17:43.000Z</time>
      </trkpt>
      <trkpt lat="49.04908" lon="7.8118">
        <ele>313</ele>
        <time>2025-05-09T08:17:47.000Z</time>
      </trkpt>
      <trkpt lat="49.04905" lon="7.81195">
        <ele>313</ele>
        <time>2025-05-09T08:17:55.000Z</time>
      </trkpt>
      <trkpt lat="49.04901" lon="7.81201">
        <ele>312</ele>
        <time>2025-05-09T08:18:00.000Z</time>
      </trkpt>
      <trkpt lat="49.04896" lon="7.81207">
        <ele>311</ele>
        <time>2025-05-09T08:18:06.000Z</time>
      </trkpt>
      <trkpt lat="49.04891" lon="7.81213">
        <ele>311</ele>
        <time>2025-05-09T08:18:09.000Z</time>
      </trkpt>
      <trkpt lat="49.04871" lon="7.81224">
        <ele>309</ele>
        <time>2025-05-09T08:18:24.000Z</time>
      </trkpt>
      <trkpt lat="49.04862" lon="7.81237">
        <ele>308</ele>
        <time>2025-05-09T08:18:34.000Z</time>
      </trkpt>
      <trkpt lat="49.04858" lon="7.81238">
        <ele>307</ele>
        <time>2025-05-09T08:18:38.000Z</time>
      </trkpt>
      <trkpt lat="49.04856" lon="7.81245">
        <ele>307</ele>
        <time>2025-05-09T08:18:41.000Z</time>
      </trkpt>
      <trkpt lat="49.04829" lon="7.81262">
        <ele>305</ele>
        <time>2025-05-09T08:19:04.000Z</time>
      </trkpt>
      <trkpt lat="49.04823" lon="7.81261">
        <ele>305</ele>
        <time>2025-05-09T08:19:08.000Z</time>
      </trkpt>
      <trkpt lat="49.04802" lon="7.81274">
        <ele>303</ele>
        <time>2025-05-09T08:19:26.000Z</time>
      </trkpt>
      <trkpt lat="49.04798" lon="7.81272">
        <ele>303</ele>
        <time>2025-05-09T08:19:30.000Z</time>
      </trkpt>
      <trkpt lat="49.04793" lon="7.81274">
        <ele>303</ele>
        <time>2025-05-09T08:19:33.000Z</time>
      </trkpt>
      <trkpt lat="49.04788" lon="7.81273">
        <ele>302</ele>
        <time>2025-05-09T08:19:37.000Z</time>
      </trkpt>
      <trkpt lat="49.04784" lon="7.81274">
        <ele>302</ele>
        <time>2025-05-09T08:19:41.000Z</time>
      </trkpt>
      <trkpt lat="49.04772" lon="7.81284">
        <ele>301</ele>
        <time>2025-05-09T08:19:52.000Z</time>
      </trkpt>
      <trkpt lat="49.04767" lon="7.81285">
        <ele>300</ele>
        <time>2025-05-09T08:19:56.000Z</time>
      </trkpt>
      <trkpt lat="49.0475" lon="7.81295">
        <ele>299</ele>
        <time>2025-05-09T08:20:12.000Z</time>
      </trkpt>
      <trkpt lat="49.04746" lon="7.81294">
        <ele>299</ele>
        <time>2025-05-09T08:20:17.000Z</time>
      </trkpt>
      <trkpt lat="49.04741" lon="7.81296">
        <ele>298</ele>
        <time>2025-05-09T08:20:20.000Z</time>
      </trkpt>
      <trkpt lat="49.04736" lon="7.81296">
        <ele>298</ele>
        <time>2025-05-09T08:20:24.000Z</time>
      </trkpt>
      <trkpt lat="49.04732" lon="7.81293">
        <ele>298</ele>
        <time>2025-05-09T08:20:28.000Z</time>
      </trkpt>
      <trkpt lat="49.04722" lon="7.813">
        <ele>297</ele>
        <time>2025-05-09T08:20:37.000Z</time>
      </trkpt>
      <trkpt lat="49.04717" lon="7.813">
        <ele>296</ele>
        <time>2025-05-09T08:20:43.000Z</time>
      </trkpt>
      <trkpt lat="49.04711" lon="7.81301">
        <ele>296</ele>
        <time>2025-05-09T08:20:47.000Z</time>
      </trkpt>
      <trkpt lat="49.04702" lon="7.813">
        <ele>295</ele>
        <time>2025-05-09T08:20:54.000Z</time>
      </trkpt>
      <trkpt lat="49.04697" lon="7.81303">
        <ele>295</ele>
        <time>2025-05-09T08:20:57.000Z</time>
      </trkpt>
      <trkpt lat="49.04693" lon="7.81301">
        <ele>295</ele>
        <time>2025-05-09T08:21:01.000Z</time>
      </trkpt>
      <trkpt lat="49.04684" lon="7.81303">
        <ele>294</ele>
        <time>2025-05-09T08:21:08.000Z</time>
      </trkpt>
      <trkpt lat="49.04679" lon="7.81304">
        <ele>294</ele>
        <time>2025-05-09T08:21:12.000Z</time>
      </trkpt>
      <trkpt lat="49.04666" lon="7.81296">
        <ele>294</ele>
        <time>2025-05-09T08:21:22.000Z</time>
      </trkpt>
      <trkpt lat="49.04661" lon="7.81296">
        <ele>294</ele>
        <time>2025-05-09T08:21:25.000Z</time>
      </trkpt>
      <trkpt lat="49.04656" lon="7.81287">
        <ele>294</ele>
        <time>2025-05-09T08:21:32.000Z</time>
      </trkpt>
      <trkpt lat="49.04652" lon="7.81285">
        <ele>294</ele>
        <time>2025-05-09T08:21:35.000Z</time>
      </trkpt>
      <trkpt lat="49.04642" lon="7.81285">
        <ele>293</ele>
        <time>2025-05-09T08:21:43.000Z</time>
      </trkpt>
      <trkpt lat="49.04635" lon="7.81287">
        <ele>293</ele>
        <time>2025-05-09T08:21:48.000Z</time>
      </trkpt>
      <trkpt lat="49.04631" lon="7.81291">
        <ele>293</ele>
        <time>2025-05-09T08:21:51.000Z</time>
      </trkpt>
      <trkpt lat="49.04629" lon="7.81296">
        <ele>293</ele>
        <time>2025-05-09T08:21:56.000Z</time>
      </trkpt>
      <trkpt lat="49.04621" lon="7.8131">
        <ele>293</ele>
        <time>2025-05-09T08:22:04.000Z</time>
      </trkpt>
      <trkpt lat="49.04616" lon="7.81311">
        <ele>293</ele>
        <time>2025-05-09T08:22:08.000Z</time>
      </trkpt>
      <trkpt lat="49.04612" lon="7.81313">
        <ele>293</ele>
        <time>2025-05-09T08:22:11.000Z</time>
      </trkpt>
      <trkpt lat="49.04598" lon="7.81317">
        <ele>293</ele>
        <time>2025-05-09T08:22:22.000Z</time>
      </trkpt>
      <trkpt lat="49.04593" lon="7.8132">
        <ele>293</ele>
        <time>2025-05-09T08:22:26.000Z</time>
      </trkpt>
      <trkpt lat="49.04589" lon="7.81318">
        <ele>294</ele>
        <time>2025-05-09T08:22:30.000Z</time>
      </trkpt>
      <trkpt lat="49.04581" lon="7.81323">
        <ele>294</ele>
        <time>2025-05-09T08:22:37.000Z</time>
      </trkpt>
      <trkpt lat="49.04572" lon="7.81333">
        <ele>293</ele>
        <time>2025-05-09T08:22:48.000Z</time>
      </trkpt>
      <trkpt lat="49.04562" lon="7.81338">
        <ele>293</ele>
        <time>2025-05-09T08:22:54.000Z</time>
      </trkpt>
      <trkpt lat="49.04558" lon="7.81339">
        <ele>292</ele>
        <time>2025-05-09T08:22:58.000Z</time>
      </trkpt>
      <trkpt lat="49.04554" lon="7.81343">
        <ele>292</ele>
        <time>2025-05-09T08:23:01.000Z</time>
      </trkpt>
      <trkpt lat="49.04549" lon="7.81344">
        <ele>292</ele>
        <time>2025-05-09T08:23:06.000Z</time>
      </trkpt>
      <trkpt lat="49.04537" lon="7.8134">
        <ele>293</ele>
        <time>2025-05-09T08:23:17.000Z</time>
      </trkpt>
      <trkpt lat="49.04499" lon="7.81339">
        <ele>292</ele>
        <time>2025-05-09T08:23:47.000Z</time>
      </trkpt>
      <trkpt lat="49.04489" lon="7.81338">
        <ele>292</ele>
        <time>2025-05-09T08:23:54.000Z</time>
      </trkpt>
      <trkpt lat="49.04485" lon="7.81339">
        <ele>292</ele>
        <time>2025-05-09T08:23:59.000Z</time>
      </trkpt>
      <trkpt lat="49.0448" lon="7.81338">
        <ele>292</ele>
        <time>2025-05-09T08:24:03.000Z</time>
      </trkpt>
      <trkpt lat="49.04475" lon="7.81339">
        <ele>292</ele>
        <time>2025-05-09T08:24:07.000Z</time>
      </trkpt>
      <trkpt lat="49.04468" lon="7.81339">
        <ele>292</ele>
        <time>2025-05-09T08:24:12.000Z</time>
      </trkpt>
      <trkpt lat="49.04454" lon="7.81325">
        <ele>291</ele>
        <time>2025-05-09T08:24:26.000Z</time>
      </trkpt>
      <trkpt lat="49.04444" lon="7.81323">
        <ele>290</ele>
        <time>2025-05-09T08:24:35.000Z</time>
      </trkpt>
      <trkpt lat="49.04433" lon="7.81325">
        <ele>290</ele>
        <time>2025-05-09T08:24:42.000Z</time>
      </trkpt>
      <trkpt lat="49.04421" lon="7.81329">
        <ele>289</ele>
        <time>2025-05-09T08:24:53.000Z</time>
      </trkpt>
      <trkpt lat="49.04406" lon="7.81332">
        <ele>289</ele>
        <time>2025-05-09T08:25:04.000Z</time>
      </trkpt>
      <trkpt lat="49.044" lon="7.81331">
        <ele>288</ele>
        <time>2025-05-09T08:25:07.000Z</time>
      </trkpt>
      <trkpt lat="49.04394" lon="7.81329">
        <ele>289</ele>
        <time>2025-05-09T08:25:11.000Z</time>
      </trkpt>
      <trkpt lat="49.04388" lon="7.81332">
        <ele>288</ele>
        <time>2025-05-09T08:25:17.000Z</time>
      </trkpt>
      <trkpt lat="49.04383" lon="7.81334">
        <ele>288</ele>
        <time>2025-05-09T08:25:20.000Z</time>
      </trkpt>
      <trkpt lat="49.04377" lon="7.81338">
        <ele>288</ele>
        <time>2025-05-09T08:25:29.000Z</time>
      </trkpt>
      <trkpt lat="49.04373" lon="7.81342">
        <ele>288</ele>
        <time>2025-05-09T08:25:34.000Z</time>
      </trkpt>
      <trkpt lat="49.04365" lon="7.81345">
        <ele>287</ele>
        <time>2025-05-09T08:25:39.000Z</time>
      </trkpt>
      <trkpt lat="49.04361" lon="7.81348">
        <ele>287</ele>
        <time>2025-05-09T08:25:42.000Z</time>
      </trkpt>
      <trkpt lat="49.04356" lon="7.81349">
        <ele>287</ele>
        <time>2025-05-09T08:25:46.000Z</time>
      </trkpt>
      <trkpt lat="49.04352" lon="7.81346">
        <ele>286</ele>
        <time>2025-05-09T08:25:49.000Z</time>
      </trkpt>
      <trkpt lat="49.04346" lon="7.81347">
        <ele>285</ele>
        <time>2025-05-09T08:25:58.000Z</time>
      </trkpt>
      <trkpt lat="49.04327" lon="7.81361">
        <ele>284</ele>
        <time>2025-05-09T08:26:13.000Z</time>
      </trkpt>
      <trkpt lat="49.04317" lon="7.81362">
        <ele>284</ele>
        <time>2025-05-09T08:26:22.000Z</time>
      </trkpt>
      <trkpt lat="49.04311" lon="7.81364">
        <ele>284</ele>
        <time>2025-05-09T08:26:28.000Z</time>
      </trkpt>
      <trkpt lat="49.04309" lon="7.81373">
        <ele>283</ele>
        <time>2025-05-09T08:26:35.000Z</time>
      </trkpt>
      <trkpt lat="49.04315" lon="7.81369">
        <ele>284</ele>
        <time>2025-05-09T08:26:39.000Z</time>
      </trkpt>
      <trkpt lat="49.04319" lon="7.81365">
        <ele>283</ele>
        <time>2025-05-09T08:26:43.000Z</time>
      </trkpt>
      <trkpt lat="49.04339" lon="7.81359">
        <ele>283</ele>
        <time>2025-05-09T08:26:54.000Z</time>
      </trkpt>
      <trkpt lat="49.04344" lon="7.81367">
        <ele>284</ele>
        <time>2025-05-09T08:27:00.000Z</time>
      </trkpt>
      <trkpt lat="49.04344" lon="7.81378">
        <ele>284</ele>
        <time>2025-05-09T08:27:02.000Z</time>
      </trkpt>
      <trkpt lat="49.04342" lon="7.81385">
        <ele>284</ele>
        <time>2025-05-09T08:27:04.000Z</time>
      </trkpt>
      <trkpt lat="49.0434" lon="7.81391">
        <ele>284</ele>
        <time>2025-05-09T08:27:07.000Z</time>
      </trkpt>
      <trkpt lat="49.04333" lon="7.81396">
        <ele>284</ele>
        <time>2025-05-09T08:27:10.000Z</time>
      </trkpt>
      <trkpt lat="49.04328" lon="7.81395">
        <ele>284</ele>
        <time>2025-05-09T08:27:13.000Z</time>
      </trkpt>
      <trkpt lat="49.04324" lon="7.81397">
        <ele>285</ele>
        <time>2025-05-09T08:27:16.000Z</time>
      </trkpt>
      <trkpt lat="49.04319" lon="7.81395">
        <ele>285</ele>
        <time>2025-05-09T08:27:19.000Z</time>
      </trkpt>
      <trkpt lat="49.04315" lon="7.81392">
        <ele>285</ele>
        <time>2025-05-09T08:27:22.000Z</time>
      </trkpt>
      <trkpt lat="49.04305" lon="7.81393">
        <ele>284</ele>
        <time>2025-05-09T08:27:29.000Z</time>
      </trkpt>
      <trkpt lat="49.04296" lon="7.81399">
        <ele>284</ele>
        <time>2025-05-09T08:27:35.000Z</time>
      </trkpt>
      <trkpt lat="49.04285" lon="7.81399">
        <ele>283</ele>
        <time>2025-05-09T08:27:48.000Z</time>
      </trkpt>
      <trkpt lat="49.04272" lon="7.814">
        <ele>283</ele>
        <time>2025-05-09T08:27:55.000Z</time>
      </trkpt>
      <trkpt lat="49.04262" lon="7.81393">
        <ele>283</ele>
        <time>2025-05-09T08:28:05.000Z</time>
      </trkpt>
      <trkpt lat="49.04258" lon="7.81389">
        <ele>283</ele>
        <time>2025-05-09T08:28:09.000Z</time>
      </trkpt>
      <trkpt lat="49.04252" lon="7.81391">
        <ele>283</ele>
        <time>2025-05-09T08:28:16.000Z</time>
      </trkpt>
      <trkpt lat="49.04247" lon="7.81396">
        <ele>283</ele>
        <time>2025-05-09T08:28:20.000Z</time>
      </trkpt>
      <trkpt lat="49.04242" lon="7.81396">
        <ele>283</ele>
        <time>2025-05-09T08:28:23.000Z</time>
      </trkpt>
      <trkpt lat="49.04238" lon="7.81395">
        <ele>283</ele>
        <time>2025-05-09T08:28:27.000Z</time>
      </trkpt>
      <trkpt lat="49.04227" lon="7.81389">
        <ele>284</ele>
        <time>2025-05-09T08:28:36.000Z</time>
      </trkpt>
      <trkpt lat="49.04216" lon="7.81381">
        <ele>283</ele>
        <time>2025-05-09T08:28:46.000Z</time>
      </trkpt>
      <trkpt lat="49.04212" lon="7.81382">
        <ele>283</ele>
        <time>2025-05-09T08:28:50.000Z</time>
      </trkpt>
      <trkpt lat="49.04207" lon="7.8138">
        <ele>284</ele>
        <time>2025-05-09T08:28:55.000Z</time>
      </trkpt>
      <trkpt lat="49.04202" lon="7.81383">
        <ele>284</ele>
        <time>2025-05-09T08:29:00.000Z</time>
      </trkpt>
      <trkpt lat="49.04197" lon="7.81382">
        <ele>284</ele>
        <time>2025-05-09T08:29:04.000Z</time>
      </trkpt>
      <trkpt lat="49.04178" lon="7.81388">
        <ele>284</ele>
        <time>2025-05-09T08:29:19.000Z</time>
      </trkpt>
      <trkpt lat="49.04173" lon="7.81385">
        <ele>284</ele>
        <time>2025-05-09T08:29:25.000Z</time>
      </trkpt>
      <trkpt lat="49.04168" lon="7.81387">
        <ele>284</ele>
        <time>2025-05-09T08:29:29.000Z</time>
      </trkpt>
      <trkpt lat="49.04162" lon="7.81385">
        <ele>284</ele>
        <time>2025-05-09T08:29:34.000Z</time>
      </trkpt>
      <trkpt lat="49.04152" lon="7.81379">
        <ele>284</ele>
        <time>2025-05-09T08:29:43.000Z</time>
      </trkpt>
      <trkpt lat="49.04141" lon="7.81387">
        <ele>285</ele>
        <time>2025-05-09T08:29:56.000Z</time>
      </trkpt>
      <trkpt lat="49.04136" lon="7.81389">
        <ele>284</ele>
        <time>2025-05-09T08:30:00.000Z</time>
      </trkpt>
      <trkpt lat="49.04127" lon="7.81391">
        <ele>285</ele>
        <time>2025-05-09T08:30:09.000Z</time>
      </trkpt>
      <trkpt lat="49.04117" lon="7.81403">
        <ele>284</ele>
        <time>2025-05-09T08:30:21.000Z</time>
      </trkpt>
      <trkpt lat="49.04114" lon="7.81409">
        <ele>284</ele>
        <time>2025-05-09T08:30:25.000Z</time>
      </trkpt>
      <trkpt lat="49.04106" lon="7.81425">
        <ele>284</ele>
        <time>2025-05-09T08:30:34.000Z</time>
      </trkpt>
      <trkpt lat="49.04093" lon="7.81438">
        <ele>284</ele>
        <time>2025-05-09T08:30:44.000Z</time>
      </trkpt>
      <trkpt lat="49.04089" lon="7.81444">
        <ele>283</ele>
        <time>2025-05-09T08:30:48.000Z</time>
      </trkpt>
      <trkpt lat="49.0408" lon="7.81452">
        <ele>283</ele>
        <time>2025-05-09T08:30:56.000Z</time>
      </trkpt>
      <trkpt lat="49.04067" lon="7.81455">
        <ele>283</ele>
        <time>2025-05-09T08:31:08.000Z</time>
      </trkpt>
      <trkpt lat="49.04058" lon="7.81461">
        <ele>282</ele>
        <time>2025-05-09T08:31:17.000Z</time>
      </trkpt>
      <trkpt lat="49.04052" lon="7.81461">
        <ele>282</ele>
        <time>2025-05-09T08:31:22.000Z</time>
      </trkpt>
      <trkpt lat="49.04047" lon="7.81466">
        <ele>282</ele>
        <time>2025-05-09T08:31:31.000Z</time>
      </trkpt>
      <trkpt lat="49.04032" lon="7.81486">
        <ele>281</ele>
        <time>2025-05-09T08:31:52.000Z</time>
      </trkpt>
      <trkpt lat="49.04028" lon="7.8149">
        <ele>281</ele>
        <time>2025-05-09T08:31:56.000Z</time>
      </trkpt>
      <trkpt lat="49.04021" lon="7.81509">
        <ele>282</ele>
        <time>2025-05-09T08:32:16.000Z</time>
      </trkpt>
      <trkpt lat="49.04016" lon="7.81499">
        <ele>282</ele>
        <time>2025-05-09T08:32:19.000Z</time>
      </trkpt>
      <trkpt lat="49.04015" lon="7.81514">
        <ele>282</ele>
        <time>2025-05-09T08:32:35.000Z</time>
      </trkpt>
      <trkpt lat="49.04012" lon="7.81516">
        <ele>281</ele>
        <time>2025-05-09T08:32:42.000Z</time>
      </trkpt>
      <trkpt lat="49.04004" lon="7.8153">
        <ele>281</ele>
        <time>2025-05-09T08:33:02.000Z</time>
      </trkpt>
      <trkpt lat="49.04005" lon="7.81537">
        <ele>281</ele>
        <time>2025-05-09T08:33:06.000Z</time>
      </trkpt>
      <trkpt lat="49.04" lon="7.81551">
        <ele>281</ele>
        <time>2025-05-09T08:33:15.000Z</time>
      </trkpt>
      <trkpt lat="49.03995" lon="7.81554">
        <ele>281</ele>
        <time>2025-05-09T08:33:19.000Z</time>
      </trkpt>
      <trkpt lat="49.0399" lon="7.81555">
        <ele>280</ele>
        <time>2025-05-09T08:33:23.000Z</time>
      </trkpt>
      <trkpt lat="49.03987" lon="7.8156">
        <ele>280</ele>
        <time>2025-05-09T08:33:26.000Z</time>
      </trkpt>
      <trkpt lat="49.03977" lon="7.81579">
        <ele>279</ele>
        <time>2025-05-09T08:33:41.000Z</time>
      </trkpt>
      <trkpt lat="49.03967" lon="7.81601">
        <ele>278</ele>
        <time>2025-05-09T08:33:56.000Z</time>
      </trkpt>
      <trkpt lat="49.03958" lon="7.81609">
        <ele>278</ele>
        <time>2025-05-09T08:34:03.000Z</time>
      </trkpt>
      <trkpt lat="49.03939" lon="7.81621">
        <ele>278</ele>
        <time>2025-05-09T08:34:22.000Z</time>
      </trkpt>
      <trkpt lat="49.03936" lon="7.81626">
        <ele>278</ele>
        <time>2025-05-09T08:34:25.000Z</time>
      </trkpt>
      <trkpt lat="49.03929" lon="7.81631">
        <ele>278</ele>
        <time>2025-05-09T08:34:32.000Z</time>
      </trkpt>
      <trkpt lat="49.03926" lon="7.81636">
        <ele>278</ele>
        <time>2025-05-09T08:34:35.000Z</time>
      </trkpt>
      <trkpt lat="49.03922" lon="7.81665">
        <ele>281</ele>
        <time>2025-05-09T08:34:57.000Z</time>
      </trkpt>
      <trkpt lat="49.03919" lon="7.8167">
        <ele>281</ele>
        <time>2025-05-09T08:35:01.000Z</time>
      </trkpt>
      <trkpt lat="49.03897" lon="7.81683">
        <ele>281</ele>
        <time>2025-05-09T08:35:16.000Z</time>
      </trkpt>
      <trkpt lat="49.03894" lon="7.81689">
        <ele>281</ele>
        <time>2025-05-09T08:35:19.000Z</time>
      </trkpt>
      <trkpt lat="49.03889" lon="7.81692">
        <ele>281</ele>
        <time>2025-05-09T08:35:23.000Z</time>
      </trkpt>
      <trkpt lat="49.03881" lon="7.81692">
        <ele>282</ele>
        <time>2025-05-09T08:35:30.000Z</time>
      </trkpt>
      <trkpt lat="49.03876" lon="7.81686">
        <ele>282</ele>
        <time>2025-05-09T08:35:33.000Z</time>
      </trkpt>
      <trkpt lat="49.03872" lon="7.81684">
        <ele>281</ele>
        <time>2025-05-09T08:35:35.000Z</time>
      </trkpt>
      <trkpt lat="49.03867" lon="7.81683">
        <ele>281</ele>
        <time>2025-05-09T08:35:39.000Z</time>
      </trkpt>
      <trkpt lat="49.03862" lon="7.81679">
        <ele>281</ele>
        <time>2025-05-09T08:35:42.000Z</time>
      </trkpt>
      <trkpt lat="49.03856" lon="7.81678">
        <ele>281</ele>
        <time>2025-05-09T08:35:45.000Z</time>
      </trkpt>
      <trkpt lat="49.03848" lon="7.8167">
        <ele>280</ele>
        <time>2025-05-09T08:35:54.000Z</time>
      </trkpt>
      <trkpt lat="49.03843" lon="7.81664">
        <ele>280</ele>
        <time>2025-05-09T08:36:02.000Z</time>
      </trkpt>
      <trkpt lat="49.03837" lon="7.81662">
        <ele>281</ele>
        <time>2025-05-09T08:36:08.000Z</time>
      </trkpt>
      <trkpt lat="49.03815" lon="7.81653">
        <ele>279</ele>
        <time>2025-05-09T08:36:30.000Z</time>
      </trkpt>
      <trkpt lat="49.03805" lon="7.81647">
        <ele>279</ele>
        <time>2025-05-09T08:36:42.000Z</time>
      </trkpt>
      <trkpt lat="49.038" lon="7.81647">
        <ele>280</ele>
        <time>2025-05-09T08:36:47.000Z</time>
      </trkpt>
      <trkpt lat="49.03791" lon="7.81649">
        <ele>279</ele>
        <time>2025-05-09T08:36:54.000Z</time>
      </trkpt>
      <trkpt lat="49.03786" lon="7.81649">
        <ele>279</ele>
        <time>2025-05-09T08:37:00.000Z</time>
      </trkpt>
      <trkpt lat="49.0378" lon="7.81652">
        <ele>279</ele>
        <time>2025-05-09T08:37:03.000Z</time>
      </trkpt>
      <trkpt lat="49.03777" lon="7.81657">
        <ele>279</ele>
        <time>2025-05-09T08:37:07.000Z</time>
      </trkpt>
      <trkpt lat="49.03767" lon="7.81659">
        <ele>279</ele>
        <time>2025-05-09T08:37:13.000Z</time>
      </trkpt>
      <trkpt lat="49.03762" lon="7.81665">
        <ele>279</ele>
        <time>2025-05-09T08:37:17.000Z</time>
      </trkpt>
      <trkpt lat="49.03758" lon="7.81663">
        <ele>279</ele>
        <time>2025-05-09T08:37:22.000Z</time>
      </trkpt>
      <trkpt lat="49.03754" lon="7.81667">
        <ele>279</ele>
        <time>2025-05-09T08:37:26.000Z</time>
      </trkpt>
      <trkpt lat="49.03746" lon="7.81666">
        <ele>278</ele>
        <time>2025-05-09T08:37:35.000Z</time>
      </trkpt>
      <trkpt lat="49.03742" lon="7.81668">
        <ele>278</ele>
        <time>2025-05-09T08:37:39.000Z</time>
      </trkpt>
      <trkpt lat="49.03725" lon="7.81676">
        <ele>278</ele>
        <time>2025-05-09T08:37:56.000Z</time>
      </trkpt>
      <trkpt lat="49.03699" lon="7.81697">
        <ele>276</ele>
        <time>2025-05-09T08:38:19.000Z</time>
      </trkpt>
      <trkpt lat="49.03695" lon="7.81703">
        <ele>276</ele>
        <time>2025-05-09T08:38:24.000Z</time>
      </trkpt>
      <trkpt lat="49.03689" lon="7.81709">
        <ele>276</ele>
        <time>2025-05-09T08:38:31.000Z</time>
      </trkpt>
      <trkpt lat="49.03684" lon="7.81713">
        <ele>276</ele>
        <time>2025-05-09T08:38:36.000Z</time>
      </trkpt>
      <trkpt lat="49.03679" lon="7.8172">
        <ele>275</ele>
        <time>2025-05-09T08:38:43.000Z</time>
      </trkpt>
      <trkpt lat="49.03676" lon="7.81725">
        <ele>276</ele>
        <time>2025-05-09T08:38:47.000Z</time>
      </trkpt>
      <trkpt lat="49.03662" lon="7.8173">
        <ele>275</ele>
        <time>2025-05-09T08:38:58.000Z</time>
      </trkpt>
      <trkpt lat="49.03652" lon="7.81742">
        <ele>275</ele>
        <time>2025-05-09T08:39:09.000Z</time>
      </trkpt>
      <trkpt lat="49.03642" lon="7.81747">
        <ele>275</ele>
        <time>2025-05-09T08:39:16.000Z</time>
      </trkpt>
      <trkpt lat="49.03637" lon="7.81754">
        <ele>275</ele>
        <time>2025-05-09T08:39:20.000Z</time>
      </trkpt>
      <trkpt lat="49.03632" lon="7.81756">
        <ele>274</ele>
        <time>2025-05-09T08:39:25.000Z</time>
      </trkpt>
      <trkpt lat="49.03625" lon="7.81763">
        <ele>273</ele>
        <time>2025-05-09T08:39:38.000Z</time>
      </trkpt>
      <trkpt lat="49.03617" lon="7.81769">
        <ele>273</ele>
        <time>2025-05-09T08:39:44.000Z</time>
      </trkpt>
      <trkpt lat="49.03612" lon="7.81775">
        <ele>273</ele>
        <time>2025-05-09T08:39:47.000Z</time>
      </trkpt>
      <trkpt lat="49.036" lon="7.81785">
        <ele>273</ele>
        <time>2025-05-09T08:39:58.000Z</time>
      </trkpt>
      <trkpt lat="49.03594" lon="7.81792">
        <ele>273</ele>
        <time>2025-05-09T08:40:08.000Z</time>
      </trkpt>
      <trkpt lat="49.03591" lon="7.818">
        <ele>272</ele>
        <time>2025-05-09T08:40:12.000Z</time>
      </trkpt>
      <trkpt lat="49.03569" lon="7.81837">
        <ele>273</ele>
        <time>2025-05-09T08:40:37.000Z</time>
      </trkpt>
      <trkpt lat="49.03564" lon="7.81842">
        <ele>273</ele>
        <time>2025-05-09T08:40:45.000Z</time>
      </trkpt>
      <trkpt lat="49.03558" lon="7.81855">
        <ele>274</ele>
        <time>2025-05-09T08:40:57.000Z</time>
      </trkpt>
      <trkpt lat="49.03553" lon="7.81861">
        <ele>275</ele>
        <time>2025-05-09T08:41:07.000Z</time>
      </trkpt>
      <trkpt lat="49.0355" lon="7.81865">
        <ele>275</ele>
        <time>2025-05-09T08:41:10.000Z</time>
      </trkpt>
      <trkpt lat="49.03528" lon="7.81904">
        <ele>273</ele>
        <time>2025-05-09T08:41:34.000Z</time>
      </trkpt>
      <trkpt lat="49.03525" lon="7.81914">
        <ele>273</ele>
        <time>2025-05-09T08:41:45.000Z</time>
      </trkpt>
      <trkpt lat="49.03523" lon="7.8192">
        <ele>273</ele>
        <time>2025-05-09T08:41:48.000Z</time>
      </trkpt>
      <trkpt lat="49.0352" lon="7.81939">
        <ele>273</ele>
        <time>2025-05-09T08:42:01.000Z</time>
      </trkpt>
      <trkpt lat="49.03514" lon="7.81962">
        <ele>272</ele>
        <time>2025-05-09T08:42:13.000Z</time>
      </trkpt>
      <trkpt lat="49.03508" lon="7.81973">
        <ele>273</ele>
        <time>2025-05-09T08:42:19.000Z</time>
      </trkpt>
      <trkpt lat="49.03506" lon="7.81987">
        <ele>273</ele>
        <time>2025-05-09T08:42:25.000Z</time>
      </trkpt>
      <trkpt lat="49.03503" lon="7.81995">
        <ele>273</ele>
        <time>2025-05-09T08:42:28.000Z</time>
      </trkpt>
      <trkpt lat="49.03499" lon="7.82">
        <ele>273</ele>
        <time>2025-05-09T08:42:31.000Z</time>
      </trkpt>
      <trkpt lat="49.03497" lon="7.82006">
        <ele>273</ele>
        <time>2025-05-09T08:42:35.000Z</time>
      </trkpt>
      <trkpt lat="49.03496" lon="7.82018">
        <ele>273</ele>
        <time>2025-05-09T08:42:45.000Z</time>
      </trkpt>
      <trkpt lat="49.03496" lon="7.82024">
        <ele>272</ele>
        <time>2025-05-09T08:42:50.000Z</time>
      </trkpt>
      <trkpt lat="49.03487" lon="7.82046">
        <ele>272</ele>
        <time>2025-05-09T08:43:00.000Z</time>
      </trkpt>
      <trkpt lat="49.03486" lon="7.82051">
        <ele>272</ele>
        <time>2025-05-09T08:43:04.000Z</time>
      </trkpt>
      <trkpt lat="49.03482" lon="7.82059">
        <ele>272</ele>
        <time>2025-05-09T08:43:08.000Z</time>
      </trkpt>
      <trkpt lat="49.03479" lon="7.82079">
        <ele>273</ele>
        <time>2025-05-09T08:43:17.000Z</time>
      </trkpt>
      <trkpt lat="49.03473" lon="7.82084">
        <ele>272</ele>
        <time>2025-05-09T08:43:20.000Z</time>
      </trkpt>
      <trkpt lat="49.03472" lon="7.8209">
        <ele>273</ele>
        <time>2025-05-09T08:43:24.000Z</time>
      </trkpt>
      <trkpt lat="49.03473" lon="7.82097">
        <ele>272</ele>
        <time>2025-05-09T08:43:28.000Z</time>
      </trkpt>
      <trkpt lat="49.03471" lon="7.82104">
        <ele>272</ele>
        <time>2025-05-09T08:43:33.000Z</time>
      </trkpt>
      <trkpt lat="49.03472" lon="7.82117">
        <ele>272</ele>
        <time>2025-05-09T08:43:42.000Z</time>
      </trkpt>
      <trkpt lat="49.0347" lon="7.82123">
        <ele>272</ele>
        <time>2025-05-09T08:43:44.000Z</time>
      </trkpt>
      <trkpt lat="49.0346" lon="7.82133">
        <ele>272</ele>
        <time>2025-05-09T08:43:51.000Z</time>
      </trkpt>
      <trkpt lat="49.03455" lon="7.82135">
        <ele>272</ele>
        <time>2025-05-09T08:43:55.000Z</time>
      </trkpt>
      <trkpt lat="49.03441" lon="7.82149">
        <ele>272</ele>
        <time>2025-05-09T08:44:22.000Z</time>
      </trkpt>
      <trkpt lat="49.03433" lon="7.82163">
        <ele>271</ele>
        <time>2025-05-09T08:44:35.000Z</time>
      </trkpt>
      <trkpt lat="49.03426" lon="7.82172">
        <ele>272</ele>
        <time>2025-05-09T08:44:43.000Z</time>
      </trkpt>
      <trkpt lat="49.03421" lon="7.82175">
        <ele>272</ele>
        <time>2025-05-09T08:44:47.000Z</time>
      </trkpt>
      <trkpt lat="49.03418" lon="7.82181">
        <ele>272</ele>
        <time>2025-05-09T08:44:51.000Z</time>
      </trkpt>
      <trkpt lat="49.03406" lon="7.82196">
        <ele>271</ele>
        <time>2025-05-09T08:45:03.000Z</time>
      </trkpt>
      <trkpt lat="49.034" lon="7.82199">
        <ele>271</ele>
        <time>2025-05-09T08:45:07.000Z</time>
      </trkpt>
      <trkpt lat="49.03392" lon="7.82205">
        <ele>271</ele>
        <time>2025-05-09T08:45:14.000Z</time>
      </trkpt>
      <trkpt lat="49.03384" lon="7.82206">
        <ele>271</ele>
        <time>2025-05-09T08:45:22.000Z</time>
      </trkpt>
      <trkpt lat="49.03379" lon="7.82209">
        <ele>271</ele>
        <time>2025-05-09T08:45:26.000Z</time>
      </trkpt>
      <trkpt lat="49.03374" lon="7.82207">
        <ele>270</ele>
        <time>2025-05-09T08:45:29.000Z</time>
      </trkpt>
      <trkpt lat="49.03372" lon="7.822">
        <ele>270</ele>
        <time>2025-05-09T08:45:33.000Z</time>
      </trkpt>
      <trkpt lat="49.03366" lon="7.82177">
        <ele>269</ele>
        <time>2025-05-09T08:45:46.000Z</time>
      </trkpt>
      <trkpt lat="49.03358" lon="7.82169">
        <ele>269</ele>
        <time>2025-05-09T08:45:53.000Z</time>
      </trkpt>
      <trkpt lat="49.03356" lon="7.82162">
        <ele>269</ele>
        <time>2025-05-09T08:45:56.000Z</time>
      </trkpt>
      <trkpt lat="49.03345" lon="7.82147">
        <ele>269</ele>
        <time>2025-05-09T08:46:06.000Z</time>
      </trkpt>
      <trkpt lat="49.03341" lon="7.82145">
        <ele>269</ele>
        <time>2025-05-09T08:46:09.000Z</time>
      </trkpt>
      <trkpt lat="49.03333" lon="7.82132">
        <ele>270</ele>
        <time>2025-05-09T08:46:21.000Z</time>
      </trkpt>
      <trkpt lat="49.03336" lon="7.82133">
        <ele>265</ele>
        <time>2025-05-09T09:46:30.000Z</time>
      </trkpt>
      <trkpt lat="49.03336" lon="7.82133">
        <ele>265</ele>
        <time>2025-05-09T09:46:31.000Z</time>
      </trkpt>
      <trkpt lat="49.03354" lon="7.82139">
        <ele>265</ele>
        <time>2025-05-09T09:46:47.000Z</time>
      </trkpt>
      <trkpt lat="49.03362" lon="7.82147">
        <ele>264</ele>
        <time>2025-05-09T09:46:53.000Z</time>
      </trkpt>
      <trkpt lat="49.03364" lon="7.82153">
        <ele>264</ele>
        <time>2025-05-09T09:46:57.000Z</time>
      </trkpt>
      <trkpt lat="49.03369" lon="7.82166">
        <ele>264</ele>
        <time>2025-05-09T09:47:06.000Z</time>
      </trkpt>
      <trkpt lat="49.03372" lon="7.82171">
        <ele>264</ele>
        <time>2025-05-09T09:47:10.000Z</time>
      </trkpt>
      <trkpt lat="49.03374" lon="7.82177">
        <ele>264</ele>
        <time>2025-05-09T09:47:14.000Z</time>
      </trkpt>
      <trkpt lat="49.03375" lon="7.82193">
        <ele>264</ele>
        <time>2025-05-09T09:47:22.000Z</time>
      </trkpt>
      <trkpt lat="49.03373" lon="7.82207">
        <ele>264</ele>
        <time>2025-05-09T09:47:30.000Z</time>
      </trkpt>
      <trkpt lat="49.03371" lon="7.82214">
        <ele>264</ele>
        <time>2025-05-09T09:47:34.000Z</time>
      </trkpt>
      <trkpt lat="49.03361" lon="7.82231">
        <ele>265</ele>
        <time>2025-05-09T09:47:47.000Z</time>
      </trkpt>
      <trkpt lat="49.03358" lon="7.82235">
        <ele>265</ele>
        <time>2025-05-09T09:47:51.000Z</time>
      </trkpt>
      <trkpt lat="49.03354" lon="7.82241">
        <ele>265</ele>
        <time>2025-05-09T09:47:56.000Z</time>
      </trkpt>
      <trkpt lat="49.0335" lon="7.82246">
        <ele>265</ele>
        <time>2025-05-09T09:48:00.000Z</time>
      </trkpt>
      <trkpt lat="49.03347" lon="7.82249">
        <ele>265</ele>
        <time>2025-05-09T09:48:04.000Z</time>
      </trkpt>
      <trkpt lat="49.03334" lon="7.82261">
        <ele>266</ele>
        <time>2025-05-09T09:48:16.000Z</time>
      </trkpt>
      <trkpt lat="49.0333" lon="7.82264">
        <ele>265</ele>
        <time>2025-05-09T09:48:20.000Z</time>
      </trkpt>
      <trkpt lat="49.03315" lon="7.82269">
        <ele>264</ele>
        <time>2025-05-09T09:48:33.000Z</time>
      </trkpt>
      <trkpt lat="49.03306" lon="7.82275">
        <ele>263</ele>
        <time>2025-05-09T09:48:42.000Z</time>
      </trkpt>
      <trkpt lat="49.03302" lon="7.82278">
        <ele>263</ele>
        <time>2025-05-09T09:48:46.000Z</time>
      </trkpt>
      <trkpt lat="49.03297" lon="7.82279">
        <ele>263</ele>
        <time>2025-05-09T09:48:50.000Z</time>
      </trkpt>
      <trkpt lat="49.03292" lon="7.82281">
        <ele>263</ele>
        <time>2025-05-09T09:48:54.000Z</time>
      </trkpt>
      <trkpt lat="49.03289" lon="7.82285">
        <ele>263</ele>
        <time>2025-05-09T09:48:57.000Z</time>
      </trkpt>
      <trkpt lat="49.03285" lon="7.8229">
        <ele>263</ele>
        <time>2025-05-09T09:49:00.000Z</time>
      </trkpt>
      <trkpt lat="49.03274" lon="7.82306">
        <ele>263</ele>
        <time>2025-05-09T09:49:13.000Z</time>
      </trkpt>
      <trkpt lat="49.03266" lon="7.82313">
        <ele>264</ele>
        <time>2025-05-09T09:49:21.000Z</time>
      </trkpt>
      <trkpt lat="49.03262" lon="7.82319">
        <ele>264</ele>
        <time>2025-05-09T09:49:24.000Z</time>
      </trkpt>
      <trkpt lat="49.03235" lon="7.82342">
        <ele>263</ele>
        <time>2025-05-09T09:49:48.000Z</time>
      </trkpt>
      <trkpt lat="49.03225" lon="7.82344">
        <ele>264</ele>
        <time>2025-05-09T09:49:56.000Z</time>
      </trkpt>
      <trkpt lat="49.0322" lon="7.82343">
        <ele>264</ele>
        <time>2025-05-09T09:50:00.000Z</time>
      </trkpt>
      <trkpt lat="49.03216" lon="7.82342">
        <ele>265</ele>
        <time>2025-05-09T09:50:04.000Z</time>
      </trkpt>
      <trkpt lat="49.03206" lon="7.82335">
        <ele>265</ele>
        <time>2025-05-09T09:50:11.000Z</time>
      </trkpt>
      <trkpt lat="49.03202" lon="7.82331">
        <ele>265</ele>
        <time>2025-05-09T09:50:15.000Z</time>
      </trkpt>
      <trkpt lat="49.03189" lon="7.8232">
        <ele>266</ele>
        <time>2025-05-09T09:50:29.000Z</time>
      </trkpt>
      <trkpt lat="49.03184" lon="7.82315">
        <ele>266</ele>
        <time>2025-05-09T09:50:32.000Z</time>
      </trkpt>
      <trkpt lat="49.0318" lon="7.82311">
        <ele>266</ele>
        <time>2025-05-09T09:50:34.000Z</time>
      </trkpt>
      <trkpt lat="49.0317" lon="7.82308">
        <ele>267</ele>
        <time>2025-05-09T09:50:41.000Z</time>
      </trkpt>
      <trkpt lat="49.03163" lon="7.82304">
        <ele>267</ele>
        <time>2025-05-09T09:50:46.000Z</time>
      </trkpt>
      <trkpt lat="49.03153" lon="7.82304">
        <ele>268</ele>
        <time>2025-05-09T09:50:59.000Z</time>
      </trkpt>
      <trkpt lat="49.03127" lon="7.82313">
        <ele>269</ele>
        <time>2025-05-09T09:51:22.000Z</time>
      </trkpt>
      <trkpt lat="49.03117" lon="7.82313">
        <ele>270</ele>
        <time>2025-05-09T09:51:29.000Z</time>
      </trkpt>
      <trkpt lat="49.03113" lon="7.82316">
        <ele>270</ele>
        <time>2025-05-09T09:51:32.000Z</time>
      </trkpt>
      <trkpt lat="49.03108" lon="7.82318">
        <ele>270</ele>
        <time>2025-05-09T09:51:36.000Z</time>
      </trkpt>
      <trkpt lat="49.03105" lon="7.82323">
        <ele>270</ele>
        <time>2025-05-09T09:51:39.000Z</time>
      </trkpt>
      <trkpt lat="49.03101" lon="7.82328">
        <ele>269</ele>
        <time>2025-05-09T09:51:43.000Z</time>
      </trkpt>
      <trkpt lat="49.03097" lon="7.8233">
        <ele>269</ele>
        <time>2025-05-09T09:51:46.000Z</time>
      </trkpt>
      <trkpt lat="49.03093" lon="7.82334">
        <ele>270</ele>
        <time>2025-05-09T09:51:50.000Z</time>
      </trkpt>
      <trkpt lat="49.03088" lon="7.82342">
        <ele>270</ele>
        <time>2025-05-09T09:51:57.000Z</time>
      </trkpt>
      <trkpt lat="49.03086" lon="7.82349">
        <ele>270</ele>
        <time>2025-05-09T09:52:00.000Z</time>
      </trkpt>
      <trkpt lat="49.03081" lon="7.82352">
        <ele>271</ele>
        <time>2025-05-09T09:52:04.000Z</time>
      </trkpt>
      <trkpt lat="49.03077" lon="7.82356">
        <ele>271</ele>
        <time>2025-05-09T09:52:07.000Z</time>
      </trkpt>
      <trkpt lat="49.03071" lon="7.82368">
        <ele>271</ele>
        <time>2025-05-09T09:52:15.000Z</time>
      </trkpt>
      <trkpt lat="49.03069" lon="7.82374">
        <ele>271</ele>
        <time>2025-05-09T09:52:18.000Z</time>
      </trkpt>
      <trkpt lat="49.03066" lon="7.8238">
        <ele>271</ele>
        <time>2025-05-09T09:52:23.000Z</time>
      </trkpt>
      <trkpt lat="49.03065" lon="7.82386">
        <ele>271</ele>
        <time>2025-05-09T09:52:27.000Z</time>
      </trkpt>
      <trkpt lat="49.03048" lon="7.82414">
        <ele>273</ele>
        <time>2025-05-09T09:52:49.000Z</time>
      </trkpt>
      <trkpt lat="49.03045" lon="7.82421">
        <ele>273</ele>
        <time>2025-05-09T09:52:54.000Z</time>
      </trkpt>
      <trkpt lat="49.03041" lon="7.82426">
        <ele>272</ele>
        <time>2025-05-09T09:52:57.000Z</time>
      </trkpt>
      <trkpt lat="49.0303" lon="7.82443">
        <ele>271</ele>
        <time>2025-05-09T09:53:09.000Z</time>
      </trkpt>
      <trkpt lat="49.03028" lon="7.82449">
        <ele>271</ele>
        <time>2025-05-09T09:53:13.000Z</time>
      </trkpt>
      <trkpt lat="49.03026" lon="7.82463">
        <ele>270</ele>
        <time>2025-05-09T09:53:20.000Z</time>
      </trkpt>
      <trkpt lat="49.03022" lon="7.82467">
        <ele>270</ele>
        <time>2025-05-09T09:53:24.000Z</time>
      </trkpt>
      <trkpt lat="49.03019" lon="7.82472">
        <ele>270</ele>
        <time>2025-05-09T09:53:28.000Z</time>
      </trkpt>
      <trkpt lat="49.03011" lon="7.82482">
        <ele>269</ele>
        <time>2025-05-09T09:53:36.000Z</time>
      </trkpt>
      <trkpt lat="49.03008" lon="7.82489">
        <ele>269</ele>
        <time>2025-05-09T09:53:41.000Z</time>
      </trkpt>
      <trkpt lat="49.03005" lon="7.82494">
        <ele>269</ele>
        <time>2025-05-09T09:53:45.000Z</time>
      </trkpt>
      <trkpt lat="49.03002" lon="7.82499">
        <ele>269</ele>
        <time>2025-05-09T09:53:48.000Z</time>
      </trkpt>
      <trkpt lat="49.02985" lon="7.82516">
        <ele>267</ele>
        <time>2025-05-09T09:54:05.000Z</time>
      </trkpt>
      <trkpt lat="49.02983" lon="7.82521">
        <ele>266</ele>
        <time>2025-05-09T09:54:09.000Z</time>
      </trkpt>
      <trkpt lat="49.02971" lon="7.82534">
        <ele>265</ele>
        <time>2025-05-09T09:54:21.000Z</time>
      </trkpt>
      <trkpt lat="49.02963" lon="7.82547">
        <ele>265</ele>
        <time>2025-05-09T09:54:29.000Z</time>
      </trkpt>
      <trkpt lat="49.02959" lon="7.8255">
        <ele>265</ele>
        <time>2025-05-09T09:54:33.000Z</time>
      </trkpt>
      <trkpt lat="49.02946" lon="7.82563">
        <ele>264</ele>
        <time>2025-05-09T09:54:46.000Z</time>
      </trkpt>
      <trkpt lat="49.02941" lon="7.82566">
        <ele>264</ele>
        <time>2025-05-09T09:54:50.000Z</time>
      </trkpt>
      <trkpt lat="49.02937" lon="7.82569">
        <ele>263</ele>
        <time>2025-05-09T09:54:54.000Z</time>
      </trkpt>
      <trkpt lat="49.02932" lon="7.82571">
        <ele>263</ele>
        <time>2025-05-09T09:54:58.000Z</time>
      </trkpt>
      <trkpt lat="49.02907" lon="7.82586">
        <ele>259</ele>
        <time>2025-05-09T09:55:21.000Z</time>
      </trkpt>
      <trkpt lat="49.02895" lon="7.82591">
        <ele>258</ele>
        <time>2025-05-09T09:55:32.000Z</time>
      </trkpt>
      <trkpt lat="49.02886" lon="7.82597">
        <ele>258</ele>
        <time>2025-05-09T09:55:40.000Z</time>
      </trkpt>
      <trkpt lat="49.02881" lon="7.82597">
        <ele>258</ele>
        <time>2025-05-09T09:55:45.000Z</time>
      </trkpt>
      <trkpt lat="49.02876" lon="7.82597">
        <ele>258</ele>
        <time>2025-05-09T09:55:48.000Z</time>
      </trkpt>
      <trkpt lat="49.02871" lon="7.82597">
        <ele>258</ele>
        <time>2025-05-09T09:55:52.000Z</time>
      </trkpt>
      <trkpt lat="49.02867" lon="7.82601">
        <ele>257</ele>
        <time>2025-05-09T09:55:56.000Z</time>
      </trkpt>
      <trkpt lat="49.0286" lon="7.82601">
        <ele>256</ele>
        <time>2025-05-09T09:56:02.000Z</time>
      </trkpt>
      <trkpt lat="49.02845" lon="7.82599">
        <ele>256</ele>
        <time>2025-05-09T09:56:13.000Z</time>
      </trkpt>
      <trkpt lat="49.0284" lon="7.82596">
        <ele>255</ele>
        <time>2025-05-09T09:56:17.000Z</time>
      </trkpt>
      <trkpt lat="49.02834" lon="7.82598">
        <ele>255</ele>
        <time>2025-05-09T09:56:21.000Z</time>
      </trkpt>
      <trkpt lat="49.0283" lon="7.82593">
        <ele>255</ele>
        <time>2025-05-09T09:56:26.000Z</time>
      </trkpt>
      <trkpt lat="49.02825" lon="7.82586">
        <ele>254</ele>
        <time>2025-05-09T09:56:29.000Z</time>
      </trkpt>
      <trkpt lat="49.02819" lon="7.82581">
        <ele>255</ele>
        <time>2025-05-09T09:56:35.000Z</time>
      </trkpt>
      <trkpt lat="49.02817" lon="7.82576">
        <ele>255</ele>
        <time>2025-05-09T09:56:38.000Z</time>
      </trkpt>
      <trkpt lat="49.02811" lon="7.82572">
        <ele>255</ele>
        <time>2025-05-09T09:56:42.000Z</time>
      </trkpt>
      <trkpt lat="49.02808" lon="7.82567">
        <ele>255</ele>
        <time>2025-05-09T09:56:47.000Z</time>
      </trkpt>
      <trkpt lat="49.02802" lon="7.82566">
        <ele>255</ele>
        <time>2025-05-09T09:56:49.000Z</time>
      </trkpt>
      <trkpt lat="49.02801" lon="7.82558">
        <ele>254</ele>
        <time>2025-05-09T09:57:05.000Z</time>
      </trkpt>
      <trkpt lat="49.02802" lon="7.82564">
        <ele>254</ele>
        <time>2025-05-09T09:57:42.000Z</time>
      </trkpt>
      <trkpt lat="49.02799" lon="7.8257">
        <ele>255</ele>
        <time>2025-05-09T09:57:44.000Z</time>
      </trkpt>
      <trkpt lat="49.02798" lon="7.82581">
        <ele>254</ele>
        <time>2025-05-09T09:57:54.000Z</time>
      </trkpt>
      <trkpt lat="49.02795" lon="7.82587">
        <ele>254</ele>
        <time>2025-05-09T09:57:57.000Z</time>
      </trkpt>
      <trkpt lat="49.02786" lon="7.82597">
        <ele>256</ele>
        <time>2025-05-09T09:58:06.000Z</time>
      </trkpt>
      <trkpt lat="49.02783" lon="7.82601">
        <ele>256</ele>
        <time>2025-05-09T09:58:10.000Z</time>
      </trkpt>
      <trkpt lat="49.02778" lon="7.82604">
        <ele>256</ele>
        <time>2025-05-09T09:58:14.000Z</time>
      </trkpt>
      <trkpt lat="49.02779" lon="7.82619">
        <ele>257</ele>
        <time>2025-05-09T09:58:21.000Z</time>
      </trkpt>
      <trkpt lat="49.02778" lon="7.82631">
        <ele>258</ele>
        <time>2025-05-09T09:58:27.000Z</time>
      </trkpt>
      <trkpt lat="49.0278" lon="7.82637">
        <ele>258</ele>
        <time>2025-05-09T09:58:32.000Z</time>
      </trkpt>
      <trkpt lat="49.02776" lon="7.82649">
        <ele>259</ele>
        <time>2025-05-09T09:58:42.000Z</time>
      </trkpt>
      <trkpt lat="49.02774" lon="7.82655">
        <ele>259</ele>
        <time>2025-05-09T09:58:46.000Z</time>
      </trkpt>
      <trkpt lat="49.02762" lon="7.8269">
        <ele>262</ele>
        <time>2025-05-09T09:59:07.000Z</time>
      </trkpt>
      <trkpt lat="49.02764" lon="7.82698">
        <ele>263</ele>
        <time>2025-05-09T09:59:14.000Z</time>
      </trkpt>
      <trkpt lat="49.0276" lon="7.82719">
        <ele>264</ele>
        <time>2025-05-09T09:59:24.000Z</time>
      </trkpt>
      <trkpt lat="49.0276" lon="7.82726">
        <ele>264</ele>
        <time>2025-05-09T09:59:28.000Z</time>
      </trkpt>
      <trkpt lat="49.02754" lon="7.82727">
        <ele>264</ele>
        <time>2025-05-09T09:59:29.000Z</time>
      </trkpt>
      <trkpt lat="49.02753" lon="7.82733">
        <ele>265</ele>
        <time>2025-05-09T09:59:33.000Z</time>
      </trkpt>
      <trkpt lat="49.0274" lon="7.8279">
        <ele>269</ele>
        <time>2025-05-09T10:00:04.000Z</time>
      </trkpt>
      <trkpt lat="49.02739" lon="7.82797">
        <ele>269</ele>
        <time>2025-05-09T10:00:08.000Z</time>
      </trkpt>
      <trkpt lat="49.02738" lon="7.82805">
        <ele>270</ele>
        <time>2025-05-09T10:00:13.000Z</time>
      </trkpt>
      <trkpt lat="49.02734" lon="7.82828">
        <ele>270</ele>
        <time>2025-05-09T10:00:28.000Z</time>
      </trkpt>
      <trkpt lat="49.02731" lon="7.82853">
        <ele>272</ele>
        <time>2025-05-09T10:00:43.000Z</time>
      </trkpt>
      <trkpt lat="49.02729" lon="7.82866">
        <ele>272</ele>
        <time>2025-05-09T10:00:50.000Z</time>
      </trkpt>
      <trkpt lat="49.02729" lon="7.82874">
        <ele>273</ele>
        <time>2025-05-09T10:00:55.000Z</time>
      </trkpt>
      <trkpt lat="49.02728" lon="7.82882">
        <ele>273</ele>
        <time>2025-05-09T10:01:00.000Z</time>
      </trkpt>
      <trkpt lat="49.02728" lon="7.8289">
        <ele>273</ele>
        <time>2025-05-09T10:01:04.000Z</time>
      </trkpt>
      <trkpt lat="49.02726" lon="7.82904">
        <ele>274</ele>
        <time>2025-05-09T10:01:12.000Z</time>
      </trkpt>
      <trkpt lat="49.02725" lon="7.82918">
        <ele>274</ele>
        <time>2025-05-09T10:01:20.000Z</time>
      </trkpt>
      <trkpt lat="49.02724" lon="7.82925">
        <ele>275</ele>
        <time>2025-05-09T10:01:25.000Z</time>
      </trkpt>
      <trkpt lat="49.02723" lon="7.82933">
        <ele>275</ele>
        <time>2025-05-09T10:01:29.000Z</time>
      </trkpt>
      <trkpt lat="49.02722" lon="7.82944">
        <ele>276</ele>
        <time>2025-05-09T10:01:54.000Z</time>
      </trkpt>
      <trkpt lat="49.02721" lon="7.82951">
        <ele>276</ele>
        <time>2025-05-09T10:01:58.000Z</time>
      </trkpt>
      <trkpt lat="49.02716" lon="7.82994">
        <ele>279</ele>
        <time>2025-05-09T10:02:24.000Z</time>
      </trkpt>
      <trkpt lat="49.02715" lon="7.83">
        <ele>279</ele>
        <time>2025-05-09T10:02:28.000Z</time>
      </trkpt>
      <trkpt lat="49.02714" lon="7.83007">
        <ele>279</ele>
        <time>2025-05-09T10:02:31.000Z</time>
      </trkpt>
      <trkpt lat="49.02714" lon="7.83014">
        <ele>280</ele>
        <time>2025-05-09T10:02:36.000Z</time>
      </trkpt>
      <trkpt lat="49.02714" lon="7.83021">
        <ele>281</ele>
        <time>2025-05-09T10:02:41.000Z</time>
      </trkpt>
      <trkpt lat="49.0271" lon="7.83028">
        <ele>281</ele>
        <time>2025-05-09T10:02:49.000Z</time>
      </trkpt>
      <trkpt lat="49.027" lon="7.83037">
        <ele>281</ele>
        <time>2025-05-09T10:02:54.000Z</time>
      </trkpt>
      <trkpt lat="49.02697" lon="7.83041">
        <ele>280</ele>
        <time>2025-05-09T10:02:58.000Z</time>
      </trkpt>
      <trkpt lat="49.02692" lon="7.83043">
        <ele>280</ele>
        <time>2025-05-09T10:03:02.000Z</time>
      </trkpt>
      <trkpt lat="49.02687" lon="7.83045">
        <ele>282</ele>
        <time>2025-05-09T10:03:07.000Z</time>
      </trkpt>
      <trkpt lat="49.02682" lon="7.83049">
        <ele>281</ele>
        <time>2025-05-09T10:03:11.000Z</time>
      </trkpt>
      <trkpt lat="49.02661" lon="7.83063">
        <ele>283</ele>
        <time>2025-05-09T10:03:35.000Z</time>
      </trkpt>
      <trkpt lat="49.02658" lon="7.83073">
        <ele>283</ele>
        <time>2025-05-09T10:03:44.000Z</time>
      </trkpt>
      <trkpt lat="49.02647" lon="7.83075">
        <ele>285</ele>
        <time>2025-05-09T10:03:54.000Z</time>
      </trkpt>
      <trkpt lat="49.02636" lon="7.83077">
        <ele>286</ele>
        <time>2025-05-09T10:04:00.000Z</time>
      </trkpt>
      <trkpt lat="49.02632" lon="7.83078">
        <ele>286</ele>
        <time>2025-05-09T10:04:06.000Z</time>
      </trkpt>
      <trkpt lat="49.0262" lon="7.83099">
        <ele>283</ele>
        <time>2025-05-09T10:04:26.000Z</time>
      </trkpt>
      <trkpt lat="49.02618" lon="7.83106">
        <ele>282</ele>
        <time>2025-05-09T10:04:32.000Z</time>
      </trkpt>
      <trkpt lat="49.02618" lon="7.83118">
        <ele>281</ele>
        <time>2025-05-09T10:04:39.000Z</time>
      </trkpt>
      <trkpt lat="49.02623" lon="7.83142">
        <ele>279</ele>
        <time>2025-05-09T10:04:51.000Z</time>
      </trkpt>
      <trkpt lat="49.02626" lon="7.83193">
        <ele>276</ele>
        <time>2025-05-09T10:05:23.000Z</time>
      </trkpt>
      <trkpt lat="49.02632" lon="7.83222">
        <ele>274</ele>
        <time>2025-05-09T10:05:39.000Z</time>
      </trkpt>
      <trkpt lat="49.02629" lon="7.83233">
        <ele>274</ele>
        <time>2025-05-09T10:05:43.000Z</time>
      </trkpt>
      <trkpt lat="49.02624" lon="7.83236">
        <ele>274</ele>
        <time>2025-05-09T10:05:45.000Z</time>
      </trkpt>
      <trkpt lat="49.02625" lon="7.83283">
        <ele>277</ele>
        <time>2025-05-09T10:06:16.000Z</time>
      </trkpt>
      <trkpt lat="49.02625" lon="7.8329">
        <ele>278</ele>
        <time>2025-05-09T10:06:19.000Z</time>
      </trkpt>
      <trkpt lat="49.02626" lon="7.83303">
        <ele>279</ele>
        <time>2025-05-09T10:06:24.000Z</time>
      </trkpt>
      <trkpt lat="49.02628" lon="7.83328">
        <ele>284</ele>
        <time>2025-05-09T10:06:58.000Z</time>
      </trkpt>
      <trkpt lat="49.02631" lon="7.83323">
        <ele>284</ele>
        <time>2025-05-09T10:07:02.000Z</time>
      </trkpt>
      <trkpt lat="49.02635" lon="7.83329">
        <ele>285</ele>
        <time>2025-05-09T10:07:06.000Z</time>
      </trkpt>
      <trkpt lat="49.02636" lon="7.8334">
        <ele>287</ele>
        <time>2025-05-09T10:07:20.000Z</time>
      </trkpt>
      <trkpt lat="49.02635" lon="7.83352">
        <ele>288</ele>
        <time>2025-05-09T10:07:32.000Z</time>
      </trkpt>
      <trkpt lat="49.02637" lon="7.83364">
        <ele>290</ele>
        <time>2025-05-09T10:07:45.000Z</time>
      </trkpt>
      <trkpt lat="49.02641" lon="7.83373">
        <ele>292</ele>
        <time>2025-05-09T10:07:57.000Z</time>
      </trkpt>
      <trkpt lat="49.0264" lon="7.83383">
        <ele>293</ele>
        <time>2025-05-09T10:08:09.000Z</time>
      </trkpt>
      <trkpt lat="49.02642" lon="7.8339">
        <ele>294</ele>
        <time>2025-05-09T10:08:16.000Z</time>
      </trkpt>
      <trkpt lat="49.02642" lon="7.83421">
        <ele>297</ele>
        <time>2025-05-09T10:08:39.000Z</time>
      </trkpt>
      <trkpt lat="49.02644" lon="7.83428">
        <ele>298</ele>
        <time>2025-05-09T10:08:44.000Z</time>
      </trkpt>
      <trkpt lat="49.02642" lon="7.83437">
        <ele>299</ele>
        <time>2025-05-09T10:08:50.000Z</time>
      </trkpt>
      <trkpt lat="49.02643" lon="7.83469">
        <ele>303</ele>
        <time>2025-05-09T10:09:13.000Z</time>
      </trkpt>
      <trkpt lat="49.02642" lon="7.83477">
        <ele>304</ele>
        <time>2025-05-09T10:09:20.000Z</time>
      </trkpt>
      <trkpt lat="49.02642" lon="7.83486">
        <ele>305</ele>
        <time>2025-05-09T10:09:28.000Z</time>
      </trkpt>
      <trkpt lat="49.02643" lon="7.83493">
        <ele>305</ele>
        <time>2025-05-09T10:09:33.000Z</time>
      </trkpt>
      <trkpt lat="49.02638" lon="7.83517">
        <ele>308</ele>
        <time>2025-05-09T10:09:51.000Z</time>
      </trkpt>
      <trkpt lat="49.02634" lon="7.83523">
        <ele>309</ele>
        <time>2025-05-09T10:09:55.000Z</time>
      </trkpt>
      <trkpt lat="49.02632" lon="7.83549">
        <ele>311</ele>
        <time>2025-05-09T10:10:15.000Z</time>
      </trkpt>
      <trkpt lat="49.02632" lon="7.83558">
        <ele>312</ele>
        <time>2025-05-09T10:10:23.000Z</time>
      </trkpt>
      <trkpt lat="49.02633" lon="7.83568">
        <ele>313</ele>
        <time>2025-05-09T10:10:31.000Z</time>
      </trkpt>
      <trkpt lat="49.02633" lon="7.83594">
        <ele>315</ele>
        <time>2025-05-09T10:10:51.000Z</time>
      </trkpt>
      <trkpt lat="49.0263" lon="7.83633">
        <ele>319</ele>
        <time>2025-05-09T10:11:23.000Z</time>
      </trkpt>
      <trkpt lat="49.02624" lon="7.83667">
        <ele>321</ele>
        <time>2025-05-09T10:11:47.000Z</time>
      </trkpt>
      <trkpt lat="49.02622" lon="7.83675">
        <ele>322</ele>
        <time>2025-05-09T10:11:54.000Z</time>
      </trkpt>
      <trkpt lat="49.02616" lon="7.83717">
        <ele>326</ele>
        <time>2025-05-09T10:12:26.000Z</time>
      </trkpt>
      <trkpt lat="49.0261" lon="7.83741">
        <ele>327</ele>
        <time>2025-05-09T10:12:45.000Z</time>
      </trkpt>
      <trkpt lat="49.02607" lon="7.83754">
        <ele>327</ele>
        <time>2025-05-09T10:12:53.000Z</time>
      </trkpt>
      <trkpt lat="49.02605" lon="7.83763">
        <ele>328</ele>
        <time>2025-05-09T10:13:00.000Z</time>
      </trkpt>
      <trkpt lat="49.02604" lon="7.83777">
        <ele>330</ele>
        <time>2025-05-09T10:13:10.000Z</time>
      </trkpt>
      <trkpt lat="49.02603" lon="7.83783">
        <ele>330</ele>
        <time>2025-05-09T10:13:15.000Z</time>
      </trkpt>
      <trkpt lat="49.02602" lon="7.8379">
        <ele>330</ele>
        <time>2025-05-09T10:13:19.000Z</time>
      </trkpt>
      <trkpt lat="49.02595" lon="7.83815">
        <ele>333</ele>
        <time>2025-05-09T10:13:40.000Z</time>
      </trkpt>
      <trkpt lat="49.02593" lon="7.83829">
        <ele>333</ele>
        <time>2025-05-09T10:13:49.000Z</time>
      </trkpt>
      <trkpt lat="49.02571" lon="7.83875">
        <ele>337</ele>
        <time>2025-05-09T10:14:24.000Z</time>
      </trkpt>
      <trkpt lat="49.02569" lon="7.8388">
        <ele>338</ele>
        <time>2025-05-09T10:14:28.000Z</time>
      </trkpt>
      <trkpt lat="49.02565" lon="7.83885">
        <ele>338</ele>
        <time>2025-05-09T10:14:33.000Z</time>
      </trkpt>
      <trkpt lat="49.02555" lon="7.83911">
        <ele>341</ele>
        <time>2025-05-09T10:14:56.000Z</time>
      </trkpt>
      <trkpt lat="49.02551" lon="7.83915">
        <ele>342</ele>
        <time>2025-05-09T10:15:02.000Z</time>
      </trkpt>
      <trkpt lat="49.02538" lon="7.83924">
        <ele>345</ele>
        <time>2025-05-09T10:15:19.000Z</time>
      </trkpt>
      <trkpt lat="49.02535" lon="7.8393">
        <ele>345</ele>
        <time>2025-05-09T10:15:24.000Z</time>
      </trkpt>
      <trkpt lat="49.02522" lon="7.83962">
        <ele>348</ele>
        <time>2025-05-09T10:15:52.000Z</time>
      </trkpt>
      <trkpt lat="49.02517" lon="7.83965">
        <ele>348</ele>
        <time>2025-05-09T10:15:55.000Z</time>
      </trkpt>
      <trkpt lat="49.0251" lon="7.83975">
        <ele>349</ele>
        <time>2025-05-09T10:16:03.000Z</time>
      </trkpt>
      <trkpt lat="49.02501" lon="7.83981">
        <ele>349</ele>
        <time>2025-05-09T10:16:11.000Z</time>
      </trkpt>
      <trkpt lat="49.02478" lon="7.84016">
        <ele>352</ele>
        <time>2025-05-09T10:16:48.000Z</time>
      </trkpt>
      <trkpt lat="49.02456" lon="7.84048">
        <ele>354</ele>
        <time>2025-05-09T10:17:19.000Z</time>
      </trkpt>
      <trkpt lat="49.02447" lon="7.84066">
        <ele>354</ele>
        <time>2025-05-09T10:17:33.000Z</time>
      </trkpt>
      <trkpt lat="49.0244" lon="7.84077">
        <ele>354</ele>
        <time>2025-05-09T10:17:42.000Z</time>
      </trkpt>
      <trkpt lat="49.02429" lon="7.841">
        <ele>355</ele>
        <time>2025-05-09T10:18:03.000Z</time>
      </trkpt>
      <trkpt lat="49.02426" lon="7.84106">
        <ele>355</ele>
        <time>2025-05-09T10:18:07.000Z</time>
      </trkpt>
      <trkpt lat="49.02415" lon="7.84133">
        <ele>355</ele>
        <time>2025-05-09T10:18:29.000Z</time>
      </trkpt>
      <trkpt lat="49.02411" lon="7.84141">
        <ele>356</ele>
        <time>2025-05-09T10:18:35.000Z</time>
      </trkpt>
      <trkpt lat="49.02397" lon="7.84161">
        <ele>357</ele>
        <time>2025-05-09T10:18:49.000Z</time>
      </trkpt>
      <trkpt lat="49.0239" lon="7.84174">
        <ele>358</ele>
        <time>2025-05-09T10:18:58.000Z</time>
      </trkpt>
      <trkpt lat="49.02382" lon="7.84186">
        <ele>359</ele>
        <time>2025-05-09T10:19:09.000Z</time>
      </trkpt>
      <trkpt lat="49.02379" lon="7.84192">
        <ele>359</ele>
        <time>2025-05-09T10:19:14.000Z</time>
      </trkpt>
      <trkpt lat="49.02357" lon="7.84233">
        <ele>361</ele>
        <time>2025-05-09T10:19:50.000Z</time>
      </trkpt>
      <trkpt lat="49.02353" lon="7.84238">
        <ele>362</ele>
        <time>2025-05-09T10:19:55.000Z</time>
      </trkpt>
      <trkpt lat="49.02341" lon="7.8426">
        <ele>362</ele>
        <time>2025-05-09T10:20:12.000Z</time>
      </trkpt>
      <trkpt lat="49.02327" lon="7.84281">
        <ele>365</ele>
        <time>2025-05-09T10:20:34.000Z</time>
      </trkpt>
      <trkpt lat="49.02305" lon="7.84327">
        <ele>368</ele>
        <time>2025-05-09T10:21:11.000Z</time>
      </trkpt>
      <trkpt lat="49.02293" lon="7.8435">
        <ele>369</ele>
        <time>2025-05-09T10:21:28.000Z</time>
      </trkpt>
      <trkpt lat="49.02289" lon="7.84359">
        <ele>368</ele>
        <time>2025-05-09T10:21:36.000Z</time>
      </trkpt>
      <trkpt lat="49.02286" lon="7.84363">
        <ele>368</ele>
        <time>2025-05-09T10:21:40.000Z</time>
      </trkpt>
      <trkpt lat="49.02283" lon="7.84368">
        <ele>368</ele>
        <time>2025-05-09T10:21:44.000Z</time>
      </trkpt>
      <trkpt lat="49.02271" lon="7.84381">
        <ele>367</ele>
        <time>2025-05-09T10:21:59.000Z</time>
      </trkpt>
      <trkpt lat="49.0227" lon="7.84387">
        <ele>367</ele>
        <time>2025-05-09T10:22:04.000Z</time>
      </trkpt>
      <trkpt lat="49.02259" lon="7.84404">
        <ele>366</ele>
        <time>2025-05-09T10:22:19.000Z</time>
      </trkpt>
      <trkpt lat="49.02256" lon="7.8441">
        <ele>366</ele>
        <time>2025-05-09T10:22:24.000Z</time>
      </trkpt>
      <trkpt lat="49.02254" lon="7.84416">
        <ele>366</ele>
        <time>2025-05-09T10:22:29.000Z</time>
      </trkpt>
      <trkpt lat="49.02233" lon="7.8445">
        <ele>363</ele>
        <time>2025-05-09T10:22:57.000Z</time>
      </trkpt>
      <trkpt lat="49.02229" lon="7.84458">
        <ele>363</ele>
        <time>2025-05-09T10:23:03.000Z</time>
      </trkpt>
      <trkpt lat="49.02204" lon="7.84492">
        <ele>360</ele>
        <time>2025-05-09T10:23:38.000Z</time>
      </trkpt>
      <trkpt lat="49.02175" lon="7.84529">
        <ele>358</ele>
        <time>2025-05-09T10:24:11.000Z</time>
      </trkpt>
      <trkpt lat="49.02152" lon="7.84563">
        <ele>357</ele>
        <time>2025-05-09T10:24:40.000Z</time>
      </trkpt>
      <trkpt lat="49.02149" lon="7.84568">
        <ele>358</ele>
        <time>2025-05-09T10:24:45.000Z</time>
      </trkpt>
      <trkpt lat="49.02133" lon="7.84593">
        <ele>357</ele>
        <time>2025-05-09T10:25:04.000Z</time>
      </trkpt>
      <trkpt lat="49.02129" lon="7.84598">
        <ele>357</ele>
        <time>2025-05-09T10:25:08.000Z</time>
      </trkpt>
      <trkpt lat="49.02122" lon="7.84605">
        <ele>358</ele>
        <time>2025-05-09T10:25:17.000Z</time>
      </trkpt>
      <trkpt lat="49.02107" lon="7.84624">
        <ele>359</ele>
        <time>2025-05-09T10:25:39.000Z</time>
      </trkpt>
      <trkpt lat="49.021" lon="7.84636">
        <ele>360</ele>
        <time>2025-05-09T10:25:49.000Z</time>
      </trkpt>
      <trkpt lat="49.02074" lon="7.84677">
        <ele>360</ele>
        <time>2025-05-09T10:26:23.000Z</time>
      </trkpt>
      <trkpt lat="49.0206" lon="7.84701">
        <ele>360</ele>
        <time>2025-05-09T10:26:43.000Z</time>
      </trkpt>
      <trkpt lat="49.02052" lon="7.8471">
        <ele>360</ele>
        <time>2025-05-09T10:26:52.000Z</time>
      </trkpt>
      <trkpt lat="49.02043" lon="7.84721">
        <ele>360</ele>
        <time>2025-05-09T10:27:03.000Z</time>
      </trkpt>
      <trkpt lat="49.02029" lon="7.84734">
        <ele>360</ele>
        <time>2025-05-09T10:27:18.000Z</time>
      </trkpt>
      <trkpt lat="49.02021" lon="7.84742">
        <ele>361</ele>
        <time>2025-05-09T10:27:27.000Z</time>
      </trkpt>
      <trkpt lat="49.0201" lon="7.84754">
        <ele>362</ele>
        <time>2025-05-09T10:27:39.000Z</time>
      </trkpt>
      <trkpt lat="49.02002" lon="7.84762">
        <ele>363</ele>
        <time>2025-05-09T10:27:49.000Z</time>
      </trkpt>
      <trkpt lat="49.01999" lon="7.84768">
        <ele>362</ele>
        <time>2025-05-09T10:27:54.000Z</time>
      </trkpt>
      <trkpt lat="49.0199" lon="7.84776">
        <ele>363</ele>
        <time>2025-05-09T10:28:05.000Z</time>
      </trkpt>
      <trkpt lat="49.01983" lon="7.84786">
        <ele>364</ele>
        <time>2025-05-09T10:28:13.000Z</time>
      </trkpt>
      <trkpt lat="49.01961" lon="7.84825">
        <ele>365</ele>
        <time>2025-05-09T10:28:48.000Z</time>
      </trkpt>
      <trkpt lat="49.01959" lon="7.84831">
        <ele>365</ele>
        <time>2025-05-09T10:28:53.000Z</time>
      </trkpt>
      <trkpt lat="49.01955" lon="7.84842">
        <ele>365</ele>
        <time>2025-05-09T10:29:02.000Z</time>
      </trkpt>
      <trkpt lat="49.01952" lon="7.84848">
        <ele>365</ele>
        <time>2025-05-09T10:29:07.000Z</time>
      </trkpt>
      <trkpt lat="49.0195" lon="7.84854">
        <ele>366</ele>
        <time>2025-05-09T10:29:12.000Z</time>
      </trkpt>
      <trkpt lat="49.01948" lon="7.84861">
        <ele>366</ele>
        <time>2025-05-09T10:29:16.000Z</time>
      </trkpt>
      <trkpt lat="49.01945" lon="7.84867">
        <ele>366</ele>
        <time>2025-05-09T10:29:21.000Z</time>
      </trkpt>
      <trkpt lat="49.0194" lon="7.84869">
        <ele>367</ele>
        <time>2025-05-09T10:29:25.000Z</time>
      </trkpt>
      <trkpt lat="49.01936" lon="7.84872">
        <ele>367</ele>
        <time>2025-05-09T10:29:29.000Z</time>
      </trkpt>
      <trkpt lat="49.01914" lon="7.84888">
        <ele>365</ele>
        <time>2025-05-09T10:29:50.000Z</time>
      </trkpt>
      <trkpt lat="49.01909" lon="7.84892">
        <ele>365</ele>
        <time>2025-05-09T10:29:55.000Z</time>
      </trkpt>
      <trkpt lat="49.01904" lon="7.84894">
        <ele>364</ele>
        <time>2025-05-09T10:30:00.000Z</time>
      </trkpt>
      <trkpt lat="49.01896" lon="7.84905">
        <ele>364</ele>
        <time>2025-05-09T10:30:12.000Z</time>
      </trkpt>
      <trkpt lat="49.01879" lon="7.84922">
        <ele>362</ele>
        <time>2025-05-09T10:30:28.000Z</time>
      </trkpt>
      <trkpt lat="49.01872" lon="7.84928">
        <ele>361</ele>
        <time>2025-05-09T10:30:36.000Z</time>
      </trkpt>
      <trkpt lat="49.01868" lon="7.84932">
        <ele>361</ele>
        <time>2025-05-09T10:30:41.000Z</time>
      </trkpt>
      <trkpt lat="49.01863" lon="7.84937">
        <ele>361</ele>
        <time>2025-05-09T10:30:46.000Z</time>
      </trkpt>
      <trkpt lat="49.01858" lon="7.84939">
        <ele>361</ele>
        <time>2025-05-09T10:30:49.000Z</time>
      </trkpt>
      <trkpt lat="49.01855" lon="7.84945">
        <ele>359</ele>
        <time>2025-05-09T10:30:52.000Z</time>
      </trkpt>
      <trkpt lat="49.0185" lon="7.84945">
        <ele>359</ele>
        <time>2025-05-09T10:30:56.000Z</time>
      </trkpt>
      <trkpt lat="49.01845" lon="7.84948">
        <ele>358</ele>
        <time>2025-05-09T10:31:00.000Z</time>
      </trkpt>
      <trkpt lat="49.0184" lon="7.84949">
        <ele>358</ele>
        <time>2025-05-09T10:31:04.000Z</time>
      </trkpt>
      <trkpt lat="49.01834" lon="7.84954">
        <ele>357</ele>
        <time>2025-05-09T10:31:09.000Z</time>
      </trkpt>
      <trkpt lat="49.01827" lon="7.84955">
        <ele>356</ele>
        <time>2025-05-09T10:31:16.000Z</time>
      </trkpt>
      <trkpt lat="49.01822" lon="7.84955">
        <ele>355</ele>
        <time>2025-05-09T10:31:21.000Z</time>
      </trkpt>
      <trkpt lat="49.01817" lon="7.84955">
        <ele>355</ele>
        <time>2025-05-09T10:31:24.000Z</time>
      </trkpt>
      <trkpt lat="49.01813" lon="7.84958">
        <ele>354</ele>
        <time>2025-05-09T10:31:29.000Z</time>
      </trkpt>
      <trkpt lat="49.018" lon="7.8496">
        <ele>352</ele>
        <time>2025-05-09T10:31:42.000Z</time>
      </trkpt>
      <trkpt lat="49.01795" lon="7.8496">
        <ele>352</ele>
        <time>2025-05-09T10:31:47.000Z</time>
      </trkpt>
      <trkpt lat="49.0179" lon="7.84961">
        <ele>351</ele>
        <time>2025-05-09T10:31:52.000Z</time>
      </trkpt>
      <trkpt lat="49.01784" lon="7.84963">
        <ele>350</ele>
        <time>2025-05-09T10:31:59.000Z</time>
      </trkpt>
      <trkpt lat="49.01779" lon="7.84968">
        <ele>350</ele>
        <time>2025-05-09T10:32:03.000Z</time>
      </trkpt>
      <trkpt lat="49.01774" lon="7.84974">
        <ele>349</ele>
        <time>2025-05-09T10:32:07.000Z</time>
      </trkpt>
      <trkpt lat="49.01779" lon="7.8498">
        <ele>349</ele>
        <time>2025-05-09T10:32:12.000Z</time>
      </trkpt>
      <trkpt lat="49.01783" lon="7.84986">
        <ele>349</ele>
        <time>2025-05-09T10:32:16.000Z</time>
      </trkpt>
      <trkpt lat="49.01792" lon="7.84999">
        <ele>349</ele>
        <time>2025-05-09T10:32:26.000Z</time>
      </trkpt>
      <trkpt lat="49.01794" lon="7.85007">
        <ele>350</ele>
        <time>2025-05-09T10:32:34.000Z</time>
      </trkpt>
      <trkpt lat="49.01799" lon="7.85015">
        <ele>350</ele>
        <time>2025-05-09T10:32:40.000Z</time>
      </trkpt>
      <trkpt lat="49.01801" lon="7.85022">
        <ele>351</ele>
        <time>2025-05-09T10:32:43.000Z</time>
      </trkpt>
      <trkpt lat="49.01817" lon="7.85046">
        <ele>352</ele>
        <time>2025-05-09T10:33:03.000Z</time>
      </trkpt>
      <trkpt lat="49.01821" lon="7.8505">
        <ele>352</ele>
        <time>2025-05-09T10:33:06.000Z</time>
      </trkpt>
      <trkpt lat="49.01824" lon="7.85056">
        <ele>353</ele>
        <time>2025-05-09T10:33:10.000Z</time>
      </trkpt>
      <trkpt lat="49.01825" lon="7.85066">
        <ele>353</ele>
        <time>2025-05-09T10:33:16.000Z</time>
      </trkpt>
      <trkpt lat="49.01833" lon="7.85085">
        <ele>354</ele>
        <time>2025-05-09T10:33:26.000Z</time>
      </trkpt>
      <trkpt lat="49.01835" lon="7.85093">
        <ele>354</ele>
        <time>2025-05-09T10:33:31.000Z</time>
      </trkpt>
      <trkpt lat="49.01842" lon="7.85104">
        <ele>354</ele>
        <time>2025-05-09T10:33:38.000Z</time>
      </trkpt>
      <trkpt lat="49.01849" lon="7.85113">
        <ele>355</ele>
        <time>2025-05-09T10:33:47.000Z</time>
      </trkpt>
      <trkpt lat="49.01853" lon="7.8512">
        <ele>355</ele>
        <time>2025-05-09T10:33:51.000Z</time>
      </trkpt>
      <trkpt lat="49.0185" lon="7.85129">
        <ele>355</ele>
        <time>2025-05-09T10:33:56.000Z</time>
      </trkpt>
      <trkpt lat="49.0185" lon="7.85137">
        <ele>355</ele>
        <time>2025-05-09T10:34:00.000Z</time>
      </trkpt>
      <trkpt lat="49.01853" lon="7.85146">
        <ele>356</ele>
        <time>2025-05-09T10:34:05.000Z</time>
      </trkpt>
      <trkpt lat="49.01856" lon="7.85152">
        <ele>356</ele>
        <time>2025-05-09T10:34:08.000Z</time>
      </trkpt>
      <trkpt lat="49.01859" lon="7.85155">
        <ele>356</ele>
        <time>2025-05-09T10:34:12.000Z</time>
      </trkpt>
      <trkpt lat="49.01861" lon="7.85164">
        <ele>357</ele>
        <time>2025-05-09T10:34:17.000Z</time>
      </trkpt>
      <trkpt lat="49.01862" lon="7.85183">
        <ele>356</ele>
        <time>2025-05-09T10:34:27.000Z</time>
      </trkpt>
      <trkpt lat="49.01862" lon="7.85189">
        <ele>356</ele>
        <time>2025-05-09T10:34:30.000Z</time>
      </trkpt>
      <trkpt lat="49.01868" lon="7.85197">
        <ele>357</ele>
        <time>2025-05-09T10:34:37.000Z</time>
      </trkpt>
      <trkpt lat="49.01869" lon="7.85203">
        <ele>357</ele>
        <time>2025-05-09T10:34:40.000Z</time>
      </trkpt>
      <trkpt lat="49.01873" lon="7.85207">
        <ele>357</ele>
        <time>2025-05-09T10:34:43.000Z</time>
      </trkpt>
      <trkpt lat="49.01875" lon="7.85215">
        <ele>357</ele>
        <time>2025-05-09T10:34:46.000Z</time>
      </trkpt>
      <trkpt lat="49.01881" lon="7.8522">
        <ele>357</ele>
        <time>2025-05-09T10:34:51.000Z</time>
      </trkpt>
      <trkpt lat="49.01882" lon="7.85226">
        <ele>357</ele>
        <time>2025-05-09T10:34:55.000Z</time>
      </trkpt>
      <trkpt lat="49.01882" lon="7.85234">
        <ele>357</ele>
        <time>2025-05-09T10:34:58.000Z</time>
      </trkpt>
      <trkpt lat="49.01886" lon="7.85246">
        <ele>358</ele>
        <time>2025-05-09T10:35:06.000Z</time>
      </trkpt>
      <trkpt lat="49.01889" lon="7.85269">
        <ele>358</ele>
        <time>2025-05-09T10:35:18.000Z</time>
      </trkpt>
      <trkpt lat="49.01893" lon="7.85274">
        <ele>358</ele>
        <time>2025-05-09T10:35:22.000Z</time>
      </trkpt>
      <trkpt lat="49.01894" lon="7.8529">
        <ele>357</ele>
        <time>2025-05-09T10:35:30.000Z</time>
      </trkpt>
      <trkpt lat="49.01896" lon="7.85295">
        <ele>357</ele>
        <time>2025-05-09T10:35:35.000Z</time>
      </trkpt>
      <trkpt lat="49.01898" lon="7.85301">
        <ele>357</ele>
        <time>2025-05-09T10:35:39.000Z</time>
      </trkpt>
      <trkpt lat="49.01896" lon="7.85309">
        <ele>357</ele>
        <time>2025-05-09T10:35:45.000Z</time>
      </trkpt>
      <trkpt lat="49.01895" lon="7.85317">
        <ele>357</ele>
        <time>2025-05-09T10:35:47.000Z</time>
      </trkpt>
      <trkpt lat="49.01898" lon="7.85322">
        <ele>357</ele>
        <time>2025-05-09T10:35:50.000Z</time>
      </trkpt>
      <trkpt lat="49.01902" lon="7.85329">
        <ele>356</ele>
        <time>2025-05-09T10:35:54.000Z</time>
      </trkpt>
      <trkpt lat="49.01907" lon="7.8535">
        <ele>356</ele>
        <time>2025-05-09T10:36:06.000Z</time>
      </trkpt>
      <trkpt lat="49.0191" lon="7.85356">
        <ele>355</ele>
        <time>2025-05-09T10:36:10.000Z</time>
      </trkpt>
      <trkpt lat="49.01916" lon="7.85375">
        <ele>355</ele>
        <time>2025-05-09T10:36:22.000Z</time>
      </trkpt>
      <trkpt lat="49.01918" lon="7.85381">
        <ele>355</ele>
        <time>2025-05-09T10:36:26.000Z</time>
      </trkpt>
      <trkpt lat="49.01919" lon="7.85389">
        <ele>354</ele>
        <time>2025-05-09T10:36:31.000Z</time>
      </trkpt>
      <trkpt lat="49.01921" lon="7.85395">
        <ele>355</ele>
        <time>2025-05-09T10:36:36.000Z</time>
      </trkpt>
      <trkpt lat="49.01923" lon="7.85402">
        <ele>355</ele>
        <time>2025-05-09T10:36:39.000Z</time>
      </trkpt>
      <trkpt lat="49.01926" lon="7.85408">
        <ele>355</ele>
        <time>2025-05-09T10:36:44.000Z</time>
      </trkpt>
      <trkpt lat="49.01929" lon="7.85419">
        <ele>355</ele>
        <time>2025-05-09T10:36:52.000Z</time>
      </trkpt>
      <trkpt lat="49.01931" lon="7.85424">
        <ele>355</ele>
        <time>2025-05-09T10:36:56.000Z</time>
      </trkpt>
      <trkpt lat="49.01933" lon="7.85432">
        <ele>355</ele>
        <time>2025-05-09T10:37:01.000Z</time>
      </trkpt>
      <trkpt lat="49.01935" lon="7.8544">
        <ele>355</ele>
        <time>2025-05-09T10:37:05.000Z</time>
      </trkpt>
      <trkpt lat="49.01942" lon="7.8545">
        <ele>354</ele>
        <time>2025-05-09T10:37:11.000Z</time>
      </trkpt>
      <trkpt lat="49.01944" lon="7.85457">
        <ele>354</ele>
        <time>2025-05-09T10:37:14.000Z</time>
      </trkpt>
      <trkpt lat="49.01946" lon="7.8547">
        <ele>354</ele>
        <time>2025-05-09T10:37:22.000Z</time>
      </trkpt>
      <trkpt lat="49.01949" lon="7.85476">
        <ele>354</ele>
        <time>2025-05-09T10:37:26.000Z</time>
      </trkpt>
      <trkpt lat="49.01954" lon="7.85481">
        <ele>354</ele>
        <time>2025-05-09T10:37:30.000Z</time>
      </trkpt>
      <trkpt lat="49.0196" lon="7.85502">
        <ele>354</ele>
        <time>2025-05-09T10:37:42.000Z</time>
      </trkpt>
      <trkpt lat="49.01963" lon="7.8551">
        <ele>354</ele>
        <time>2025-05-09T10:37:49.000Z</time>
      </trkpt>
      <trkpt lat="49.01968" lon="7.85514">
        <ele>353</ele>
        <time>2025-05-09T10:37:54.000Z</time>
      </trkpt>
      <trkpt lat="49.01971" lon="7.8552">
        <ele>353</ele>
        <time>2025-05-09T10:38:00.000Z</time>
      </trkpt>
      <trkpt lat="49.01974" lon="7.85526">
        <ele>352</ele>
        <time>2025-05-09T10:38:02.000Z</time>
      </trkpt>
      <trkpt lat="49.01974" lon="7.85534">
        <ele>353</ele>
        <time>2025-05-09T10:38:05.000Z</time>
      </trkpt>
      <trkpt lat="49.01981" lon="7.85555">
        <ele>352</ele>
        <time>2025-05-09T10:38:16.000Z</time>
      </trkpt>
      <trkpt lat="49.01982" lon="7.85562">
        <ele>352</ele>
        <time>2025-05-09T10:38:19.000Z</time>
      </trkpt>
      <trkpt lat="49.01983" lon="7.85568">
        <ele>352</ele>
        <time>2025-05-09T10:38:23.000Z</time>
      </trkpt>
      <trkpt lat="49.01987" lon="7.85579">
        <ele>352</ele>
        <time>2025-05-09T10:38:29.000Z</time>
      </trkpt>
      <trkpt lat="49.01988" lon="7.85587">
        <ele>352</ele>
        <time>2025-05-09T10:38:32.000Z</time>
      </trkpt>
      <trkpt lat="49.01993" lon="7.856">
        <ele>351</ele>
        <time>2025-05-09T10:38:40.000Z</time>
      </trkpt>
      <trkpt lat="49.02" lon="7.85612">
        <ele>351</ele>
        <time>2025-05-09T10:38:50.000Z</time>
      </trkpt>
      <trkpt lat="49.02001" lon="7.8562">
        <ele>352</ele>
        <time>2025-05-09T10:38:53.000Z</time>
      </trkpt>
      <trkpt lat="49.02003" lon="7.85627">
        <ele>352</ele>
        <time>2025-05-09T10:38:56.000Z</time>
      </trkpt>
      <trkpt lat="49.02" lon="7.85634">
        <ele>351</ele>
        <time>2025-05-09T10:38:59.000Z</time>
      </trkpt>
      <trkpt lat="49.01999" lon="7.85641">
        <ele>351</ele>
        <time>2025-05-09T10:39:03.000Z</time>
      </trkpt>
      <trkpt lat="49.02003" lon="7.85654">
        <ele>350</ele>
        <time>2025-05-09T10:39:13.000Z</time>
      </trkpt>
      <trkpt lat="49.02008" lon="7.8567">
        <ele>348</ele>
        <time>2025-05-09T10:39:22.000Z</time>
      </trkpt>
      <trkpt lat="49.0201" lon="7.85688">
        <ele>345</ele>
        <time>2025-05-09T10:39:30.000Z</time>
      </trkpt>
      <trkpt lat="49.02003" lon="7.8569">
        <ele>346</ele>
        <time>2025-05-09T10:39:32.000Z</time>
      </trkpt>
      <trkpt lat="49.02002" lon="7.85696">
        <ele>344</ele>
        <time>2025-05-09T10:39:36.000Z</time>
      </trkpt>
      <trkpt lat="49.02002" lon="7.85705">
        <ele>344</ele>
        <time>2025-05-09T10:39:42.000Z</time>
      </trkpt>
      <trkpt lat="49.02003" lon="7.85712">
        <ele>343</ele>
        <time>2025-05-09T10:39:47.000Z</time>
      </trkpt>
      <trkpt lat="49.02001" lon="7.8572">
        <ele>342</ele>
        <time>2025-05-09T10:39:51.000Z</time>
      </trkpt>
      <trkpt lat="49.02003" lon="7.85729">
        <ele>341</ele>
        <time>2025-05-09T10:40:00.000Z</time>
      </trkpt>
      <trkpt lat="49.02006" lon="7.85743">
        <ele>339</ele>
        <time>2025-05-09T10:40:09.000Z</time>
      </trkpt>
      <trkpt lat="49.02004" lon="7.85751">
        <ele>339</ele>
        <time>2025-05-09T10:40:13.000Z</time>
      </trkpt>
      <trkpt lat="49.02002" lon="7.85762">
        <ele>337</ele>
        <time>2025-05-09T10:40:21.000Z</time>
      </trkpt>
      <trkpt lat="49.02001" lon="7.85768">
        <ele>336</ele>
        <time>2025-05-09T10:40:26.000Z</time>
      </trkpt>
      <trkpt lat="49.01999" lon="7.85782">
        <ele>336</ele>
        <time>2025-05-09T10:40:37.000Z</time>
      </trkpt>
      <trkpt lat="49.01999" lon="7.85801">
        <ele>335</ele>
        <time>2025-05-09T10:40:53.000Z</time>
      </trkpt>
      <trkpt lat="49.01998" lon="7.85808">
        <ele>335</ele>
        <time>2025-05-09T10:40:57.000Z</time>
      </trkpt>
      <trkpt lat="49.01995" lon="7.85827">
        <ele>335</ele>
        <time>2025-05-09T10:41:11.000Z</time>
      </trkpt>
      <trkpt lat="49.01993" lon="7.85838">
        <ele>335</ele>
        <time>2025-05-09T10:41:19.000Z</time>
      </trkpt>
      <trkpt lat="49.01996" lon="7.85851">
        <ele>335</ele>
        <time>2025-05-09T10:41:26.000Z</time>
      </trkpt>
      <trkpt lat="49.01999" lon="7.85856">
        <ele>335</ele>
        <time>2025-05-09T10:41:30.000Z</time>
      </trkpt>
      <trkpt lat="49.02001" lon="7.85863">
        <ele>335</ele>
        <time>2025-05-09T10:41:35.000Z</time>
      </trkpt>
      <trkpt lat="49.01996" lon="7.85887">
        <ele>336</ele>
        <time>2025-05-09T10:41:53.000Z</time>
      </trkpt>
      <trkpt lat="49.02007" lon="7.85907">
        <ele>335</ele>
        <time>2025-05-09T10:42:14.000Z</time>
      </trkpt>
      <trkpt lat="49.02011" lon="7.85911">
        <ele>335</ele>
        <time>2025-05-09T10:42:18.000Z</time>
      </trkpt>
      <trkpt lat="49.0202" lon="7.85933">
        <ele>335</ele>
        <time>2025-05-09T10:42:31.000Z</time>
      </trkpt>
      <trkpt lat="49.02038" lon="7.85972">
        <ele>337</ele>
        <time>2025-05-09T10:43:05.000Z</time>
      </trkpt>
      <trkpt lat="49.02042" lon="7.85985">
        <ele>338</ele>
        <time>2025-05-09T10:43:14.000Z</time>
      </trkpt>
      <trkpt lat="49.02049" lon="7.86023">
        <ele>340</ele>
        <time>2025-05-09T10:43:41.000Z</time>
      </trkpt>
      <trkpt lat="49.02054" lon="7.86033">
        <ele>339</ele>
        <time>2025-05-09T10:43:52.000Z</time>
      </trkpt>
      <trkpt lat="49.02059" lon="7.86038">
        <ele>339</ele>
        <time>2025-05-09T10:43:56.000Z</time>
      </trkpt>
      <trkpt lat="49.02062" lon="7.86046">
        <ele>339</ele>
        <time>2025-05-09T10:44:04.000Z</time>
      </trkpt>
      <trkpt lat="49.0207" lon="7.86079">
        <ele>343</ele>
        <time>2025-05-09T10:44:34.000Z</time>
      </trkpt>
      <trkpt lat="49.02074" lon="7.86086">
        <ele>344</ele>
        <time>2025-05-09T10:44:41.000Z</time>
      </trkpt>
      <trkpt lat="49.02078" lon="7.86095">
        <ele>344</ele>
        <time>2025-05-09T10:44:49.000Z</time>
      </trkpt>
      <trkpt lat="49.02085" lon="7.86107">
        <ele>346</ele>
        <time>2025-05-09T10:45:00.000Z</time>
      </trkpt>
      <trkpt lat="49.02087" lon="7.86113">
        <ele>347</ele>
        <time>2025-05-09T10:45:05.000Z</time>
      </trkpt>
      <trkpt lat="49.02088" lon="7.86122">
        <ele>347</ele>
        <time>2025-05-09T10:45:12.000Z</time>
      </trkpt>
      <trkpt lat="49.02096" lon="7.86148">
        <ele>349</ele>
        <time>2025-05-09T10:45:33.000Z</time>
      </trkpt>
      <trkpt lat="49.02099" lon="7.86154">
        <ele>350</ele>
        <time>2025-05-09T10:45:38.000Z</time>
      </trkpt>
      <trkpt lat="49.02102" lon="7.86161">
        <ele>350</ele>
        <time>2025-05-09T10:45:45.000Z</time>
      </trkpt>
      <trkpt lat="49.02107" lon="7.86168">
        <ele>349</ele>
        <time>2025-05-09T10:45:52.000Z</time>
      </trkpt>
      <trkpt lat="49.0211" lon="7.86174">
        <ele>350</ele>
        <time>2025-05-09T10:45:57.000Z</time>
      </trkpt>
      <trkpt lat="49.02113" lon="7.86181">
        <ele>350</ele>
        <time>2025-05-09T10:46:02.000Z</time>
      </trkpt>
      <trkpt lat="49.02115" lon="7.86188">
        <ele>352</ele>
        <time>2025-05-09T10:46:10.000Z</time>
      </trkpt>
      <trkpt lat="49.02126" lon="7.86215">
        <ele>353</ele>
        <time>2025-05-09T10:46:32.000Z</time>
      </trkpt>
      <trkpt lat="49.02134" lon="7.86226">
        <ele>354</ele>
        <time>2025-05-09T10:46:44.000Z</time>
      </trkpt>
      <trkpt lat="49.0214" lon="7.86236">
        <ele>354</ele>
        <time>2025-05-09T10:46:52.000Z</time>
      </trkpt>
      <trkpt lat="49.02143" lon="7.86242">
        <ele>354</ele>
        <time>2025-05-09T10:46:56.000Z</time>
      </trkpt>
      <trkpt lat="49.02145" lon="7.86248">
        <ele>355</ele>
        <time>2025-05-09T10:47:03.000Z</time>
      </trkpt>
      <trkpt lat="49.02151" lon="7.86272">
        <ele>355</ele>
        <time>2025-05-09T10:47:17.000Z</time>
      </trkpt>
      <trkpt lat="49.02155" lon="7.86279">
        <ele>356</ele>
        <time>2025-05-09T10:47:19.000Z</time>
      </trkpt>
      <trkpt lat="49.02158" lon="7.86286">
        <ele>356</ele>
        <time>2025-05-09T10:47:24.000Z</time>
      </trkpt>
      <trkpt lat="49.02156" lon="7.86293">
        <ele>355</ele>
        <time>2025-05-09T10:47:29.000Z</time>
      </trkpt>
      <trkpt lat="49.02161" lon="7.86298">
        <ele>355</ele>
        <time>2025-05-09T10:47:33.000Z</time>
      </trkpt>
      <trkpt lat="49.02167" lon="7.86309">
        <ele>356</ele>
        <time>2025-05-09T10:47:45.000Z</time>
      </trkpt>
      <trkpt lat="49.02172" lon="7.8632">
        <ele>356</ele>
        <time>2025-05-09T10:47:52.000Z</time>
      </trkpt>
      <trkpt lat="49.02173" lon="7.86329">
        <ele>356</ele>
        <time>2025-05-09T10:47:57.000Z</time>
      </trkpt>
      <trkpt lat="49.02178" lon="7.86334">
        <ele>356</ele>
        <time>2025-05-09T10:48:00.000Z</time>
      </trkpt>
      <trkpt lat="49.02179" lon="7.8634">
        <ele>356</ele>
        <time>2025-05-09T10:48:04.000Z</time>
      </trkpt>
      <trkpt lat="49.02183" lon="7.86345">
        <ele>356</ele>
        <time>2025-05-09T10:48:08.000Z</time>
      </trkpt>
      <trkpt lat="49.02182" lon="7.86353">
        <ele>356</ele>
        <time>2025-05-09T10:48:12.000Z</time>
      </trkpt>
      <trkpt lat="49.02184" lon="7.86368">
        <ele>356</ele>
        <time>2025-05-09T10:48:19.000Z</time>
      </trkpt>
      <trkpt lat="49.02182" lon="7.86385">
        <ele>356</ele>
        <time>2025-05-09T10:48:27.000Z</time>
      </trkpt>
      <trkpt lat="49.0218" lon="7.86392">
        <ele>356</ele>
        <time>2025-05-09T10:48:31.000Z</time>
      </trkpt>
      <trkpt lat="49.02172" lon="7.86402">
        <ele>356</ele>
        <time>2025-05-09T10:48:38.000Z</time>
      </trkpt>
      <trkpt lat="49.02169" lon="7.8641">
        <ele>356</ele>
        <time>2025-05-09T10:48:42.000Z</time>
      </trkpt>
      <trkpt lat="49.0217" lon="7.86417">
        <ele>357</ele>
        <time>2025-05-09T10:48:46.000Z</time>
      </trkpt>
      <trkpt lat="49.02169" lon="7.86425">
        <ele>357</ele>
        <time>2025-05-09T10:48:50.000Z</time>
      </trkpt>
      <trkpt lat="49.0217" lon="7.86433">
        <ele>356</ele>
        <time>2025-05-09T10:48:55.000Z</time>
      </trkpt>
      <trkpt lat="49.02172" lon="7.86441">
        <ele>356</ele>
        <time>2025-05-09T10:48:59.000Z</time>
      </trkpt>
      <trkpt lat="49.02174" lon="7.86453">
        <ele>355</ele>
        <time>2025-05-09T10:49:07.000Z</time>
      </trkpt>
      <trkpt lat="49.02176" lon="7.86462">
        <ele>355</ele>
        <time>2025-05-09T10:49:13.000Z</time>
      </trkpt>
      <trkpt lat="49.02175" lon="7.86479">
        <ele>355</ele>
        <time>2025-05-09T10:49:21.000Z</time>
      </trkpt>
      <trkpt lat="49.0217" lon="7.86484">
        <ele>355</ele>
        <time>2025-05-09T10:49:23.000Z</time>
      </trkpt>
      <trkpt lat="49.02173" lon="7.86492">
        <ele>355</ele>
        <time>2025-05-09T10:49:29.000Z</time>
      </trkpt>
      <trkpt lat="49.02169" lon="7.86505">
        <ele>353</ele>
        <time>2025-05-09T10:49:37.000Z</time>
      </trkpt>
      <trkpt lat="49.02167" lon="7.86512">
        <ele>353</ele>
        <time>2025-05-09T10:49:41.000Z</time>
      </trkpt>
      <trkpt lat="49.02166" lon="7.8652">
        <ele>353</ele>
        <time>2025-05-09T10:49:46.000Z</time>
      </trkpt>
      <trkpt lat="49.02154" lon="7.86534">
        <ele>353</ele>
        <time>2025-05-09T10:49:57.000Z</time>
      </trkpt>
      <trkpt lat="49.02146" lon="7.86542">
        <ele>352</ele>
        <time>2025-05-09T10:50:04.000Z</time>
      </trkpt>
      <trkpt lat="49.02135" lon="7.86578">
        <ele>351</ele>
        <time>2025-05-09T10:50:22.000Z</time>
      </trkpt>
      <trkpt lat="49.02132" lon="7.86583">
        <ele>351</ele>
        <time>2025-05-09T10:50:25.000Z</time>
      </trkpt>
      <trkpt lat="49.0212" lon="7.86619">
        <ele>352</ele>
        <time>2025-05-09T10:50:44.000Z</time>
      </trkpt>
      <trkpt lat="49.02116" lon="7.86625">
        <ele>351</ele>
        <time>2025-05-09T10:50:48.000Z</time>
      </trkpt>
      <trkpt lat="49.02114" lon="7.8663">
        <ele>351</ele>
        <time>2025-05-09T10:50:52.000Z</time>
      </trkpt>
      <trkpt lat="49.02112" lon="7.86645">
        <ele>351</ele>
        <time>2025-05-09T10:50:59.000Z</time>
      </trkpt>
      <trkpt lat="49.02109" lon="7.86652">
        <ele>351</ele>
        <time>2025-05-09T10:51:03.000Z</time>
      </trkpt>
      <trkpt lat="49.02105" lon="7.86656">
        <ele>351</ele>
        <time>2025-05-09T10:51:06.000Z</time>
      </trkpt>
      <trkpt lat="49.02104" lon="7.86665">
        <ele>351</ele>
        <time>2025-05-09T10:51:13.000Z</time>
      </trkpt>
      <trkpt lat="49.02101" lon="7.8668">
        <ele>351</ele>
        <time>2025-05-09T10:51:23.000Z</time>
      </trkpt>
      <trkpt lat="49.02098" lon="7.8669">
        <ele>351</ele>
        <time>2025-05-09T10:51:27.000Z</time>
      </trkpt>
      <trkpt lat="49.02094" lon="7.86694">
        <ele>351</ele>
        <time>2025-05-09T10:51:31.000Z</time>
      </trkpt>
      <trkpt lat="49.0209" lon="7.86705">
        <ele>351</ele>
        <time>2025-05-09T10:51:35.000Z</time>
      </trkpt>
      <trkpt lat="49.02084" lon="7.86731">
        <ele>350</ele>
        <time>2025-05-09T10:51:51.000Z</time>
      </trkpt>
      <trkpt lat="49.02084" lon="7.86747">
        <ele>350</ele>
        <time>2025-05-09T10:52:01.000Z</time>
      </trkpt>
      <trkpt lat="49.02083" lon="7.86756">
        <ele>350</ele>
        <time>2025-05-09T10:52:06.000Z</time>
      </trkpt>
      <trkpt lat="49.02087" lon="7.86769">
        <ele>350</ele>
        <time>2025-05-09T10:52:14.000Z</time>
      </trkpt>
      <trkpt lat="49.02094" lon="7.86781">
        <ele>350</ele>
        <time>2025-05-09T10:52:22.000Z</time>
      </trkpt>
      <trkpt lat="49.021" lon="7.86783">
        <ele>351</ele>
        <time>2025-05-09T10:52:26.000Z</time>
      </trkpt>
      <trkpt lat="49.02101" lon="7.86792">
        <ele>351</ele>
        <time>2025-05-09T10:52:32.000Z</time>
      </trkpt>
      <trkpt lat="49.02106" lon="7.86796">
        <ele>352</ele>
        <time>2025-05-09T10:52:38.000Z</time>
      </trkpt>
      <trkpt lat="49.02112" lon="7.86794">
        <ele>352</ele>
        <time>2025-05-09T10:52:45.000Z</time>
      </trkpt>
      <trkpt lat="49.0213" lon="7.86801">
        <ele>353</ele>
        <time>2025-05-09T10:52:57.000Z</time>
      </trkpt>
      <trkpt lat="49.02135" lon="7.86807">
        <ele>355</ele>
        <time>2025-05-09T10:53:08.000Z</time>
      </trkpt>
      <trkpt lat="49.02151" lon="7.86824">
        <ele>356</ele>
        <time>2025-05-09T10:53:23.000Z</time>
      </trkpt>
      <trkpt lat="49.02158" lon="7.8683">
        <ele>357</ele>
        <time>2025-05-09T10:53:34.000Z</time>
      </trkpt>
      <trkpt lat="49.02163" lon="7.86829">
        <ele>357</ele>
        <time>2025-05-09T10:53:36.000Z</time>
      </trkpt>
      <trkpt lat="49.02172" lon="7.86833">
        <ele>358</ele>
        <time>2025-05-09T10:53:42.000Z</time>
      </trkpt>
      <trkpt lat="49.02176" lon="7.86837">
        <ele>358</ele>
        <time>2025-05-09T10:53:46.000Z</time>
      </trkpt>
      <trkpt lat="49.02196" lon="7.86837">
        <ele>359</ele>
        <time>2025-05-09T10:54:02.000Z</time>
      </trkpt>
      <trkpt lat="49.02203" lon="7.8684">
        <ele>359</ele>
        <time>2025-05-09T10:54:05.000Z</time>
      </trkpt>
      <trkpt lat="49.02238" lon="7.86879">
        <ele>361</ele>
        <time>2025-05-09T10:54:37.000Z</time>
      </trkpt>
      <trkpt lat="49.02257" lon="7.86915">
        <ele>362</ele>
        <time>2025-05-09T10:55:04.000Z</time>
      </trkpt>
      <trkpt lat="49.02266" lon="7.8693">
        <ele>363</ele>
        <time>2025-05-09T10:55:15.000Z</time>
      </trkpt>
      <trkpt lat="49.0227" lon="7.86945">
        <ele>363</ele>
        <time>2025-05-09T10:55:21.000Z</time>
      </trkpt>
      <trkpt lat="49.02284" lon="7.86969">
        <ele>364</ele>
        <time>2025-05-09T10:55:36.000Z</time>
      </trkpt>
      <trkpt lat="49.02287" lon="7.8698">
        <ele>364</ele>
        <time>2025-05-09T10:55:47.000Z</time>
      </trkpt>
      <trkpt lat="49.02289" lon="7.86992">
        <ele>365</ele>
        <time>2025-05-09T10:55:53.000Z</time>
      </trkpt>
      <trkpt lat="49.02293" lon="7.86996">
        <ele>365</ele>
        <time>2025-05-09T10:55:56.000Z</time>
      </trkpt>
      <trkpt lat="49.02295" lon="7.87007">
        <ele>365</ele>
        <time>2025-05-09T10:55:59.000Z</time>
      </trkpt>
      <trkpt lat="49.02294" lon="7.87014">
        <ele>365</ele>
        <time>2025-05-09T10:56:04.000Z</time>
      </trkpt>
      <trkpt lat="49.02295" lon="7.87032">
        <ele>365</ele>
        <time>2025-05-09T10:56:12.000Z</time>
      </trkpt>
      <trkpt lat="49.02293" lon="7.87039">
        <ele>365</ele>
        <time>2025-05-09T10:56:15.000Z</time>
      </trkpt>
      <trkpt lat="49.02296" lon="7.87048">
        <ele>366</ele>
        <time>2025-05-09T10:56:22.000Z</time>
      </trkpt>
      <trkpt lat="49.02292" lon="7.87058">
        <ele>366</ele>
        <time>2025-05-09T10:56:25.000Z</time>
      </trkpt>
      <trkpt lat="49.02297" lon="7.87063">
        <ele>366</ele>
        <time>2025-05-09T10:56:30.000Z</time>
      </trkpt>
      <trkpt lat="49.02298" lon="7.8707">
        <ele>366</ele>
        <time>2025-05-09T10:56:33.000Z</time>
      </trkpt>
      <trkpt lat="49.02299" lon="7.87077">
        <ele>366</ele>
        <time>2025-05-09T10:56:38.000Z</time>
      </trkpt>
      <trkpt lat="49.02302" lon="7.87084">
        <ele>367</ele>
        <time>2025-05-09T10:56:43.000Z</time>
      </trkpt>
      <trkpt lat="49.02302" lon="7.87092">
        <ele>367</ele>
        <time>2025-05-09T10:56:47.000Z</time>
      </trkpt>
      <trkpt lat="49.02303" lon="7.87101">
        <ele>368</ele>
        <time>2025-05-09T10:56:55.000Z</time>
      </trkpt>
      <trkpt lat="49.02302" lon="7.8714">
        <ele>369</ele>
        <time>2025-05-09T10:57:18.000Z</time>
      </trkpt>
      <trkpt lat="49.0229" lon="7.87194">
        <ele>370</ele>
        <time>2025-05-09T10:57:53.000Z</time>
      </trkpt>
      <trkpt lat="49.02289" lon="7.87202">
        <ele>370</ele>
        <time>2025-05-09T10:57:58.000Z</time>
      </trkpt>
      <trkpt lat="49.02279" lon="7.87239">
        <ele>371</ele>
        <time>2025-05-09T10:58:18.000Z</time>
      </trkpt>
      <trkpt lat="49.02276" lon="7.87244">
        <ele>372</ele>
        <time>2025-05-09T10:58:22.000Z</time>
      </trkpt>
      <trkpt lat="49.02274" lon="7.87252">
        <ele>372</ele>
        <time>2025-05-09T10:58:26.000Z</time>
      </trkpt>
      <trkpt lat="49.02273" lon="7.87261">
        <ele>373</ele>
        <time>2025-05-09T10:58:33.000Z</time>
      </trkpt>
      <trkpt lat="49.0226" lon="7.87285">
        <ele>373</ele>
        <time>2025-05-09T10:58:44.000Z</time>
      </trkpt>
      <trkpt lat="49.02254" lon="7.87304">
        <ele>374</ele>
        <time>2025-05-09T10:58:56.000Z</time>
      </trkpt>
      <trkpt lat="49.02252" lon="7.87311">
        <ele>374</ele>
        <time>2025-05-09T10:59:02.000Z</time>
      </trkpt>
      <trkpt lat="49.02248" lon="7.87317">
        <ele>374</ele>
        <time>2025-05-09T10:59:05.000Z</time>
      </trkpt>
      <trkpt lat="49.02245" lon="7.87326">
        <ele>374</ele>
        <time>2025-05-09T10:59:11.000Z</time>
      </trkpt>
      <trkpt lat="49.02243" lon="7.87332">
        <ele>374</ele>
        <time>2025-05-09T10:59:14.000Z</time>
      </trkpt>
      <trkpt lat="49.02239" lon="7.87336">
        <ele>374</ele>
        <time>2025-05-09T10:59:17.000Z</time>
      </trkpt>
      <trkpt lat="49.02234" lon="7.87345">
        <ele>374</ele>
        <time>2025-05-09T10:59:23.000Z</time>
      </trkpt>
      <trkpt lat="49.02235" lon="7.87355">
        <ele>375</ele>
        <time>2025-05-09T10:59:30.000Z</time>
      </trkpt>
      <trkpt lat="49.02229" lon="7.87362">
        <ele>375</ele>
        <time>2025-05-09T10:59:34.000Z</time>
      </trkpt>
      <trkpt lat="49.02232" lon="7.87372">
        <ele>375</ele>
        <time>2025-05-09T10:59:38.000Z</time>
      </trkpt>
      <trkpt lat="49.0223" lon="7.87386">
        <ele>375</ele>
        <time>2025-05-09T10:59:45.000Z</time>
      </trkpt>
      <trkpt lat="49.02233" lon="7.87391">
        <ele>375</ele>
        <time>2025-05-09T10:59:50.000Z</time>
      </trkpt>
      <trkpt lat="49.0223" lon="7.87399">
        <ele>375</ele>
        <time>2025-05-09T10:59:54.000Z</time>
      </trkpt>
      <trkpt lat="49.0223" lon="7.87407">
        <ele>375</ele>
        <time>2025-05-09T10:59:58.000Z</time>
      </trkpt>
      <trkpt lat="49.0223" lon="7.87413">
        <ele>375</ele>
        <time>2025-05-09T11:00:03.000Z</time>
      </trkpt>
      <trkpt lat="49.02236" lon="7.87426">
        <ele>375</ele>
        <time>2025-05-09T11:00:11.000Z</time>
      </trkpt>
      <trkpt lat="49.02236" lon="7.87435">
        <ele>375</ele>
        <time>2025-05-09T11:00:15.000Z</time>
      </trkpt>
      <trkpt lat="49.0224" lon="7.87442">
        <ele>375</ele>
        <time>2025-05-09T11:00:19.000Z</time>
      </trkpt>
      <trkpt lat="49.02241" lon="7.87462">
        <ele>376</ele>
        <time>2025-05-09T11:00:30.000Z</time>
      </trkpt>
      <trkpt lat="49.02243" lon="7.87468">
        <ele>376</ele>
        <time>2025-05-09T11:00:33.000Z</time>
      </trkpt>
      <trkpt lat="49.02248" lon="7.8748">
        <ele>376</ele>
        <time>2025-05-09T11:00:40.000Z</time>
      </trkpt>
      <trkpt lat="49.02249" lon="7.87489">
        <ele>376</ele>
        <time>2025-05-09T11:00:43.000Z</time>
      </trkpt>
      <trkpt lat="49.02248" lon="7.87502">
        <ele>376</ele>
        <time>2025-05-09T11:00:50.000Z</time>
      </trkpt>
      <trkpt lat="49.02251" lon="7.87517">
        <ele>376</ele>
        <time>2025-05-09T11:00:58.000Z</time>
      </trkpt>
      <trkpt lat="49.02246" lon="7.87522">
        <ele>377</ele>
        <time>2025-05-09T11:01:02.000Z</time>
      </trkpt>
      <trkpt lat="49.02247" lon="7.8753">
        <ele>377</ele>
        <time>2025-05-09T11:01:06.000Z</time>
      </trkpt>
      <trkpt lat="49.02248" lon="7.87538">
        <ele>377</ele>
        <time>2025-05-09T11:01:10.000Z</time>
      </trkpt>
      <trkpt lat="49.02246" lon="7.87546">
        <ele>377</ele>
        <time>2025-05-09T11:01:14.000Z</time>
      </trkpt>
      <trkpt lat="49.02245" lon="7.87569">
        <ele>377</ele>
        <time>2025-05-09T11:01:29.000Z</time>
      </trkpt>
      <trkpt lat="49.02248" lon="7.87575">
        <ele>377</ele>
        <time>2025-05-09T11:01:32.000Z</time>
      </trkpt>
      <trkpt lat="49.02264" lon="7.87601">
        <ele>377</ele>
        <time>2025-05-09T11:01:50.000Z</time>
      </trkpt>
      <trkpt lat="49.02269" lon="7.87604">
        <ele>377</ele>
        <time>2025-05-09T11:01:55.000Z</time>
      </trkpt>
      <trkpt lat="49.02278" lon="7.87614">
        <ele>378</ele>
        <time>2025-05-09T11:02:03.000Z</time>
      </trkpt>
      <trkpt lat="49.02287" lon="7.87616">
        <ele>379</ele>
        <time>2025-05-09T11:02:12.000Z</time>
      </trkpt>
      <trkpt lat="49.02292" lon="7.87617">
        <ele>380</ele>
        <time>2025-05-09T11:02:15.000Z</time>
      </trkpt>
      <trkpt lat="49.02298" lon="7.87614">
        <ele>383</ele>
        <time>2025-05-09T11:02:39.000Z</time>
      </trkpt>
      <trkpt lat="49.02302" lon="7.87621">
        <ele>383</ele>
        <time>2025-05-09T11:02:42.000Z</time>
      </trkpt>
      <trkpt lat="49.02307" lon="7.87641">
        <ele>385</ele>
        <time>2025-05-09T11:02:54.000Z</time>
      </trkpt>
      <trkpt lat="49.02311" lon="7.87648">
        <ele>385</ele>
        <time>2025-05-09T11:03:00.000Z</time>
      </trkpt>
      <trkpt lat="49.02315" lon="7.87652">
        <ele>385</ele>
        <time>2025-05-09T11:03:03.000Z</time>
      </trkpt>
      <trkpt lat="49.02321" lon="7.87661">
        <ele>386</ele>
        <time>2025-05-09T11:03:08.000Z</time>
      </trkpt>
      <trkpt lat="49.02327" lon="7.87679">
        <ele>388</ele>
        <time>2025-05-09T11:03:21.000Z</time>
      </trkpt>
      <trkpt lat="49.02328" lon="7.87685">
        <ele>388</ele>
        <time>2025-05-09T11:03:26.000Z</time>
      </trkpt>
      <trkpt lat="49.02332" lon="7.8769">
        <ele>388</ele>
        <time>2025-05-09T11:03:29.000Z</time>
      </trkpt>
      <trkpt lat="49.02337" lon="7.87705">
        <ele>389</ele>
        <time>2025-05-09T11:03:40.000Z</time>
      </trkpt>
      <trkpt lat="49.02345" lon="7.87714">
        <ele>390</ele>
        <time>2025-05-09T11:03:47.000Z</time>
      </trkpt>
      <trkpt lat="49.02344" lon="7.87722">
        <ele>390</ele>
        <time>2025-05-09T11:03:51.000Z</time>
      </trkpt>
      <trkpt lat="49.0235" lon="7.87755">
        <ele>392</ele>
        <time>2025-05-09T11:04:13.000Z</time>
      </trkpt>
      <trkpt lat="49.02354" lon="7.87758">
        <ele>393</ele>
        <time>2025-05-09T11:04:15.000Z</time>
      </trkpt>
      <trkpt lat="49.02358" lon="7.87766">
        <ele>393</ele>
        <time>2025-05-09T11:04:20.000Z</time>
      </trkpt>
      <trkpt lat="49.02357" lon="7.87772">
        <ele>394</ele>
        <time>2025-05-09T11:04:25.000Z</time>
      </trkpt>
      <trkpt lat="49.02356" lon="7.87786">
        <ele>396</ele>
        <time>2025-05-09T11:04:39.000Z</time>
      </trkpt>
      <trkpt lat="49.02356" lon="7.87812">
        <ele>397</ele>
        <time>2025-05-09T11:04:52.000Z</time>
      </trkpt>
      <trkpt lat="49.02357" lon="7.87819">
        <ele>398</ele>
        <time>2025-05-09T11:04:56.000Z</time>
      </trkpt>
      <trkpt lat="49.02356" lon="7.87825">
        <ele>398</ele>
        <time>2025-05-09T11:05:00.000Z</time>
      </trkpt>
      <trkpt lat="49.02355" lon="7.87833">
        <ele>398</ele>
        <time>2025-05-09T11:05:04.000Z</time>
      </trkpt>
      <trkpt lat="49.02358" lon="7.8784">
        <ele>399</ele>
        <time>2025-05-09T11:05:07.000Z</time>
      </trkpt>
      <trkpt lat="49.02357" lon="7.87847">
        <ele>399</ele>
        <time>2025-05-09T11:05:15.000Z</time>
      </trkpt>
      <trkpt lat="49.02357" lon="7.87864">
        <ele>399</ele>
        <time>2025-05-09T11:05:23.000Z</time>
      </trkpt>
      <trkpt lat="49.02355" lon="7.87872">
        <ele>399</ele>
        <time>2025-05-09T11:05:27.000Z</time>
      </trkpt>
      <trkpt lat="49.02354" lon="7.87883">
        <ele>400</ele>
        <time>2025-05-09T11:05:35.000Z</time>
      </trkpt>
      <trkpt lat="49.02351" lon="7.8789">
        <ele>400</ele>
        <time>2025-05-09T11:05:39.000Z</time>
      </trkpt>
      <trkpt lat="49.0235" lon="7.87896">
        <ele>400</ele>
        <time>2025-05-09T11:05:42.000Z</time>
      </trkpt>
      <trkpt lat="49.02355" lon="7.87911">
        <ele>401</ele>
        <time>2025-05-09T11:05:50.000Z</time>
      </trkpt>
      <trkpt lat="49.02352" lon="7.8793">
        <ele>401</ele>
        <time>2025-05-09T11:06:00.000Z</time>
      </trkpt>
      <trkpt lat="49.02354" lon="7.87939">
        <ele>401</ele>
        <time>2025-05-09T11:06:05.000Z</time>
      </trkpt>
      <trkpt lat="49.02354" lon="7.87947">
        <ele>401</ele>
        <time>2025-05-09T11:06:08.000Z</time>
      </trkpt>
      <trkpt lat="49.02356" lon="7.87956">
        <ele>400</ele>
        <time>2025-05-09T11:06:13.000Z</time>
      </trkpt>
      <trkpt lat="49.02356" lon="7.87972">
        <ele>401</ele>
        <time>2025-05-09T11:06:23.000Z</time>
      </trkpt>
      <trkpt lat="49.02363" lon="7.87987">
        <ele>401</ele>
        <time>2025-05-09T11:06:31.000Z</time>
      </trkpt>
      <trkpt lat="49.02362" lon="7.87995">
        <ele>401</ele>
        <time>2025-05-09T11:06:35.000Z</time>
      </trkpt>
      <trkpt lat="49.02364" lon="7.88001">
        <ele>401</ele>
        <time>2025-05-09T11:06:39.000Z</time>
      </trkpt>
      <trkpt lat="49.02362" lon="7.88015">
        <ele>401</ele>
        <time>2025-05-09T11:06:47.000Z</time>
      </trkpt>
      <trkpt lat="49.02364" lon="7.88022">
        <ele>401</ele>
        <time>2025-05-09T11:06:51.000Z</time>
      </trkpt>
      <trkpt lat="49.02364" lon="7.88059">
        <ele>401</ele>
        <time>2025-05-09T11:07:12.000Z</time>
      </trkpt>
      <trkpt lat="49.02363" lon="7.88076">
        <ele>401</ele>
        <time>2025-05-09T11:07:21.000Z</time>
      </trkpt>
      <trkpt lat="49.02365" lon="7.88096">
        <ele>402</ele>
        <time>2025-05-09T11:07:33.000Z</time>
      </trkpt>
      <trkpt lat="49.02362" lon="7.88105">
        <ele>403</ele>
        <time>2025-05-09T11:07:37.000Z</time>
      </trkpt>
      <trkpt lat="49.02365" lon="7.88125">
        <ele>405</ele>
        <time>2025-05-09T11:07:49.000Z</time>
      </trkpt>
      <trkpt lat="49.02366" lon="7.88135">
        <ele>406</ele>
        <time>2025-05-09T11:07:56.000Z</time>
      </trkpt>
      <trkpt lat="49.02376" lon="7.88171">
        <ele>408</ele>
        <time>2025-05-09T11:08:19.000Z</time>
      </trkpt>
      <trkpt lat="49.02375" lon="7.88182">
        <ele>409</ele>
        <time>2025-05-09T11:08:28.000Z</time>
      </trkpt>
      <trkpt lat="49.02377" lon="7.88189">
        <ele>409</ele>
        <time>2025-05-09T11:08:31.000Z</time>
      </trkpt>
      <trkpt lat="49.02379" lon="7.88201">
        <ele>409</ele>
        <time>2025-05-09T11:08:37.000Z</time>
      </trkpt>
      <trkpt lat="49.02384" lon="7.88207">
        <ele>409</ele>
        <time>2025-05-09T11:08:42.000Z</time>
      </trkpt>
      <trkpt lat="49.02387" lon="7.88214">
        <ele>409</ele>
        <time>2025-05-09T11:08:47.000Z</time>
      </trkpt>
      <trkpt lat="49.02393" lon="7.88228">
        <ele>410</ele>
        <time>2025-05-09T11:08:59.000Z</time>
      </trkpt>
      <trkpt lat="49.02393" lon="7.88236">
        <ele>410</ele>
        <time>2025-05-09T11:09:04.000Z</time>
      </trkpt>
      <trkpt lat="49.02394" lon="7.88245">
        <ele>411</ele>
        <time>2025-05-09T11:09:11.000Z</time>
      </trkpt>
      <trkpt lat="49.02399" lon="7.88259">
        <ele>412</ele>
        <time>2025-05-09T11:09:17.000Z</time>
      </trkpt>
      <trkpt lat="49.02401" lon="7.88266">
        <ele>412</ele>
        <time>2025-05-09T11:09:22.000Z</time>
      </trkpt>
      <trkpt lat="49.02404" lon="7.88273">
        <ele>412</ele>
        <time>2025-05-09T11:09:26.000Z</time>
      </trkpt>
      <trkpt lat="49.02405" lon="7.8828">
        <ele>413</ele>
        <time>2025-05-09T11:09:29.000Z</time>
      </trkpt>
      <trkpt lat="49.02406" lon="7.88292">
        <ele>413</ele>
        <time>2025-05-09T11:09:35.000Z</time>
      </trkpt>
      <trkpt lat="49.02406" lon="7.883">
        <ele>413</ele>
        <time>2025-05-09T11:09:42.000Z</time>
      </trkpt>
      <trkpt lat="49.0242" lon="7.88347">
        <ele>417</ele>
        <time>2025-05-09T11:10:16.000Z</time>
      </trkpt>
      <trkpt lat="49.02422" lon="7.88357">
        <ele>417</ele>
        <time>2025-05-09T11:10:21.000Z</time>
      </trkpt>
      <trkpt lat="49.02438" lon="7.88402">
        <ele>421</ele>
        <time>2025-05-09T11:10:52.000Z</time>
      </trkpt>
      <trkpt lat="49.02443" lon="7.88408">
        <ele>421</ele>
        <time>2025-05-09T11:10:55.000Z</time>
      </trkpt>
      <trkpt lat="49.02448" lon="7.88417">
        <ele>422</ele>
        <time>2025-05-09T11:11:05.000Z</time>
      </trkpt>
      <trkpt lat="49.0245" lon="7.88428">
        <ele>423</ele>
        <time>2025-05-09T11:11:13.000Z</time>
      </trkpt>
      <trkpt lat="49.0245" lon="7.88441">
        <ele>425</ele>
        <time>2025-05-09T11:11:21.000Z</time>
      </trkpt>
      <trkpt lat="49.02459" lon="7.88449">
        <ele>425</ele>
        <time>2025-05-09T11:11:26.000Z</time>
      </trkpt>
      <trkpt lat="49.02462" lon="7.8846">
        <ele>426</ele>
        <time>2025-05-09T11:11:30.000Z</time>
      </trkpt>
      <trkpt lat="49.02468" lon="7.88476">
        <ele>427</ele>
        <time>2025-05-09T11:11:42.000Z</time>
      </trkpt>
      <trkpt lat="49.02469" lon="7.88471">
        <ele>429</ele>
        <time>2025-05-09T11:11:54.000Z</time>
      </trkpt>
      <trkpt lat="49.02476" lon="7.8847">
        <ele>429</ele>
        <time>2025-05-09T11:12:03.000Z</time>
      </trkpt>
      <trkpt lat="49.02489" lon="7.88478">
        <ele>429</ele>
        <time>2025-05-09T11:12:16.000Z</time>
      </trkpt>
      <trkpt lat="49.02499" lon="7.88486">
        <ele>430</ele>
        <time>2025-05-09T11:12:22.000Z</time>
      </trkpt>
      <trkpt lat="49.02502" lon="7.88483">
        <ele>430</ele>
        <time>2025-05-09T11:12:30.000Z</time>
      </trkpt>
      <trkpt lat="49.02508" lon="7.88481">
        <ele>431</ele>
        <time>2025-05-09T11:12:34.000Z</time>
      </trkpt>
      <trkpt lat="49.02509" lon="7.88496">
        <ele>431</ele>
        <time>2025-05-09T11:12:43.000Z</time>
      </trkpt>
      <trkpt lat="49.02503" lon="7.885">
        <ele>432</ele>
        <time>2025-05-09T11:12:46.000Z</time>
      </trkpt>
      <trkpt lat="49.02496" lon="7.88503">
        <ele>432</ele>
        <time>2025-05-09T11:12:49.000Z</time>
      </trkpt>
      <trkpt lat="49.02491" lon="7.88514">
        <ele>434</ele>
        <time>2025-05-09T11:12:57.000Z</time>
      </trkpt>
      <trkpt lat="49.02494" lon="7.8852">
        <ele>434</ele>
        <time>2025-05-09T11:13:02.000Z</time>
      </trkpt>
      <trkpt lat="49.02499" lon="7.88519">
        <ele>437</ele>
        <time>2025-05-09T11:13:13.000Z</time>
      </trkpt>
      <trkpt lat="49.02507" lon="7.8852">
        <ele>437</ele>
        <time>2025-05-09T11:13:17.000Z</time>
      </trkpt>
      <trkpt lat="49.02507" lon="7.88527">
        <ele>439</ele>
        <time>2025-05-09T11:13:27.000Z</time>
      </trkpt>
      <trkpt lat="49.02501" lon="7.88537">
        <ele>440</ele>
        <time>2025-05-09T11:13:32.000Z</time>
      </trkpt>
      <trkpt lat="49.0251" lon="7.88542">
        <ele>441</ele>
        <time>2025-05-09T11:13:57.000Z</time>
      </trkpt>
      <trkpt lat="49.02516" lon="7.88543">
        <ele>443</ele>
        <time>2025-05-09T11:14:03.000Z</time>
      </trkpt>
      <trkpt lat="49.02525" lon="7.88548">
        <ele>444</ele>
        <time>2025-05-09T11:14:13.000Z</time>
      </trkpt>
      <trkpt lat="49.02529" lon="7.88547">
        <ele>444</ele>
        <time>2025-05-09T11:14:16.000Z</time>
      </trkpt>
      <trkpt lat="49.02533" lon="7.88541">
        <ele>445</ele>
        <time>2025-05-09T11:14:20.000Z</time>
      </trkpt>
      <trkpt lat="49.02538" lon="7.88537">
        <ele>445</ele>
        <time>2025-05-09T11:14:29.000Z</time>
      </trkpt>
      <trkpt lat="49.02563" lon="7.88548">
        <ele>450</ele>
        <time>2025-05-09T11:14:53.000Z</time>
      </trkpt>
      <trkpt lat="49.02566" lon="7.88553">
        <ele>451</ele>
        <time>2025-05-09T11:14:57.000Z</time>
      </trkpt>
      <trkpt lat="49.02574" lon="7.88553">
        <ele>453</ele>
        <time>2025-05-09T11:15:09.000Z</time>
      </trkpt>
      <trkpt lat="49.0258" lon="7.88547">
        <ele>456</ele>
        <time>2025-05-09T11:15:22.000Z</time>
      </trkpt>
      <trkpt lat="49.0259" lon="7.88547">
        <ele>458</ele>
        <time>2025-05-09T11:15:35.000Z</time>
      </trkpt>
      <trkpt lat="49.026" lon="7.88552">
        <ele>459</ele>
        <time>2025-05-09T11:15:43.000Z</time>
      </trkpt>
      <trkpt lat="49.02606" lon="7.88557">
        <ele>460</ele>
        <time>2025-05-09T11:15:45.000Z</time>
      </trkpt>
      <trkpt lat="49.02603" lon="7.88571">
        <ele>462</ele>
        <time>2025-05-09T11:15:53.000Z</time>
      </trkpt>
      <trkpt lat="49.02602" lon="7.88583">
        <ele>463</ele>
        <time>2025-05-09T11:15:57.000Z</time>
      </trkpt>
      <trkpt lat="49.02601" lon="7.88611">
        <ele>466</ele>
        <time>2025-05-09T11:16:17.000Z</time>
      </trkpt>
      <trkpt lat="49.02603" lon="7.88617">
        <ele>467</ele>
        <time>2025-05-09T11:16:27.000Z</time>
      </trkpt>
      <trkpt lat="49.02599" lon="7.88628">
        <ele>467</ele>
        <time>2025-05-09T11:16:30.000Z</time>
      </trkpt>
      <trkpt lat="49.02599" lon="7.88637">
        <ele>468</ele>
        <time>2025-05-09T11:16:38.000Z</time>
      </trkpt>
      <trkpt lat="49.02607" lon="7.88642">
        <ele>469</ele>
        <time>2025-05-09T11:16:47.000Z</time>
      </trkpt>
      <trkpt lat="49.02607" lon="7.88654">
        <ele>469</ele>
        <time>2025-05-09T11:16:51.000Z</time>
      </trkpt>
      <trkpt lat="49.02605" lon="7.8866">
        <ele>470</ele>
        <time>2025-05-09T11:16:57.000Z</time>
      </trkpt>
      <trkpt lat="49.02604" lon="7.88667">
        <ele>470</ele>
        <time>2025-05-09T11:17:01.000Z</time>
      </trkpt>
      <trkpt lat="49.0262" lon="7.88693">
        <ele>473</ele>
        <time>2025-05-09T11:17:28.000Z</time>
      </trkpt>
      <trkpt lat="49.02626" lon="7.88718">
        <ele>475</ele>
        <time>2025-05-09T11:17:39.000Z</time>
      </trkpt>
      <trkpt lat="49.02633" lon="7.88718">
        <ele>475</ele>
        <time>2025-05-09T11:17:44.000Z</time>
      </trkpt>
      <trkpt lat="49.02648" lon="7.88723">
        <ele>479</ele>
        <time>2025-05-09T11:18:08.000Z</time>
      </trkpt>
      <trkpt lat="49.02658" lon="7.88727">
        <ele>480</ele>
        <time>2025-05-09T11:18:15.000Z</time>
      </trkpt>
      <trkpt lat="49.02663" lon="7.8874">
        <ele>482</ele>
        <time>2025-05-09T11:18:27.000Z</time>
      </trkpt>
      <trkpt lat="49.02676" lon="7.8875">
        <ele>484</ele>
        <time>2025-05-09T11:18:45.000Z</time>
      </trkpt>
      <trkpt lat="49.02682" lon="7.8875">
        <ele>484</ele>
        <time>2025-05-09T11:18:50.000Z</time>
      </trkpt>
      <trkpt lat="49.027" lon="7.88758">
        <ele>486</ele>
        <time>2025-05-09T11:19:10.000Z</time>
      </trkpt>
      <trkpt lat="49.02695" lon="7.88756">
        <ele>487</ele>
        <time>2025-05-09T11:19:18.000Z</time>
      </trkpt>
      <trkpt lat="49.02692" lon="7.88738">
        <ele>490</ele>
        <time>2025-05-09T11:19:33.000Z</time>
      </trkpt>
      <trkpt lat="49.02694" lon="7.88719">
        <ele>492</ele>
        <time>2025-05-09T11:19:51.000Z</time>
      </trkpt>
      <trkpt lat="49.02698" lon="7.88714">
        <ele>493</ele>
        <time>2025-05-09T11:19:56.000Z</time>
      </trkpt>
      <trkpt lat="49.02705" lon="7.88708">
        <ele>495</ele>
        <time>2025-05-09T11:20:02.000Z</time>
      </trkpt>
      <trkpt lat="49.02719" lon="7.88704">
        <ele>496</ele>
        <time>2025-05-09T11:20:11.000Z</time>
      </trkpt>
      <trkpt lat="49.02727" lon="7.88701">
        <ele>498</ele>
        <time>2025-05-09T11:20:25.000Z</time>
      </trkpt>
      <trkpt lat="49.02732" lon="7.88696">
        <ele>498</ele>
        <time>2025-05-09T11:20:30.000Z</time>
      </trkpt>
      <trkpt lat="49.02737" lon="7.88689">
        <ele>499</ele>
        <time>2025-05-09T11:20:37.000Z</time>
      </trkpt>
      <trkpt lat="49.02739" lon="7.88675">
        <ele>500</ele>
        <time>2025-05-09T11:20:46.000Z</time>
      </trkpt>
      <trkpt lat="49.02738" lon="7.88663">
        <ele>501</ele>
        <time>2025-05-09T11:20:53.000Z</time>
      </trkpt>
      <trkpt lat="49.02743" lon="7.88658">
        <ele>502</ele>
        <time>2025-05-09T11:21:01.000Z</time>
      </trkpt>
      <trkpt lat="49.02745" lon="7.88649">
        <ele>503</ele>
        <time>2025-05-09T11:21:08.000Z</time>
      </trkpt>
      <trkpt lat="49.02741" lon="7.88643">
        <ele>503</ele>
        <time>2025-05-09T11:21:12.000Z</time>
      </trkpt>
      <trkpt lat="49.02741" lon="7.88634">
        <ele>504</ele>
        <time>2025-05-09T11:21:19.000Z</time>
      </trkpt>
      <trkpt lat="49.02743" lon="7.88625">
        <ele>504</ele>
        <time>2025-05-09T11:21:22.000Z</time>
      </trkpt>
      <trkpt lat="49.02751" lon="7.88608">
        <ele>505</ele>
        <time>2025-05-09T11:21:34.000Z</time>
      </trkpt>
      <trkpt lat="49.02755" lon="7.88603">
        <ele>506</ele>
        <time>2025-05-09T11:21:38.000Z</time>
      </trkpt>
      <trkpt lat="49.02759" lon="7.88596">
        <ele>507</ele>
        <time>2025-05-09T11:21:44.000Z</time>
      </trkpt>
      <trkpt lat="49.02757" lon="7.88588">
        <ele>508</ele>
        <time>2025-05-09T11:21:50.000Z</time>
      </trkpt>
      <trkpt lat="49.02758" lon="7.88581">
        <ele>508</ele>
        <time>2025-05-09T11:21:55.000Z</time>
      </trkpt>
      <trkpt lat="49.02766" lon="7.88567">
        <ele>509</ele>
        <time>2025-05-09T11:22:08.000Z</time>
      </trkpt>
      <trkpt lat="49.02767" lon="7.88561">
        <ele>509</ele>
        <time>2025-05-09T11:22:11.000Z</time>
      </trkpt>
      <trkpt lat="49.02765" lon="7.88551">
        <ele>509</ele>
        <time>2025-05-09T11:22:16.000Z</time>
      </trkpt>
      <trkpt lat="49.0276" lon="7.88544">
        <ele>509</ele>
        <time>2025-05-09T11:22:44.000Z</time>
      </trkpt>
      <trkpt lat="49.02755" lon="7.88533">
        <ele>509</ele>
        <time>2025-05-09T11:22:54.000Z</time>
      </trkpt>
      <trkpt lat="49.02762" lon="7.88535">
        <ele>509</ele>
        <time>2025-05-09T11:23:13.000Z</time>
      </trkpt>
      <trkpt lat="49.02765" lon="7.88529">
        <ele>509</ele>
        <time>2025-05-09T11:23:17.000Z</time>
      </trkpt>
      <trkpt lat="49.02759" lon="7.88513">
        <ele>509</ele>
        <time>2025-05-09T11:23:44.000Z</time>
      </trkpt>
      <trkpt lat="49.02762" lon="7.88523">
        <ele>509</ele>
        <time>2025-05-09T11:23:53.000Z</time>
      </trkpt>
      <trkpt lat="49.02762" lon="7.88529">
        <ele>509</ele>
        <time>2025-05-09T11:23:55.000Z</time>
      </trkpt>
      <trkpt lat="49.02763" lon="7.88536">
        <ele>509</ele>
        <time>2025-05-09T11:23:59.000Z</time>
      </trkpt>
      <trkpt lat="49.02766" lon="7.88542">
        <ele>509</ele>
        <time>2025-05-09T11:24:03.000Z</time>
      </trkpt>
      <trkpt lat="49.02771" lon="7.88553">
        <ele>509</ele>
        <time>2025-05-09T11:24:12.000Z</time>
      </trkpt>
      <trkpt lat="49.02776" lon="7.88565">
        <ele>508</ele>
        <time>2025-05-09T11:24:21.000Z</time>
      </trkpt>
      <trkpt lat="49.02784" lon="7.88575">
        <ele>509</ele>
        <time>2025-05-09T11:24:30.000Z</time>
      </trkpt>
      <trkpt lat="49.02787" lon="7.88583">
        <ele>508</ele>
        <time>2025-05-09T11:24:36.000Z</time>
      </trkpt>
      <trkpt lat="49.02788" lon="7.88591">
        <ele>508</ele>
        <time>2025-05-09T11:24:41.000Z</time>
      </trkpt>
      <trkpt lat="49.02791" lon="7.88618">
        <ele>508</ele>
        <time>2025-05-09T11:24:58.000Z</time>
      </trkpt>
      <trkpt lat="49.02793" lon="7.88624">
        <ele>507</ele>
        <time>2025-05-09T11:25:02.000Z</time>
      </trkpt>
      <trkpt lat="49.0282" lon="7.88658">
        <ele>500</ele>
        <time>2025-05-09T11:25:37.000Z</time>
      </trkpt>
      <trkpt lat="49.02828" lon="7.88667">
        <ele>499</ele>
        <time>2025-05-09T11:25:44.000Z</time>
      </trkpt>
      <trkpt lat="49.0285" lon="7.88694">
        <ele>495</ele>
        <time>2025-05-09T11:26:07.000Z</time>
      </trkpt>
      <trkpt lat="49.02865" lon="7.88714">
        <ele>495</ele>
        <time>2025-05-09T11:26:22.000Z</time>
      </trkpt>
      <trkpt lat="49.0287" lon="7.88719">
        <ele>494</ele>
        <time>2025-05-09T11:26:26.000Z</time>
      </trkpt>
      <trkpt lat="49.0288" lon="7.88734">
        <ele>493</ele>
        <time>2025-05-09T11:26:37.000Z</time>
      </trkpt>
      <trkpt lat="49.02884" lon="7.88738">
        <ele>493</ele>
        <time>2025-05-09T11:26:41.000Z</time>
      </trkpt>
      <trkpt lat="49.02889" lon="7.88745">
        <ele>492</ele>
        <time>2025-05-09T11:26:48.000Z</time>
      </trkpt>
      <trkpt lat="49.02897" lon="7.88757">
        <ele>493</ele>
        <time>2025-05-09T11:26:58.000Z</time>
      </trkpt>
      <trkpt lat="49.029" lon="7.88769">
        <ele>492</ele>
        <time>2025-05-09T11:27:07.000Z</time>
      </trkpt>
      <trkpt lat="49.02901" lon="7.88776">
        <ele>492</ele>
        <time>2025-05-09T11:27:11.000Z</time>
      </trkpt>
      <trkpt lat="49.02902" lon="7.88783">
        <ele>492</ele>
        <time>2025-05-09T11:27:14.000Z</time>
      </trkpt>
      <trkpt lat="49.02902" lon="7.88794">
        <ele>491</ele>
        <time>2025-05-09T11:27:20.000Z</time>
      </trkpt>
      <trkpt lat="49.02902" lon="7.88813">
        <ele>490</ele>
        <time>2025-05-09T11:27:30.000Z</time>
      </trkpt>
      <trkpt lat="49.02905" lon="7.88831">
        <ele>489</ele>
        <time>2025-05-09T11:27:39.000Z</time>
      </trkpt>
      <trkpt lat="49.02909" lon="7.88849">
        <ele>486</ele>
        <time>2025-05-09T11:27:51.000Z</time>
      </trkpt>
      <trkpt lat="49.02912" lon="7.88855">
        <ele>486</ele>
        <time>2025-05-09T11:27:55.000Z</time>
      </trkpt>
      <trkpt lat="49.02918" lon="7.88877">
        <ele>484</ele>
        <time>2025-05-09T11:28:10.000Z</time>
      </trkpt>
      <trkpt lat="49.02921" lon="7.88884">
        <ele>483</ele>
        <time>2025-05-09T11:28:14.000Z</time>
      </trkpt>
      <trkpt lat="49.02941" lon="7.88939">
        <ele>478</ele>
        <time>2025-05-09T11:28:47.000Z</time>
      </trkpt>
      <trkpt lat="49.02951" lon="7.88967">
        <ele>475</ele>
        <time>2025-05-09T11:29:03.000Z</time>
      </trkpt>
      <trkpt lat="49.02954" lon="7.88977">
        <ele>476</ele>
        <time>2025-05-09T11:29:17.000Z</time>
      </trkpt>
      <trkpt lat="49.02952" lon="7.8897">
        <ele>480</ele>
        <time>2025-05-09T11:29:38.000Z</time>
      </trkpt>
      <trkpt lat="49.02954" lon="7.88974">
        <ele>478</ele>
        <time>2025-05-09T11:30:15.000Z</time>
      </trkpt>
      <trkpt lat="49.02964" lon="7.89005">
        <ele>478</ele>
        <time>2025-05-09T11:30:23.000Z</time>
      </trkpt>
      <trkpt lat="49.02959" lon="7.88956">
        <ele>478</ele>
        <time>2025-05-09T11:30:29.000Z</time>
      </trkpt>
      <trkpt lat="49.02959" lon="7.88943">
        <ele>479</ele>
        <time>2025-05-09T11:30:30.000Z</time>
      </trkpt>
      <trkpt lat="49.02962" lon="7.88941">
        <ele>479</ele>
        <time>2025-05-09T11:30:32.000Z</time>
      </trkpt>
      <trkpt lat="49.02973" lon="7.88926">
        <ele>478</ele>
        <time>2025-05-09T11:30:45.000Z</time>
      </trkpt>
      <trkpt lat="49.02986" lon="7.88921">
        <ele>478</ele>
        <time>2025-05-09T11:31:46.000Z</time>
      </trkpt>
      <trkpt lat="49.02965" lon="7.88952">
        <ele>478</ele>
        <time>2025-05-09T11:32:52.000Z</time>
      </trkpt>
      <trkpt lat="49.0296" lon="7.88955">
        <ele>478</ele>
        <time>2025-05-09T11:32:55.000Z</time>
      </trkpt>
      <trkpt lat="49.02956" lon="7.88963">
        <ele>477</ele>
        <time>2025-05-09T11:33:03.000Z</time>
      </trkpt>
      <trkpt lat="49.02952" lon="7.88969">
        <ele>475</ele>
        <time>2025-05-09T11:33:12.000Z</time>
      </trkpt>
      <trkpt lat="49.02954" lon="7.88976">
        <ele>472</ele>
        <time>2025-05-09T11:33:18.000Z</time>
      </trkpt>
      <trkpt lat="49.02964" lon="7.89005">
        <ele>469</ele>
        <time>2025-05-09T11:33:38.000Z</time>
      </trkpt>
      <trkpt lat="49.02969" lon="7.89012">
        <ele>467</ele>
        <time>2025-05-09T11:33:52.000Z</time>
      </trkpt>
      <trkpt lat="49.0296" lon="7.89012">
        <ele>464</ele>
        <time>2025-05-09T11:34:02.000Z</time>
      </trkpt>
      <trkpt lat="49.0295" lon="7.89009">
        <ele>463</ele>
        <time>2025-05-09T11:34:10.000Z</time>
      </trkpt>
      <trkpt lat="49.02941" lon="7.89002">
        <ele>461</ele>
        <time>2025-05-09T11:34:16.000Z</time>
      </trkpt>
      <trkpt lat="49.02932" lon="7.88996">
        <ele>461</ele>
        <time>2025-05-09T11:34:23.000Z</time>
      </trkpt>
      <trkpt lat="49.02895" lon="7.88971">
        <ele>455</ele>
        <time>2025-05-09T11:34:57.000Z</time>
      </trkpt>
      <trkpt lat="49.02884" lon="7.88967">
        <ele>453</ele>
        <time>2025-05-09T11:35:05.000Z</time>
      </trkpt>
      <trkpt lat="49.0288" lon="7.88967">
        <ele>453</ele>
        <time>2025-05-09T11:35:08.000Z</time>
      </trkpt>
      <trkpt lat="49.02881" lon="7.88969">
        <ele>450</ele>
        <time>2025-05-09T11:35:19.000Z</time>
      </trkpt>
      <trkpt lat="49.02886" lon="7.88969">
        <ele>449</ele>
        <time>2025-05-09T11:35:23.000Z</time>
      </trkpt>
      <trkpt lat="49.02892" lon="7.88975">
        <ele>448</ele>
        <time>2025-05-09T11:35:26.000Z</time>
      </trkpt>
      <trkpt lat="49.02895" lon="7.88983">
        <ele>448</ele>
        <time>2025-05-09T11:35:31.000Z</time>
      </trkpt>
      <trkpt lat="49.02906" lon="7.88999">
        <ele>447</ele>
        <time>2025-05-09T11:35:39.000Z</time>
      </trkpt>
      <trkpt lat="49.02906" lon="7.89007">
        <ele>447</ele>
        <time>2025-05-09T11:35:43.000Z</time>
      </trkpt>
      <trkpt lat="49.02905" lon="7.89025">
        <ele>445</ele>
        <time>2025-05-09T11:35:53.000Z</time>
      </trkpt>
      <trkpt lat="49.02908" lon="7.89035">
        <ele>444</ele>
        <time>2025-05-09T11:35:57.000Z</time>
      </trkpt>
      <trkpt lat="49.02911" lon="7.89043">
        <ele>443</ele>
        <time>2025-05-09T11:36:01.000Z</time>
      </trkpt>
      <trkpt lat="49.02931" lon="7.89077">
        <ele>438</ele>
        <time>2025-05-09T11:36:28.000Z</time>
      </trkpt>
      <trkpt lat="49.02969" lon="7.89126">
        <ele>430</ele>
        <time>2025-05-09T11:37:07.000Z</time>
      </trkpt>
      <trkpt lat="49.02969" lon="7.89134">
        <ele>430</ele>
        <time>2025-05-09T11:37:10.000Z</time>
      </trkpt>
      <trkpt lat="49.02958" lon="7.89161">
        <ele>429</ele>
        <time>2025-05-09T11:37:17.000Z</time>
      </trkpt>
      <trkpt lat="49.02959" lon="7.89168">
        <ele>428</ele>
        <time>2025-05-09T11:37:20.000Z</time>
      </trkpt>
      <trkpt lat="49.02956" lon="7.89176">
        <ele>428</ele>
        <time>2025-05-09T11:37:23.000Z</time>
      </trkpt>
      <trkpt lat="49.0295" lon="7.8919">
        <ele>426</ele>
        <time>2025-05-09T11:37:36.000Z</time>
      </trkpt>
      <trkpt lat="49.02945" lon="7.89189">
        <ele>425</ele>
        <time>2025-05-09T11:37:39.000Z</time>
      </trkpt>
      <trkpt lat="49.02917" lon="7.89167">
        <ele>421</ele>
        <time>2025-05-09T11:38:07.000Z</time>
      </trkpt>
      <trkpt lat="49.02908" lon="7.89164">
        <ele>420</ele>
        <time>2025-05-09T11:38:13.000Z</time>
      </trkpt>
      <trkpt lat="49.0291" lon="7.89165">
        <ele>417</ele>
        <time>2025-05-09T11:38:32.000Z</time>
      </trkpt>
      <trkpt lat="49.02928" lon="7.89174">
        <ele>414</ele>
        <time>2025-05-09T11:38:51.000Z</time>
      </trkpt>
      <trkpt lat="49.0293" lon="7.89185">
        <ele>414</ele>
        <time>2025-05-09T11:38:53.000Z</time>
      </trkpt>
      <trkpt lat="49.02919" lon="7.89205">
        <ele>413</ele>
        <time>2025-05-09T11:38:56.000Z</time>
      </trkpt>
      <trkpt lat="49.02922" lon="7.89212">
        <ele>413</ele>
        <time>2025-05-09T11:38:58.000Z</time>
      </trkpt>
      <trkpt lat="49.02927" lon="7.89225">
        <ele>411</ele>
        <time>2025-05-09T11:39:08.000Z</time>
      </trkpt>
      <trkpt lat="49.02928" lon="7.89237">
        <ele>410</ele>
        <time>2025-05-09T11:39:12.000Z</time>
      </trkpt>
      <trkpt lat="49.02921" lon="7.89247">
        <ele>410</ele>
        <time>2025-05-09T11:39:14.000Z</time>
      </trkpt>
      <trkpt lat="49.02923" lon="7.89254">
        <ele>409</ele>
        <time>2025-05-09T11:39:18.000Z</time>
      </trkpt>
      <trkpt lat="49.02924" lon="7.89261">
        <ele>408</ele>
        <time>2025-05-09T11:39:22.000Z</time>
      </trkpt>
      <trkpt lat="49.02934" lon="7.89304">
        <ele>405</ele>
        <time>2025-05-09T11:39:45.000Z</time>
      </trkpt>
      <trkpt lat="49.02939" lon="7.89354">
        <ele>401</ele>
        <time>2025-05-09T11:40:16.000Z</time>
      </trkpt>
      <trkpt lat="49.02943" lon="7.89417">
        <ele>399</ele>
        <time>2025-05-09T11:40:48.000Z</time>
      </trkpt>
      <trkpt lat="49.02944" lon="7.89423">
        <ele>400</ele>
        <time>2025-05-09T11:40:52.000Z</time>
      </trkpt>
      <trkpt lat="49.02945" lon="7.8943">
        <ele>400</ele>
        <time>2025-05-09T11:40:56.000Z</time>
      </trkpt>
      <trkpt lat="49.02945" lon="7.89437">
        <ele>400</ele>
        <time>2025-05-09T11:41:00.000Z</time>
      </trkpt>
      <trkpt lat="49.02946" lon="7.89444">
        <ele>400</ele>
        <time>2025-05-09T11:41:03.000Z</time>
      </trkpt>
      <trkpt lat="49.02948" lon="7.89468">
        <ele>398</ele>
        <time>2025-05-09T11:41:16.000Z</time>
      </trkpt>
      <trkpt lat="49.02949" lon="7.89475">
        <ele>398</ele>
        <time>2025-05-09T11:41:20.000Z</time>
      </trkpt>
      <trkpt lat="49.0295" lon="7.89484">
        <ele>398</ele>
        <time>2025-05-09T11:41:27.000Z</time>
      </trkpt>
      <trkpt lat="49.02949" lon="7.89493">
        <ele>398</ele>
        <time>2025-05-09T11:41:30.000Z</time>
      </trkpt>
      <trkpt lat="49.02947" lon="7.89515">
        <ele>397</ele>
        <time>2025-05-09T11:41:41.000Z</time>
      </trkpt>
      <trkpt lat="49.02936" lon="7.89575">
        <ele>393</ele>
        <time>2025-05-09T11:42:15.000Z</time>
      </trkpt>
      <trkpt lat="49.02923" lon="7.89631">
        <ele>388</ele>
        <time>2025-05-09T11:42:47.000Z</time>
      </trkpt>
      <trkpt lat="49.0291" lon="7.89681">
        <ele>383</ele>
        <time>2025-05-09T11:43:17.000Z</time>
      </trkpt>
      <trkpt lat="49.02896" lon="7.89734">
        <ele>375</ele>
        <time>2025-05-09T11:43:50.000Z</time>
      </trkpt>
      <trkpt lat="49.02895" lon="7.89741">
        <ele>374</ele>
        <time>2025-05-09T11:43:55.000Z</time>
      </trkpt>
      <trkpt lat="49.02886" lon="7.89805">
        <ele>368</ele>
        <time>2025-05-09T11:44:29.000Z</time>
      </trkpt>
      <trkpt lat="49.02883" lon="7.89841">
        <ele>364</ele>
        <time>2025-05-09T11:44:53.000Z</time>
      </trkpt>
      <trkpt lat="49.02888" lon="7.89847">
        <ele>362</ele>
        <time>2025-05-09T11:45:02.000Z</time>
      </trkpt>
      <trkpt lat="49.02897" lon="7.89849">
        <ele>361</ele>
        <time>2025-05-09T11:45:06.000Z</time>
      </trkpt>
      <trkpt lat="49.02896" lon="7.89856">
        <ele>360</ele>
        <time>2025-05-09T11:45:15.000Z</time>
      </trkpt>
      <trkpt lat="49.02881" lon="7.89857">
        <ele>359</ele>
        <time>2025-05-09T11:45:24.000Z</time>
      </trkpt>
      <trkpt lat="49.02874" lon="7.89866">
        <ele>358</ele>
        <time>2025-05-09T11:45:31.000Z</time>
      </trkpt>
      <trkpt lat="49.02869" lon="7.89878">
        <ele>358</ele>
        <time>2025-05-09T11:45:38.000Z</time>
      </trkpt>
      <trkpt lat="49.02877" lon="7.89891">
        <ele>358</ele>
        <time>2025-05-09T11:45:45.000Z</time>
      </trkpt>
      <trkpt lat="49.02867" lon="7.89888">
        <ele>358</ele>
        <time>2025-05-09T11:45:47.000Z</time>
      </trkpt>
      <trkpt lat="49.02874" lon="7.89897">
        <ele>357</ele>
        <time>2025-05-09T11:45:52.000Z</time>
      </trkpt>
      <trkpt lat="49.02884" lon="7.89907">
        <ele>358</ele>
        <time>2025-05-09T11:45:56.000Z</time>
      </trkpt>
      <trkpt lat="49.02886" lon="7.8991">
        <ele>358</ele>
        <time>2025-05-09T11:46:00.000Z</time>
      </trkpt>
      <trkpt lat="49.02886" lon="7.89917">
        <ele>357</ele>
        <time>2025-05-09T11:46:04.000Z</time>
      </trkpt>
      <trkpt lat="49.02887" lon="7.89924">
        <ele>358</ele>
        <time>2025-05-09T11:46:07.000Z</time>
      </trkpt>
      <trkpt lat="49.02885" lon="7.89932">
        <ele>358</ele>
        <time>2025-05-09T11:46:12.000Z</time>
      </trkpt>
      <trkpt lat="49.02883" lon="7.89938">
        <ele>357</ele>
        <time>2025-05-09T11:46:16.000Z</time>
      </trkpt>
      <trkpt lat="49.02882" lon="7.89943">
        <ele>359</ele>
        <time>2025-05-09T11:46:49.000Z</time>
      </trkpt>
      <trkpt lat="49.02878" lon="7.89957">
        <ele>359</ele>
        <time>2025-05-09T11:46:57.000Z</time>
      </trkpt>
      <trkpt lat="49.02872" lon="7.89957">
        <ele>359</ele>
        <time>2025-05-09T11:47:00.000Z</time>
      </trkpt>
      <trkpt lat="49.02868" lon="7.89957">
        <ele>359</ele>
        <time>2025-05-09T11:47:03.000Z</time>
      </trkpt>
      <trkpt lat="49.02863" lon="7.89964">
        <ele>358</ele>
        <time>2025-05-09T11:47:10.000Z</time>
      </trkpt>
      <trkpt lat="49.02857" lon="7.89967">
        <ele>357</ele>
        <time>2025-05-09T11:47:14.000Z</time>
      </trkpt>
      <trkpt lat="49.02856" lon="7.89973">
        <ele>356</ele>
        <time>2025-05-09T11:47:18.000Z</time>
      </trkpt>
      <trkpt lat="49.02861" lon="7.89986">
        <ele>354</ele>
        <time>2025-05-09T11:47:28.000Z</time>
      </trkpt>
      <trkpt lat="49.02859" lon="7.89992">
        <ele>353</ele>
        <time>2025-05-09T11:47:32.000Z</time>
      </trkpt>
      <trkpt lat="49.02855" lon="7.89996">
        <ele>353</ele>
        <time>2025-05-09T11:47:35.000Z</time>
      </trkpt>
      <trkpt lat="49.02846" lon="7.9">
        <ele>351</ele>
        <time>2025-05-09T11:47:45.000Z</time>
      </trkpt>
      <trkpt lat="49.02843" lon="7.90008">
        <ele>351</ele>
        <time>2025-05-09T11:47:48.000Z</time>
      </trkpt>
      <trkpt lat="49.02841" lon="7.90013">
        <ele>351</ele>
        <time>2025-05-09T11:47:52.000Z</time>
      </trkpt>
      <trkpt lat="49.02839" lon="7.9002">
        <ele>351</ele>
        <time>2025-05-09T11:47:55.000Z</time>
      </trkpt>
      <trkpt lat="49.02838" lon="7.90026">
        <ele>349</ele>
        <time>2025-05-09T11:48:04.000Z</time>
      </trkpt>
      <trkpt lat="49.02843" lon="7.90033">
        <ele>348</ele>
        <time>2025-05-09T11:48:10.000Z</time>
      </trkpt>
      <trkpt lat="49.02845" lon="7.90042">
        <ele>348</ele>
        <time>2025-05-09T11:48:15.000Z</time>
      </trkpt>
      <trkpt lat="49.02848" lon="7.90053">
        <ele>348</ele>
        <time>2025-05-09T11:48:22.000Z</time>
      </trkpt>
      <trkpt lat="49.02839" lon="7.90075">
        <ele>346</ele>
        <time>2025-05-09T11:48:37.000Z</time>
      </trkpt>
      <trkpt lat="49.02833" lon="7.90085">
        <ele>345</ele>
        <time>2025-05-09T11:48:43.000Z</time>
      </trkpt>
      <trkpt lat="49.02816" lon="7.901">
        <ele>344</ele>
        <time>2025-05-09T11:48:56.000Z</time>
      </trkpt>
      <trkpt lat="49.02784" lon="7.90103">
        <ele>340</ele>
        <time>2025-05-09T11:49:22.000Z</time>
      </trkpt>
      <trkpt lat="49.02776" lon="7.90109">
        <ele>340</ele>
        <time>2025-05-09T11:49:30.000Z</time>
      </trkpt>
      <trkpt lat="49.02777" lon="7.90124">
        <ele>338</ele>
        <time>2025-05-09T11:49:40.000Z</time>
      </trkpt>
      <trkpt lat="49.02788" lon="7.90129">
        <ele>337</ele>
        <time>2025-05-09T11:49:49.000Z</time>
      </trkpt>
      <trkpt lat="49.028" lon="7.90157">
        <ele>334</ele>
        <time>2025-05-09T11:50:08.000Z</time>
      </trkpt>
      <trkpt lat="49.02809" lon="7.90171">
        <ele>331</ele>
        <time>2025-05-09T11:50:25.000Z</time>
      </trkpt>
      <trkpt lat="49.02822" lon="7.90193">
        <ele>329</ele>
        <time>2025-05-09T11:50:40.000Z</time>
      </trkpt>
      <trkpt lat="49.02831" lon="7.90198">
        <ele>326</ele>
        <time>2025-05-09T11:50:57.000Z</time>
      </trkpt>
      <trkpt lat="49.02842" lon="7.90202">
        <ele>325</ele>
        <time>2025-05-09T11:51:05.000Z</time>
      </trkpt>
      <trkpt lat="49.02847" lon="7.90214">
        <ele>323</ele>
        <time>2025-05-09T11:51:15.000Z</time>
      </trkpt>
      <trkpt lat="49.02844" lon="7.90243">
        <ele>321</ele>
        <time>2025-05-09T11:51:27.000Z</time>
      </trkpt>
      <trkpt lat="49.02856" lon="7.90315">
        <ele>316</ele>
        <time>2025-05-09T11:52:08.000Z</time>
      </trkpt>
      <trkpt lat="49.02858" lon="7.90327">
        <ele>315</ele>
        <time>2025-05-09T11:52:16.000Z</time>
      </trkpt>
      <trkpt lat="49.02856" lon="7.90355">
        <ele>311</ele>
        <time>2025-05-09T11:52:36.000Z</time>
      </trkpt>
      <trkpt lat="49.02857" lon="7.90368">
        <ele>311</ele>
        <time>2025-05-09T11:52:41.000Z</time>
      </trkpt>
      <trkpt lat="49.02852" lon="7.90376">
        <ele>311</ele>
        <time>2025-05-09T11:52:46.000Z</time>
      </trkpt>
      <trkpt lat="49.02844" lon="7.9038">
        <ele>311</ele>
        <time>2025-05-09T11:52:53.000Z</time>
      </trkpt>
      <trkpt lat="49.02839" lon="7.90386">
        <ele>311</ele>
        <time>2025-05-09T11:52:58.000Z</time>
      </trkpt>
      <trkpt lat="49.02837" lon="7.90393">
        <ele>310</ele>
        <time>2025-05-09T11:53:02.000Z</time>
      </trkpt>
      <trkpt lat="49.02842" lon="7.90409">
        <ele>310</ele>
        <time>2025-05-09T11:53:31.000Z</time>
      </trkpt>
      <trkpt lat="49.02842" lon="7.90438">
        <ele>309</ele>
        <time>2025-05-09T11:53:45.000Z</time>
      </trkpt>
      <trkpt lat="49.02839" lon="7.9048">
        <ele>309</ele>
        <time>2025-05-09T11:54:07.000Z</time>
      </trkpt>
      <trkpt lat="49.02829" lon="7.90483">
        <ele>307</ele>
        <time>2025-05-09T11:54:15.000Z</time>
      </trkpt>
      <trkpt lat="49.02823" lon="7.9049">
        <ele>307</ele>
        <time>2025-05-09T11:54:19.000Z</time>
      </trkpt>
      <trkpt lat="49.02809" lon="7.90509">
        <ele>306</ele>
        <time>2025-05-09T11:54:38.000Z</time>
      </trkpt>
      <trkpt lat="49.02783" lon="7.90543">
        <ele>301</ele>
        <time>2025-05-09T11:55:08.000Z</time>
      </trkpt>
      <trkpt lat="49.02772" lon="7.90565">
        <ele>299</ele>
        <time>2025-05-09T11:55:20.000Z</time>
      </trkpt>
      <trkpt lat="49.02765" lon="7.90571">
        <ele>299</ele>
        <time>2025-05-09T11:55:27.000Z</time>
      </trkpt>
      <trkpt lat="49.0275" lon="7.90598">
        <ele>299</ele>
        <time>2025-05-09T11:55:41.000Z</time>
      </trkpt>
      <trkpt lat="49.02741" lon="7.9061">
        <ele>298</ele>
        <time>2025-05-09T11:55:51.000Z</time>
      </trkpt>
      <trkpt lat="49.02739" lon="7.90623">
        <ele>296</ele>
        <time>2025-05-09T11:56:02.000Z</time>
      </trkpt>
      <trkpt lat="49.02723" lon="7.90649">
        <ele>293</ele>
        <time>2025-05-09T11:56:20.000Z</time>
      </trkpt>
      <trkpt lat="49.02717" lon="7.90654">
        <ele>291</ele>
        <time>2025-05-09T11:56:28.000Z</time>
      </trkpt>
      <trkpt lat="49.02718" lon="7.90666">
        <ele>289</ele>
        <time>2025-05-09T11:56:57.000Z</time>
      </trkpt>
      <trkpt lat="49.02709" lon="7.90685">
        <ele>288</ele>
        <time>2025-05-09T11:57:09.000Z</time>
      </trkpt>
      <trkpt lat="49.02707" lon="7.90695">
        <ele>288</ele>
        <time>2025-05-09T11:57:15.000Z</time>
      </trkpt>
      <trkpt lat="49.02703" lon="7.90703">
        <ele>288</ele>
        <time>2025-05-09T11:57:21.000Z</time>
      </trkpt>
      <trkpt lat="49.02702" lon="7.90711">
        <ele>287</ele>
        <time>2025-05-09T11:57:26.000Z</time>
      </trkpt>
      <trkpt lat="49.027" lon="7.90719">
        <ele>287</ele>
        <time>2025-05-09T11:57:31.000Z</time>
      </trkpt>
      <trkpt lat="49.02697" lon="7.90725">
        <ele>287</ele>
        <time>2025-05-09T11:57:35.000Z</time>
      </trkpt>
      <trkpt lat="49.02693" lon="7.9074">
        <ele>286</ele>
        <time>2025-05-09T11:57:43.000Z</time>
      </trkpt>
      <trkpt lat="49.02693" lon="7.90747">
        <ele>286</ele>
        <time>2025-05-09T11:57:47.000Z</time>
      </trkpt>
      <trkpt lat="49.02693" lon="7.90754">
        <ele>286</ele>
        <time>2025-05-09T11:57:51.000Z</time>
      </trkpt>
      <trkpt lat="49.02693" lon="7.9076">
        <ele>285</ele>
        <time>2025-05-09T11:57:55.000Z</time>
      </trkpt>
      <trkpt lat="49.02695" lon="7.9077">
        <ele>285</ele>
        <time>2025-05-09T11:58:02.000Z</time>
      </trkpt>
      <trkpt lat="49.02694" lon="7.9078">
        <ele>284</ele>
        <time>2025-05-09T11:58:07.000Z</time>
      </trkpt>
      <trkpt lat="49.02694" lon="7.90788">
        <ele>284</ele>
        <time>2025-05-09T11:58:11.000Z</time>
      </trkpt>
      <trkpt lat="49.02693" lon="7.90813">
        <ele>282</ele>
        <time>2025-05-09T11:58:24.000Z</time>
      </trkpt>
      <trkpt lat="49.02694" lon="7.9082">
        <ele>282</ele>
        <time>2025-05-09T11:58:28.000Z</time>
      </trkpt>
      <trkpt lat="49.02693" lon="7.90828">
        <ele>281</ele>
        <time>2025-05-09T11:58:32.000Z</time>
      </trkpt>
      <trkpt lat="49.02692" lon="7.90839">
        <ele>281</ele>
        <time>2025-05-09T11:58:38.000Z</time>
      </trkpt>
      <trkpt lat="49.02691" lon="7.90848">
        <ele>281</ele>
        <time>2025-05-09T11:58:43.000Z</time>
      </trkpt>
      <trkpt lat="49.02693" lon="7.9086">
        <ele>280</ele>
        <time>2025-05-09T11:58:50.000Z</time>
      </trkpt>
      <trkpt lat="49.02692" lon="7.90868">
        <ele>280</ele>
        <time>2025-05-09T11:58:55.000Z</time>
      </trkpt>
      <trkpt lat="49.0269" lon="7.90876">
        <ele>280</ele>
        <time>2025-05-09T11:58:59.000Z</time>
      </trkpt>
      <trkpt lat="49.02692" lon="7.90898">
        <ele>280</ele>
        <time>2025-05-09T11:59:12.000Z</time>
      </trkpt>
      <trkpt lat="49.02689" lon="7.90921">
        <ele>280</ele>
        <time>2025-05-09T11:59:23.000Z</time>
      </trkpt>
      <trkpt lat="49.0269" lon="7.90928">
        <ele>279</ele>
        <time>2025-05-09T11:59:26.000Z</time>
      </trkpt>
      <trkpt lat="49.02692" lon="7.90937">
        <ele>279</ele>
        <time>2025-05-09T11:59:30.000Z</time>
      </trkpt>
      <trkpt lat="49.02693" lon="7.90945">
        <ele>279</ele>
        <time>2025-05-09T11:59:34.000Z</time>
      </trkpt>
      <trkpt lat="49.02696" lon="7.90972">
        <ele>278</ele>
        <time>2025-05-09T11:59:49.000Z</time>
      </trkpt>
      <trkpt lat="49.02699" lon="7.90979">
        <ele>277</ele>
        <time>2025-05-09T11:59:53.000Z</time>
      </trkpt>
      <trkpt lat="49.02716" lon="7.91006">
        <ele>276</ele>
        <time>2025-05-09T12:00:16.000Z</time>
      </trkpt>
      <trkpt lat="49.02719" lon="7.9101">
        <ele>277</ele>
        <time>2025-05-09T12:00:20.000Z</time>
      </trkpt>
      <trkpt lat="49.02721" lon="7.91015">
        <ele>277</ele>
        <time>2025-05-09T12:00:24.000Z</time>
      </trkpt>
      <trkpt lat="49.02723" lon="7.91019">
        <ele>277</ele>
        <time>2025-05-09T12:00:27.000Z</time>
      </trkpt>
      <trkpt lat="49.02731" lon="7.91032">
        <ele>279</ele>
        <time>2025-05-09T12:00:40.000Z</time>
      </trkpt>
      <trkpt lat="49.02744" lon="7.91047">
        <ele>280</ele>
        <time>2025-05-09T12:00:53.000Z</time>
      </trkpt>
      <trkpt lat="49.02747" lon="7.91053">
        <ele>281</ele>
        <time>2025-05-09T12:00:58.000Z</time>
      </trkpt>
      <trkpt lat="49.02754" lon="7.91054">
        <ele>282</ele>
        <time>2025-05-09T12:01:03.000Z</time>
      </trkpt>
      <trkpt lat="49.02759" lon="7.91062">
        <ele>283</ele>
        <time>2025-05-09T12:01:12.000Z</time>
      </trkpt>
      <trkpt lat="49.02766" lon="7.91065">
        <ele>284</ele>
        <time>2025-05-09T12:01:17.000Z</time>
      </trkpt>
      <trkpt lat="49.02791" lon="7.91082">
        <ele>286</ele>
        <time>2025-05-09T12:01:43.000Z</time>
      </trkpt>
      <trkpt lat="49.0281" lon="7.91091">
        <ele>288</ele>
        <time>2025-05-09T12:02:04.000Z</time>
      </trkpt>
      <trkpt lat="49.02821" lon="7.91092">
        <ele>289</ele>
        <time>2025-05-09T12:02:13.000Z</time>
      </trkpt>
      <trkpt lat="49.02844" lon="7.91115">
        <ele>290</ele>
        <time>2025-05-09T12:02:36.000Z</time>
      </trkpt>
      <trkpt lat="49.02853" lon="7.9113">
        <ele>289</ele>
        <time>2025-05-09T12:02:47.000Z</time>
      </trkpt>
      <trkpt lat="49.02857" lon="7.91142">
        <ele>288</ele>
        <time>2025-05-09T12:02:54.000Z</time>
      </trkpt>
      <trkpt lat="49.02863" lon="7.91152">
        <ele>288</ele>
        <time>2025-05-09T12:03:01.000Z</time>
      </trkpt>
      <trkpt lat="49.02866" lon="7.91165">
        <ele>287</ele>
        <time>2025-05-09T12:03:06.000Z</time>
      </trkpt>
      <trkpt lat="49.0287" lon="7.91174">
        <ele>287</ele>
        <time>2025-05-09T12:03:11.000Z</time>
      </trkpt>
      <trkpt lat="49.02879" lon="7.91184">
        <ele>287</ele>
        <time>2025-05-09T12:03:22.000Z</time>
      </trkpt>
      <trkpt lat="49.02883" lon="7.91193">
        <ele>286</ele>
        <time>2025-05-09T12:03:27.000Z</time>
      </trkpt>
      <trkpt lat="49.02887" lon="7.91212">
        <ele>286</ele>
        <time>2025-05-09T12:03:38.000Z</time>
      </trkpt>
      <trkpt lat="49.02899" lon="7.91222">
        <ele>285</ele>
        <time>2025-05-09T12:03:50.000Z</time>
      </trkpt>
      <trkpt lat="49.02905" lon="7.91225">
        <ele>285</ele>
        <time>2025-05-09T12:03:54.000Z</time>
      </trkpt>
      <trkpt lat="49.0291" lon="7.91232">
        <ele>285</ele>
        <time>2025-05-09T12:03:58.000Z</time>
      </trkpt>
      <trkpt lat="49.02913" lon="7.91239">
        <ele>285</ele>
        <time>2025-05-09T12:04:02.000Z</time>
      </trkpt>
      <trkpt lat="49.02917" lon="7.91246">
        <ele>285</ele>
        <time>2025-05-09T12:04:07.000Z</time>
      </trkpt>
      <trkpt lat="49.02921" lon="7.9125">
        <ele>285</ele>
        <time>2025-05-09T12:04:11.000Z</time>
      </trkpt>
      <trkpt lat="49.02925" lon="7.91256">
        <ele>284</ele>
        <time>2025-05-09T12:04:15.000Z</time>
      </trkpt>
      <trkpt lat="49.02932" lon="7.91266">
        <ele>283</ele>
        <time>2025-05-09T12:04:23.000Z</time>
      </trkpt>
      <trkpt lat="49.02934" lon="7.91278">
        <ele>283</ele>
        <time>2025-05-09T12:04:29.000Z</time>
      </trkpt>
      <trkpt lat="49.02934" lon="7.91285">
        <ele>283</ele>
        <time>2025-05-09T12:04:33.000Z</time>
      </trkpt>
      <trkpt lat="49.02934" lon="7.91293">
        <ele>283</ele>
        <time>2025-05-09T12:04:37.000Z</time>
      </trkpt>
      <trkpt lat="49.02933" lon="7.91301">
        <ele>283</ele>
        <time>2025-05-09T12:04:41.000Z</time>
      </trkpt>
      <trkpt lat="49.02935" lon="7.91309">
        <ele>283</ele>
        <time>2025-05-09T12:04:45.000Z</time>
      </trkpt>
      <trkpt lat="49.02937" lon="7.91317">
        <ele>283</ele>
        <time>2025-05-09T12:04:50.000Z</time>
      </trkpt>
      <trkpt lat="49.02939" lon="7.91326">
        <ele>283</ele>
        <time>2025-05-09T12:04:57.000Z</time>
      </trkpt>
      <trkpt lat="49.0294" lon="7.91335">
        <ele>282</ele>
        <time>2025-05-09T12:05:02.000Z</time>
      </trkpt>
      <trkpt lat="49.02943" lon="7.91345">
        <ele>282</ele>
        <time>2025-05-09T12:05:07.000Z</time>
      </trkpt>
      <trkpt lat="49.02943" lon="7.91358">
        <ele>283</ele>
        <time>2025-05-09T12:05:12.000Z</time>
      </trkpt>
      <trkpt lat="49.02951" lon="7.9141">
        <ele>282</ele>
        <time>2025-05-09T12:05:37.000Z</time>
      </trkpt>
      <trkpt lat="49.02949" lon="7.91419">
        <ele>282</ele>
        <time>2025-05-09T12:05:43.000Z</time>
      </trkpt>
      <trkpt lat="49.02953" lon="7.91429">
        <ele>282</ele>
        <time>2025-05-09T12:05:47.000Z</time>
      </trkpt>
      <trkpt lat="49.02954" lon="7.9144">
        <ele>282</ele>
        <time>2025-05-09T12:05:52.000Z</time>
      </trkpt>
      <trkpt lat="49.02953" lon="7.91448">
        <ele>281</ele>
        <time>2025-05-09T12:05:57.000Z</time>
      </trkpt>
      <trkpt lat="49.02957" lon="7.91457">
        <ele>282</ele>
        <time>2025-05-09T12:06:02.000Z</time>
      </trkpt>
      <trkpt lat="49.02963" lon="7.91472">
        <ele>281</ele>
        <time>2025-05-09T12:06:10.000Z</time>
      </trkpt>
      <trkpt lat="49.02966" lon="7.91489">
        <ele>280</ele>
        <time>2025-05-09T12:06:18.000Z</time>
      </trkpt>
      <trkpt lat="49.02965" lon="7.91498">
        <ele>280</ele>
        <time>2025-05-09T12:06:23.000Z</time>
      </trkpt>
      <trkpt lat="49.0297" lon="7.91515">
        <ele>281</ele>
        <time>2025-05-09T12:06:32.000Z</time>
      </trkpt>
      <trkpt lat="49.02973" lon="7.91526">
        <ele>280</ele>
        <time>2025-05-09T12:06:39.000Z</time>
      </trkpt>
      <trkpt lat="49.02978" lon="7.91532">
        <ele>280</ele>
        <time>2025-05-09T12:06:46.000Z</time>
      </trkpt>
      <trkpt lat="49.02994" lon="7.91558">
        <ele>280</ele>
        <time>2025-05-09T12:07:04.000Z</time>
      </trkpt>
      <trkpt lat="49.03" lon="7.91572">
        <ele>280</ele>
        <time>2025-05-09T12:07:12.000Z</time>
      </trkpt>
      <trkpt lat="49.03001" lon="7.91586">
        <ele>279</ele>
        <time>2025-05-09T12:07:20.000Z</time>
      </trkpt>
      <trkpt lat="49.03011" lon="7.91607">
        <ele>278</ele>
        <time>2025-05-09T12:07:33.000Z</time>
      </trkpt>
      <trkpt lat="49.03019" lon="7.91617">
        <ele>278</ele>
        <time>2025-05-09T12:07:40.000Z</time>
      </trkpt>
      <trkpt lat="49.0302" lon="7.91633">
        <ele>278</ele>
        <time>2025-05-09T12:07:46.000Z</time>
      </trkpt>
      <trkpt lat="49.03024" lon="7.91643">
        <ele>278</ele>
        <time>2025-05-09T12:07:53.000Z</time>
      </trkpt>
      <trkpt lat="49.03026" lon="7.91653">
        <ele>278</ele>
        <time>2025-05-09T12:07:59.000Z</time>
      </trkpt>
      <trkpt lat="49.03027" lon="7.91662">
        <ele>278</ele>
        <time>2025-05-09T12:08:05.000Z</time>
      </trkpt>
      <trkpt lat="49.03034" lon="7.91677">
        <ele>277</ele>
        <time>2025-05-09T12:08:14.000Z</time>
      </trkpt>
      <trkpt lat="49.03036" lon="7.91684">
        <ele>277</ele>
        <time>2025-05-09T12:08:18.000Z</time>
      </trkpt>
      <trkpt lat="49.03037" lon="7.9169">
        <ele>277</ele>
        <time>2025-05-09T12:08:22.000Z</time>
      </trkpt>
      <trkpt lat="49.03039" lon="7.917">
        <ele>276</ele>
        <time>2025-05-09T12:08:30.000Z</time>
      </trkpt>
      <trkpt lat="49.03044" lon="7.91721">
        <ele>276</ele>
        <time>2025-05-09T12:08:41.000Z</time>
      </trkpt>
      <trkpt lat="49.03048" lon="7.91734">
        <ele>276</ele>
        <time>2025-05-09T12:08:47.000Z</time>
      </trkpt>
      <trkpt lat="49.03076" lon="7.91739">
        <ele>274</ele>
        <time>2025-05-09T12:09:07.000Z</time>
      </trkpt>
      <trkpt lat="49.03083" lon="7.91749">
        <ele>273</ele>
        <time>2025-05-09T12:09:15.000Z</time>
      </trkpt>
      <trkpt lat="49.03089" lon="7.91756">
        <ele>273</ele>
        <time>2025-05-09T12:09:20.000Z</time>
      </trkpt>
      <trkpt lat="49.03092" lon="7.91764">
        <ele>273</ele>
        <time>2025-05-09T12:09:25.000Z</time>
      </trkpt>
      <trkpt lat="49.03125" lon="7.91809">
        <ele>270</ele>
        <time>2025-05-09T12:09:59.000Z</time>
      </trkpt>
      <trkpt lat="49.03131" lon="7.91817">
        <ele>270</ele>
        <time>2025-05-09T12:10:04.000Z</time>
      </trkpt>
      <trkpt lat="49.03136" lon="7.91826">
        <ele>269</ele>
        <time>2025-05-09T12:10:10.000Z</time>
      </trkpt>
      <trkpt lat="49.03142" lon="7.91846">
        <ele>268</ele>
        <time>2025-05-09T12:10:21.000Z</time>
      </trkpt>
      <trkpt lat="49.03143" lon="7.91856">
        <ele>268</ele>
        <time>2025-05-09T12:10:26.000Z</time>
      </trkpt>
      <trkpt lat="49.03142" lon="7.91867">
        <ele>268</ele>
        <time>2025-05-09T12:10:32.000Z</time>
      </trkpt>
      <trkpt lat="49.03143" lon="7.91877">
        <ele>268</ele>
        <time>2025-05-09T12:10:36.000Z</time>
      </trkpt>
      <trkpt lat="49.03146" lon="7.91887">
        <ele>267</ele>
        <time>2025-05-09T12:10:41.000Z</time>
      </trkpt>
      <trkpt lat="49.03148" lon="7.91897">
        <ele>268</ele>
        <time>2025-05-09T12:10:46.000Z</time>
      </trkpt>
      <trkpt lat="49.03151" lon="7.91904">
        <ele>268</ele>
        <time>2025-05-09T12:10:51.000Z</time>
      </trkpt>
      <trkpt lat="49.03148" lon="7.91914">
        <ele>267</ele>
        <time>2025-05-09T12:10:55.000Z</time>
      </trkpt>
      <trkpt lat="49.0315" lon="7.91925">
        <ele>267</ele>
        <time>2025-05-09T12:11:00.000Z</time>
      </trkpt>
      <trkpt lat="49.03152" lon="7.91934">
        <ele>267</ele>
        <time>2025-05-09T12:11:05.000Z</time>
      </trkpt>
      <trkpt lat="49.03152" lon="7.91944">
        <ele>267</ele>
        <time>2025-05-09T12:11:11.000Z</time>
      </trkpt>
      <trkpt lat="49.03155" lon="7.91952">
        <ele>267</ele>
        <time>2025-05-09T12:11:16.000Z</time>
      </trkpt>
      <trkpt lat="49.03157" lon="7.91967">
        <ele>266</ele>
        <time>2025-05-09T12:11:25.000Z</time>
      </trkpt>
      <trkpt lat="49.03162" lon="7.91975">
        <ele>266</ele>
        <time>2025-05-09T12:11:30.000Z</time>
      </trkpt>
      <trkpt lat="49.03164" lon="7.91986">
        <ele>265</ele>
        <time>2025-05-09T12:11:35.000Z</time>
      </trkpt>
      <trkpt lat="49.03175" lon="7.92013">
        <ele>265</ele>
        <time>2025-05-09T12:11:51.000Z</time>
      </trkpt>
      <trkpt lat="49.03177" lon="7.92021">
        <ele>264</ele>
        <time>2025-05-09T12:11:56.000Z</time>
      </trkpt>
      <trkpt lat="49.03181" lon="7.92029">
        <ele>264</ele>
        <time>2025-05-09T12:12:00.000Z</time>
      </trkpt>
      <trkpt lat="49.03182" lon="7.92038">
        <ele>264</ele>
        <time>2025-05-09T12:12:07.000Z</time>
      </trkpt>
      <trkpt lat="49.03191" lon="7.92053">
        <ele>264</ele>
        <time>2025-05-09T12:12:16.000Z</time>
      </trkpt>
      <trkpt lat="49.03193" lon="7.92063">
        <ele>263</ele>
        <time>2025-05-09T12:12:21.000Z</time>
      </trkpt>
      <trkpt lat="49.03193" lon="7.92073">
        <ele>263</ele>
        <time>2025-05-09T12:12:26.000Z</time>
      </trkpt>
      <trkpt lat="49.03198" lon="7.92082">
        <ele>263</ele>
        <time>2025-05-09T12:12:30.000Z</time>
      </trkpt>
      <trkpt lat="49.03203" lon="7.92091">
        <ele>262</ele>
        <time>2025-05-09T12:12:36.000Z</time>
      </trkpt>
      <trkpt lat="49.03207" lon="7.92097">
        <ele>262</ele>
        <time>2025-05-09T12:12:40.000Z</time>
      </trkpt>
      <trkpt lat="49.03209" lon="7.92108">
        <ele>262</ele>
        <time>2025-05-09T12:12:46.000Z</time>
      </trkpt>
      <trkpt lat="49.03218" lon="7.92132">
        <ele>262</ele>
        <time>2025-05-09T12:12:59.000Z</time>
      </trkpt>
      <trkpt lat="49.03223" lon="7.92137">
        <ele>262</ele>
        <time>2025-05-09T12:13:03.000Z</time>
      </trkpt>
      <trkpt lat="49.0323" lon="7.92157">
        <ele>260</ele>
        <time>2025-05-09T12:13:16.000Z</time>
      </trkpt>
      <trkpt lat="49.03232" lon="7.92164">
        <ele>261</ele>
        <time>2025-05-09T12:13:20.000Z</time>
      </trkpt>
      <trkpt lat="49.03235" lon="7.9217">
        <ele>260</ele>
        <time>2025-05-09T12:13:24.000Z</time>
      </trkpt>
      <trkpt lat="49.03239" lon="7.92175">
        <ele>260</ele>
        <time>2025-05-09T12:13:28.000Z</time>
      </trkpt>
      <trkpt lat="49.03243" lon="7.92179">
        <ele>260</ele>
        <time>2025-05-09T12:13:32.000Z</time>
      </trkpt>
      <trkpt lat="49.03252" lon="7.92185">
        <ele>260</ele>
        <time>2025-05-09T12:13:40.000Z</time>
      </trkpt>
      <trkpt lat="49.0326" lon="7.92191">
        <ele>260</ele>
        <time>2025-05-09T12:13:48.000Z</time>
      </trkpt>
      <trkpt lat="49.03285" lon="7.92215">
        <ele>258</ele>
        <time>2025-05-09T12:14:13.000Z</time>
      </trkpt>
      <trkpt lat="49.03293" lon="7.92223">
        <ele>258</ele>
        <time>2025-05-09T12:14:21.000Z</time>
      </trkpt>
      <trkpt lat="49.03303" lon="7.92239">
        <ele>257</ele>
        <time>2025-05-09T12:14:32.000Z</time>
      </trkpt>
      <trkpt lat="49.03306" lon="7.92245">
        <ele>257</ele>
        <time>2025-05-09T12:14:36.000Z</time>
      </trkpt>
      <trkpt lat="49.03308" lon="7.92269">
        <ele>257</ele>
        <time>2025-05-09T12:14:48.000Z</time>
      </trkpt>
      <trkpt lat="49.03307" lon="7.92276">
        <ele>257</ele>
        <time>2025-05-09T12:14:52.000Z</time>
      </trkpt>
      <trkpt lat="49.03307" lon="7.92283">
        <ele>257</ele>
        <time>2025-05-09T12:14:56.000Z</time>
      </trkpt>
      <trkpt lat="49.03306" lon="7.92291">
        <ele>257</ele>
        <time>2025-05-09T12:15:00.000Z</time>
      </trkpt>
      <trkpt lat="49.03306" lon="7.92298">
        <ele>257</ele>
        <time>2025-05-09T12:15:04.000Z</time>
      </trkpt>
      <trkpt lat="49.03305" lon="7.92304">
        <ele>257</ele>
        <time>2025-05-09T12:15:07.000Z</time>
      </trkpt>
      <trkpt lat="49.03304" lon="7.92319">
        <ele>257</ele>
        <time>2025-05-09T12:15:15.000Z</time>
      </trkpt>
      <trkpt lat="49.03306" lon="7.92326">
        <ele>257</ele>
        <time>2025-05-09T12:15:19.000Z</time>
      </trkpt>
      <trkpt lat="49.03307" lon="7.92332">
        <ele>257</ele>
        <time>2025-05-09T12:15:24.000Z</time>
      </trkpt>
      <trkpt lat="49.03309" lon="7.92338">
        <ele>257</ele>
        <time>2025-05-09T12:15:28.000Z</time>
      </trkpt>
      <trkpt lat="49.03312" lon="7.92342">
        <ele>257</ele>
        <time>2025-05-09T12:15:31.000Z</time>
      </trkpt>
      <trkpt lat="49.03316" lon="7.92352">
        <ele>257</ele>
        <time>2025-05-09T12:15:38.000Z</time>
      </trkpt>
      <trkpt lat="49.03319" lon="7.92356">
        <ele>256</ele>
        <time>2025-05-09T12:15:41.000Z</time>
      </trkpt>
      <trkpt lat="49.03321" lon="7.92361">
        <ele>256</ele>
        <time>2025-05-09T12:15:44.000Z</time>
      </trkpt>
      <trkpt lat="49.03332" lon="7.92382">
        <ele>256</ele>
        <time>2025-05-09T12:15:59.000Z</time>
      </trkpt>
      <trkpt lat="49.03337" lon="7.92394">
        <ele>255</ele>
        <time>2025-05-09T12:16:08.000Z</time>
      </trkpt>
      <trkpt lat="49.03349" lon="7.92415">
        <ele>255</ele>
        <time>2025-05-09T12:16:22.000Z</time>
      </trkpt>
      <trkpt lat="49.03353" lon="7.92431">
        <ele>254</ele>
        <time>2025-05-09T12:16:31.000Z</time>
      </trkpt>
      <trkpt lat="49.03355" lon="7.92443">
        <ele>254</ele>
        <time>2025-05-09T12:16:37.000Z</time>
      </trkpt>
      <trkpt lat="49.03355" lon="7.92449">
        <ele>254</ele>
        <time>2025-05-09T12:16:40.000Z</time>
      </trkpt>
      <trkpt lat="49.03356" lon="7.92454">
        <ele>253</ele>
        <time>2025-05-09T12:16:43.000Z</time>
      </trkpt>
      <trkpt lat="49.03357" lon="7.9246">
        <ele>253</ele>
        <time>2025-05-09T12:16:46.000Z</time>
      </trkpt>
      <trkpt lat="49.03358" lon="7.92468">
        <ele>253</ele>
        <time>2025-05-09T12:16:50.000Z</time>
      </trkpt>
      <trkpt lat="49.03359" lon="7.92473">
        <ele>253</ele>
        <time>2025-05-09T12:16:53.000Z</time>
      </trkpt>
      <trkpt lat="49.0336" lon="7.92479">
        <ele>253</ele>
        <time>2025-05-09T12:16:56.000Z</time>
      </trkpt>
      <trkpt lat="49.03362" lon="7.92484">
        <ele>253</ele>
        <time>2025-05-09T12:16:59.000Z</time>
      </trkpt>
      <trkpt lat="49.03362" lon="7.92489">
        <ele>253</ele>
        <time>2025-05-09T12:17:02.000Z</time>
      </trkpt>
      <trkpt lat="49.03365" lon="7.92499">
        <ele>252</ele>
        <time>2025-05-09T12:17:08.000Z</time>
      </trkpt>
      <trkpt lat="49.03369" lon="7.9251">
        <ele>252</ele>
        <time>2025-05-09T12:17:15.000Z</time>
      </trkpt>
      <trkpt lat="49.03369" lon="7.92517">
        <ele>252</ele>
        <time>2025-05-09T12:17:19.000Z</time>
      </trkpt>
      <trkpt lat="49.03374" lon="7.92535">
        <ele>250</ele>
        <time>2025-05-09T12:17:31.000Z</time>
      </trkpt>
      <trkpt lat="49.0338" lon="7.92545">
        <ele>250</ele>
        <time>2025-05-09T12:17:38.000Z</time>
      </trkpt>
      <trkpt lat="49.03385" lon="7.92554">
        <ele>250</ele>
        <time>2025-05-09T12:17:44.000Z</time>
      </trkpt>
      <trkpt lat="49.03385" lon="7.92565">
        <ele>249</ele>
        <time>2025-05-09T12:17:50.000Z</time>
      </trkpt>
      <trkpt lat="49.03388" lon="7.92575">
        <ele>249</ele>
        <time>2025-05-09T12:17:54.000Z</time>
      </trkpt>
      <trkpt lat="49.03388" lon="7.92586">
        <ele>248</ele>
        <time>2025-05-09T12:17:59.000Z</time>
      </trkpt>
      <trkpt lat="49.03387" lon="7.92596">
        <ele>248</ele>
        <time>2025-05-09T12:18:04.000Z</time>
      </trkpt>
      <trkpt lat="49.03377" lon="7.92607">
        <ele>247</ele>
        <time>2025-05-09T12:18:13.000Z</time>
      </trkpt>
      <trkpt lat="49.03371" lon="7.9261">
        <ele>247</ele>
        <time>2025-05-09T12:18:17.000Z</time>
      </trkpt>
      <trkpt lat="49.03366" lon="7.92613">
        <ele>247</ele>
        <time>2025-05-09T12:18:21.000Z</time>
      </trkpt>
      <trkpt lat="49.0336" lon="7.92613">
        <ele>247</ele>
        <time>2025-05-09T12:18:25.000Z</time>
      </trkpt>
      <trkpt lat="49.03352" lon="7.92616">
        <ele>247</ele>
        <time>2025-05-09T12:18:31.000Z</time>
      </trkpt>
      <trkpt lat="49.03346" lon="7.92619">
        <ele>246</ele>
        <time>2025-05-09T12:18:36.000Z</time>
      </trkpt>
      <trkpt lat="49.03324" lon="7.92627">
        <ele>247</ele>
        <time>2025-05-09T12:18:55.000Z</time>
      </trkpt>
      <trkpt lat="49.03315" lon="7.92634">
        <ele>247</ele>
        <time>2025-05-09T12:19:03.000Z</time>
      </trkpt>
      <trkpt lat="49.0331" lon="7.92643">
        <ele>248</ele>
        <time>2025-05-09T12:19:09.000Z</time>
      </trkpt>
      <trkpt lat="49.03309" lon="7.92654">
        <ele>248</ele>
        <time>2025-05-09T12:19:15.000Z</time>
      </trkpt>
      <trkpt lat="49.03308" lon="7.92678">
        <ele>248</ele>
        <time>2025-05-09T12:19:29.000Z</time>
      </trkpt>
      <trkpt lat="49.033" lon="7.92691">
        <ele>248</ele>
        <time>2025-05-09T12:19:39.000Z</time>
      </trkpt>
      <trkpt lat="49.03299" lon="7.92702">
        <ele>248</ele>
        <time>2025-05-09T12:19:47.000Z</time>
      </trkpt>
      <trkpt lat="49.03299" lon="7.92727">
        <ele>246</ele>
        <time>2025-05-09T12:20:00.000Z</time>
      </trkpt>
      <trkpt lat="49.03296" lon="7.92735">
        <ele>247</ele>
        <time>2025-05-09T12:20:04.000Z</time>
      </trkpt>
      <trkpt lat="49.03296" lon="7.92742">
        <ele>247</ele>
        <time>2025-05-09T12:20:08.000Z</time>
      </trkpt>
      <trkpt lat="49.03293" lon="7.92759">
        <ele>246</ele>
        <time>2025-05-09T12:20:18.000Z</time>
      </trkpt>
      <trkpt lat="49.03294" lon="7.92768">
        <ele>245</ele>
        <time>2025-05-09T12:20:22.000Z</time>
      </trkpt>
      <trkpt lat="49.03286" lon="7.92811">
        <ele>242</ele>
        <time>2025-05-09T12:20:48.000Z</time>
      </trkpt>
      <trkpt lat="49.03287" lon="7.92819">
        <ele>241</ele>
        <time>2025-05-09T12:20:52.000Z</time>
      </trkpt>
      <trkpt lat="49.0329" lon="7.92828">
        <ele>240</ele>
        <time>2025-05-09T12:20:57.000Z</time>
      </trkpt>
      <trkpt lat="49.03297" lon="7.92838">
        <ele>239</ele>
        <time>2025-05-09T12:21:05.000Z</time>
      </trkpt>
      <trkpt lat="49.03299" lon="7.92848">
        <ele>238</ele>
        <time>2025-05-09T12:21:10.000Z</time>
      </trkpt>
      <trkpt lat="49.03302" lon="7.92858">
        <ele>239</ele>
        <time>2025-05-09T12:21:14.000Z</time>
      </trkpt>
      <trkpt lat="49.03308" lon="7.92881">
        <ele>237</ele>
        <time>2025-05-09T12:21:29.000Z</time>
      </trkpt>
      <trkpt lat="49.03304" lon="7.9289">
        <ele>235</ele>
        <time>2025-05-09T12:21:36.000Z</time>
      </trkpt>
      <trkpt lat="49.03295" lon="7.92903">
        <ele>233</ele>
        <time>2025-05-09T12:21:44.000Z</time>
      </trkpt>
      <trkpt lat="49.03288" lon="7.92919">
        <ele>231</ele>
        <time>2025-05-09T12:21:55.000Z</time>
      </trkpt>
      <trkpt lat="49.03286" lon="7.92928">
        <ele>230</ele>
        <time>2025-05-09T12:22:00.000Z</time>
      </trkpt>
      <trkpt lat="49.03286" lon="7.92939">
        <ele>229</ele>
        <time>2025-05-09T12:22:08.000Z</time>
      </trkpt>
      <trkpt lat="49.03281" lon="7.92952">
        <ele>227</ele>
        <time>2025-05-09T12:22:16.000Z</time>
      </trkpt>
      <trkpt lat="49.0328" lon="7.92961">
        <ele>226</ele>
        <time>2025-05-09T12:22:20.000Z</time>
      </trkpt>
      <trkpt lat="49.03276" lon="7.92979">
        <ele>225</ele>
        <time>2025-05-09T12:22:30.000Z</time>
      </trkpt>
      <trkpt lat="49.03279" lon="7.93041">
        <ele>220</ele>
        <time>2025-05-09T12:23:03.000Z</time>
      </trkpt>
      <trkpt lat="49.0328" lon="7.93049">
        <ele>220</ele>
        <time>2025-05-09T12:23:07.000Z</time>
      </trkpt>
      <trkpt lat="49.03278" lon="7.93058">
        <ele>219</ele>
        <time>2025-05-09T12:23:11.000Z</time>
      </trkpt>
      <trkpt lat="49.03279" lon="7.93067">
        <ele>218</ele>
        <time>2025-05-09T12:23:15.000Z</time>
      </trkpt>
      <trkpt lat="49.0328" lon="7.93075">
        <ele>218</ele>
        <time>2025-05-09T12:23:20.000Z</time>
      </trkpt>
      <trkpt lat="49.03279" lon="7.93085">
        <ele>218</ele>
        <time>2025-05-09T12:23:25.000Z</time>
      </trkpt>
      <trkpt lat="49.03277" lon="7.93094">
        <ele>218</ele>
        <time>2025-05-09T12:23:29.000Z</time>
      </trkpt>
      <trkpt lat="49.03278" lon="7.93114">
        <ele>216</ele>
        <time>2025-05-09T12:23:42.000Z</time>
      </trkpt>
      <trkpt lat="49.03279" lon="7.93122">
        <ele>216</ele>
        <time>2025-05-09T12:23:47.000Z</time>
      </trkpt>
      <trkpt lat="49.03277" lon="7.93131">
        <ele>215</ele>
        <time>2025-05-09T12:23:52.000Z</time>
      </trkpt>
      <trkpt lat="49.03278" lon="7.93139">
        <ele>215</ele>
        <time>2025-05-09T12:23:56.000Z</time>
      </trkpt>
      <trkpt lat="49.03278" lon="7.93158">
        <ele>213</ele>
        <time>2025-05-09T12:24:06.000Z</time>
      </trkpt>
      <trkpt lat="49.03278" lon="7.93167">
        <ele>213</ele>
        <time>2025-05-09T12:24:11.000Z</time>
      </trkpt>
      <trkpt lat="49.03284" lon="7.93188">
        <ele>212</ele>
        <time>2025-05-09T12:24:23.000Z</time>
      </trkpt>
      <trkpt lat="49.03287" lon="7.93196">
        <ele>212</ele>
        <time>2025-05-09T12:24:28.000Z</time>
      </trkpt>
      <trkpt lat="49.03291" lon="7.93203">
        <ele>212</ele>
        <time>2025-05-09T12:24:32.000Z</time>
      </trkpt>
      <trkpt lat="49.03293" lon="7.93212">
        <ele>211</ele>
        <time>2025-05-09T12:24:36.000Z</time>
      </trkpt>
      <trkpt lat="49.03298" lon="7.9322">
        <ele>211</ele>
        <time>2025-05-09T12:24:42.000Z</time>
      </trkpt>
      <trkpt lat="49.03303" lon="7.93228">
        <ele>210</ele>
        <time>2025-05-09T12:24:48.000Z</time>
      </trkpt>
      <trkpt lat="49.03303" lon="7.93242">
        <ele>209</ele>
        <time>2025-05-09T12:24:57.000Z</time>
      </trkpt>
      <trkpt lat="49.03311" lon="7.93259">
        <ele>209</ele>
        <time>2025-05-09T12:25:05.000Z</time>
      </trkpt>
      <trkpt lat="49.03313" lon="7.93268">
        <ele>208</ele>
        <time>2025-05-09T12:25:09.000Z</time>
      </trkpt>
      <trkpt lat="49.03318" lon="7.93273">
        <ele>208</ele>
        <time>2025-05-09T12:25:13.000Z</time>
      </trkpt>
      <trkpt lat="49.0332" lon="7.93281">
        <ele>208</ele>
        <time>2025-05-09T12:25:17.000Z</time>
      </trkpt>
      <trkpt lat="49.0332" lon="7.93288">
        <ele>207</ele>
        <time>2025-05-09T12:25:21.000Z</time>
      </trkpt>
      <trkpt lat="49.0332" lon="7.93295">
        <ele>207</ele>
        <time>2025-05-09T12:25:26.000Z</time>
      </trkpt>
      <trkpt lat="49.03316" lon="7.93302">
        <ele>206</ele>
        <time>2025-05-09T12:25:30.000Z</time>
      </trkpt>
      <trkpt lat="49.03314" lon="7.93308">
        <ele>206</ele>
        <time>2025-05-09T12:25:33.000Z</time>
      </trkpt>
      <trkpt lat="49.03304" lon="7.93326">
        <ele>206</ele>
        <time>2025-05-09T12:25:45.000Z</time>
      </trkpt>
      <trkpt lat="49.03303" lon="7.93332">
        <ele>206</ele>
        <time>2025-05-09T12:25:49.000Z</time>
      </trkpt>
      <trkpt lat="49.03305" lon="7.93339">
        <ele>205</ele>
        <time>2025-05-09T12:25:53.000Z</time>
      </trkpt>
      <trkpt lat="49.0331" lon="7.93347">
        <ele>205</ele>
        <time>2025-05-09T12:25:58.000Z</time>
      </trkpt>
      <trkpt lat="49.03315" lon="7.9335">
        <ele>205</ele>
        <time>2025-05-09T12:26:02.000Z</time>
      </trkpt>
      <trkpt lat="49.03334" lon="7.93375">
        <ele>203</ele>
        <time>2025-05-09T12:26:21.000Z</time>
      </trkpt>
      <trkpt lat="49.03336" lon="7.93385">
        <ele>202</ele>
        <time>2025-05-09T12:26:26.000Z</time>
      </trkpt>
      <trkpt lat="49.0334" lon="7.93392">
        <ele>202</ele>
        <time>2025-05-09T12:26:30.000Z</time>
      </trkpt>
      <trkpt lat="49.03344" lon="7.934">
        <ele>201</ele>
        <time>2025-05-09T12:26:36.000Z</time>
      </trkpt>
      <trkpt lat="49.03353" lon="7.93411">
        <ele>201</ele>
        <time>2025-05-09T12:26:44.000Z</time>
      </trkpt>
      <trkpt lat="49.03359" lon="7.9342">
        <ele>200</ele>
        <time>2025-05-09T12:26:52.000Z</time>
      </trkpt>
      <trkpt lat="49.03362" lon="7.93429">
        <ele>199</ele>
        <time>2025-05-09T12:26:56.000Z</time>
      </trkpt>
      <trkpt lat="49.03363" lon="7.93438">
        <ele>199</ele>
        <time>2025-05-09T12:27:01.000Z</time>
      </trkpt>
      <trkpt lat="49.03368" lon="7.93454">
        <ele>198</ele>
        <time>2025-05-09T12:27:10.000Z</time>
      </trkpt>
      <trkpt lat="49.03372" lon="7.93461">
        <ele>197</ele>
        <time>2025-05-09T12:27:13.000Z</time>
      </trkpt>
      <trkpt lat="49.03375" lon="7.93471">
        <ele>197</ele>
        <time>2025-05-09T12:27:19.000Z</time>
      </trkpt>
      <trkpt lat="49.0338" lon="7.93477">
        <ele>196</ele>
        <time>2025-05-09T12:27:23.000Z</time>
      </trkpt>
      <trkpt lat="49.03385" lon="7.93481">
        <ele>195</ele>
        <time>2025-05-09T12:27:28.000Z</time>
      </trkpt>
      <trkpt lat="49.03389" lon="7.9349">
        <ele>193</ele>
        <time>2025-05-09T12:27:34.000Z</time>
      </trkpt>
      <trkpt lat="49.03392" lon="7.93499">
        <ele>193</ele>
        <time>2025-05-09T12:27:38.000Z</time>
      </trkpt>
      <trkpt lat="49.03396" lon="7.9351">
        <ele>193</ele>
        <time>2025-05-09T12:27:46.000Z</time>
      </trkpt>
      <trkpt lat="49.03401" lon="7.93517">
        <ele>193</ele>
        <time>2025-05-09T12:27:51.000Z</time>
      </trkpt>
      <trkpt lat="49.03403" lon="7.93527">
        <ele>192</ele>
        <time>2025-05-09T12:27:56.000Z</time>
      </trkpt>
      <trkpt lat="49.03408" lon="7.93536">
        <ele>191</ele>
        <time>2025-05-09T12:28:03.000Z</time>
      </trkpt>
      <trkpt lat="49.03413" lon="7.9354">
        <ele>191</ele>
        <time>2025-05-09T12:28:06.000Z</time>
      </trkpt>
      <trkpt lat="49.03417" lon="7.93546">
        <ele>190</ele>
        <time>2025-05-09T12:28:11.000Z</time>
      </trkpt>
      <trkpt lat="49.03418" lon="7.93554">
        <ele>189</ele>
        <time>2025-05-09T12:28:16.000Z</time>
      </trkpt>
      <trkpt lat="49.03427" lon="7.93572">
        <ele>188</ele>
        <time>2025-05-09T12:28:28.000Z</time>
      </trkpt>
      <trkpt lat="49.03438" lon="7.93584">
        <ele>187</ele>
        <time>2025-05-09T12:28:38.000Z</time>
      </trkpt>
      <trkpt lat="49.03445" lon="7.93599">
        <ele>187</ele>
        <time>2025-05-09T12:28:47.000Z</time>
      </trkpt>
      <trkpt lat="49.03447" lon="7.93609">
        <ele>186</ele>
        <time>2025-05-09T12:28:53.000Z</time>
      </trkpt>
      <trkpt lat="49.03453" lon="7.93613">
        <ele>186</ele>
        <time>2025-05-09T12:28:57.000Z</time>
      </trkpt>
      <trkpt lat="49.03467" lon="7.93643">
        <ele>184</ele>
        <time>2025-05-09T12:29:18.000Z</time>
      </trkpt>
      <trkpt lat="49.03478" lon="7.93654">
        <ele>184</ele>
        <time>2025-05-09T12:29:28.000Z</time>
      </trkpt>
      <trkpt lat="49.03485" lon="7.93667">
        <ele>183</ele>
        <time>2025-05-09T12:29:38.000Z</time>
      </trkpt>
      <trkpt lat="49.03494" lon="7.93684">
        <ele>183</ele>
        <time>2025-05-09T12:29:48.000Z</time>
      </trkpt>
      <trkpt lat="49.03501" lon="7.93692">
        <ele>182</ele>
        <time>2025-05-09T12:29:56.000Z</time>
      </trkpt>
      <trkpt lat="49.03506" lon="7.93699">
        <ele>182</ele>
        <time>2025-05-09T12:30:01.000Z</time>
      </trkpt>
      <trkpt lat="49.03512" lon="7.93707">
        <ele>181</ele>
        <time>2025-05-09T12:30:09.000Z</time>
      </trkpt>
      <trkpt lat="49.03547" lon="7.93735">
        <ele>177</ele>
        <time>2025-05-09T12:30:41.000Z</time>
      </trkpt>
      <trkpt lat="49.03553" lon="7.93742">
        <ele>176</ele>
        <time>2025-05-09T12:30:46.000Z</time>
      </trkpt>
      <trkpt lat="49.03568" lon="7.93778">
        <ele>174</ele>
        <time>2025-05-09T12:31:09.000Z</time>
      </trkpt>
      <trkpt lat="49.03571" lon="7.9379">
        <ele>173</ele>
        <time>2025-05-09T12:31:16.000Z</time>
      </trkpt>
      <trkpt lat="49.03575" lon="7.93796">
        <ele>172</ele>
        <time>2025-05-09T12:31:20.000Z</time>
      </trkpt>
      <trkpt lat="49.0358" lon="7.93802">
        <ele>172</ele>
        <time>2025-05-09T12:31:25.000Z</time>
      </trkpt>
      <trkpt lat="49.03587" lon="7.93823">
        <ele>170</ele>
        <time>2025-05-09T12:31:40.000Z</time>
      </trkpt>
      <trkpt lat="49.03588" lon="7.93833">
        <ele>169</ele>
        <time>2025-05-09T12:31:44.000Z</time>
      </trkpt>
      <trkpt lat="49.03587" lon="7.9384">
        <ele>169</ele>
        <time>2025-05-09T12:31:49.000Z</time>
      </trkpt>
      <trkpt lat="49.03588" lon="7.93849">
        <ele>168</ele>
        <time>2025-05-09T12:31:53.000Z</time>
      </trkpt>
      <trkpt lat="49.03589" lon="7.93857">
        <ele>167</ele>
        <time>2025-05-09T12:31:57.000Z</time>
      </trkpt>
      <trkpt lat="49.0359" lon="7.93866">
        <ele>166</ele>
        <time>2025-05-09T12:32:02.000Z</time>
      </trkpt>
      <trkpt lat="49.03591" lon="7.93874">
        <ele>166</ele>
        <time>2025-05-09T12:32:06.000Z</time>
      </trkpt>
      <trkpt lat="49.03594" lon="7.93888">
        <ele>166</ele>
        <time>2025-05-09T12:32:15.000Z</time>
      </trkpt>
      <trkpt lat="49.03593" lon="7.93897">
        <ele>166</ele>
        <time>2025-05-09T12:32:20.000Z</time>
      </trkpt>
      <trkpt lat="49.0359" lon="7.93905">
        <ele>165</ele>
        <time>2025-05-09T12:32:23.000Z</time>
      </trkpt>
      <trkpt lat="49.0359" lon="7.93914">
        <ele>165</ele>
        <time>2025-05-09T12:32:28.000Z</time>
      </trkpt>
      <trkpt lat="49.03585" lon="7.93926">
        <ele>165</ele>
        <time>2025-05-09T12:32:36.000Z</time>
      </trkpt>
      <trkpt lat="49.03581" lon="7.93936">
        <ele>165</ele>
        <time>2025-05-09T12:32:41.000Z</time>
      </trkpt>
      <trkpt lat="49.03569" lon="7.93954">
        <ele>164</ele>
        <time>2025-05-09T12:32:54.000Z</time>
      </trkpt>
      <trkpt lat="49.03574" lon="7.93968">
        <ele>164</ele>
        <time>2025-05-09T12:33:11.000Z</time>
      </trkpt>
      <trkpt lat="49.03569" lon="7.93979">
        <ele>163</ele>
        <time>2025-05-09T12:33:15.000Z</time>
      </trkpt>
      <trkpt lat="49.03568" lon="7.93989">
        <ele>163</ele>
        <time>2025-05-09T12:33:18.000Z</time>
      </trkpt>
      <trkpt lat="49.03565" lon="7.94007">
        <ele>161</ele>
        <time>2025-05-09T12:33:27.000Z</time>
      </trkpt>
      <trkpt lat="49.03566" lon="7.94016">
        <ele>160</ele>
        <time>2025-05-09T12:33:33.000Z</time>
      </trkpt>
      <trkpt lat="49.03565" lon="7.94026">
        <ele>159</ele>
        <time>2025-05-09T12:33:39.000Z</time>
      </trkpt>
      <trkpt lat="49.03558" lon="7.94036">
        <ele>159</ele>
        <time>2025-05-09T12:33:47.000Z</time>
      </trkpt>
      <trkpt lat="49.03554" lon="7.9404">
        <ele>159</ele>
        <time>2025-05-09T12:33:51.000Z</time>
      </trkpt>
      <trkpt lat="49.03549" lon="7.94042">
        <ele>159</ele>
        <time>2025-05-09T12:33:54.000Z</time>
      </trkpt>
      <trkpt lat="49.03546" lon="7.94046">
        <ele>159</ele>
        <time>2025-05-09T12:33:58.000Z</time>
      </trkpt>
      <trkpt lat="49.03544" lon="7.94053">
        <ele>160</ele>
        <time>2025-05-09T12:34:02.000Z</time>
      </trkpt>
      <trkpt lat="49.03545" lon="7.94059">
        <ele>159</ele>
        <time>2025-05-09T12:34:07.000Z</time>
      </trkpt>
      <trkpt lat="49.03546" lon="7.94068">
        <ele>160</ele>
        <time>2025-05-09T12:34:13.000Z</time>
      </trkpt>
      <trkpt lat="49.03545" lon="7.94081">
        <ele>160</ele>
        <time>2025-05-09T12:34:24.000Z</time>
      </trkpt>
      <trkpt lat="49.03538" lon="7.94094">
        <ele>162</ele>
        <time>2025-05-09T12:34:33.000Z</time>
      </trkpt>
      <trkpt lat="49.03533" lon="7.94098">
        <ele>163</ele>
        <time>2025-05-09T12:34:39.000Z</time>
      </trkpt>
      <trkpt lat="49.03536" lon="7.94108">
        <ele>164</ele>
        <time>2025-05-09T12:34:48.000Z</time>
      </trkpt>
      <trkpt lat="49.03542" lon="7.94109">
        <ele>164</ele>
        <time>2025-05-09T12:34:54.000Z</time>
      </trkpt>
      <trkpt lat="49.03546" lon="7.94115">
        <ele>165</ele>
        <time>2025-05-09T12:34:59.000Z</time>
      </trkpt>
      <trkpt lat="49.03545" lon="7.94122">
        <ele>164</ele>
        <time>2025-05-09T12:35:04.000Z</time>
      </trkpt>
      <trkpt lat="49.0354" lon="7.94138">
        <ele>160</ele>
        <time>2025-05-09T12:35:17.000Z</time>
      </trkpt>
      <trkpt lat="49.03537" lon="7.94152">
        <ele>159</ele>
        <time>2025-05-09T12:35:23.000Z</time>
      </trkpt>
      <trkpt lat="49.03535" lon="7.94161">
        <ele>159</ele>
        <time>2025-05-09T12:35:26.000Z</time>
      </trkpt>
      <trkpt lat="49.03534" lon="7.94169">
        <ele>159</ele>
        <time>2025-05-09T12:35:29.000Z</time>
      </trkpt>
      <trkpt lat="49.03525" lon="7.94193">
        <ele>160</ele>
        <time>2025-05-09T12:35:45.000Z</time>
      </trkpt>
      <trkpt lat="49.03522" lon="7.94201">
        <ele>159</ele>
        <time>2025-05-09T12:35:49.000Z</time>
      </trkpt>
      <trkpt lat="49.03517" lon="7.94237">
        <ele>159</ele>
        <time>2025-05-09T12:36:07.000Z</time>
      </trkpt>
      <trkpt lat="49.03513" lon="7.94242">
        <ele>159</ele>
        <time>2025-05-09T12:36:12.000Z</time>
      </trkpt>
      <trkpt lat="49.0351" lon="7.94248">
        <ele>159</ele>
        <time>2025-05-09T12:36:17.000Z</time>
      </trkpt>
      <trkpt lat="49.03507" lon="7.94255">
        <ele>159</ele>
        <time>2025-05-09T12:36:22.000Z</time>
      </trkpt>
      <trkpt lat="49.03505" lon="7.94262">
        <ele>159</ele>
        <time>2025-05-09T12:36:27.000Z</time>
      </trkpt>
      <trkpt lat="49.03507" lon="7.94269">
        <ele>159</ele>
        <time>2025-05-09T12:36:31.000Z</time>
      </trkpt>
      <trkpt lat="49.0351" lon="7.94274">
        <ele>159</ele>
        <time>2025-05-09T12:36:34.000Z</time>
      </trkpt>
      <trkpt lat="49.03514" lon="7.9428">
        <ele>159</ele>
        <time>2025-05-09T12:36:38.000Z</time>
      </trkpt>
      <trkpt lat="49.0352" lon="7.94283">
        <ele>159</ele>
        <time>2025-05-09T12:36:46.000Z</time>
      </trkpt>
      <trkpt lat="49.03531" lon="7.94292">
        <ele>159</ele>
        <time>2025-05-09T12:36:54.000Z</time>
      </trkpt>
      <trkpt lat="49.03536" lon="7.94298">
        <ele>159</ele>
        <time>2025-05-09T12:36:58.000Z</time>
      </trkpt>
      <trkpt lat="49.0354" lon="7.94304">
        <ele>159</ele>
        <time>2025-05-09T12:37:03.000Z</time>
      </trkpt>
      <trkpt lat="49.03546" lon="7.94307">
        <ele>159</ele>
        <time>2025-05-09T12:37:07.000Z</time>
      </trkpt>
      <trkpt lat="49.03551" lon="7.94313">
        <ele>159</ele>
        <time>2025-05-09T12:37:12.000Z</time>
      </trkpt>
      <trkpt lat="49.03554" lon="7.94321">
        <ele>159</ele>
        <time>2025-05-09T12:37:16.000Z</time>
      </trkpt>
      <trkpt lat="49.03547" lon="7.94332">
        <ele>159</ele>
        <time>2025-05-09T12:37:24.000Z</time>
      </trkpt>
      <trkpt lat="49.0354" lon="7.94343">
        <ele>159</ele>
        <time>2025-05-09T12:37:31.000Z</time>
      </trkpt>
      <trkpt lat="49.03547" lon="7.94362">
        <ele>159</ele>
        <time>2025-05-09T12:37:44.000Z</time>
      </trkpt>
      <trkpt lat="49.03551" lon="7.94378">
        <ele>158</ele>
        <time>2025-05-09T12:37:52.000Z</time>
      </trkpt>
      <trkpt lat="49.03553" lon="7.94386">
        <ele>159</ele>
        <time>2025-05-09T12:37:57.000Z</time>
      </trkpt>
      <trkpt lat="49.03558" lon="7.94395">
        <ele>159</ele>
        <time>2025-05-09T12:38:03.000Z</time>
      </trkpt>
      <trkpt lat="49.03564" lon="7.94398">
        <ele>159</ele>
        <time>2025-05-09T12:38:15.000Z</time>
      </trkpt>
      <trkpt lat="49.03567" lon="7.94406">
        <ele>159</ele>
        <time>2025-05-09T12:38:21.000Z</time>
      </trkpt>
      <trkpt lat="49.03572" lon="7.94428">
        <ele>158</ele>
        <time>2025-05-09T12:38:33.000Z</time>
      </trkpt>
      <trkpt lat="49.03564" lon="7.94438">
        <ele>159</ele>
        <time>2025-05-09T12:38:46.000Z</time>
      </trkpt>
      <trkpt lat="49.03551" lon="7.94446">
        <ele>158</ele>
        <time>2025-05-09T12:38:58.000Z</time>
      </trkpt>
      <trkpt lat="49.03528" lon="7.94446">
        <ele>159</ele>
        <time>2025-05-09T12:39:15.000Z</time>
      </trkpt>
      <trkpt lat="49.03523" lon="7.94442">
        <ele>160</ele>
        <time>2025-05-09T12:39:20.000Z</time>
      </trkpt>
      <trkpt lat="49.0351" lon="7.94434">
        <ele>159</ele>
        <time>2025-05-09T12:39:30.000Z</time>
      </trkpt>
      <trkpt lat="49.03502" lon="7.94434">
        <ele>159</ele>
        <time>2025-05-09T12:39:36.000Z</time>
      </trkpt>
      <trkpt lat="49.03488" lon="7.94434">
        <ele>159</ele>
        <time>2025-05-09T12:39:57.000Z</time>
      </trkpt>
      <trkpt lat="49.03476" lon="7.94445">
        <ele>160</ele>
        <time>2025-05-09T12:40:09.000Z</time>
      </trkpt>
      <trkpt lat="49.0347" lon="7.94451">
        <ele>160</ele>
        <time>2025-05-09T12:40:14.000Z</time>
      </trkpt>
      <trkpt lat="49.03467" lon="7.9446">
        <ele>160</ele>
        <time>2025-05-09T12:40:20.000Z</time>
      </trkpt>
      <trkpt lat="49.0346" lon="7.94462">
        <ele>159</ele>
        <time>2025-05-09T12:40:27.000Z</time>
      </trkpt>
      <trkpt lat="49.03462" lon="7.94485">
        <ele>159</ele>
        <time>2025-05-09T12:40:38.000Z</time>
      </trkpt>
      <trkpt lat="49.03462" lon="7.94504">
        <ele>159</ele>
        <time>2025-05-09T12:40:49.000Z</time>
      </trkpt>
      <trkpt lat="49.03458" lon="7.94515">
        <ele>160</ele>
        <time>2025-05-09T12:40:57.000Z</time>
      </trkpt>
      <trkpt lat="49.0345" lon="7.94527">
        <ele>159</ele>
        <time>2025-05-09T12:41:05.000Z</time>
      </trkpt>
      <trkpt lat="49.03444" lon="7.94532">
        <ele>159</ele>
        <time>2025-05-09T12:41:13.000Z</time>
      </trkpt>
      <trkpt lat="49.03439" lon="7.94531">
        <ele>159</ele>
        <time>2025-05-09T12:41:17.000Z</time>
      </trkpt>
      <trkpt lat="49.03433" lon="7.94532">
        <ele>159</ele>
        <time>2025-05-09T12:41:21.000Z</time>
      </trkpt>
      <trkpt lat="49.03429" lon="7.94515">
        <ele>159</ele>
        <time>2025-05-09T12:41:29.000Z</time>
      </trkpt>
      <trkpt lat="49.03428" lon="7.94506">
        <ele>160</ele>
        <time>2025-05-09T12:41:33.000Z</time>
      </trkpt>
      <trkpt lat="49.03422" lon="7.945">
        <ele>160</ele>
        <time>2025-05-09T12:41:37.000Z</time>
      </trkpt>
      <trkpt lat="49.03418" lon="7.94494">
        <ele>160</ele>
        <time>2025-05-09T12:41:42.000Z</time>
      </trkpt>
      <trkpt lat="49.03411" lon="7.94493">
        <ele>160</ele>
        <time>2025-05-09T12:41:47.000Z</time>
      </trkpt>
      <trkpt lat="49.03398" lon="7.94498">
        <ele>161</ele>
        <time>2025-05-09T12:41:57.000Z</time>
      </trkpt>
      <trkpt lat="49.03385" lon="7.94498">
        <ele>161</ele>
        <time>2025-05-09T12:42:09.000Z</time>
      </trkpt>
      <trkpt lat="49.03379" lon="7.94521">
        <ele>161</ele>
        <time>2025-05-09T12:42:26.000Z</time>
      </trkpt>
      <trkpt lat="49.03378" lon="7.94524">
        <ele>161</ele>
        <time>2025-05-09T12:42:55.000Z</time>
      </trkpt>
      <trkpt lat="49.03387" lon="7.94492">
        <ele>161</ele>
        <time>2025-05-09T12:43:23.000Z</time>
      </trkpt>
      <trkpt lat="49.03406" lon="7.94485">
        <ele>160</ele>
        <time>2025-05-09T12:43:38.000Z</time>
      </trkpt>
      <trkpt lat="49.03419" lon="7.94487">
        <ele>159</ele>
        <time>2025-05-09T12:43:45.000Z</time>
      </trkpt>
      <trkpt lat="49.03425" lon="7.94494">
        <ele>159</ele>
        <time>2025-05-09T12:43:50.000Z</time>
      </trkpt>
      <trkpt lat="49.0343" lon="7.94501">
        <ele>159</ele>
        <time>2025-05-09T12:43:54.000Z</time>
      </trkpt>
      <trkpt lat="49.03434" lon="7.9451">
        <ele>159</ele>
        <time>2025-05-09T12:43:59.000Z</time>
      </trkpt>
      <trkpt lat="49.03435" lon="7.9452">
        <ele>158</ele>
        <time>2025-05-09T12:44:04.000Z</time>
      </trkpt>
      <trkpt lat="49.03434" lon="7.9453">
        <ele>159</ele>
        <time>2025-05-09T12:44:09.000Z</time>
      </trkpt>
      <trkpt lat="49.03434" lon="7.94542">
        <ele>158</ele>
        <time>2025-05-09T12:44:14.000Z</time>
      </trkpt>
      <trkpt lat="49.03438" lon="7.9457">
        <ele>158</ele>
        <time>2025-05-09T12:44:27.000Z</time>
      </trkpt>
      <trkpt lat="49.03442" lon="7.94579">
        <ele>159</ele>
        <time>2025-05-09T12:44:32.000Z</time>
      </trkpt>
      <trkpt lat="49.03443" lon="7.94592">
        <ele>158</ele>
        <time>2025-05-09T12:44:39.000Z</time>
      </trkpt>
      <trkpt lat="49.03443" lon="7.94603">
        <ele>158</ele>
        <time>2025-05-09T12:44:45.000Z</time>
      </trkpt>
      <trkpt lat="49.03443" lon="7.94613">
        <ele>158</ele>
        <time>2025-05-09T12:44:50.000Z</time>
      </trkpt>
      <trkpt lat="49.03445" lon="7.94623">
        <ele>158</ele>
        <time>2025-05-09T12:44:55.000Z</time>
      </trkpt>
      <trkpt lat="49.03445" lon="7.94634">
        <ele>158</ele>
        <time>2025-05-09T12:45:02.000Z</time>
      </trkpt>
      <trkpt lat="49.03449" lon="7.94644">
        <ele>158</ele>
        <time>2025-05-09T12:45:07.000Z</time>
      </trkpt>
      <trkpt lat="49.03454" lon="7.94653">
        <ele>158</ele>
        <time>2025-05-09T12:45:13.000Z</time>
      </trkpt>
      <trkpt lat="49.03466" lon="7.94666">
        <ele>158</ele>
        <time>2025-05-09T12:45:25.000Z</time>
      </trkpt>
      <trkpt lat="49.03469" lon="7.94675">
        <ele>158</ele>
        <time>2025-05-09T12:45:31.000Z</time>
      </trkpt>
      <trkpt lat="49.03477" lon="7.94678">
        <ele>158</ele>
        <time>2025-05-09T12:45:36.000Z</time>
      </trkpt>
      <trkpt lat="49.03483" lon="7.94682">
        <ele>158</ele>
        <time>2025-05-09T12:45:40.000Z</time>
      </trkpt>
      <trkpt lat="49.03493" lon="7.94694">
        <ele>158</ele>
        <time>2025-05-09T12:45:50.000Z</time>
      </trkpt>
      <trkpt lat="49.035" lon="7.94706">
        <ele>158</ele>
        <time>2025-05-09T12:45:59.000Z</time>
      </trkpt>
      <trkpt lat="49.03507" lon="7.94713">
        <ele>159</ele>
        <time>2025-05-09T12:46:03.000Z</time>
      </trkpt>
      <trkpt lat="49.03512" lon="7.94726">
        <ele>158</ele>
        <time>2025-05-09T12:46:12.000Z</time>
      </trkpt>
      <trkpt lat="49.03517" lon="7.94733">
        <ele>159</ele>
        <time>2025-05-09T12:46:17.000Z</time>
      </trkpt>
      <trkpt lat="49.03527" lon="7.94744">
        <ele>158</ele>
        <time>2025-05-09T12:46:28.000Z</time>
      </trkpt>
      <trkpt lat="49.03531" lon="7.94752">
        <ele>158</ele>
        <time>2025-05-09T12:46:33.000Z</time>
      </trkpt>
      <trkpt lat="49.03537" lon="7.94755">
        <ele>159</ele>
        <time>2025-05-09T12:46:37.000Z</time>
      </trkpt>
      <trkpt lat="49.03558" lon="7.94763">
        <ele>158</ele>
        <time>2025-05-09T12:46:54.000Z</time>
      </trkpt>
      <trkpt lat="49.03572" lon="7.94768">
        <ele>157</ele>
        <time>2025-05-09T12:47:08.000Z</time>
      </trkpt>
      <trkpt lat="49.03577" lon="7.94773">
        <ele>158</ele>
        <time>2025-05-09T12:47:12.000Z</time>
      </trkpt>
      <trkpt lat="49.03583" lon="7.94777">
        <ele>157</ele>
        <time>2025-05-09T12:47:16.000Z</time>
      </trkpt>
      <trkpt lat="49.03587" lon="7.94784">
        <ele>158</ele>
        <time>2025-05-09T12:47:20.000Z</time>
      </trkpt>
      <trkpt lat="49.03592" lon="7.94787">
        <ele>158</ele>
        <time>2025-05-09T12:47:25.000Z</time>
      </trkpt>
      <trkpt lat="49.03623" lon="7.94772">
        <ele>157</ele>
        <time>2025-05-09T12:47:50.000Z</time>
      </trkpt>
      <trkpt lat="49.0363" lon="7.94765">
        <ele>158</ele>
        <time>2025-05-09T12:47:59.000Z</time>
      </trkpt>
      <trkpt lat="49.0366" lon="7.94769">
        <ele>158</ele>
        <time>2025-05-09T12:48:14.000Z</time>
      </trkpt>
      <trkpt lat="49.03666" lon="7.94783">
        <ele>158</ele>
        <time>2025-05-09T12:48:23.000Z</time>
      </trkpt>
      <trkpt lat="49.03665" lon="7.94824">
        <ele>158</ele>
        <time>2025-05-09T12:48:42.000Z</time>
      </trkpt>
      <trkpt lat="49.0366" lon="7.94837">
        <ele>158</ele>
        <time>2025-05-09T12:48:49.000Z</time>
      </trkpt>
      <trkpt lat="49.03658" lon="7.94854">
        <ele>158</ele>
        <time>2025-05-09T12:49:02.000Z</time>
      </trkpt>
      <trkpt lat="49.03648" lon="7.94871">
        <ele>158</ele>
        <time>2025-05-09T12:49:11.000Z</time>
      </trkpt>
      <trkpt lat="49.03645" lon="7.94882">
        <ele>158</ele>
        <time>2025-05-09T12:49:16.000Z</time>
      </trkpt>
      <trkpt lat="49.03643" lon="7.94904">
        <ele>158</ele>
        <time>2025-05-09T12:49:27.000Z</time>
      </trkpt>
      <trkpt lat="49.03642" lon="7.94896">
        <ele>159</ele>
        <time>2025-05-09T12:55:41.000Z</time>
      </trkpt>
      <trkpt lat="49.03639" lon="7.94952">
        <ele>159</ele>
        <time>2025-05-09T13:08:33.000Z</time>
      </trkpt>
      <trkpt lat="49.0364" lon="7.94954">
        <ele>159</ele>
        <time>2025-05-09T13:08:34.000Z</time>
      </trkpt>
      <trkpt lat="49.03634" lon="7.94986">
        <ele>159</ele>
        <time>2025-05-09T13:08:50.000Z</time>
      </trkpt>
      <trkpt lat="49.03634" lon="7.95008">
        <ele>159</ele>
        <time>2025-05-09T13:09:02.000Z</time>
      </trkpt>
      <trkpt lat="49.03628" lon="7.95017">
        <ele>159</ele>
        <time>2025-05-09T13:09:07.000Z</time>
      </trkpt>
      <trkpt lat="49.03627" lon="7.95028">
        <ele>159</ele>
        <time>2025-05-09T13:09:14.000Z</time>
      </trkpt>
      <trkpt lat="49.03627" lon="7.95049">
        <ele>159</ele>
        <time>2025-05-09T13:09:24.000Z</time>
      </trkpt>
      <trkpt lat="49.03624" lon="7.95068">
        <ele>159</ele>
        <time>2025-05-09T13:09:33.000Z</time>
      </trkpt>
      <trkpt lat="49.03621" lon="7.95078">
        <ele>159</ele>
        <time>2025-05-09T13:09:38.000Z</time>
      </trkpt>
      <trkpt lat="49.03619" lon="7.95088">
        <ele>159</ele>
        <time>2025-05-09T13:09:43.000Z</time>
      </trkpt>
      <trkpt lat="49.03616" lon="7.95096">
        <ele>159</ele>
        <time>2025-05-09T13:09:47.000Z</time>
      </trkpt>
      <trkpt lat="49.03615" lon="7.95104">
        <ele>159</ele>
        <time>2025-05-09T13:09:51.000Z</time>
      </trkpt>
      <trkpt lat="49.03613" lon="7.95111">
        <ele>159</ele>
        <time>2025-05-09T13:09:55.000Z</time>
      </trkpt>
      <trkpt lat="49.03611" lon="7.9512">
        <ele>159</ele>
        <time>2025-05-09T13:10:02.000Z</time>
      </trkpt>
      <trkpt lat="49.03609" lon="7.95139">
        <ele>159</ele>
        <time>2025-05-09T13:10:11.000Z</time>
      </trkpt>
      <trkpt lat="49.03606" lon="7.95146">
        <ele>159</ele>
        <time>2025-05-09T13:10:16.000Z</time>
      </trkpt>
      <trkpt lat="49.03604" lon="7.95174">
        <ele>159</ele>
        <time>2025-05-09T13:10:30.000Z</time>
      </trkpt>
      <trkpt lat="49.03606" lon="7.95182">
        <ele>159</ele>
        <time>2025-05-09T13:10:35.000Z</time>
      </trkpt>
      <trkpt lat="49.03603" lon="7.95201">
        <ele>158</ele>
        <time>2025-05-09T13:10:43.000Z</time>
      </trkpt>
      <trkpt lat="49.03597" lon="7.95208">
        <ele>158</ele>
        <time>2025-05-09T13:10:48.000Z</time>
      </trkpt>
      <trkpt lat="49.03593" lon="7.95212">
        <ele>158</ele>
        <time>2025-05-09T13:10:51.000Z</time>
      </trkpt>
      <trkpt lat="49.03587" lon="7.95212">
        <ele>158</ele>
        <time>2025-05-09T13:10:54.000Z</time>
      </trkpt>
      <trkpt lat="49.03582" lon="7.95213">
        <ele>158</ele>
        <time>2025-05-09T13:10:58.000Z</time>
      </trkpt>
      <trkpt lat="49.03576" lon="7.9521">
        <ele>158</ele>
        <time>2025-05-09T13:11:02.000Z</time>
      </trkpt>
      <trkpt lat="49.0357" lon="7.95207">
        <ele>158</ele>
        <time>2025-05-09T13:11:06.000Z</time>
      </trkpt>
      <trkpt lat="49.03559" lon="7.9519">
        <ele>158</ele>
        <time>2025-05-09T13:11:20.000Z</time>
      </trkpt>
      <trkpt lat="49.0352" lon="7.95159">
        <ele>158</ele>
        <time>2025-05-09T13:11:56.000Z</time>
      </trkpt>
      <trkpt lat="49.03507" lon="7.95152">
        <ele>158</ele>
        <time>2025-05-09T13:12:06.000Z</time>
      </trkpt>
      <trkpt lat="49.03501" lon="7.95146">
        <ele>158</ele>
        <time>2025-05-09T13:12:10.000Z</time>
      </trkpt>
      <trkpt lat="49.03496" lon="7.95142">
        <ele>158</ele>
        <time>2025-05-09T13:12:14.000Z</time>
      </trkpt>
      <trkpt lat="49.03491" lon="7.95137">
        <ele>158</ele>
        <time>2025-05-09T13:12:20.000Z</time>
      </trkpt>
      <trkpt lat="49.03483" lon="7.95134">
        <ele>158</ele>
        <time>2025-05-09T13:12:25.000Z</time>
      </trkpt>
      <trkpt lat="49.03471" lon="7.95123">
        <ele>158</ele>
        <time>2025-05-09T13:12:36.000Z</time>
      </trkpt>
      <trkpt lat="49.03465" lon="7.95116">
        <ele>158</ele>
        <time>2025-05-09T13:12:42.000Z</time>
      </trkpt>
      <trkpt lat="49.03459" lon="7.95111">
        <ele>158</ele>
        <time>2025-05-09T13:12:47.000Z</time>
      </trkpt>
      <trkpt lat="49.03454" lon="7.95103">
        <ele>158</ele>
        <time>2025-05-09T13:12:53.000Z</time>
      </trkpt>
      <trkpt lat="49.03448" lon="7.95099">
        <ele>158</ele>
        <time>2025-05-09T13:12:59.000Z</time>
      </trkpt>
      <trkpt lat="49.03441" lon="7.95098">
        <ele>158</ele>
        <time>2025-05-09T13:13:04.000Z</time>
      </trkpt>
      <trkpt lat="49.03406" lon="7.95078">
        <ele>159</ele>
        <time>2025-05-09T13:13:35.000Z</time>
      </trkpt>
      <trkpt lat="49.03392" lon="7.95079">
        <ele>159</ele>
        <time>2025-05-09T13:13:46.000Z</time>
      </trkpt>
      <trkpt lat="49.03358" lon="7.95096">
        <ele>158</ele>
        <time>2025-05-09T13:14:17.000Z</time>
      </trkpt>
      <trkpt lat="49.03353" lon="7.95097">
        <ele>158</ele>
        <time>2025-05-09T13:14:20.000Z</time>
      </trkpt>
      <trkpt lat="49.03348" lon="7.95098">
        <ele>158</ele>
        <time>2025-05-09T13:14:24.000Z</time>
      </trkpt>
      <trkpt lat="49.03338" lon="7.95102">
        <ele>158</ele>
        <time>2025-05-09T13:14:33.000Z</time>
      </trkpt>
      <trkpt lat="49.03332" lon="7.95102">
        <ele>158</ele>
        <time>2025-05-09T13:14:37.000Z</time>
      </trkpt>
      <trkpt lat="49.03322" lon="7.95103">
        <ele>158</ele>
        <time>2025-05-09T13:14:46.000Z</time>
      </trkpt>
      <trkpt lat="49.03318" lon="7.95098">
        <ele>158</ele>
        <time>2025-05-09T13:14:54.000Z</time>
      </trkpt>
      <trkpt lat="49.03322" lon="7.9509">
        <ele>158</ele>
        <time>2025-05-09T13:15:04.000Z</time>
      </trkpt>
      <trkpt lat="49.03323" lon="7.95082">
        <ele>158</ele>
        <time>2025-05-09T13:15:08.000Z</time>
      </trkpt>
      <trkpt lat="49.03337" lon="7.95019">
        <ele>157</ele>
        <time>2025-05-09T13:15:43.000Z</time>
      </trkpt>
      <trkpt lat="49.03342" lon="7.95009">
        <ele>157</ele>
        <time>2025-05-09T13:15:51.000Z</time>
      </trkpt>
      <trkpt lat="49.03345" lon="7.94996">
        <ele>157</ele>
        <time>2025-05-09T13:15:57.000Z</time>
      </trkpt>
      <trkpt lat="49.0336" lon="7.94968">
        <ele>157</ele>
        <time>2025-05-09T13:16:15.000Z</time>
      </trkpt>
      <trkpt lat="49.03363" lon="7.94957">
        <ele>157</ele>
        <time>2025-05-09T13:16:22.000Z</time>
      </trkpt>
      <trkpt lat="49.03363" lon="7.94944">
        <ele>157</ele>
        <time>2025-05-09T13:16:27.000Z</time>
      </trkpt>
      <trkpt lat="49.03364" lon="7.94933">
        <ele>156</ele>
        <time>2025-05-09T13:16:35.000Z</time>
      </trkpt>
      <trkpt lat="49.03366" lon="7.94919">
        <ele>156</ele>
        <time>2025-05-09T13:16:43.000Z</time>
      </trkpt>
      <trkpt lat="49.03368" lon="7.94906">
        <ele>156</ele>
        <time>2025-05-09T13:16:47.000Z</time>
      </trkpt>
      <trkpt lat="49.0337" lon="7.94895">
        <ele>156</ele>
        <time>2025-05-09T13:16:55.000Z</time>
      </trkpt>
      <trkpt lat="49.03371" lon="7.94882">
        <ele>156</ele>
        <time>2025-05-09T13:17:00.000Z</time>
      </trkpt>
      <trkpt lat="49.03372" lon="7.9487">
        <ele>156</ele>
        <time>2025-05-09T13:17:06.000Z</time>
      </trkpt>
      <trkpt lat="49.03372" lon="7.94855">
        <ele>156</ele>
        <time>2025-05-09T13:17:14.000Z</time>
      </trkpt>
      <trkpt lat="49.03376" lon="7.94842">
        <ele>156</ele>
        <time>2025-05-09T13:17:21.000Z</time>
      </trkpt>
      <trkpt lat="49.03374" lon="7.94829">
        <ele>156</ele>
        <time>2025-05-09T13:17:28.000Z</time>
      </trkpt>
      <trkpt lat="49.03385" lon="7.94787">
        <ele>156</ele>
        <time>2025-05-09T13:17:54.000Z</time>
      </trkpt>
      <trkpt lat="49.03388" lon="7.94756">
        <ele>156</ele>
        <time>2025-05-09T13:18:12.000Z</time>
      </trkpt>
      <trkpt lat="49.03388" lon="7.94729">
        <ele>156</ele>
        <time>2025-05-09T13:18:25.000Z</time>
      </trkpt>
      <trkpt lat="49.0339" lon="7.94718">
        <ele>156</ele>
        <time>2025-05-09T13:18:32.000Z</time>
      </trkpt>
      <trkpt lat="49.03395" lon="7.94705">
        <ele>157</ele>
        <time>2025-05-09T13:18:39.000Z</time>
      </trkpt>
      <trkpt lat="49.03385" lon="7.9469">
        <ele>158</ele>
        <time>2025-05-09T13:18:55.000Z</time>
      </trkpt>
      <trkpt lat="49.03388" lon="7.94675">
        <ele>158</ele>
        <time>2025-05-09T13:19:04.000Z</time>
      </trkpt>
      <trkpt lat="49.03386" lon="7.94655">
        <ele>158</ele>
        <time>2025-05-09T13:19:11.000Z</time>
      </trkpt>
      <trkpt lat="49.03382" lon="7.94583">
        <ele>158</ele>
        <time>2025-05-09T13:19:51.000Z</time>
      </trkpt>
      <trkpt lat="49.0338" lon="7.94559">
        <ele>158</ele>
        <time>2025-05-09T13:20:03.000Z</time>
      </trkpt>
      <trkpt lat="49.03383" lon="7.9454">
        <ele>158</ele>
        <time>2025-05-09T13:20:15.000Z</time>
      </trkpt>
      <trkpt lat="49.03381" lon="7.94524">
        <ele>159</ele>
        <time>2025-05-09T13:20:24.000Z</time>
      </trkpt>
      <trkpt lat="49.03383" lon="7.94489">
        <ele>159</ele>
        <time>2025-05-09T13:20:45.000Z</time>
      </trkpt>
      <trkpt lat="49.03382" lon="7.94476">
        <ele>159</ele>
        <time>2025-05-09T13:20:51.000Z</time>
      </trkpt>
      <trkpt lat="49.03381" lon="7.94463">
        <ele>159</ele>
        <time>2025-05-09T13:20:58.000Z</time>
      </trkpt>
      <trkpt lat="49.03384" lon="7.9441">
        <ele>159</ele>
        <time>2025-05-09T13:21:28.000Z</time>
      </trkpt>
      <trkpt lat="49.03383" lon="7.94339">
        <ele>159</ele>
        <time>2025-05-09T13:22:07.000Z</time>
      </trkpt>
      <trkpt lat="49.03382" lon="7.94317">
        <ele>159</ele>
        <time>2025-05-09T13:22:18.000Z</time>
      </trkpt>
      <trkpt lat="49.03385" lon="7.94296">
        <ele>160</ele>
        <time>2025-05-09T13:22:31.000Z</time>
      </trkpt>
      <trkpt lat="49.03689" lon="7.94325">
        <ele>158</ele>
        <time>2025-05-09T17:28:37.000Z</time>
      </trkpt>
      <trkpt lat="49.0369" lon="7.94323">
        <ele>158</ele>
        <time>2025-05-09T17:28:38.000Z</time>
      </trkpt>
      <trkpt lat="49.03689" lon="7.94309">
        <ele>158</ele>
        <time>2025-05-09T17:28:46.000Z</time>
      </trkpt>
      <trkpt lat="49.03692" lon="7.94292">
        <ele>158</ele>
        <time>2025-05-09T17:28:56.000Z</time>
      </trkpt>
      <trkpt lat="49.03693" lon="7.94286">
        <ele>158</ele>
        <time>2025-05-09T17:29:00.000Z</time>
      </trkpt>
      <trkpt lat="49.03692" lon="7.94279">
        <ele>158</ele>
        <time>2025-05-09T17:29:04.000Z</time>
      </trkpt>
      <trkpt lat="49.03692" lon="7.94269">
        <ele>158</ele>
        <time>2025-05-09T17:29:07.000Z</time>
      </trkpt>
      <trkpt lat="49.03691" lon="7.94262">
        <ele>158</ele>
        <time>2025-05-09T17:29:11.000Z</time>
      </trkpt>
      <trkpt lat="49.03691" lon="7.94225">
        <ele>158</ele>
        <time>2025-05-09T17:29:32.000Z</time>
      </trkpt>
      <trkpt lat="49.03691" lon="7.94217">
        <ele>158</ele>
        <time>2025-05-09T17:29:37.000Z</time>
      </trkpt>
      <trkpt lat="49.03692" lon="7.94207">
        <ele>158</ele>
        <time>2025-05-09T17:29:44.000Z</time>
      </trkpt>
      <trkpt lat="49.03696" lon="7.94156">
        <ele>159</ele>
        <time>2025-05-09T17:30:12.000Z</time>
      </trkpt>
      <trkpt lat="49.03697" lon="7.94147">
        <ele>158</ele>
        <time>2025-05-09T17:30:18.000Z</time>
      </trkpt>
      <trkpt lat="49.03696" lon="7.94136">
        <ele>159</ele>
        <time>2025-05-09T17:30:26.000Z</time>
      </trkpt>
      <trkpt lat="49.03685" lon="7.94127">
        <ele>158</ele>
        <time>2025-05-09T17:30:33.000Z</time>
      </trkpt>
      <trkpt lat="49.03678" lon="7.94139">
        <ele>159</ele>
        <time>2025-05-09T17:30:49.000Z</time>
      </trkpt>
      <trkpt lat="49.03675" lon="7.94136">
        <ele>158</ele>
        <time>2025-05-09T17:31:26.000Z</time>
      </trkpt>
      <trkpt lat="49.0365" lon="7.94117">
        <ele>158</ele>
        <time>2025-05-09T17:34:24.000Z</time>
      </trkpt>
      <trkpt lat="49.03651" lon="7.94119">
        <ele>158</ele>
        <time>2025-05-09T17:34:25.000Z</time>
      </trkpt>
      <trkpt lat="49.03643" lon="7.94101">
        <ele>158</ele>
        <time>2025-05-09T17:34:42.000Z</time>
      </trkpt>
      <trkpt lat="49.03651" lon="7.94077">
        <ele>159</ele>
        <time>2025-05-09T17:34:55.000Z</time>
      </trkpt>
      <trkpt lat="49.03653" lon="7.94062">
        <ele>158</ele>
        <time>2025-05-09T17:35:07.000Z</time>
      </trkpt>
      <trkpt lat="49.03652" lon="7.94045">
        <ele>159</ele>
        <time>2025-05-09T17:35:15.000Z</time>
      </trkpt>
      <trkpt lat="49.03652" lon="7.94032">
        <ele>158</ele>
        <time>2025-05-09T17:35:22.000Z</time>
      </trkpt>
      <trkpt lat="49.03635" lon="7.94031">
        <ele>158</ele>
        <time>2025-05-09T17:35:37.000Z</time>
      </trkpt>
      <trkpt lat="49.03616" lon="7.94029">
        <ele>159</ele>
        <time>2025-05-09T17:35:47.000Z</time>
      </trkpt>
      <trkpt lat="49.03593" lon="7.94035">
        <ele>158</ele>
        <time>2025-05-09T17:36:04.000Z</time>
      </trkpt>
      <trkpt lat="49.03582" lon="7.94018">
        <ele>157</ele>
        <time>2025-05-09T17:36:10.000Z</time>
      </trkpt>
      <trkpt lat="49.0357" lon="7.94017">
        <ele>158</ele>
        <time>2025-05-09T17:36:13.000Z</time>
      </trkpt>
      <trkpt lat="49.03564" lon="7.93999">
        <ele>158</ele>
        <time>2025-05-09T17:36:26.000Z</time>
      </trkpt>
      <trkpt lat="49.03561" lon="7.93988">
        <ele>158</ele>
        <time>2025-05-09T17:36:30.000Z</time>
      </trkpt>
      <trkpt lat="49.03573" lon="7.93962">
        <ele>162</ele>
        <time>2025-05-09T17:36:50.000Z</time>
      </trkpt>
      <trkpt lat="49.03571" lon="7.93951">
        <ele>163</ele>
        <time>2025-05-09T17:36:57.000Z</time>
      </trkpt>
      <trkpt lat="49.03574" lon="7.93942">
        <ele>162</ele>
        <time>2025-05-09T17:37:02.000Z</time>
      </trkpt>
      <trkpt lat="49.03577" lon="7.93935">
        <ele>163</ele>
        <time>2025-05-09T17:37:06.000Z</time>
      </trkpt>
      <trkpt lat="49.0358" lon="7.93928">
        <ele>163</ele>
        <time>2025-05-09T17:37:11.000Z</time>
      </trkpt>
      <trkpt lat="49.03592" lon="7.9391">
        <ele>163</ele>
        <time>2025-05-09T17:37:24.000Z</time>
      </trkpt>
      <trkpt lat="49.03592" lon="7.93902">
        <ele>164</ele>
        <time>2025-05-09T17:37:28.000Z</time>
      </trkpt>
      <trkpt lat="49.03593" lon="7.93894">
        <ele>164</ele>
        <time>2025-05-09T17:37:33.000Z</time>
      </trkpt>
      <trkpt lat="49.03592" lon="7.93882">
        <ele>164</ele>
        <time>2025-05-09T17:37:40.000Z</time>
      </trkpt>
      <trkpt lat="49.0359" lon="7.93866">
        <ele>164</ele>
        <time>2025-05-09T17:37:49.000Z</time>
      </trkpt>
      <trkpt lat="49.03589" lon="7.93859">
        <ele>165</ele>
        <time>2025-05-09T17:37:53.000Z</time>
      </trkpt>
      <trkpt lat="49.03587" lon="7.93838">
        <ele>166</ele>
        <time>2025-05-09T17:38:05.000Z</time>
      </trkpt>
      <trkpt lat="49.03588" lon="7.93817">
        <ele>167</ele>
        <time>2025-05-09T17:38:17.000Z</time>
      </trkpt>
      <trkpt lat="49.03579" lon="7.93808">
        <ele>168</ele>
        <time>2025-05-09T17:38:28.000Z</time>
      </trkpt>
      <trkpt lat="49.03572" lon="7.93795">
        <ele>169</ele>
        <time>2025-05-09T17:38:37.000Z</time>
      </trkpt>
      <trkpt lat="49.03563" lon="7.93777">
        <ele>171</ele>
        <time>2025-05-09T17:38:50.000Z</time>
      </trkpt>
      <trkpt lat="49.03561" lon="7.93772">
        <ele>171</ele>
        <time>2025-05-09T17:38:54.000Z</time>
      </trkpt>
      <trkpt lat="49.03558" lon="7.93766">
        <ele>173</ele>
        <time>2025-05-09T17:38:59.000Z</time>
      </trkpt>
      <trkpt lat="49.03549" lon="7.93742">
        <ele>175</ele>
        <time>2025-05-09T17:39:16.000Z</time>
      </trkpt>
      <trkpt lat="49.03539" lon="7.93732">
        <ele>176</ele>
        <time>2025-05-09T17:39:26.000Z</time>
      </trkpt>
      <trkpt lat="49.03499" lon="7.93698">
        <ele>180</ele>
        <time>2025-05-09T17:40:04.000Z</time>
      </trkpt>
      <trkpt lat="49.03479" lon="7.93663">
        <ele>182</ele>
        <time>2025-05-09T17:40:27.000Z</time>
      </trkpt>
      <trkpt lat="49.03472" lon="7.93657">
        <ele>183</ele>
        <time>2025-05-09T17:40:34.000Z</time>
      </trkpt>
      <trkpt lat="49.03447" lon="7.93616">
        <ele>185</ele>
        <time>2025-05-09T17:41:02.000Z</time>
      </trkpt>
      <trkpt lat="49.03445" lon="7.93605">
        <ele>185</ele>
        <time>2025-05-09T17:41:06.000Z</time>
      </trkpt>
      <trkpt lat="49.03439" lon="7.93598">
        <ele>186</ele>
        <time>2025-05-09T17:41:11.000Z</time>
      </trkpt>
      <trkpt lat="49.03433" lon="7.93592">
        <ele>186</ele>
        <time>2025-05-09T17:41:14.000Z</time>
      </trkpt>
      <trkpt lat="49.03405" lon="7.93543">
        <ele>190</ele>
        <time>2025-05-09T17:41:48.000Z</time>
      </trkpt>
      <trkpt lat="49.03381" lon="7.9349">
        <ele>194</ele>
        <time>2025-05-09T17:42:19.000Z</time>
      </trkpt>
      <trkpt lat="49.0337" lon="7.93464">
        <ele>197</ele>
        <time>2025-05-09T17:42:37.000Z</time>
      </trkpt>
      <trkpt lat="49.03365" lon="7.9346">
        <ele>197</ele>
        <time>2025-05-09T17:42:40.000Z</time>
      </trkpt>
      <trkpt lat="49.03362" lon="7.93454">
        <ele>198</ele>
        <time>2025-05-09T17:42:44.000Z</time>
      </trkpt>
      <trkpt lat="49.03354" lon="7.93434">
        <ele>200</ele>
        <time>2025-05-09T17:42:56.000Z</time>
      </trkpt>
      <trkpt lat="49.03352" lon="7.93417">
        <ele>201</ele>
        <time>2025-05-09T17:43:05.000Z</time>
      </trkpt>
      <trkpt lat="49.03349" lon="7.93411">
        <ele>201</ele>
        <time>2025-05-09T17:43:09.000Z</time>
      </trkpt>
      <trkpt lat="49.03341" lon="7.93403">
        <ele>202</ele>
        <time>2025-05-09T17:43:16.000Z</time>
      </trkpt>
      <trkpt lat="49.03337" lon="7.93398">
        <ele>202</ele>
        <time>2025-05-09T17:43:20.000Z</time>
      </trkpt>
      <trkpt lat="49.03316" lon="7.93366">
        <ele>205</ele>
        <time>2025-05-09T17:43:43.000Z</time>
      </trkpt>
      <trkpt lat="49.03306" lon="7.93352">
        <ele>206</ele>
        <time>2025-05-09T17:43:55.000Z</time>
      </trkpt>
      <trkpt lat="49.033" lon="7.93341">
        <ele>207</ele>
        <time>2025-05-09T17:44:03.000Z</time>
      </trkpt>
      <trkpt lat="49.03302" lon="7.93333">
        <ele>207</ele>
        <time>2025-05-09T17:44:06.000Z</time>
      </trkpt>
      <trkpt lat="49.03311" lon="7.93312">
        <ele>206</ele>
        <time>2025-05-09T17:44:19.000Z</time>
      </trkpt>
      <trkpt lat="49.03315" lon="7.93305">
        <ele>206</ele>
        <time>2025-05-09T17:44:24.000Z</time>
      </trkpt>
      <trkpt lat="49.03319" lon="7.93293">
        <ele>207</ele>
        <time>2025-05-09T17:44:31.000Z</time>
      </trkpt>
      <trkpt lat="49.03305" lon="7.93246">
        <ele>209</ele>
        <time>2025-05-09T17:44:54.000Z</time>
      </trkpt>
      <trkpt lat="49.03292" lon="7.93219">
        <ele>210</ele>
        <time>2025-05-09T17:45:11.000Z</time>
      </trkpt>
      <trkpt lat="49.03277" lon="7.93157">
        <ele>213</ele>
        <time>2025-05-09T17:45:45.000Z</time>
      </trkpt>
      <trkpt lat="49.03276" lon="7.9315">
        <ele>213</ele>
        <time>2025-05-09T17:45:48.000Z</time>
      </trkpt>
      <trkpt lat="49.03278" lon="7.93109">
        <ele>216</ele>
        <time>2025-05-09T17:46:09.000Z</time>
      </trkpt>
      <trkpt lat="49.03274" lon="7.93058">
        <ele>218</ele>
        <time>2025-05-09T17:46:34.000Z</time>
      </trkpt>
      <trkpt lat="49.03276" lon="7.93001">
        <ele>222</ele>
        <time>2025-05-09T17:47:05.000Z</time>
      </trkpt>
      <trkpt lat="49.03276" lon="7.92985">
        <ele>223</ele>
        <time>2025-05-09T17:47:14.000Z</time>
      </trkpt>
      <trkpt lat="49.03282" lon="7.92939">
        <ele>227</ele>
        <time>2025-05-09T17:47:40.000Z</time>
      </trkpt>
      <trkpt lat="49.03289" lon="7.92913">
        <ele>230</ele>
        <time>2025-05-09T17:47:54.000Z</time>
      </trkpt>
      <trkpt lat="49.03308" lon="7.92882">
        <ele>235</ele>
        <time>2025-05-09T17:48:18.000Z</time>
      </trkpt>
      <trkpt lat="49.03309" lon="7.9287">
        <ele>236</ele>
        <time>2025-05-09T17:48:25.000Z</time>
      </trkpt>
      <trkpt lat="49.03306" lon="7.92864">
        <ele>237</ele>
        <time>2025-05-09T17:48:29.000Z</time>
      </trkpt>
      <trkpt lat="49.03303" lon="7.92857">
        <ele>237</ele>
        <time>2025-05-09T17:48:33.000Z</time>
      </trkpt>
      <trkpt lat="49.03299" lon="7.92851">
        <ele>239</ele>
        <time>2025-05-09T17:48:38.000Z</time>
      </trkpt>
      <trkpt lat="49.03295" lon="7.92844">
        <ele>238</ele>
        <time>2025-05-09T17:48:42.000Z</time>
      </trkpt>
      <trkpt lat="49.03285" lon="7.92824">
        <ele>240</ele>
        <time>2025-05-09T17:48:55.000Z</time>
      </trkpt>
      <trkpt lat="49.03282" lon="7.92815">
        <ele>241</ele>
        <time>2025-05-09T17:49:00.000Z</time>
      </trkpt>
      <trkpt lat="49.03282" lon="7.92808">
        <ele>241</ele>
        <time>2025-05-09T17:49:04.000Z</time>
      </trkpt>
      <trkpt lat="49.03286" lon="7.92792">
        <ele>242</ele>
        <time>2025-05-09T17:49:15.000Z</time>
      </trkpt>
      <trkpt lat="49.03286" lon="7.92781">
        <ele>242</ele>
        <time>2025-05-09T17:49:20.000Z</time>
      </trkpt>
      <trkpt lat="49.03298" lon="7.92726">
        <ele>246</ele>
        <time>2025-05-09T17:49:53.000Z</time>
      </trkpt>
      <trkpt lat="49.03299" lon="7.92719">
        <ele>246</ele>
        <time>2025-05-09T17:49:57.000Z</time>
      </trkpt>
      <trkpt lat="49.033" lon="7.92685">
        <ele>248</ele>
        <time>2025-05-09T17:50:16.000Z</time>
      </trkpt>
      <trkpt lat="49.03302" lon="7.92676">
        <ele>248</ele>
        <time>2025-05-09T17:50:21.000Z</time>
      </trkpt>
      <trkpt lat="49.03308" lon="7.92644">
        <ele>249</ele>
        <time>2025-05-09T17:50:38.000Z</time>
      </trkpt>
      <trkpt lat="49.0331" lon="7.92638">
        <ele>249</ele>
        <time>2025-05-09T17:50:42.000Z</time>
      </trkpt>
      <trkpt lat="49.0332" lon="7.92623">
        <ele>248</ele>
        <time>2025-05-09T17:50:52.000Z</time>
      </trkpt>
      <trkpt lat="49.03327" lon="7.92618">
        <ele>248</ele>
        <time>2025-05-09T17:50:58.000Z</time>
      </trkpt>
      <trkpt lat="49.03366" lon="7.92606">
        <ele>246</ele>
        <time>2025-05-09T17:51:28.000Z</time>
      </trkpt>
      <trkpt lat="49.03371" lon="7.92605">
        <ele>246</ele>
        <time>2025-05-09T17:51:31.000Z</time>
      </trkpt>
      <trkpt lat="49.03374" lon="7.92605">
        <ele>247</ele>
        <time>2025-05-09T17:51:40.000Z</time>
      </trkpt>
      <trkpt lat="49.03378" lon="7.926">
        <ele>246</ele>
        <time>2025-05-09T17:51:44.000Z</time>
      </trkpt>
      <trkpt lat="49.03384" lon="7.92588">
        <ele>247</ele>
        <time>2025-05-09T17:51:52.000Z</time>
      </trkpt>
      <trkpt lat="49.03387" lon="7.92584">
        <ele>247</ele>
        <time>2025-05-09T17:51:55.000Z</time>
      </trkpt>
      <trkpt lat="49.03389" lon="7.92577">
        <ele>247</ele>
        <time>2025-05-09T17:51:59.000Z</time>
      </trkpt>
      <trkpt lat="49.0339" lon="7.9257">
        <ele>247</ele>
        <time>2025-05-09T17:52:03.000Z</time>
      </trkpt>
      <trkpt lat="49.03389" lon="7.92562">
        <ele>248</ele>
        <time>2025-05-09T17:52:08.000Z</time>
      </trkpt>
      <trkpt lat="49.03381" lon="7.9254">
        <ele>249</ele>
        <time>2025-05-09T17:52:22.000Z</time>
      </trkpt>
      <trkpt lat="49.0338" lon="7.92532">
        <ele>249</ele>
        <time>2025-05-09T17:52:26.000Z</time>
      </trkpt>
      <trkpt lat="49.0336" lon="7.92485">
        <ele>251</ele>
        <time>2025-05-09T17:52:56.000Z</time>
      </trkpt>
      <trkpt lat="49.03357" lon="7.92462">
        <ele>252</ele>
        <time>2025-05-09T17:53:08.000Z</time>
      </trkpt>
      <trkpt lat="49.03355" lon="7.92435">
        <ele>253</ele>
        <time>2025-05-09T17:53:24.000Z</time>
      </trkpt>
      <trkpt lat="49.03347" lon="7.92409">
        <ele>253</ele>
        <time>2025-05-09T17:53:37.000Z</time>
      </trkpt>
      <trkpt lat="49.03316" lon="7.92354">
        <ele>255</ele>
        <time>2025-05-09T17:54:10.000Z</time>
      </trkpt>
      <trkpt lat="49.03309" lon="7.92338">
        <ele>255</ele>
        <time>2025-05-09T17:54:20.000Z</time>
      </trkpt>
      <trkpt lat="49.03305" lon="7.9233">
        <ele>256</ele>
        <time>2025-05-09T17:54:24.000Z</time>
      </trkpt>
      <trkpt lat="49.03302" lon="7.92318">
        <ele>256</ele>
        <time>2025-05-09T17:54:30.000Z</time>
      </trkpt>
      <trkpt lat="49.03302" lon="7.92297">
        <ele>256</ele>
        <time>2025-05-09T17:54:38.000Z</time>
      </trkpt>
      <trkpt lat="49.03305" lon="7.9225">
        <ele>257</ele>
        <time>2025-05-09T17:55:00.000Z</time>
      </trkpt>
      <trkpt lat="49.03302" lon="7.92241">
        <ele>257</ele>
        <time>2025-05-09T17:55:05.000Z</time>
      </trkpt>
      <trkpt lat="49.03299" lon="7.92234">
        <ele>257</ele>
        <time>2025-05-09T17:55:09.000Z</time>
      </trkpt>
      <trkpt lat="49.03259" lon="7.92197">
        <ele>258</ele>
        <time>2025-05-09T17:55:41.000Z</time>
      </trkpt>
      <trkpt lat="49.03235" lon="7.92175">
        <ele>260</ele>
        <time>2025-05-09T17:56:01.000Z</time>
      </trkpt>
      <trkpt lat="49.03229" lon="7.92162">
        <ele>261</ele>
        <time>2025-05-09T17:56:09.000Z</time>
      </trkpt>
      <trkpt lat="49.03225" lon="7.92152">
        <ele>261</ele>
        <time>2025-05-09T17:56:15.000Z</time>
      </trkpt>
      <trkpt lat="49.03221" lon="7.92143">
        <ele>261</ele>
        <time>2025-05-09T17:56:21.000Z</time>
      </trkpt>
      <trkpt lat="49.03219" lon="7.92134">
        <ele>261</ele>
        <time>2025-05-09T17:56:25.000Z</time>
      </trkpt>
      <trkpt lat="49.03196" lon="7.9207">
        <ele>262</ele>
        <time>2025-05-09T17:56:58.000Z</time>
      </trkpt>
      <trkpt lat="49.03176" lon="7.92013">
        <ele>265</ele>
        <time>2025-05-09T17:57:31.000Z</time>
      </trkpt>
      <trkpt lat="49.03158" lon="7.91967">
        <ele>267</ele>
        <time>2025-05-09T17:57:57.000Z</time>
      </trkpt>
      <trkpt lat="49.03153" lon="7.91958">
        <ele>266</ele>
        <time>2025-05-09T17:58:02.000Z</time>
      </trkpt>
      <trkpt lat="49.03153" lon="7.91948">
        <ele>268</ele>
        <time>2025-05-09T17:58:07.000Z</time>
      </trkpt>
      <trkpt lat="49.03152" lon="7.91939">
        <ele>268</ele>
        <time>2025-05-09T17:58:11.000Z</time>
      </trkpt>
      <trkpt lat="49.03151" lon="7.91931">
        <ele>267</ele>
        <time>2025-05-09T17:58:15.000Z</time>
      </trkpt>
      <trkpt lat="49.0315" lon="7.91922">
        <ele>269</ele>
        <time>2025-05-09T17:58:19.000Z</time>
      </trkpt>
      <trkpt lat="49.03149" lon="7.91913">
        <ele>268</ele>
        <time>2025-05-09T17:58:23.000Z</time>
      </trkpt>
      <trkpt lat="49.03148" lon="7.91904">
        <ele>268</ele>
        <time>2025-05-09T17:58:27.000Z</time>
      </trkpt>
      <trkpt lat="49.03148" lon="7.91897">
        <ele>267</ele>
        <time>2025-05-09T17:58:30.000Z</time>
      </trkpt>
      <trkpt lat="49.03146" lon="7.91889">
        <ele>269</ele>
        <time>2025-05-09T17:58:35.000Z</time>
      </trkpt>
      <trkpt lat="49.03145" lon="7.9188">
        <ele>269</ele>
        <time>2025-05-09T17:58:39.000Z</time>
      </trkpt>
      <trkpt lat="49.03144" lon="7.91873">
        <ele>270</ele>
        <time>2025-05-09T17:58:43.000Z</time>
      </trkpt>
      <trkpt lat="49.03139" lon="7.9185">
        <ele>270</ele>
        <time>2025-05-09T17:58:54.000Z</time>
      </trkpt>
      <trkpt lat="49.03139" lon="7.91842">
        <ele>270</ele>
        <time>2025-05-09T17:58:58.000Z</time>
      </trkpt>
      <trkpt lat="49.03137" lon="7.91833">
        <ele>271</ele>
        <time>2025-05-09T17:59:02.000Z</time>
      </trkpt>
      <trkpt lat="49.03135" lon="7.91827">
        <ele>271</ele>
        <time>2025-05-09T17:59:06.000Z</time>
      </trkpt>
      <trkpt lat="49.03125" lon="7.91814">
        <ele>271</ele>
        <time>2025-05-09T17:59:16.000Z</time>
      </trkpt>
      <trkpt lat="49.0312" lon="7.91808">
        <ele>271</ele>
        <time>2025-05-09T17:59:21.000Z</time>
      </trkpt>
      <trkpt lat="49.03086" lon="7.91758">
        <ele>274</ele>
        <time>2025-05-09T17:59:55.000Z</time>
      </trkpt>
      <trkpt lat="49.03077" lon="7.91747">
        <ele>276</ele>
        <time>2025-05-09T18:00:05.000Z</time>
      </trkpt>
      <trkpt lat="49.03072" lon="7.91742">
        <ele>276</ele>
        <time>2025-05-09T18:00:10.000Z</time>
      </trkpt>
      <trkpt lat="49.03066" lon="7.91741">
        <ele>276</ele>
        <time>2025-05-09T18:00:15.000Z</time>
      </trkpt>
      <trkpt lat="49.0305" lon="7.91741">
        <ele>278</ele>
        <time>2025-05-09T18:00:29.000Z</time>
      </trkpt>
      <trkpt lat="49.0305" lon="7.91732">
        <ele>278</ele>
        <time>2025-05-09T18:00:34.000Z</time>
      </trkpt>
      <trkpt lat="49.03048" lon="7.91721">
        <ele>278</ele>
        <time>2025-05-09T18:00:43.000Z</time>
      </trkpt>
      <trkpt lat="49.03039" lon="7.91696">
        <ele>279</ele>
        <time>2025-05-09T18:00:59.000Z</time>
      </trkpt>
      <trkpt lat="49.03032" lon="7.91679">
        <ele>279</ele>
        <time>2025-05-09T18:01:08.000Z</time>
      </trkpt>
      <trkpt lat="49.0303" lon="7.9167">
        <ele>279</ele>
        <time>2025-05-09T18:01:14.000Z</time>
      </trkpt>
      <trkpt lat="49.03027" lon="7.91663">
        <ele>279</ele>
        <time>2025-05-09T18:01:18.000Z</time>
      </trkpt>
      <trkpt lat="49.03024" lon="7.91654">
        <ele>280</ele>
        <time>2025-05-09T18:01:23.000Z</time>
      </trkpt>
      <trkpt lat="49.03021" lon="7.91645">
        <ele>279</ele>
        <time>2025-05-09T18:01:28.000Z</time>
      </trkpt>
      <trkpt lat="49.03019" lon="7.91638">
        <ele>279</ele>
        <time>2025-05-09T18:01:32.000Z</time>
      </trkpt>
      <trkpt lat="49.03015" lon="7.91629">
        <ele>280</ele>
        <time>2025-05-09T18:01:38.000Z</time>
      </trkpt>
      <trkpt lat="49.03003" lon="7.91603">
        <ele>280</ele>
        <time>2025-05-09T18:01:52.000Z</time>
      </trkpt>
      <trkpt lat="49.03" lon="7.91595">
        <ele>279</ele>
        <time>2025-05-09T18:01:57.000Z</time>
      </trkpt>
      <trkpt lat="49.02998" lon="7.91586">
        <ele>281</ele>
        <time>2025-05-09T18:02:02.000Z</time>
      </trkpt>
      <trkpt lat="49.02996" lon="7.91577">
        <ele>281</ele>
        <time>2025-05-09T18:02:08.000Z</time>
      </trkpt>
      <trkpt lat="49.02987" lon="7.91556">
        <ele>282</ele>
        <time>2025-05-09T18:02:17.000Z</time>
      </trkpt>
      <trkpt lat="49.0298" lon="7.9155">
        <ele>281</ele>
        <time>2025-05-09T18:02:22.000Z</time>
      </trkpt>
      <trkpt lat="49.02967" lon="7.91521">
        <ele>282</ele>
        <time>2025-05-09T18:02:37.000Z</time>
      </trkpt>
      <trkpt lat="49.02969" lon="7.9151">
        <ele>282</ele>
        <time>2025-05-09T18:02:42.000Z</time>
      </trkpt>
      <trkpt lat="49.02967" lon="7.915">
        <ele>282</ele>
        <time>2025-05-09T18:02:47.000Z</time>
      </trkpt>
      <trkpt lat="49.02963" lon="7.91491">
        <ele>282</ele>
        <time>2025-05-09T18:02:52.000Z</time>
      </trkpt>
      <trkpt lat="49.02959" lon="7.91474">
        <ele>282</ele>
        <time>2025-05-09T18:03:00.000Z</time>
      </trkpt>
      <trkpt lat="49.02956" lon="7.91467">
        <ele>282</ele>
        <time>2025-05-09T18:03:04.000Z</time>
      </trkpt>
      <trkpt lat="49.02955" lon="7.9145">
        <ele>282</ele>
        <time>2025-05-09T18:03:12.000Z</time>
      </trkpt>
      <trkpt lat="49.02948" lon="7.91437">
        <ele>282</ele>
        <time>2025-05-09T18:03:19.000Z</time>
      </trkpt>
      <trkpt lat="49.02946" lon="7.91428">
        <ele>282</ele>
        <time>2025-05-09T18:03:23.000Z</time>
      </trkpt>
      <trkpt lat="49.02946" lon="7.91418">
        <ele>283</ele>
        <time>2025-05-09T18:03:27.000Z</time>
      </trkpt>
      <trkpt lat="49.02945" lon="7.91409">
        <ele>283</ele>
        <time>2025-05-09T18:03:31.000Z</time>
      </trkpt>
      <trkpt lat="49.02945" lon="7.91391">
        <ele>283</ele>
        <time>2025-05-09T18:03:39.000Z</time>
      </trkpt>
      <trkpt lat="49.02943" lon="7.91383">
        <ele>283</ele>
        <time>2025-05-09T18:03:43.000Z</time>
      </trkpt>
      <trkpt lat="49.02941" lon="7.91371">
        <ele>283</ele>
        <time>2025-05-09T18:03:49.000Z</time>
      </trkpt>
      <trkpt lat="49.02939" lon="7.91338">
        <ele>283</ele>
        <time>2025-05-09T18:04:06.000Z</time>
      </trkpt>
      <trkpt lat="49.02935" lon="7.91317">
        <ele>283</ele>
        <time>2025-05-09T18:04:15.000Z</time>
      </trkpt>
      <trkpt lat="49.02935" lon="7.91308">
        <ele>284</ele>
        <time>2025-05-09T18:04:19.000Z</time>
      </trkpt>
      <trkpt lat="49.02931" lon="7.91288">
        <ele>284</ele>
        <time>2025-05-09T18:04:29.000Z</time>
      </trkpt>
      <trkpt lat="49.0293" lon="7.91278">
        <ele>284</ele>
        <time>2025-05-09T18:04:33.000Z</time>
      </trkpt>
      <trkpt lat="49.02928" lon="7.91269">
        <ele>286</ele>
        <time>2025-05-09T18:04:37.000Z</time>
      </trkpt>
      <trkpt lat="49.02926" lon="7.91259">
        <ele>284</ele>
        <time>2025-05-09T18:04:42.000Z</time>
      </trkpt>
      <trkpt lat="49.02913" lon="7.91199">
        <ele>286</ele>
        <time>2025-05-09T18:05:11.000Z</time>
      </trkpt>
      <trkpt lat="49.02913" lon="7.91188">
        <ele>286</ele>
        <time>2025-05-09T18:05:16.000Z</time>
      </trkpt>
      <trkpt lat="49.02911" lon="7.91179">
        <ele>287</ele>
        <time>2025-05-09T18:05:21.000Z</time>
      </trkpt>
      <trkpt lat="49.02909" lon="7.91159">
        <ele>286</ele>
        <time>2025-05-09T18:05:32.000Z</time>
      </trkpt>
      <trkpt lat="49.02908" lon="7.91145">
        <ele>287</ele>
        <time>2025-05-09T18:05:40.000Z</time>
      </trkpt>
      <trkpt lat="49.02902" lon="7.91111">
        <ele>287</ele>
        <time>2025-05-09T18:05:55.000Z</time>
      </trkpt>
      <trkpt lat="49.02888" lon="7.91064">
        <ele>288</ele>
        <time>2025-05-09T18:06:18.000Z</time>
      </trkpt>
      <trkpt lat="49.02893" lon="7.9104">
        <ele>289</ele>
        <time>2025-05-09T18:06:30.000Z</time>
      </trkpt>
      <trkpt lat="49.0289" lon="7.9103">
        <ele>289</ele>
        <time>2025-05-09T18:06:34.000Z</time>
      </trkpt>
      <trkpt lat="49.02889" lon="7.91019">
        <ele>290</ele>
        <time>2025-05-09T18:06:39.000Z</time>
      </trkpt>
      <trkpt lat="49.02879" lon="7.90986">
        <ele>291</ele>
        <time>2025-05-09T18:06:57.000Z</time>
      </trkpt>
      <trkpt lat="49.02877" lon="7.90974">
        <ele>291</ele>
        <time>2025-05-09T18:07:03.000Z</time>
      </trkpt>
      <trkpt lat="49.02872" lon="7.90962">
        <ele>292</ele>
        <time>2025-05-09T18:07:09.000Z</time>
      </trkpt>
      <trkpt lat="49.02872" lon="7.90937">
        <ele>292</ele>
        <time>2025-05-09T18:07:21.000Z</time>
      </trkpt>
      <trkpt lat="49.02868" lon="7.90915">
        <ele>293</ele>
        <time>2025-05-09T18:07:31.000Z</time>
      </trkpt>
      <trkpt lat="49.02865" lon="7.90905">
        <ele>293</ele>
        <time>2025-05-09T18:07:36.000Z</time>
      </trkpt>
      <trkpt lat="49.02864" lon="7.90893">
        <ele>294</ele>
        <time>2025-05-09T18:07:43.000Z</time>
      </trkpt>
      <trkpt lat="49.02865" lon="7.9088">
        <ele>294</ele>
        <time>2025-05-09T18:07:49.000Z</time>
      </trkpt>
      <trkpt lat="49.02862" lon="7.90858">
        <ele>294</ele>
        <time>2025-05-09T18:07:58.000Z</time>
      </trkpt>
      <trkpt lat="49.0286" lon="7.90848">
        <ele>294</ele>
        <time>2025-05-09T18:08:03.000Z</time>
      </trkpt>
      <trkpt lat="49.02856" lon="7.90839">
        <ele>295</ele>
        <time>2025-05-09T18:08:08.000Z</time>
      </trkpt>
      <trkpt lat="49.02853" lon="7.90817">
        <ele>296</ele>
        <time>2025-05-09T18:08:19.000Z</time>
      </trkpt>
      <trkpt lat="49.02854" lon="7.90793">
        <ele>297</ele>
        <time>2025-05-09T18:08:30.000Z</time>
      </trkpt>
      <trkpt lat="49.02851" lon="7.90783">
        <ele>297</ele>
        <time>2025-05-09T18:08:35.000Z</time>
      </trkpt>
      <trkpt lat="49.02849" lon="7.90773">
        <ele>298</ele>
        <time>2025-05-09T18:08:41.000Z</time>
      </trkpt>
      <trkpt lat="49.0285" lon="7.90747">
        <ele>298</ele>
        <time>2025-05-09T18:08:55.000Z</time>
      </trkpt>
      <trkpt lat="49.02855" lon="7.90734">
        <ele>298</ele>
        <time>2025-05-09T18:09:02.000Z</time>
      </trkpt>
      <trkpt lat="49.02852" lon="7.90721">
        <ele>299</ele>
        <time>2025-05-09T18:09:10.000Z</time>
      </trkpt>
      <trkpt lat="49.02855" lon="7.90702">
        <ele>299</ele>
        <time>2025-05-09T18:09:18.000Z</time>
      </trkpt>
      <trkpt lat="49.02856" lon="7.9069">
        <ele>300</ele>
        <time>2025-05-09T18:09:24.000Z</time>
      </trkpt>
      <trkpt lat="49.02854" lon="7.90672">
        <ele>300</ele>
        <time>2025-05-09T18:09:33.000Z</time>
      </trkpt>
      <trkpt lat="49.02861" lon="7.90651">
        <ele>300</ele>
        <time>2025-05-09T18:09:55.000Z</time>
      </trkpt>
      <trkpt lat="49.02857" lon="7.9064">
        <ele>301</ele>
        <time>2025-05-09T18:10:03.000Z</time>
      </trkpt>
      <trkpt lat="49.02854" lon="7.90617">
        <ele>302</ele>
        <time>2025-05-09T18:10:15.000Z</time>
      </trkpt>
      <trkpt lat="49.02854" lon="7.90604">
        <ele>304</ele>
        <time>2025-05-09T18:10:23.000Z</time>
      </trkpt>
      <trkpt lat="49.02849" lon="7.90579">
        <ele>306</ele>
        <time>2025-05-09T18:10:37.000Z</time>
      </trkpt>
      <trkpt lat="49.02849" lon="7.90566">
        <ele>305</ele>
        <time>2025-05-09T18:10:43.000Z</time>
      </trkpt>
      <trkpt lat="49.02845" lon="7.90556">
        <ele>306</ele>
        <time>2025-05-09T18:10:50.000Z</time>
      </trkpt>
      <trkpt lat="49.02847" lon="7.90545">
        <ele>307</ele>
        <time>2025-05-09T18:10:57.000Z</time>
      </trkpt>
      <trkpt lat="49.02851" lon="7.90537">
        <ele>308</ele>
        <time>2025-05-09T18:11:04.000Z</time>
      </trkpt>
      <trkpt lat="49.0286" lon="7.90526">
        <ele>309</ele>
        <time>2025-05-09T18:11:11.000Z</time>
      </trkpt>
      <trkpt lat="49.02865" lon="7.90512">
        <ele>309</ele>
        <time>2025-05-09T18:11:19.000Z</time>
      </trkpt>
      <trkpt lat="49.02866" lon="7.90483">
        <ele>310</ele>
        <time>2025-05-09T18:11:36.000Z</time>
      </trkpt>
      <trkpt lat="49.02861" lon="7.90467">
        <ele>310</ele>
        <time>2025-05-09T18:11:42.000Z</time>
      </trkpt>
      <trkpt lat="49.02866" lon="7.90453">
        <ele>311</ele>
        <time>2025-05-09T18:11:51.000Z</time>
      </trkpt>
      <trkpt lat="49.02864" lon="7.90434">
        <ele>312</ele>
        <time>2025-05-09T18:12:02.000Z</time>
      </trkpt>
      <trkpt lat="49.02862" lon="7.90398">
        <ele>314</ele>
        <time>2025-05-09T18:12:20.000Z</time>
      </trkpt>
      <trkpt lat="49.02851" lon="7.90366">
        <ele>314</ele>
        <time>2025-05-09T18:12:34.000Z</time>
      </trkpt>
      <trkpt lat="49.02852" lon="7.90351">
        <ele>315</ele>
        <time>2025-05-09T18:12:44.000Z</time>
      </trkpt>
      <trkpt lat="49.02856" lon="7.90338">
        <ele>315</ele>
        <time>2025-05-09T18:12:51.000Z</time>
      </trkpt>
      <trkpt lat="49.02854" lon="7.90324">
        <ele>317</ele>
        <time>2025-05-09T18:12:57.000Z</time>
      </trkpt>
      <trkpt lat="49.0285" lon="7.90313">
        <ele>318</ele>
        <time>2025-05-09T18:13:05.000Z</time>
      </trkpt>
      <trkpt lat="49.02841" lon="7.90242">
        <ele>322</ele>
        <time>2025-05-09T18:13:41.000Z</time>
      </trkpt>
      <trkpt lat="49.0284" lon="7.9021">
        <ele>325</ele>
        <time>2025-05-09T18:14:00.000Z</time>
      </trkpt>
      <trkpt lat="49.02822" lon="7.90209">
        <ele>328</ele>
        <time>2025-05-09T18:14:16.000Z</time>
      </trkpt>
      <trkpt lat="49.02813" lon="7.90213">
        <ele>329</ele>
        <time>2025-05-09T18:14:23.000Z</time>
      </trkpt>
      <trkpt lat="49.02803" lon="7.90201">
        <ele>330</ele>
        <time>2025-05-09T18:14:33.000Z</time>
      </trkpt>
      <trkpt lat="49.02784" lon="7.90147">
        <ele>335</ele>
        <time>2025-05-09T18:15:05.000Z</time>
      </trkpt>
      <trkpt lat="49.02774" lon="7.90111">
        <ele>338</ele>
        <time>2025-05-09T18:15:27.000Z</time>
      </trkpt>
      <trkpt lat="49.0278" lon="7.90097">
        <ele>339</ele>
        <time>2025-05-09T18:15:39.000Z</time>
      </trkpt>
      <trkpt lat="49.02814" lon="7.90085">
        <ele>342</ele>
        <time>2025-05-09T18:16:03.000Z</time>
      </trkpt>
      <trkpt lat="49.02822" lon="7.90073">
        <ele>343</ele>
        <time>2025-05-09T18:16:12.000Z</time>
      </trkpt>
      <trkpt lat="49.02831" lon="7.90065">
        <ele>344</ele>
        <time>2025-05-09T18:16:21.000Z</time>
      </trkpt>
      <trkpt lat="49.02839" lon="7.90056">
        <ele>345</ele>
        <time>2025-05-09T18:16:31.000Z</time>
      </trkpt>
      <trkpt lat="49.02836" lon="7.90026">
        <ele>348</ele>
        <time>2025-05-09T18:16:51.000Z</time>
      </trkpt>
      <trkpt lat="49.02831" lon="7.90016">
        <ele>349</ele>
        <time>2025-05-09T18:17:01.000Z</time>
      </trkpt>
      <trkpt lat="49.02839" lon="7.90001">
        <ele>350</ele>
        <time>2025-05-09T18:17:16.000Z</time>
      </trkpt>
      <trkpt lat="49.02844" lon="7.8999">
        <ele>352</ele>
        <time>2025-05-09T18:17:24.000Z</time>
      </trkpt>
      <trkpt lat="49.02853" lon="7.89985">
        <ele>352</ele>
        <time>2025-05-09T18:17:30.000Z</time>
      </trkpt>
      <trkpt lat="49.0286" lon="7.89985">
        <ele>353</ele>
        <time>2025-05-09T18:17:36.000Z</time>
      </trkpt>
      <trkpt lat="49.02858" lon="7.89966">
        <ele>355</ele>
        <time>2025-05-09T18:17:50.000Z</time>
      </trkpt>
      <trkpt lat="49.02871" lon="7.8995">
        <ele>358</ele>
        <time>2025-05-09T18:18:04.000Z</time>
      </trkpt>
      <trkpt lat="49.02877" lon="7.89945">
        <ele>358</ele>
        <time>2025-05-09T18:18:07.000Z</time>
      </trkpt>
      <trkpt lat="49.02881" lon="7.8994">
        <ele>359</ele>
        <time>2025-05-09T18:18:12.000Z</time>
      </trkpt>
      <trkpt lat="49.02885" lon="7.89927">
        <ele>359</ele>
        <time>2025-05-09T18:18:20.000Z</time>
      </trkpt>
      <trkpt lat="49.02886" lon="7.89918">
        <ele>358</ele>
        <time>2025-05-09T18:18:24.000Z</time>
      </trkpt>
      <trkpt lat="49.02885" lon="7.8991">
        <ele>358</ele>
        <time>2025-05-09T18:18:28.000Z</time>
      </trkpt>
      <trkpt lat="49.02874" lon="7.89898">
        <ele>358</ele>
        <time>2025-05-09T18:18:36.000Z</time>
      </trkpt>
      <trkpt lat="49.02868" lon="7.89888">
        <ele>358</ele>
        <time>2025-05-09T18:18:41.000Z</time>
      </trkpt>
      <trkpt lat="49.02867" lon="7.89879">
        <ele>358</ele>
        <time>2025-05-09T18:18:45.000Z</time>
      </trkpt>
      <trkpt lat="49.02865" lon="7.89873">
        <ele>358</ele>
        <time>2025-05-09T18:18:48.000Z</time>
      </trkpt>
      <trkpt lat="49.02865" lon="7.89866">
        <ele>358</ele>
        <time>2025-05-09T18:18:51.000Z</time>
      </trkpt>
      <trkpt lat="49.02867" lon="7.89859">
        <ele>358</ele>
        <time>2025-05-09T18:18:54.000Z</time>
      </trkpt>
      <trkpt lat="49.02878" lon="7.89851">
        <ele>358</ele>
        <time>2025-05-09T18:19:01.000Z</time>
      </trkpt>
      <trkpt lat="49.02893" lon="7.89851">
        <ele>360</ele>
        <time>2025-05-09T18:19:12.000Z</time>
      </trkpt>
      <trkpt lat="49.02888" lon="7.89849">
        <ele>362</ele>
        <time>2025-05-09T18:19:27.000Z</time>
      </trkpt>
      <trkpt lat="49.02884" lon="7.89842">
        <ele>363</ele>
        <time>2025-05-09T18:19:30.000Z</time>
      </trkpt>
      <trkpt lat="49.02884" lon="7.89823">
        <ele>364</ele>
        <time>2025-05-09T18:19:37.000Z</time>
      </trkpt>
      <trkpt lat="49.02893" lon="7.89784">
        <ele>368</ele>
        <time>2025-05-09T18:19:56.000Z</time>
      </trkpt>
      <trkpt lat="49.02889" lon="7.89768">
        <ele>369</ele>
        <time>2025-05-09T18:20:03.000Z</time>
      </trkpt>
      <trkpt lat="49.02891" lon="7.89756">
        <ele>371</ele>
        <time>2025-05-09T18:20:13.000Z</time>
      </trkpt>
      <trkpt lat="49.02893" lon="7.89744">
        <ele>373</ele>
        <time>2025-05-09T18:20:22.000Z</time>
      </trkpt>
      <trkpt lat="49.02905" lon="7.89688">
        <ele>378</ele>
        <time>2025-05-09T18:20:46.000Z</time>
      </trkpt>
      <trkpt lat="49.02911" lon="7.89682">
        <ele>381</ele>
        <time>2025-05-09T18:20:56.000Z</time>
      </trkpt>
      <trkpt lat="49.02915" lon="7.89672">
        <ele>382</ele>
        <time>2025-05-09T18:21:00.000Z</time>
      </trkpt>
      <trkpt lat="49.02915" lon="7.89654">
        <ele>384</ele>
        <time>2025-05-09T18:21:12.000Z</time>
      </trkpt>
      <trkpt lat="49.02918" lon="7.89649">
        <ele>385</ele>
        <time>2025-05-09T18:21:16.000Z</time>
      </trkpt>
      <trkpt lat="49.0292" lon="7.89636">
        <ele>387</ele>
        <time>2025-05-09T18:21:25.000Z</time>
      </trkpt>
      <trkpt lat="49.02923" lon="7.89629">
        <ele>388</ele>
        <time>2025-05-09T18:21:29.000Z</time>
      </trkpt>
      <trkpt lat="49.02925" lon="7.89612">
        <ele>389</ele>
        <time>2025-05-09T18:21:39.000Z</time>
      </trkpt>
      <trkpt lat="49.02929" lon="7.89605">
        <ele>390</ele>
        <time>2025-05-09T18:21:44.000Z</time>
      </trkpt>
      <trkpt lat="49.02931" lon="7.89565">
        <ele>393</ele>
        <time>2025-05-09T18:22:03.000Z</time>
      </trkpt>
      <trkpt lat="49.02943" lon="7.89514">
        <ele>397</ele>
        <time>2025-05-09T18:22:30.000Z</time>
      </trkpt>
      <trkpt lat="49.02943" lon="7.89504">
        <ele>398</ele>
        <time>2025-05-09T18:22:36.000Z</time>
      </trkpt>
      <trkpt lat="49.02942" lon="7.89497">
        <ele>398</ele>
        <time>2025-05-09T18:22:40.000Z</time>
      </trkpt>
      <trkpt lat="49.02942" lon="7.89487">
        <ele>398</ele>
        <time>2025-05-09T18:22:45.000Z</time>
      </trkpt>
      <trkpt lat="49.02943" lon="7.8948">
        <ele>399</ele>
        <time>2025-05-09T18:22:53.000Z</time>
      </trkpt>
      <trkpt lat="49.02941" lon="7.89427">
        <ele>400</ele>
        <time>2025-05-09T18:23:22.000Z</time>
      </trkpt>
      <trkpt lat="49.02943" lon="7.89415">
        <ele>401</ele>
        <time>2025-05-09T18:23:27.000Z</time>
      </trkpt>
      <trkpt lat="49.02938" lon="7.89354">
        <ele>402</ele>
        <time>2025-05-09T18:23:52.000Z</time>
      </trkpt>
      <trkpt lat="49.02936" lon="7.89315">
        <ele>404</ele>
        <time>2025-05-09T18:24:09.000Z</time>
      </trkpt>
      <trkpt lat="49.02923" lon="7.89257">
        <ele>408</ele>
        <time>2025-05-09T18:24:40.000Z</time>
      </trkpt>
      <trkpt lat="49.02921" lon="7.8925">
        <ele>408</ele>
        <time>2025-05-09T18:24:44.000Z</time>
      </trkpt>
      <trkpt lat="49.02916" lon="7.89224">
        <ele>412</ele>
        <time>2025-05-09T18:25:04.000Z</time>
      </trkpt>
      <trkpt lat="49.02912" lon="7.89218">
        <ele>413</ele>
        <time>2025-05-09T18:25:09.000Z</time>
      </trkpt>
      <trkpt lat="49.02912" lon="7.89209">
        <ele>414</ele>
        <time>2025-05-09T18:25:12.000Z</time>
      </trkpt>
      <trkpt lat="49.02908" lon="7.89198">
        <ele>414</ele>
        <time>2025-05-09T18:25:18.000Z</time>
      </trkpt>
      <trkpt lat="49.02908" lon="7.89187">
        <ele>415</ele>
        <time>2025-05-09T18:25:23.000Z</time>
      </trkpt>
      <trkpt lat="49.02903" lon="7.89177">
        <ele>416</ele>
        <time>2025-05-09T18:25:29.000Z</time>
      </trkpt>
      <trkpt lat="49.02901" lon="7.89171">
        <ele>417</ele>
        <time>2025-05-09T18:25:33.000Z</time>
      </trkpt>
      <trkpt lat="49.02901" lon="7.89141">
        <ele>419</ele>
        <time>2025-05-09T18:25:49.000Z</time>
      </trkpt>
      <trkpt lat="49.0291" lon="7.89147">
        <ele>420</ele>
        <time>2025-05-09T18:25:53.000Z</time>
      </trkpt>
      <trkpt lat="49.02927" lon="7.89161">
        <ele>422</ele>
        <time>2025-05-09T18:26:08.000Z</time>
      </trkpt>
      <trkpt lat="49.02937" lon="7.89167">
        <ele>423</ele>
        <time>2025-05-09T18:26:13.000Z</time>
      </trkpt>
      <trkpt lat="49.02942" lon="7.89172">
        <ele>423</ele>
        <time>2025-05-09T18:26:18.000Z</time>
      </trkpt>
      <trkpt lat="49.02948" lon="7.8917">
        <ele>424</ele>
        <time>2025-05-09T18:26:24.000Z</time>
      </trkpt>
      <trkpt lat="49.02951" lon="7.89166">
        <ele>428</ele>
        <time>2025-05-09T18:26:50.000Z</time>
      </trkpt>
      <trkpt lat="49.02945" lon="7.89158">
        <ele>429</ele>
        <time>2025-05-09T18:26:55.000Z</time>
      </trkpt>
      <trkpt lat="49.02939" lon="7.89153">
        <ele>429</ele>
        <time>2025-05-09T18:26:57.000Z</time>
      </trkpt>
      <trkpt lat="49.02931" lon="7.89136">
        <ele>431</ele>
        <time>2025-05-09T18:27:07.000Z</time>
      </trkpt>
      <trkpt lat="49.02928" lon="7.89127">
        <ele>432</ele>
        <time>2025-05-09T18:27:14.000Z</time>
      </trkpt>
      <trkpt lat="49.02925" lon="7.89121">
        <ele>432</ele>
        <time>2025-05-09T18:27:17.000Z</time>
      </trkpt>
      <trkpt lat="49.02924" lon="7.89111">
        <ele>433</ele>
        <time>2025-05-09T18:27:23.000Z</time>
      </trkpt>
      <trkpt lat="49.02924" lon="7.891">
        <ele>434</ele>
        <time>2025-05-09T18:27:28.000Z</time>
      </trkpt>
      <trkpt lat="49.02925" lon="7.89092">
        <ele>435</ele>
        <time>2025-05-09T18:27:34.000Z</time>
      </trkpt>
      <trkpt lat="49.02911" lon="7.89047">
        <ele>442</ele>
        <time>2025-05-09T18:28:07.000Z</time>
      </trkpt>
      <trkpt lat="49.02909" lon="7.89039">
        <ele>442</ele>
        <time>2025-05-09T18:28:11.000Z</time>
      </trkpt>
      <trkpt lat="49.02904" lon="7.89033">
        <ele>443</ele>
        <time>2025-05-09T18:28:15.000Z</time>
      </trkpt>
      <trkpt lat="49.02897" lon="7.8903">
        <ele>444</ele>
        <time>2025-05-09T18:28:24.000Z</time>
      </trkpt>
      <trkpt lat="49.02892" lon="7.89003">
        <ele>446</ele>
        <time>2025-05-09T18:28:36.000Z</time>
      </trkpt>
      <trkpt lat="49.02887" lon="7.88991">
        <ele>447</ele>
        <time>2025-05-09T18:28:42.000Z</time>
      </trkpt>
      <trkpt lat="49.02887" lon="7.88985">
        <ele>448</ele>
        <time>2025-05-09T18:28:46.000Z</time>
      </trkpt>
      <trkpt lat="49.02881" lon="7.88972">
        <ele>449</ele>
        <time>2025-05-09T18:28:54.000Z</time>
      </trkpt>
      <trkpt lat="49.02878" lon="7.88963">
        <ele>449</ele>
        <time>2025-05-09T18:28:57.000Z</time>
      </trkpt>
      <trkpt lat="49.02875" lon="7.8895">
        <ele>450</ele>
        <time>2025-05-09T18:29:03.000Z</time>
      </trkpt>
      <trkpt lat="49.02888" lon="7.88959">
        <ele>454</ele>
        <time>2025-05-09T18:29:20.000Z</time>
      </trkpt>
      <trkpt lat="49.02894" lon="7.88964">
        <ele>455</ele>
        <time>2025-05-09T18:29:23.000Z</time>
      </trkpt>
      <trkpt lat="49.02917" lon="7.88966">
        <ele>457</ele>
        <time>2025-05-09T18:29:37.000Z</time>
      </trkpt>
      <trkpt lat="49.02946" lon="7.88998">
        <ele>462</ele>
        <time>2025-05-09T18:30:09.000Z</time>
      </trkpt>
      <trkpt lat="49.02963" lon="7.89012">
        <ele>465</ele>
        <time>2025-05-09T18:30:29.000Z</time>
      </trkpt>
      <trkpt lat="49.0297" lon="7.89009">
        <ele>466</ele>
        <time>2025-05-09T18:30:35.000Z</time>
      </trkpt>
      <trkpt lat="49.02967" lon="7.88999">
        <ele>468</ele>
        <time>2025-05-09T18:30:45.000Z</time>
      </trkpt>
      <trkpt lat="49.02959" lon="7.88995">
        <ele>469</ele>
        <time>2025-05-09T18:30:49.000Z</time>
      </trkpt>
      <trkpt lat="49.02963" lon="7.88981">
        <ele>470</ele>
        <time>2025-05-09T18:30:53.000Z</time>
      </trkpt>
      <trkpt lat="49.02949" lon="7.88971">
        <ele>473</ele>
        <time>2025-05-09T18:31:11.000Z</time>
      </trkpt>
      <trkpt lat="49.02938" lon="7.88945">
        <ele>475</ele>
        <time>2025-05-09T18:31:23.000Z</time>
      </trkpt>
      <trkpt lat="49.02936" lon="7.88924">
        <ele>477</ele>
        <time>2025-05-09T18:31:35.000Z</time>
      </trkpt>
      <trkpt lat="49.02925" lon="7.88896">
        <ele>479</ele>
        <time>2025-05-09T18:31:51.000Z</time>
      </trkpt>
      <trkpt lat="49.02922" lon="7.88889">
        <ele>480</ele>
        <time>2025-05-09T18:32:01.000Z</time>
      </trkpt>
      <trkpt lat="49.02911" lon="7.8886">
        <ele>482</ele>
        <time>2025-05-09T18:32:16.000Z</time>
      </trkpt>
      <trkpt lat="49.02909" lon="7.88847">
        <ele>483</ele>
        <time>2025-05-09T18:32:22.000Z</time>
      </trkpt>
      <trkpt lat="49.02905" lon="7.88839">
        <ele>484</ele>
        <time>2025-05-09T18:32:28.000Z</time>
      </trkpt>
      <trkpt lat="49.02902" lon="7.88832">
        <ele>484</ele>
        <time>2025-05-09T18:32:32.000Z</time>
      </trkpt>
      <trkpt lat="49.02903" lon="7.88821">
        <ele>485</ele>
        <time>2025-05-09T18:32:36.000Z</time>
      </trkpt>
      <trkpt lat="49.029" lon="7.88814">
        <ele>485</ele>
        <time>2025-05-09T18:32:39.000Z</time>
      </trkpt>
      <trkpt lat="49.02897" lon="7.88795">
        <ele>487</ele>
        <time>2025-05-09T18:32:50.000Z</time>
      </trkpt>
      <trkpt lat="49.02898" lon="7.8878">
        <ele>488</ele>
        <time>2025-05-09T18:32:55.000Z</time>
      </trkpt>
      <trkpt lat="49.02896" lon="7.88759">
        <ele>490</ele>
        <time>2025-05-09T18:33:12.000Z</time>
      </trkpt>
      <trkpt lat="49.02887" lon="7.88745">
        <ele>490</ele>
        <time>2025-05-09T18:33:23.000Z</time>
      </trkpt>
      <trkpt lat="49.02876" lon="7.88733">
        <ele>491</ele>
        <time>2025-05-09T18:33:32.000Z</time>
      </trkpt>
      <trkpt lat="49.02872" lon="7.88725">
        <ele>491</ele>
        <time>2025-05-09T18:33:36.000Z</time>
      </trkpt>
      <trkpt lat="49.02862" lon="7.88718">
        <ele>491</ele>
        <time>2025-05-09T18:33:45.000Z</time>
      </trkpt>
      <trkpt lat="49.0286" lon="7.88714">
        <ele>492</ele>
        <time>2025-05-09T18:33:50.000Z</time>
      </trkpt>
      <trkpt lat="49.02856" lon="7.88708">
        <ele>492</ele>
        <time>2025-05-09T18:33:54.000Z</time>
      </trkpt>
      <trkpt lat="49.02853" lon="7.88704">
        <ele>493</ele>
        <time>2025-05-09T18:33:58.000Z</time>
      </trkpt>
      <trkpt lat="49.02848" lon="7.88702">
        <ele>493</ele>
        <time>2025-05-09T18:34:01.000Z</time>
      </trkpt>
      <trkpt lat="49.02844" lon="7.88697">
        <ele>493</ele>
        <time>2025-05-09T18:34:05.000Z</time>
      </trkpt>
      <trkpt lat="49.0284" lon="7.88692">
        <ele>493</ele>
        <time>2025-05-09T18:34:09.000Z</time>
      </trkpt>
      <trkpt lat="49.0284" lon="7.88685">
        <ele>494</ele>
        <time>2025-05-09T18:34:12.000Z</time>
      </trkpt>
      <trkpt lat="49.02837" lon="7.88679">
        <ele>494</ele>
        <time>2025-05-09T18:34:16.000Z</time>
      </trkpt>
      <trkpt lat="49.02809" lon="7.88645">
        <ele>500</ele>
        <time>2025-05-09T18:34:48.000Z</time>
      </trkpt>
      <trkpt lat="49.02805" lon="7.88639">
        <ele>501</ele>
        <time>2025-05-09T18:34:52.000Z</time>
      </trkpt>
      <trkpt lat="49.02802" lon="7.88635">
        <ele>503</ele>
        <time>2025-05-09T18:34:56.000Z</time>
      </trkpt>
      <trkpt lat="49.02792" lon="7.88623">
        <ele>504</ele>
        <time>2025-05-09T18:35:06.000Z</time>
      </trkpt>
      <trkpt lat="49.02789" lon="7.88617">
        <ele>504</ele>
        <time>2025-05-09T18:35:09.000Z</time>
      </trkpt>
      <trkpt lat="49.02785" lon="7.88599">
        <ele>505</ele>
        <time>2025-05-09T18:35:17.000Z</time>
      </trkpt>
      <trkpt lat="49.02782" lon="7.88583">
        <ele>506</ele>
        <time>2025-05-09T18:35:24.000Z</time>
      </trkpt>
      <trkpt lat="49.0278" lon="7.88577">
        <ele>506</ele>
        <time>2025-05-09T18:35:27.000Z</time>
      </trkpt>
      <trkpt lat="49.02776" lon="7.88571">
        <ele>506</ele>
        <time>2025-05-09T18:35:30.000Z</time>
      </trkpt>
      <trkpt lat="49.0278" lon="7.88561">
        <ele>506</ele>
        <time>2025-05-09T18:35:46.000Z</time>
      </trkpt>
      <trkpt lat="49.02781" lon="7.88552">
        <ele>505</ele>
        <time>2025-05-09T18:35:48.000Z</time>
      </trkpt>
      <trkpt lat="49.02784" lon="7.88547">
        <ele>505</ele>
        <time>2025-05-09T18:35:53.000Z</time>
      </trkpt>
      <trkpt lat="49.02787" lon="7.88539">
        <ele>503</ele>
        <time>2025-05-09T18:35:59.000Z</time>
      </trkpt>
      <trkpt lat="49.02788" lon="7.88522">
        <ele>502</ele>
        <time>2025-05-09T18:36:08.000Z</time>
      </trkpt>
      <trkpt lat="49.02793" lon="7.885">
        <ele>499</ele>
        <time>2025-05-09T18:36:19.000Z</time>
      </trkpt>
      <trkpt lat="49.02794" lon="7.88462">
        <ele>495</ele>
        <time>2025-05-09T18:36:41.000Z</time>
      </trkpt>
      <trkpt lat="49.02785" lon="7.88415">
        <ele>491</ele>
        <time>2025-05-09T18:37:07.000Z</time>
      </trkpt>
      <trkpt lat="49.02774" lon="7.88383">
        <ele>487</ele>
        <time>2025-05-09T18:37:26.000Z</time>
      </trkpt>
      <trkpt lat="49.02757" lon="7.88359">
        <ele>483</ele>
        <time>2025-05-09T18:37:46.000Z</time>
      </trkpt>
      <trkpt lat="49.02747" lon="7.8835">
        <ele>481</ele>
        <time>2025-05-09T18:37:54.000Z</time>
      </trkpt>
      <trkpt lat="49.02738" lon="7.88346">
        <ele>480</ele>
        <time>2025-05-09T18:38:01.000Z</time>
      </trkpt>
      <trkpt lat="49.02733" lon="7.88345">
        <ele>479</ele>
        <time>2025-05-09T18:38:04.000Z</time>
      </trkpt>
      <trkpt lat="49.02703" lon="7.88354">
        <ele>474</ele>
        <time>2025-05-09T18:38:29.000Z</time>
      </trkpt>
      <trkpt lat="49.02686" lon="7.88366">
        <ele>471</ele>
        <time>2025-05-09T18:38:43.000Z</time>
      </trkpt>
      <trkpt lat="49.02653" lon="7.88415">
        <ele>465</ele>
        <time>2025-05-09T18:39:15.000Z</time>
      </trkpt>
      <trkpt lat="49.02648" lon="7.88426">
        <ele>465</ele>
        <time>2025-05-09T18:39:19.000Z</time>
      </trkpt>
      <trkpt lat="49.02642" lon="7.88435">
        <ele>463</ele>
        <time>2025-05-09T18:39:26.000Z</time>
      </trkpt>
      <trkpt lat="49.0264" lon="7.88441">
        <ele>463</ele>
        <time>2025-05-09T18:39:30.000Z</time>
      </trkpt>
      <trkpt lat="49.02614" lon="7.88489">
        <ele>457</ele>
        <time>2025-05-09T18:39:59.000Z</time>
      </trkpt>
      <trkpt lat="49.02608" lon="7.88497">
        <ele>456</ele>
        <time>2025-05-09T18:40:05.000Z</time>
      </trkpt>
      <trkpt lat="49.02604" lon="7.88506">
        <ele>455</ele>
        <time>2025-05-09T18:40:11.000Z</time>
      </trkpt>
      <trkpt lat="49.02598" lon="7.88534">
        <ele>452</ele>
        <time>2025-05-09T18:40:24.000Z</time>
      </trkpt>
      <trkpt lat="49.02589" lon="7.88541">
        <ele>451</ele>
        <time>2025-05-09T18:40:28.000Z</time>
      </trkpt>
      <trkpt lat="49.0258" lon="7.88537">
        <ele>451</ele>
        <time>2025-05-09T18:40:32.000Z</time>
      </trkpt>
      <trkpt lat="49.02574" lon="7.88536">
        <ele>450</ele>
        <time>2025-05-09T18:40:34.000Z</time>
      </trkpt>
      <trkpt lat="49.02568" lon="7.88533">
        <ele>449</ele>
        <time>2025-05-09T18:40:40.000Z</time>
      </trkpt>
      <trkpt lat="49.02556" lon="7.88539">
        <ele>448</ele>
        <time>2025-05-09T18:40:46.000Z</time>
      </trkpt>
      <trkpt lat="49.02547" lon="7.88541">
        <ele>446</ele>
        <time>2025-05-09T18:40:55.000Z</time>
      </trkpt>
      <trkpt lat="49.02542" lon="7.88542">
        <ele>446</ele>
        <time>2025-05-09T18:40:59.000Z</time>
      </trkpt>
      <trkpt lat="49.02498" lon="7.88543">
        <ele>441</ele>
        <time>2025-05-09T18:41:27.000Z</time>
      </trkpt>
      <trkpt lat="49.02497" lon="7.88533">
        <ele>437</ele>
        <time>2025-05-09T18:41:39.000Z</time>
      </trkpt>
      <trkpt lat="49.02491" lon="7.88517">
        <ele>435</ele>
        <time>2025-05-09T18:41:47.000Z</time>
      </trkpt>
      <trkpt lat="49.02493" lon="7.88506">
        <ele>433</ele>
        <time>2025-05-09T18:41:52.000Z</time>
      </trkpt>
      <trkpt lat="49.02498" lon="7.88507">
        <ele>432</ele>
        <time>2025-05-09T18:41:55.000Z</time>
      </trkpt>
      <trkpt lat="49.02502" lon="7.88504">
        <ele>432</ele>
        <time>2025-05-09T18:41:57.000Z</time>
      </trkpt>
      <trkpt lat="49.02507" lon="7.88504">
        <ele>431</ele>
        <time>2025-05-09T18:41:59.000Z</time>
      </trkpt>
      <trkpt lat="49.02501" lon="7.88493">
        <ele>429</ele>
        <time>2025-05-09T18:42:09.000Z</time>
      </trkpt>
      <trkpt lat="49.02495" lon="7.88491">
        <ele>428</ele>
        <time>2025-05-09T18:42:11.000Z</time>
      </trkpt>
      <trkpt lat="49.0249" lon="7.88493">
        <ele>428</ele>
        <time>2025-05-09T18:42:15.000Z</time>
      </trkpt>
      <trkpt lat="49.0248" lon="7.88489">
        <ele>427</ele>
        <time>2025-05-09T18:42:23.000Z</time>
      </trkpt>
      <trkpt lat="49.0246" lon="7.88477">
        <ele>427</ele>
        <time>2025-05-09T18:42:38.000Z</time>
      </trkpt>
      <trkpt lat="49.02457" lon="7.88469">
        <ele>426</ele>
        <time>2025-05-09T18:42:44.000Z</time>
      </trkpt>
      <trkpt lat="49.0245" lon="7.88448">
        <ele>424</ele>
        <time>2025-05-09T18:42:55.000Z</time>
      </trkpt>
      <trkpt lat="49.0245" lon="7.8844">
        <ele>423</ele>
        <time>2025-05-09T18:42:58.000Z</time>
      </trkpt>
      <trkpt lat="49.02441" lon="7.88413">
        <ele>420</ele>
        <time>2025-05-09T18:43:12.000Z</time>
      </trkpt>
      <trkpt lat="49.0243" lon="7.88396">
        <ele>418</ele>
        <time>2025-05-09T18:43:22.000Z</time>
      </trkpt>
      <trkpt lat="49.02427" lon="7.8839">
        <ele>418</ele>
        <time>2025-05-09T18:43:26.000Z</time>
      </trkpt>
      <trkpt lat="49.02418" lon="7.88373">
        <ele>417</ele>
        <time>2025-05-09T18:43:35.000Z</time>
      </trkpt>
      <trkpt lat="49.02405" lon="7.88322">
        <ele>413</ele>
        <time>2025-05-09T18:43:54.000Z</time>
      </trkpt>
      <trkpt lat="49.02405" lon="7.88312">
        <ele>412</ele>
        <time>2025-05-09T18:44:01.000Z</time>
      </trkpt>
      <trkpt lat="49.02393" lon="7.88273">
        <ele>411</ele>
        <time>2025-05-09T18:44:18.000Z</time>
      </trkpt>
      <trkpt lat="49.02376" lon="7.88239">
        <ele>408</ele>
        <time>2025-05-09T18:44:39.000Z</time>
      </trkpt>
      <trkpt lat="49.02374" lon="7.88224">
        <ele>407</ele>
        <time>2025-05-09T18:44:44.000Z</time>
      </trkpt>
      <trkpt lat="49.02375" lon="7.88214">
        <ele>407</ele>
        <time>2025-05-09T18:44:50.000Z</time>
      </trkpt>
      <trkpt lat="49.02372" lon="7.88199">
        <ele>406</ele>
        <time>2025-05-09T18:44:55.000Z</time>
      </trkpt>
      <trkpt lat="49.02376" lon="7.88173">
        <ele>406</ele>
        <time>2025-05-09T18:45:06.000Z</time>
      </trkpt>
      <trkpt lat="49.02375" lon="7.88159">
        <ele>405</ele>
        <time>2025-05-09T18:45:11.000Z</time>
      </trkpt>
      <trkpt lat="49.02369" lon="7.8815">
        <ele>404</ele>
        <time>2025-05-09T18:45:18.000Z</time>
      </trkpt>
      <trkpt lat="49.02367" lon="7.88132">
        <ele>403</ele>
        <time>2025-05-09T18:45:25.000Z</time>
      </trkpt>
      <trkpt lat="49.0236" lon="7.88115">
        <ele>402</ele>
        <time>2025-05-09T18:45:34.000Z</time>
      </trkpt>
      <trkpt lat="49.0236" lon="7.88104">
        <ele>402</ele>
        <time>2025-05-09T18:45:37.000Z</time>
      </trkpt>
      <trkpt lat="49.02356" lon="7.88086">
        <ele>400</ele>
        <time>2025-05-09T18:45:49.000Z</time>
      </trkpt>
      <trkpt lat="49.02357" lon="7.88074">
        <ele>400</ele>
        <time>2025-05-09T18:45:51.000Z</time>
      </trkpt>
      <trkpt lat="49.02358" lon="7.8806">
        <ele>398</ele>
        <time>2025-05-09T18:45:58.000Z</time>
      </trkpt>
      <trkpt lat="49.02354" lon="7.88033">
        <ele>397</ele>
        <time>2025-05-09T18:46:13.000Z</time>
      </trkpt>
      <trkpt lat="49.02351" lon="7.88007">
        <ele>397</ele>
        <time>2025-05-09T18:46:25.000Z</time>
      </trkpt>
      <trkpt lat="49.02351" lon="7.87946">
        <ele>397</ele>
        <time>2025-05-09T18:46:52.000Z</time>
      </trkpt>
      <trkpt lat="49.02354" lon="7.87915">
        <ele>397</ele>
        <time>2025-05-09T18:47:05.000Z</time>
      </trkpt>
      <trkpt lat="49.02358" lon="7.87898">
        <ele>397</ele>
        <time>2025-05-09T18:47:13.000Z</time>
      </trkpt>
      <trkpt lat="49.0235" lon="7.87875">
        <ele>396</ele>
        <time>2025-05-09T18:47:24.000Z</time>
      </trkpt>
      <trkpt lat="49.02352" lon="7.8786">
        <ele>396</ele>
        <time>2025-05-09T18:47:29.000Z</time>
      </trkpt>
      <trkpt lat="49.0235" lon="7.8783">
        <ele>395</ele>
        <time>2025-05-09T18:47:42.000Z</time>
      </trkpt>
      <trkpt lat="49.02352" lon="7.87821">
        <ele>394</ele>
        <time>2025-05-09T18:47:46.000Z</time>
      </trkpt>
      <trkpt lat="49.02352" lon="7.87813">
        <ele>394</ele>
        <time>2025-05-09T18:47:48.000Z</time>
      </trkpt>
      <trkpt lat="49.02351" lon="7.87806">
        <ele>393</ele>
        <time>2025-05-09T18:47:52.000Z</time>
      </trkpt>
      <trkpt lat="49.02351" lon="7.87799">
        <ele>393</ele>
        <time>2025-05-09T18:47:55.000Z</time>
      </trkpt>
      <trkpt lat="49.02353" lon="7.87793">
        <ele>392</ele>
        <time>2025-05-09T18:47:58.000Z</time>
      </trkpt>
      <trkpt lat="49.02352" lon="7.87786">
        <ele>392</ele>
        <time>2025-05-09T18:48:02.000Z</time>
      </trkpt>
      <trkpt lat="49.02349" lon="7.87779">
        <ele>391</ele>
        <time>2025-05-09T18:48:07.000Z</time>
      </trkpt>
      <trkpt lat="49.02348" lon="7.8777">
        <ele>390</ele>
        <time>2025-05-09T18:48:11.000Z</time>
      </trkpt>
      <trkpt lat="49.02346" lon="7.87766">
        <ele>389</ele>
        <time>2025-05-09T18:48:14.000Z</time>
      </trkpt>
      <trkpt lat="49.02343" lon="7.87759">
        <ele>388</ele>
        <time>2025-05-09T18:48:18.000Z</time>
      </trkpt>
      <trkpt lat="49.02341" lon="7.87743">
        <ele>387</ele>
        <time>2025-05-09T18:48:25.000Z</time>
      </trkpt>
      <trkpt lat="49.02339" lon="7.87737">
        <ele>387</ele>
        <time>2025-05-09T18:48:29.000Z</time>
      </trkpt>
      <trkpt lat="49.02334" lon="7.87725">
        <ele>386</ele>
        <time>2025-05-09T18:48:36.000Z</time>
      </trkpt>
      <trkpt lat="49.02333" lon="7.87716">
        <ele>385</ele>
        <time>2025-05-09T18:48:39.000Z</time>
      </trkpt>
      <trkpt lat="49.0233" lon="7.87709">
        <ele>385</ele>
        <time>2025-05-09T18:48:42.000Z</time>
      </trkpt>
      <trkpt lat="49.02327" lon="7.87703">
        <ele>385</ele>
        <time>2025-05-09T18:48:45.000Z</time>
      </trkpt>
      <trkpt lat="49.02322" lon="7.87679">
        <ele>384</ele>
        <time>2025-05-09T18:48:56.000Z</time>
      </trkpt>
      <trkpt lat="49.02312" lon="7.87665">
        <ele>383</ele>
        <time>2025-05-09T18:49:06.000Z</time>
      </trkpt>
      <trkpt lat="49.02303" lon="7.87649">
        <ele>381</ele>
        <time>2025-05-09T18:49:19.000Z</time>
      </trkpt>
      <trkpt lat="49.02299" lon="7.87631">
        <ele>381</ele>
        <time>2025-05-09T18:49:26.000Z</time>
      </trkpt>
      <trkpt lat="49.02294" lon="7.87628">
        <ele>380</ele>
        <time>2025-05-09T18:49:28.000Z</time>
      </trkpt>
      <trkpt lat="49.02291" lon="7.87623">
        <ele>380</ele>
        <time>2025-05-09T18:49:30.000Z</time>
      </trkpt>
      <trkpt lat="49.0228" lon="7.87622">
        <ele>379</ele>
        <time>2025-05-09T18:49:36.000Z</time>
      </trkpt>
      <trkpt lat="49.02272" lon="7.87616">
        <ele>377</ele>
        <time>2025-05-09T18:49:42.000Z</time>
      </trkpt>
      <trkpt lat="49.02268" lon="7.87611">
        <ele>376</ele>
        <time>2025-05-09T18:49:46.000Z</time>
      </trkpt>
      <trkpt lat="49.02264" lon="7.87602">
        <ele>375</ele>
        <time>2025-05-09T18:49:50.000Z</time>
      </trkpt>
      <trkpt lat="49.02255" lon="7.87599">
        <ele>374</ele>
        <time>2025-05-09T18:49:55.000Z</time>
      </trkpt>
      <trkpt lat="49.02242" lon="7.87579">
        <ele>374</ele>
        <time>2025-05-09T18:50:09.000Z</time>
      </trkpt>
      <trkpt lat="49.02243" lon="7.87567">
        <ele>374</ele>
        <time>2025-05-09T18:50:12.000Z</time>
      </trkpt>
      <trkpt lat="49.02241" lon="7.8756">
        <ele>374</ele>
        <time>2025-05-09T18:50:15.000Z</time>
      </trkpt>
      <trkpt lat="49.02241" lon="7.87552">
        <ele>374</ele>
        <time>2025-05-09T18:50:20.000Z</time>
      </trkpt>
      <trkpt lat="49.02242" lon="7.87543">
        <ele>374</ele>
        <time>2025-05-09T18:50:24.000Z</time>
      </trkpt>
      <trkpt lat="49.02241" lon="7.87528">
        <ele>374</ele>
        <time>2025-05-09T18:50:31.000Z</time>
      </trkpt>
      <trkpt lat="49.0224" lon="7.87521">
        <ele>373</ele>
        <time>2025-05-09T18:50:35.000Z</time>
      </trkpt>
      <trkpt lat="49.02241" lon="7.87514">
        <ele>374</ele>
        <time>2025-05-09T18:50:39.000Z</time>
      </trkpt>
      <trkpt lat="49.02243" lon="7.87506">
        <ele>374</ele>
        <time>2025-05-09T18:50:43.000Z</time>
      </trkpt>
      <trkpt lat="49.02241" lon="7.87498">
        <ele>374</ele>
        <time>2025-05-09T18:50:47.000Z</time>
      </trkpt>
      <trkpt lat="49.02239" lon="7.87486">
        <ele>374</ele>
        <time>2025-05-09T18:50:52.000Z</time>
      </trkpt>
      <trkpt lat="49.02225" lon="7.87437">
        <ele>374</ele>
        <time>2025-05-09T18:51:13.000Z</time>
      </trkpt>
      <trkpt lat="49.02219" lon="7.87391">
        <ele>373</ele>
        <time>2025-05-09T18:51:36.000Z</time>
      </trkpt>
      <trkpt lat="49.02227" lon="7.87358">
        <ele>373</ele>
        <time>2025-05-09T18:51:46.000Z</time>
      </trkpt>
      <trkpt lat="49.02231" lon="7.87349">
        <ele>373</ele>
        <time>2025-05-09T18:51:50.000Z</time>
      </trkpt>
      <trkpt lat="49.02232" lon="7.87341">
        <ele>373</ele>
        <time>2025-05-09T18:51:54.000Z</time>
      </trkpt>
      <trkpt lat="49.02238" lon="7.87332">
        <ele>373</ele>
        <time>2025-05-09T18:51:59.000Z</time>
      </trkpt>
      <trkpt lat="49.02249" lon="7.87324">
        <ele>373</ele>
        <time>2025-05-09T18:52:07.000Z</time>
      </trkpt>
      <trkpt lat="49.02249" lon="7.87315">
        <ele>373</ele>
        <time>2025-05-09T18:52:10.000Z</time>
      </trkpt>
      <trkpt lat="49.02246" lon="7.87308">
        <ele>373</ele>
        <time>2025-05-09T18:52:12.000Z</time>
      </trkpt>
      <trkpt lat="49.02247" lon="7.87301">
        <ele>373</ele>
        <time>2025-05-09T18:52:16.000Z</time>
      </trkpt>
      <trkpt lat="49.02263" lon="7.87262">
        <ele>372</ele>
        <time>2025-05-09T18:52:35.000Z</time>
      </trkpt>
      <trkpt lat="49.02266" lon="7.87248">
        <ele>372</ele>
        <time>2025-05-09T18:52:42.000Z</time>
      </trkpt>
      <trkpt lat="49.02269" lon="7.87242">
        <ele>372</ele>
        <time>2025-05-09T18:52:45.000Z</time>
      </trkpt>
      <trkpt lat="49.02269" lon="7.87234">
        <ele>371</ele>
        <time>2025-05-09T18:52:48.000Z</time>
      </trkpt>
      <trkpt lat="49.02273" lon="7.87229">
        <ele>371</ele>
        <time>2025-05-09T18:52:52.000Z</time>
      </trkpt>
      <trkpt lat="49.02274" lon="7.87221">
        <ele>371</ele>
        <time>2025-05-09T18:52:56.000Z</time>
      </trkpt>
      <trkpt lat="49.02278" lon="7.87173">
        <ele>370</ele>
        <time>2025-05-09T18:53:16.000Z</time>
      </trkpt>
      <trkpt lat="49.0228" lon="7.87163">
        <ele>370</ele>
        <time>2025-05-09T18:53:22.000Z</time>
      </trkpt>
      <trkpt lat="49.02284" lon="7.87155">
        <ele>370</ele>
        <time>2025-05-09T18:53:25.000Z</time>
      </trkpt>
      <trkpt lat="49.02285" lon="7.87146">
        <ele>369</ele>
        <time>2025-05-09T18:53:31.000Z</time>
      </trkpt>
      <trkpt lat="49.02293" lon="7.87125">
        <ele>369</ele>
        <time>2025-05-09T18:53:38.000Z</time>
      </trkpt>
      <trkpt lat="49.02294" lon="7.8711">
        <ele>369</ele>
        <time>2025-05-09T18:53:43.000Z</time>
      </trkpt>
      <trkpt lat="49.02292" lon="7.87104">
        <ele>368</ele>
        <time>2025-05-09T18:53:47.000Z</time>
      </trkpt>
      <trkpt lat="49.02291" lon="7.87095">
        <ele>368</ele>
        <time>2025-05-09T18:53:51.000Z</time>
      </trkpt>
      <trkpt lat="49.02291" lon="7.87065">
        <ele>367</ele>
        <time>2025-05-09T18:54:06.000Z</time>
      </trkpt>
      <trkpt lat="49.02287" lon="7.87052">
        <ele>367</ele>
        <time>2025-05-09T18:54:14.000Z</time>
      </trkpt>
      <trkpt lat="49.02287" lon="7.87043">
        <ele>367</ele>
        <time>2025-05-09T18:54:18.000Z</time>
      </trkpt>
      <trkpt lat="49.02287" lon="7.87036">
        <ele>366</ele>
        <time>2025-05-09T18:54:21.000Z</time>
      </trkpt>
      <trkpt lat="49.02286" lon="7.87028">
        <ele>366</ele>
        <time>2025-05-09T18:54:25.000Z</time>
      </trkpt>
      <trkpt lat="49.02279" lon="7.86972">
        <ele>366</ele>
        <time>2025-05-09T18:54:53.000Z</time>
      </trkpt>
      <trkpt lat="49.0227" lon="7.86959">
        <ele>365</ele>
        <time>2025-05-09T18:55:02.000Z</time>
      </trkpt>
      <trkpt lat="49.02268" lon="7.86949">
        <ele>365</ele>
        <time>2025-05-09T18:55:07.000Z</time>
      </trkpt>
      <trkpt lat="49.02264" lon="7.86938">
        <ele>365</ele>
        <time>2025-05-09T18:55:12.000Z</time>
      </trkpt>
      <trkpt lat="49.02223" lon="7.86901">
        <ele>364</ele>
        <time>2025-05-09T18:55:41.000Z</time>
      </trkpt>
      <trkpt lat="49.02212" lon="7.86897">
        <ele>363</ele>
        <time>2025-05-09T18:55:53.000Z</time>
      </trkpt>
      <trkpt lat="49.02198" lon="7.86871">
        <ele>362</ele>
        <time>2025-05-09T18:56:04.000Z</time>
      </trkpt>
      <trkpt lat="49.02183" lon="7.86851">
        <ele>361</ele>
        <time>2025-05-09T18:56:15.000Z</time>
      </trkpt>
      <trkpt lat="49.02173" lon="7.86848">
        <ele>361</ele>
        <time>2025-05-09T18:56:22.000Z</time>
      </trkpt>
      <trkpt lat="49.02163" lon="7.86846">
        <ele>361</ele>
        <time>2025-05-09T18:56:31.000Z</time>
      </trkpt>
      <trkpt lat="49.02144" lon="7.86835">
        <ele>360</ele>
        <time>2025-05-09T18:56:41.000Z</time>
      </trkpt>
      <trkpt lat="49.02139" lon="7.86827">
        <ele>359</ele>
        <time>2025-05-09T18:56:44.000Z</time>
      </trkpt>
      <trkpt lat="49.02147" lon="7.86816">
        <ele>359</ele>
        <time>2025-05-09T18:56:45.000Z</time>
      </trkpt>
      <trkpt lat="49.0214" lon="7.86813">
        <ele>359</ele>
        <time>2025-05-09T18:56:51.000Z</time>
      </trkpt>
      <trkpt lat="49.02135" lon="7.86813">
        <ele>358</ele>
        <time>2025-05-09T18:56:53.000Z</time>
      </trkpt>
      <trkpt lat="49.02111" lon="7.86806">
        <ele>356</ele>
        <time>2025-05-09T18:57:10.000Z</time>
      </trkpt>
      <trkpt lat="49.02106" lon="7.86803">
        <ele>355</ele>
        <time>2025-05-09T18:57:14.000Z</time>
      </trkpt>
      <trkpt lat="49.02101" lon="7.86802">
        <ele>355</ele>
        <time>2025-05-09T18:57:17.000Z</time>
      </trkpt>
      <trkpt lat="49.02089" lon="7.8679">
        <ele>354</ele>
        <time>2025-05-09T18:57:27.000Z</time>
      </trkpt>
      <trkpt lat="49.02078" lon="7.8677">
        <ele>353</ele>
        <time>2025-05-09T18:57:38.000Z</time>
      </trkpt>
      <trkpt lat="49.02076" lon="7.86755">
        <ele>353</ele>
        <time>2025-05-09T18:57:45.000Z</time>
      </trkpt>
      <trkpt lat="49.02073" lon="7.86741">
        <ele>352</ele>
        <time>2025-05-09T18:57:52.000Z</time>
      </trkpt>
      <trkpt lat="49.02076" lon="7.86734">
        <ele>353</ele>
        <time>2025-05-09T18:57:56.000Z</time>
      </trkpt>
      <trkpt lat="49.02078" lon="7.86726">
        <ele>353</ele>
        <time>2025-05-09T18:57:59.000Z</time>
      </trkpt>
      <trkpt lat="49.02081" lon="7.86717">
        <ele>353</ele>
        <time>2025-05-09T18:58:02.000Z</time>
      </trkpt>
      <trkpt lat="49.02082" lon="7.86707">
        <ele>353</ele>
        <time>2025-05-09T18:58:05.000Z</time>
      </trkpt>
      <trkpt lat="49.02088" lon="7.8669">
        <ele>354</ele>
        <time>2025-05-09T18:58:11.000Z</time>
      </trkpt>
      <trkpt lat="49.02093" lon="7.86683">
        <ele>354</ele>
        <time>2025-05-09T18:58:14.000Z</time>
      </trkpt>
      <trkpt lat="49.02096" lon="7.86674">
        <ele>354</ele>
        <time>2025-05-09T18:58:19.000Z</time>
      </trkpt>
      <trkpt lat="49.02101" lon="7.86666">
        <ele>355</ele>
        <time>2025-05-09T18:58:23.000Z</time>
      </trkpt>
      <trkpt lat="49.02104" lon="7.86656">
        <ele>355</ele>
        <time>2025-05-09T18:58:27.000Z</time>
      </trkpt>
      <trkpt lat="49.02105" lon="7.86644">
        <ele>355</ele>
        <time>2025-05-09T18:58:31.000Z</time>
      </trkpt>
      <trkpt lat="49.02106" lon="7.86637">
        <ele>355</ele>
        <time>2025-05-09T18:58:34.000Z</time>
      </trkpt>
      <trkpt lat="49.02117" lon="7.86601">
        <ele>354</ele>
        <time>2025-05-09T18:58:54.000Z</time>
      </trkpt>
      <trkpt lat="49.02122" lon="7.86595">
        <ele>354</ele>
        <time>2025-05-09T18:58:58.000Z</time>
      </trkpt>
      <trkpt lat="49.02125" lon="7.86586">
        <ele>354</ele>
        <time>2025-05-09T18:59:03.000Z</time>
      </trkpt>
      <trkpt lat="49.02134" lon="7.86566">
        <ele>354</ele>
        <time>2025-05-09T18:59:13.000Z</time>
      </trkpt>
      <trkpt lat="49.02136" lon="7.86558">
        <ele>354</ele>
        <time>2025-05-09T18:59:16.000Z</time>
      </trkpt>
      <trkpt lat="49.02142" lon="7.86538">
        <ele>354</ele>
        <time>2025-05-09T18:59:25.000Z</time>
      </trkpt>
      <trkpt lat="49.02147" lon="7.86531">
        <ele>354</ele>
        <time>2025-05-09T18:59:29.000Z</time>
      </trkpt>
      <trkpt lat="49.02153" lon="7.86528">
        <ele>355</ele>
        <time>2025-05-09T18:59:34.000Z</time>
      </trkpt>
      <trkpt lat="49.0216" lon="7.8652">
        <ele>355</ele>
        <time>2025-05-09T18:59:40.000Z</time>
      </trkpt>
      <trkpt lat="49.02163" lon="7.8651">
        <ele>355</ele>
        <time>2025-05-09T18:59:45.000Z</time>
      </trkpt>
      <trkpt lat="49.02163" lon="7.86502">
        <ele>356</ele>
        <time>2025-05-09T18:59:49.000Z</time>
      </trkpt>
      <trkpt lat="49.02166" lon="7.86493">
        <ele>356</ele>
        <time>2025-05-09T18:59:53.000Z</time>
      </trkpt>
      <trkpt lat="49.0217" lon="7.86476">
        <ele>356</ele>
        <time>2025-05-09T19:00:00.000Z</time>
      </trkpt>
      <trkpt lat="49.02173" lon="7.8647">
        <ele>356</ele>
        <time>2025-05-09T19:00:03.000Z</time>
      </trkpt>
      <trkpt lat="49.02172" lon="7.86453">
        <ele>357</ele>
        <time>2025-05-09T19:00:13.000Z</time>
      </trkpt>
      <trkpt lat="49.02169" lon="7.86428">
        <ele>357</ele>
        <time>2025-05-09T19:00:25.000Z</time>
      </trkpt>
      <trkpt lat="49.02168" lon="7.86418">
        <ele>358</ele>
        <time>2025-05-09T19:00:30.000Z</time>
      </trkpt>
      <trkpt lat="49.02168" lon="7.8641">
        <ele>357</ele>
        <time>2025-05-09T19:00:32.000Z</time>
      </trkpt>
      <trkpt lat="49.02165" lon="7.86397">
        <ele>358</ele>
        <time>2025-05-09T19:00:38.000Z</time>
      </trkpt>
      <trkpt lat="49.02164" lon="7.86391">
        <ele>358</ele>
        <time>2025-05-09T19:00:42.000Z</time>
      </trkpt>
      <trkpt lat="49.02159" lon="7.86388">
        <ele>359</ele>
        <time>2025-05-09T19:00:47.000Z</time>
      </trkpt>
      <trkpt lat="49.0217" lon="7.86391">
        <ele>358</ele>
        <time>2025-05-09T19:00:54.000Z</time>
      </trkpt>
      <trkpt lat="49.02175" lon="7.8639">
        <ele>358</ele>
        <time>2025-05-09T19:00:57.000Z</time>
      </trkpt>
      <trkpt lat="49.0218" lon="7.86388">
        <ele>357</ele>
        <time>2025-05-09T19:01:00.000Z</time>
      </trkpt>
      <trkpt lat="49.02181" lon="7.86365">
        <ele>357</ele>
        <time>2025-05-09T19:01:12.000Z</time>
      </trkpt>
      <trkpt lat="49.0218" lon="7.86358">
        <ele>357</ele>
        <time>2025-05-09T19:01:15.000Z</time>
      </trkpt>
      <trkpt lat="49.02176" lon="7.86347">
        <ele>356</ele>
        <time>2025-05-09T19:01:22.000Z</time>
      </trkpt>
      <trkpt lat="49.02173" lon="7.86342">
        <ele>356</ele>
        <time>2025-05-09T19:01:26.000Z</time>
      </trkpt>
      <trkpt lat="49.02171" lon="7.86336">
        <ele>356</ele>
        <time>2025-05-09T19:01:30.000Z</time>
      </trkpt>
      <trkpt lat="49.02168" lon="7.8633">
        <ele>356</ele>
        <time>2025-05-09T19:01:33.000Z</time>
      </trkpt>
      <trkpt lat="49.02166" lon="7.86322">
        <ele>356</ele>
        <time>2025-05-09T19:01:37.000Z</time>
      </trkpt>
      <trkpt lat="49.02165" lon="7.86316">
        <ele>356</ele>
        <time>2025-05-09T19:01:40.000Z</time>
      </trkpt>
      <trkpt lat="49.02163" lon="7.86308">
        <ele>356</ele>
        <time>2025-05-09T19:01:45.000Z</time>
      </trkpt>
      <trkpt lat="49.0216" lon="7.86301">
        <ele>356</ele>
        <time>2025-05-09T19:01:48.000Z</time>
      </trkpt>
      <trkpt lat="49.0216" lon="7.86292">
        <ele>355</ele>
        <time>2025-05-09T19:01:52.000Z</time>
      </trkpt>
      <trkpt lat="49.02148" lon="7.8626">
        <ele>354</ele>
        <time>2025-05-09T19:02:08.000Z</time>
      </trkpt>
      <trkpt lat="49.02143" lon="7.86251">
        <ele>354</ele>
        <time>2025-05-09T19:02:12.000Z</time>
      </trkpt>
      <trkpt lat="49.02138" lon="7.86245">
        <ele>353</ele>
        <time>2025-05-09T19:02:17.000Z</time>
      </trkpt>
      <trkpt lat="49.02132" lon="7.86235">
        <ele>353</ele>
        <time>2025-05-09T19:02:22.000Z</time>
      </trkpt>
      <trkpt lat="49.02127" lon="7.86233">
        <ele>353</ele>
        <time>2025-05-09T19:02:26.000Z</time>
      </trkpt>
      <trkpt lat="49.02122" lon="7.86229">
        <ele>352</ele>
        <time>2025-05-09T19:02:29.000Z</time>
      </trkpt>
      <trkpt lat="49.02107" lon="7.86202">
        <ele>351</ele>
        <time>2025-05-09T19:02:41.000Z</time>
      </trkpt>
      <trkpt lat="49.02107" lon="7.86192">
        <ele>350</ele>
        <time>2025-05-09T19:02:45.000Z</time>
      </trkpt>
      <trkpt lat="49.02098" lon="7.86172">
        <ele>349</ele>
        <time>2025-05-09T19:02:57.000Z</time>
      </trkpt>
      <trkpt lat="49.02093" lon="7.86161">
        <ele>349</ele>
        <time>2025-05-09T19:03:01.000Z</time>
      </trkpt>
      <trkpt lat="49.02089" lon="7.86151">
        <ele>348</ele>
        <time>2025-05-09T19:03:05.000Z</time>
      </trkpt>
      <trkpt lat="49.02079" lon="7.86134">
        <ele>347</ele>
        <time>2025-05-09T19:03:13.000Z</time>
      </trkpt>
      <trkpt lat="49.02075" lon="7.86125">
        <ele>346</ele>
        <time>2025-05-09T19:03:19.000Z</time>
      </trkpt>
      <trkpt lat="49.02069" lon="7.86102">
        <ele>345</ele>
        <time>2025-05-09T19:03:31.000Z</time>
      </trkpt>
      <trkpt lat="49.02073" lon="7.86091">
        <ele>344</ele>
        <time>2025-05-09T19:03:37.000Z</time>
      </trkpt>
      <trkpt lat="49.02067" lon="7.86069">
        <ele>343</ele>
        <time>2025-05-09T19:03:45.000Z</time>
      </trkpt>
      <trkpt lat="49.02064" lon="7.86053">
        <ele>341</ele>
        <time>2025-05-09T19:03:53.000Z</time>
      </trkpt>
      <trkpt lat="49.02058" lon="7.86045">
        <ele>339</ele>
        <time>2025-05-09T19:04:00.000Z</time>
      </trkpt>
      <trkpt lat="49.02047" lon="7.86029">
        <ele>340</ele>
        <time>2025-05-09T19:04:08.000Z</time>
      </trkpt>
      <trkpt lat="49.02045" lon="7.86016">
        <ele>340</ele>
        <time>2025-05-09T19:04:15.000Z</time>
      </trkpt>
      <trkpt lat="49.02034" lon="7.8599">
        <ele>338</ele>
        <time>2025-05-09T19:04:29.000Z</time>
      </trkpt>
      <trkpt lat="49.02025" lon="7.85957">
        <ele>337</ele>
        <time>2025-05-09T19:04:42.000Z</time>
      </trkpt>
      <trkpt lat="49.02018" lon="7.85951">
        <ele>337</ele>
        <time>2025-05-09T19:04:48.000Z</time>
      </trkpt>
      <trkpt lat="49.02006" lon="7.85915">
        <ele>336</ele>
        <time>2025-05-09T19:05:03.000Z</time>
      </trkpt>
      <trkpt lat="49.02001" lon="7.85906">
        <ele>337</ele>
        <time>2025-05-09T19:05:07.000Z</time>
      </trkpt>
      <trkpt lat="49.01997" lon="7.85896">
        <ele>336</ele>
        <time>2025-05-09T19:05:16.000Z</time>
      </trkpt>
      <trkpt lat="49.01992" lon="7.8589">
        <ele>336</ele>
        <time>2025-05-09T19:05:22.000Z</time>
      </trkpt>
      <trkpt lat="49.01992" lon="7.85883">
        <ele>336</ele>
        <time>2025-05-09T19:05:25.000Z</time>
      </trkpt>
      <trkpt lat="49.0199" lon="7.85875">
        <ele>336</ele>
        <time>2025-05-09T19:05:28.000Z</time>
      </trkpt>
      <trkpt lat="49.0199" lon="7.85867">
        <ele>336</ele>
        <time>2025-05-09T19:05:32.000Z</time>
      </trkpt>
      <trkpt lat="49.0199" lon="7.85851">
        <ele>336</ele>
        <time>2025-05-09T19:05:39.000Z</time>
      </trkpt>
      <trkpt lat="49.0199" lon="7.85845">
        <ele>336</ele>
        <time>2025-05-09T19:05:44.000Z</time>
      </trkpt>
      <trkpt lat="49.01989" lon="7.85838">
        <ele>337</ele>
        <time>2025-05-09T19:05:49.000Z</time>
      </trkpt>
      <trkpt lat="49.0199" lon="7.85829">
        <ele>337</ele>
        <time>2025-05-09T19:05:54.000Z</time>
      </trkpt>
      <trkpt lat="49.01988" lon="7.85821">
        <ele>337</ele>
        <time>2025-05-09T19:05:58.000Z</time>
      </trkpt>
      <trkpt lat="49.0199" lon="7.85813">
        <ele>336</ele>
        <time>2025-05-09T19:06:01.000Z</time>
      </trkpt>
      <trkpt lat="49.01993" lon="7.85798">
        <ele>337</ele>
        <time>2025-05-09T19:06:08.000Z</time>
      </trkpt>
      <trkpt lat="49.01996" lon="7.8578">
        <ele>338</ele>
        <time>2025-05-09T19:06:17.000Z</time>
      </trkpt>
      <trkpt lat="49.01997" lon="7.85769">
        <ele>338</ele>
        <time>2025-05-09T19:06:19.000Z</time>
      </trkpt>
      <trkpt lat="49.01999" lon="7.85757">
        <ele>338</ele>
        <time>2025-05-09T19:06:24.000Z</time>
      </trkpt>
      <trkpt lat="49.02002" lon="7.85742">
        <ele>338</ele>
        <time>2025-05-09T19:06:27.000Z</time>
      </trkpt>
      <trkpt lat="49.02002" lon="7.85734">
        <ele>339</ele>
        <time>2025-05-09T19:06:30.000Z</time>
      </trkpt>
      <trkpt lat="49.02005" lon="7.85726">
        <ele>341</ele>
        <time>2025-05-09T19:06:37.000Z</time>
      </trkpt>
      <trkpt lat="49.02006" lon="7.85703">
        <ele>344</ele>
        <time>2025-05-09T19:06:51.000Z</time>
      </trkpt>
      <trkpt lat="49.0201" lon="7.85694">
        <ele>345</ele>
        <time>2025-05-09T19:06:56.000Z</time>
      </trkpt>
      <trkpt lat="49.02002" lon="7.85681">
        <ele>347</ele>
        <time>2025-05-09T19:07:05.000Z</time>
      </trkpt>
      <trkpt lat="49.01999" lon="7.85656">
        <ele>350</ele>
        <time>2025-05-09T19:07:22.000Z</time>
      </trkpt>
      <trkpt lat="49.02001" lon="7.85646">
        <ele>352</ele>
        <time>2025-05-09T19:07:30.000Z</time>
      </trkpt>
      <trkpt lat="49.02001" lon="7.85637">
        <ele>352</ele>
        <time>2025-05-09T19:07:35.000Z</time>
      </trkpt>
      <trkpt lat="49.02001" lon="7.85629">
        <ele>353</ele>
        <time>2025-05-09T19:07:39.000Z</time>
      </trkpt>
      <trkpt lat="49.01993" lon="7.85608">
        <ele>353</ele>
        <time>2025-05-09T19:07:48.000Z</time>
      </trkpt>
      <trkpt lat="49.01994" lon="7.85601">
        <ele>353</ele>
        <time>2025-05-09T19:07:51.000Z</time>
      </trkpt>
      <trkpt lat="49.01992" lon="7.85594">
        <ele>353</ele>
        <time>2025-05-09T19:07:54.000Z</time>
      </trkpt>
      <trkpt lat="49.01989" lon="7.85587">
        <ele>354</ele>
        <time>2025-05-09T19:07:57.000Z</time>
      </trkpt>
      <trkpt lat="49.01988" lon="7.85581">
        <ele>354</ele>
        <time>2025-05-09T19:08:00.000Z</time>
      </trkpt>
      <trkpt lat="49.01986" lon="7.85572">
        <ele>353</ele>
        <time>2025-05-09T19:08:04.000Z</time>
      </trkpt>
      <trkpt lat="49.01983" lon="7.85566">
        <ele>354</ele>
        <time>2025-05-09T19:08:07.000Z</time>
      </trkpt>
      <trkpt lat="49.01979" lon="7.85561">
        <ele>354</ele>
        <time>2025-05-09T19:08:10.000Z</time>
      </trkpt>
      <trkpt lat="49.01975" lon="7.85554">
        <ele>354</ele>
        <time>2025-05-09T19:08:13.000Z</time>
      </trkpt>
      <trkpt lat="49.01971" lon="7.85551">
        <ele>354</ele>
        <time>2025-05-09T19:08:15.000Z</time>
      </trkpt>
      <trkpt lat="49.01968" lon="7.85545">
        <ele>354</ele>
        <time>2025-05-09T19:08:18.000Z</time>
      </trkpt>
      <trkpt lat="49.01963" lon="7.85535">
        <ele>354</ele>
        <time>2025-05-09T19:08:24.000Z</time>
      </trkpt>
      <trkpt lat="49.01943" lon="7.85471">
        <ele>356</ele>
        <time>2025-05-09T19:08:56.000Z</time>
      </trkpt>
      <trkpt lat="49.01939" lon="7.85456">
        <ele>356</ele>
        <time>2025-05-09T19:09:04.000Z</time>
      </trkpt>
      <trkpt lat="49.01935" lon="7.85441">
        <ele>356</ele>
        <time>2025-05-09T19:09:12.000Z</time>
      </trkpt>
      <trkpt lat="49.01933" lon="7.85434">
        <ele>356</ele>
        <time>2025-05-09T19:09:16.000Z</time>
      </trkpt>
      <trkpt lat="49.01928" lon="7.85419">
        <ele>357</ele>
        <time>2025-05-09T19:09:24.000Z</time>
      </trkpt>
      <trkpt lat="49.01925" lon="7.85413">
        <ele>357</ele>
        <time>2025-05-09T19:09:28.000Z</time>
      </trkpt>
      <trkpt lat="49.01922" lon="7.854">
        <ele>357</ele>
        <time>2025-05-09T19:09:36.000Z</time>
      </trkpt>
      <trkpt lat="49.01914" lon="7.85382">
        <ele>357</ele>
        <time>2025-05-09T19:09:45.000Z</time>
      </trkpt>
      <trkpt lat="49.01913" lon="7.85375">
        <ele>357</ele>
        <time>2025-05-09T19:09:48.000Z</time>
      </trkpt>
      <trkpt lat="49.01908" lon="7.85362">
        <ele>358</ele>
        <time>2025-05-09T19:09:55.000Z</time>
      </trkpt>
      <trkpt lat="49.01907" lon="7.85354">
        <ele>358</ele>
        <time>2025-05-09T19:09:59.000Z</time>
      </trkpt>
      <trkpt lat="49.01902" lon="7.85342">
        <ele>358</ele>
        <time>2025-05-09T19:10:05.000Z</time>
      </trkpt>
      <trkpt lat="49.019" lon="7.85326">
        <ele>358</ele>
        <time>2025-05-09T19:10:12.000Z</time>
      </trkpt>
      <trkpt lat="49.01892" lon="7.85307">
        <ele>359</ele>
        <time>2025-05-09T19:10:22.000Z</time>
      </trkpt>
      <trkpt lat="49.01891" lon="7.853">
        <ele>358</ele>
        <time>2025-05-09T19:10:27.000Z</time>
      </trkpt>
      <trkpt lat="49.01889" lon="7.85293">
        <ele>360</ele>
        <time>2025-05-09T19:10:29.000Z</time>
      </trkpt>
      <trkpt lat="49.01886" lon="7.85286">
        <ele>359</ele>
        <time>2025-05-09T19:10:32.000Z</time>
      </trkpt>
      <trkpt lat="49.01883" lon="7.8528">
        <ele>359</ele>
        <time>2025-05-09T19:10:36.000Z</time>
      </trkpt>
      <trkpt lat="49.01882" lon="7.85272">
        <ele>359</ele>
        <time>2025-05-09T19:10:40.000Z</time>
      </trkpt>
      <trkpt lat="49.0188" lon="7.85264">
        <ele>359</ele>
        <time>2025-05-09T19:10:44.000Z</time>
      </trkpt>
      <trkpt lat="49.01871" lon="7.85245">
        <ele>359</ele>
        <time>2025-05-09T19:10:54.000Z</time>
      </trkpt>
      <trkpt lat="49.0187" lon="7.85238">
        <ele>359</ele>
        <time>2025-05-09T19:10:57.000Z</time>
      </trkpt>
      <trkpt lat="49.01869" lon="7.85231">
        <ele>359</ele>
        <time>2025-05-09T19:11:00.000Z</time>
      </trkpt>
      <trkpt lat="49.01871" lon="7.85223">
        <ele>359</ele>
        <time>2025-05-09T19:11:03.000Z</time>
      </trkpt>
      <trkpt lat="49.01872" lon="7.85215">
        <ele>359</ele>
        <time>2025-05-09T19:11:06.000Z</time>
      </trkpt>
      <trkpt lat="49.01872" lon="7.85208">
        <ele>359</ele>
        <time>2025-05-09T19:11:09.000Z</time>
      </trkpt>
      <trkpt lat="49.01852" lon="7.85151">
        <ele>357</ele>
        <time>2025-05-09T19:11:41.000Z</time>
      </trkpt>
      <trkpt lat="49.0185" lon="7.85144">
        <ele>357</ele>
        <time>2025-05-09T19:11:45.000Z</time>
      </trkpt>
      <trkpt lat="49.0185" lon="7.85136">
        <ele>357</ele>
        <time>2025-05-09T19:11:49.000Z</time>
      </trkpt>
      <trkpt lat="49.01847" lon="7.85129">
        <ele>357</ele>
        <time>2025-05-09T19:11:52.000Z</time>
      </trkpt>
      <trkpt lat="49.01847" lon="7.85122">
        <ele>357</ele>
        <time>2025-05-09T19:11:56.000Z</time>
      </trkpt>
      <trkpt lat="49.01843" lon="7.85114">
        <ele>357</ele>
        <time>2025-05-09T19:12:00.000Z</time>
      </trkpt>
      <trkpt lat="49.01837" lon="7.85103">
        <ele>356</ele>
        <time>2025-05-09T19:12:06.000Z</time>
      </trkpt>
      <trkpt lat="49.01834" lon="7.85096">
        <ele>356</ele>
        <time>2025-05-09T19:12:10.000Z</time>
      </trkpt>
      <trkpt lat="49.01824" lon="7.85077">
        <ele>355</ele>
        <time>2025-05-09T19:12:21.000Z</time>
      </trkpt>
      <trkpt lat="49.0182" lon="7.85072">
        <ele>354</ele>
        <time>2025-05-09T19:12:25.000Z</time>
      </trkpt>
      <trkpt lat="49.01806" lon="7.85061">
        <ele>354</ele>
        <time>2025-05-09T19:12:33.000Z</time>
      </trkpt>
      <trkpt lat="49.01805" lon="7.85053">
        <ele>353</ele>
        <time>2025-05-09T19:12:35.000Z</time>
      </trkpt>
      <trkpt lat="49.01806" lon="7.85046">
        <ele>353</ele>
        <time>2025-05-09T19:12:37.000Z</time>
      </trkpt>
      <trkpt lat="49.01803" lon="7.85041">
        <ele>353</ele>
        <time>2025-05-09T19:12:40.000Z</time>
      </trkpt>
      <trkpt lat="49.01799" lon="7.85036">
        <ele>353</ele>
        <time>2025-05-09T19:12:45.000Z</time>
      </trkpt>
      <trkpt lat="49.01791" lon="7.85017">
        <ele>352</ele>
        <time>2025-05-09T19:12:54.000Z</time>
      </trkpt>
      <trkpt lat="49.01786" lon="7.85006">
        <ele>351</ele>
        <time>2025-05-09T19:13:00.000Z</time>
      </trkpt>
      <trkpt lat="49.01783" lon="7.85">
        <ele>351</ele>
        <time>2025-05-09T19:13:03.000Z</time>
      </trkpt>
      <trkpt lat="49.01781" lon="7.84994">
        <ele>351</ele>
        <time>2025-05-09T19:13:06.000Z</time>
      </trkpt>
      <trkpt lat="49.01779" lon="7.84989">
        <ele>351</ele>
        <time>2025-05-09T19:13:09.000Z</time>
      </trkpt>
      <trkpt lat="49.01773" lon="7.84978">
        <ele>350</ele>
        <time>2025-05-09T19:13:15.000Z</time>
      </trkpt>
      <trkpt lat="49.0177" lon="7.84971">
        <ele>350</ele>
        <time>2025-05-09T19:13:19.000Z</time>
      </trkpt>
      <trkpt lat="49.01775" lon="7.84967">
        <ele>350</ele>
        <time>2025-05-09T19:13:23.000Z</time>
      </trkpt>
      <trkpt lat="49.01783" lon="7.84962">
        <ele>350</ele>
        <time>2025-05-09T19:13:30.000Z</time>
      </trkpt>
      <trkpt lat="49.01795" lon="7.84961">
        <ele>352</ele>
        <time>2025-05-09T19:13:37.000Z</time>
      </trkpt>
      <trkpt lat="49.01798" lon="7.84954">
        <ele>352</ele>
        <time>2025-05-09T19:13:40.000Z</time>
      </trkpt>
      <trkpt lat="49.01802" lon="7.84949">
        <ele>353</ele>
        <time>2025-05-09T19:13:43.000Z</time>
      </trkpt>
      <trkpt lat="49.01806" lon="7.84947">
        <ele>353</ele>
        <time>2025-05-09T19:13:45.000Z</time>
      </trkpt>
      <trkpt lat="49.01817" lon="7.84945">
        <ele>355</ele>
        <time>2025-05-09T19:13:54.000Z</time>
      </trkpt>
      <trkpt lat="49.01823" lon="7.84946">
        <ele>355</ele>
        <time>2025-05-09T19:13:59.000Z</time>
      </trkpt>
      <trkpt lat="49.01844" lon="7.84939">
        <ele>358</ele>
        <time>2025-05-09T19:14:15.000Z</time>
      </trkpt>
      <trkpt lat="49.01848" lon="7.84935">
        <ele>358</ele>
        <time>2025-05-09T19:14:18.000Z</time>
      </trkpt>
      <trkpt lat="49.01852" lon="7.84928">
        <ele>359</ele>
        <time>2025-05-09T19:14:21.000Z</time>
      </trkpt>
      <trkpt lat="49.01856" lon="7.84927">
        <ele>359</ele>
        <time>2025-05-09T19:14:24.000Z</time>
      </trkpt>
      <trkpt lat="49.01861" lon="7.84928">
        <ele>360</ele>
        <time>2025-05-09T19:14:28.000Z</time>
      </trkpt>
      <trkpt lat="49.01866" lon="7.84925">
        <ele>360</ele>
        <time>2025-05-09T19:14:33.000Z</time>
      </trkpt>
      <trkpt lat="49.0187" lon="7.84919">
        <ele>361</ele>
        <time>2025-05-09T19:14:37.000Z</time>
      </trkpt>
      <trkpt lat="49.01876" lon="7.84917">
        <ele>361</ele>
        <time>2025-05-09T19:14:41.000Z</time>
      </trkpt>
      <trkpt lat="49.01881" lon="7.84914">
        <ele>362</ele>
        <time>2025-05-09T19:14:46.000Z</time>
      </trkpt>
      <trkpt lat="49.01884" lon="7.84907">
        <ele>362</ele>
        <time>2025-05-09T19:14:49.000Z</time>
      </trkpt>
      <trkpt lat="49.01893" lon="7.84903">
        <ele>363</ele>
        <time>2025-05-09T19:14:54.000Z</time>
      </trkpt>
      <trkpt lat="49.01896" lon="7.84898">
        <ele>363</ele>
        <time>2025-05-09T19:14:58.000Z</time>
      </trkpt>
      <trkpt lat="49.01905" lon="7.84891">
        <ele>364</ele>
        <time>2025-05-09T19:15:07.000Z</time>
      </trkpt>
      <trkpt lat="49.01908" lon="7.84886">
        <ele>364</ele>
        <time>2025-05-09T19:15:10.000Z</time>
      </trkpt>
      <trkpt lat="49.01917" lon="7.84879">
        <ele>365</ele>
        <time>2025-05-09T19:15:17.000Z</time>
      </trkpt>
      <trkpt lat="49.01924" lon="7.84869">
        <ele>365</ele>
        <time>2025-05-09T19:15:23.000Z</time>
      </trkpt>
      <trkpt lat="49.01928" lon="7.84866">
        <ele>365</ele>
        <time>2025-05-09T19:15:26.000Z</time>
      </trkpt>
      <trkpt lat="49.01932" lon="7.84865">
        <ele>365</ele>
        <time>2025-05-09T19:15:30.000Z</time>
      </trkpt>
      <trkpt lat="49.01936" lon="7.84862">
        <ele>365</ele>
        <time>2025-05-09T19:15:34.000Z</time>
      </trkpt>
      <trkpt lat="49.01941" lon="7.84862">
        <ele>366</ele>
        <time>2025-05-09T19:15:37.000Z</time>
      </trkpt>
      <trkpt lat="49.01945" lon="7.84859">
        <ele>366</ele>
        <time>2025-05-09T19:15:40.000Z</time>
      </trkpt>
      <trkpt lat="49.01949" lon="7.84855">
        <ele>366</ele>
        <time>2025-05-09T19:15:43.000Z</time>
      </trkpt>
      <trkpt lat="49.01956" lon="7.84836">
        <ele>366</ele>
        <time>2025-05-09T19:15:53.000Z</time>
      </trkpt>
      <trkpt lat="49.01958" lon="7.8483">
        <ele>366</ele>
        <time>2025-05-09T19:15:56.000Z</time>
      </trkpt>
      <trkpt lat="49.01965" lon="7.84816">
        <ele>365</ele>
        <time>2025-05-09T19:16:04.000Z</time>
      </trkpt>
      <trkpt lat="49.01967" lon="7.84809">
        <ele>365</ele>
        <time>2025-05-09T19:16:08.000Z</time>
      </trkpt>
      <trkpt lat="49.01974" lon="7.84796">
        <ele>364</ele>
        <time>2025-05-09T19:16:16.000Z</time>
      </trkpt>
      <trkpt lat="49.01977" lon="7.84787">
        <ele>364</ele>
        <time>2025-05-09T19:16:20.000Z</time>
      </trkpt>
      <trkpt lat="49.01985" lon="7.84775">
        <ele>364</ele>
        <time>2025-05-09T19:16:28.000Z</time>
      </trkpt>
      <trkpt lat="49.01989" lon="7.84771">
        <ele>364</ele>
        <time>2025-05-09T19:16:32.000Z</time>
      </trkpt>
      <trkpt lat="49.02013" lon="7.84741">
        <ele>363</ele>
        <time>2025-05-09T19:18:11.000Z</time>
      </trkpt>
      <trkpt lat="49.02047" lon="7.84709">
        <ele>359</ele>
        <time>2025-05-09T19:18:43.000Z</time>
      </trkpt>
      <trkpt lat="49.02051" lon="7.84703">
        <ele>360</ele>
        <time>2025-05-09T19:18:45.000Z</time>
      </trkpt>
      <trkpt lat="49.02055" lon="7.84699">
        <ele>360</ele>
        <time>2025-05-09T19:18:49.000Z</time>
      </trkpt>
      <trkpt lat="49.02058" lon="7.84694">
        <ele>359</ele>
        <time>2025-05-09T19:18:51.000Z</time>
      </trkpt>
      <trkpt lat="49.02068" lon="7.8468">
        <ele>359</ele>
        <time>2025-05-09T19:19:01.000Z</time>
      </trkpt>
      <trkpt lat="49.02071" lon="7.84674">
        <ele>359</ele>
        <time>2025-05-09T19:19:04.000Z</time>
      </trkpt>
      <trkpt lat="49.02085" lon="7.84653">
        <ele>359</ele>
        <time>2025-05-09T19:19:18.000Z</time>
      </trkpt>
      <trkpt lat="49.0209" lon="7.84648">
        <ele>359</ele>
        <time>2025-05-09T19:19:22.000Z</time>
      </trkpt>
      <trkpt lat="49.02093" lon="7.84644">
        <ele>359</ele>
        <time>2025-05-09T19:19:26.000Z</time>
      </trkpt>
      <trkpt lat="49.02101" lon="7.84632">
        <ele>358</ele>
        <time>2025-05-09T19:19:32.000Z</time>
      </trkpt>
      <trkpt lat="49.02104" lon="7.84625">
        <ele>358</ele>
        <time>2025-05-09T19:19:36.000Z</time>
      </trkpt>
      <trkpt lat="49.02111" lon="7.84612">
        <ele>358</ele>
        <time>2025-05-09T19:19:43.000Z</time>
      </trkpt>
      <trkpt lat="49.02114" lon="7.84606">
        <ele>358</ele>
        <time>2025-05-09T19:19:46.000Z</time>
      </trkpt>
      <trkpt lat="49.02116" lon="7.846">
        <ele>357</ele>
        <time>2025-05-09T19:19:49.000Z</time>
      </trkpt>
      <trkpt lat="49.02122" lon="7.84598">
        <ele>357</ele>
        <time>2025-05-09T19:19:53.000Z</time>
      </trkpt>
      <trkpt lat="49.02135" lon="7.84585">
        <ele>356</ele>
        <time>2025-05-09T19:20:05.000Z</time>
      </trkpt>
      <trkpt lat="49.02138" lon="7.8458">
        <ele>355</ele>
        <time>2025-05-09T19:20:09.000Z</time>
      </trkpt>
      <trkpt lat="49.02149" lon="7.84565">
        <ele>355</ele>
        <time>2025-05-09T19:20:19.000Z</time>
      </trkpt>
      <trkpt lat="49.02152" lon="7.84558">
        <ele>355</ele>
        <time>2025-05-09T19:20:22.000Z</time>
      </trkpt>
      <trkpt lat="49.02162" lon="7.84541">
        <ele>355</ele>
        <time>2025-05-09T19:20:32.000Z</time>
      </trkpt>
      <trkpt lat="49.02167" lon="7.84534">
        <ele>355</ele>
        <time>2025-05-09T19:20:38.000Z</time>
      </trkpt>
      <trkpt lat="49.02172" lon="7.84527">
        <ele>355</ele>
        <time>2025-05-09T19:20:41.000Z</time>
      </trkpt>
      <trkpt lat="49.02173" lon="7.84517">
        <ele>355</ele>
        <time>2025-05-09T19:20:44.000Z</time>
      </trkpt>
      <trkpt lat="49.02191" lon="7.84501">
        <ele>355</ele>
        <time>2025-05-09T19:20:56.000Z</time>
      </trkpt>
      <trkpt lat="49.022" lon="7.84488">
        <ele>356</ele>
        <time>2025-05-09T19:21:06.000Z</time>
      </trkpt>
      <trkpt lat="49.02201" lon="7.8448">
        <ele>356</ele>
        <time>2025-05-09T19:21:09.000Z</time>
      </trkpt>
      <trkpt lat="49.02205" lon="7.84475">
        <ele>356</ele>
        <time>2025-05-09T19:21:13.000Z</time>
      </trkpt>
      <trkpt lat="49.02213" lon="7.84471">
        <ele>356</ele>
        <time>2025-05-09T19:21:18.000Z</time>
      </trkpt>
      <trkpt lat="49.02217" lon="7.84466">
        <ele>357</ele>
        <time>2025-05-09T19:21:22.000Z</time>
      </trkpt>
      <trkpt lat="49.02223" lon="7.84469">
        <ele>357</ele>
        <time>2025-05-09T19:21:26.000Z</time>
      </trkpt>
      <trkpt lat="49.02232" lon="7.84454">
        <ele>359</ele>
        <time>2025-05-09T19:21:35.000Z</time>
      </trkpt>
      <trkpt lat="49.02237" lon="7.84431">
        <ele>360</ele>
        <time>2025-05-09T19:21:45.000Z</time>
      </trkpt>
      <trkpt lat="49.0224" lon="7.84427">
        <ele>360</ele>
        <time>2025-05-09T19:21:49.000Z</time>
      </trkpt>
      <trkpt lat="49.02243" lon="7.84421">
        <ele>360</ele>
        <time>2025-05-09T19:21:53.000Z</time>
      </trkpt>
      <trkpt lat="49.02247" lon="7.84417">
        <ele>361</ele>
        <time>2025-05-09T19:21:57.000Z</time>
      </trkpt>
      <trkpt lat="49.02249" lon="7.8441">
        <ele>361</ele>
        <time>2025-05-09T19:22:01.000Z</time>
      </trkpt>
      <trkpt lat="49.02261" lon="7.84387">
        <ele>362</ele>
        <time>2025-05-09T19:22:19.000Z</time>
      </trkpt>
      <trkpt lat="49.02265" lon="7.84375">
        <ele>363</ele>
        <time>2025-05-09T19:22:28.000Z</time>
      </trkpt>
      <trkpt lat="49.0227" lon="7.8437">
        <ele>363</ele>
        <time>2025-05-09T19:22:32.000Z</time>
      </trkpt>
      <trkpt lat="49.02273" lon="7.84365">
        <ele>363</ele>
        <time>2025-05-09T19:22:35.000Z</time>
      </trkpt>
      <trkpt lat="49.02282" lon="7.8435">
        <ele>363</ele>
        <time>2025-05-09T19:22:44.000Z</time>
      </trkpt>
      <trkpt lat="49.02286" lon="7.84335">
        <ele>363</ele>
        <time>2025-05-09T19:22:49.000Z</time>
      </trkpt>
      <trkpt lat="49.02292" lon="7.84325">
        <ele>364</ele>
        <time>2025-05-09T19:22:55.000Z</time>
      </trkpt>
      <trkpt lat="49.02294" lon="7.84318">
        <ele>363</ele>
        <time>2025-05-09T19:22:59.000Z</time>
      </trkpt>
      <trkpt lat="49.02298" lon="7.84314">
        <ele>363</ele>
        <time>2025-05-09T19:23:03.000Z</time>
      </trkpt>
      <trkpt lat="49.02301" lon="7.84308">
        <ele>362</ele>
        <time>2025-05-09T19:23:06.000Z</time>
      </trkpt>
      <trkpt lat="49.02304" lon="7.84295">
        <ele>362</ele>
        <time>2025-05-09T19:23:14.000Z</time>
      </trkpt>
      <trkpt lat="49.02308" lon="7.8429">
        <ele>362</ele>
        <time>2025-05-09T19:23:17.000Z</time>
      </trkpt>
      <trkpt lat="49.02311" lon="7.84285">
        <ele>361</ele>
        <time>2025-05-09T19:23:21.000Z</time>
      </trkpt>
      <trkpt lat="49.02321" lon="7.84272">
        <ele>359</ele>
        <time>2025-05-09T19:23:32.000Z</time>
      </trkpt>
      <trkpt lat="49.02324" lon="7.84262">
        <ele>359</ele>
        <time>2025-05-09T19:23:34.000Z</time>
      </trkpt>
      <trkpt lat="49.0235" lon="7.84228">
        <ele>355</ele>
        <time>2025-05-09T19:24:03.000Z</time>
      </trkpt>
      <trkpt lat="49.02363" lon="7.84198">
        <ele>355</ele>
        <time>2025-05-09T19:24:14.000Z</time>
      </trkpt>
      <trkpt lat="49.02369" lon="7.84195">
        <ele>354</ele>
        <time>2025-05-09T19:24:18.000Z</time>
      </trkpt>
      <trkpt lat="49.02374" lon="7.84185">
        <ele>354</ele>
        <time>2025-05-09T19:24:25.000Z</time>
      </trkpt>
      <trkpt lat="49.02385" lon="7.84165">
        <ele>353</ele>
        <time>2025-05-09T19:24:36.000Z</time>
      </trkpt>
      <trkpt lat="49.02386" lon="7.84156">
        <ele>353</ele>
        <time>2025-05-09T19:24:39.000Z</time>
      </trkpt>
      <trkpt lat="49.02413" lon="7.84112">
        <ele>351</ele>
        <time>2025-05-09T19:25:06.000Z</time>
      </trkpt>
      <trkpt lat="49.02415" lon="7.84096">
        <ele>350</ele>
        <time>2025-05-09T19:25:12.000Z</time>
      </trkpt>
      <trkpt lat="49.02422" lon="7.8408">
        <ele>350</ele>
        <time>2025-05-09T19:25:21.000Z</time>
      </trkpt>
      <trkpt lat="49.02427" lon="7.8405">
        <ele>350</ele>
        <time>2025-05-09T19:25:31.000Z</time>
      </trkpt>
      <trkpt lat="49.02435" lon="7.84037">
        <ele>349</ele>
        <time>2025-05-09T19:25:41.000Z</time>
      </trkpt>
      <trkpt lat="49.02441" lon="7.84032">
        <ele>349</ele>
        <time>2025-05-09T19:25:44.000Z</time>
      </trkpt>
      <trkpt lat="49.02442" lon="7.84023">
        <ele>349</ele>
        <time>2025-05-09T19:25:48.000Z</time>
      </trkpt>
      <trkpt lat="49.02449" lon="7.84011">
        <ele>349</ele>
        <time>2025-05-09T19:25:55.000Z</time>
      </trkpt>
      <trkpt lat="49.02454" lon="7.84011">
        <ele>349</ele>
        <time>2025-05-09T19:25:59.000Z</time>
      </trkpt>
      <trkpt lat="49.02464" lon="7.84004">
        <ele>348</ele>
        <time>2025-05-09T19:26:05.000Z</time>
      </trkpt>
      <trkpt lat="49.02466" lon="7.83996">
        <ele>348</ele>
        <time>2025-05-09T19:26:08.000Z</time>
      </trkpt>
      <trkpt lat="49.02471" lon="7.83978">
        <ele>348</ele>
        <time>2025-05-09T19:26:17.000Z</time>
      </trkpt>
      <trkpt lat="49.02477" lon="7.83976">
        <ele>348</ele>
        <time>2025-05-09T19:26:23.000Z</time>
      </trkpt>
      <trkpt lat="49.02482" lon="7.83968">
        <ele>348</ele>
        <time>2025-05-09T19:26:26.000Z</time>
      </trkpt>
      <trkpt lat="49.02493" lon="7.83964">
        <ele>346</ele>
        <time>2025-05-09T19:26:36.000Z</time>
      </trkpt>
      <trkpt lat="49.02511" lon="7.83962">
        <ele>346</ele>
        <time>2025-05-09T19:26:39.000Z</time>
      </trkpt>
      <trkpt lat="49.02508" lon="7.83958">
        <ele>345</ele>
        <time>2025-05-09T19:26:43.000Z</time>
      </trkpt>
      <trkpt lat="49.02513" lon="7.83953">
        <ele>345</ele>
        <time>2025-05-09T19:26:46.000Z</time>
      </trkpt>
      <trkpt lat="49.02515" lon="7.83946">
        <ele>345</ele>
        <time>2025-05-09T19:26:49.000Z</time>
      </trkpt>
      <trkpt lat="49.02522" lon="7.83931">
        <ele>345</ele>
        <time>2025-05-09T19:26:58.000Z</time>
      </trkpt>
      <trkpt lat="49.02527" lon="7.83911">
        <ele>344</ele>
        <time>2025-05-09T19:27:08.000Z</time>
      </trkpt>
      <trkpt lat="49.02535" lon="7.83905">
        <ele>344</ele>
        <time>2025-05-09T19:27:15.000Z</time>
      </trkpt>
      <trkpt lat="49.02541" lon="7.83899">
        <ele>342</ele>
        <time>2025-05-09T19:27:21.000Z</time>
      </trkpt>
      <trkpt lat="49.02548" lon="7.8388">
        <ele>339</ele>
        <time>2025-05-09T19:27:30.000Z</time>
      </trkpt>
      <trkpt lat="49.02558" lon="7.83864">
        <ele>337</ele>
        <time>2025-05-09T19:27:39.000Z</time>
      </trkpt>
      <trkpt lat="49.02559" lon="7.83856">
        <ele>337</ele>
        <time>2025-05-09T19:27:42.000Z</time>
      </trkpt>
      <trkpt lat="49.02562" lon="7.8385">
        <ele>336</ele>
        <time>2025-05-09T19:27:45.000Z</time>
      </trkpt>
      <trkpt lat="49.02569" lon="7.83839">
        <ele>335</ele>
        <time>2025-05-09T19:27:51.000Z</time>
      </trkpt>
      <trkpt lat="49.02577" lon="7.83819">
        <ele>334</ele>
        <time>2025-05-09T19:28:01.000Z</time>
      </trkpt>
      <trkpt lat="49.02587" lon="7.83807">
        <ele>333</ele>
        <time>2025-05-09T19:28:13.000Z</time>
      </trkpt>
      <trkpt lat="49.02588" lon="7.83799">
        <ele>332</ele>
        <time>2025-05-09T19:28:16.000Z</time>
      </trkpt>
      <trkpt lat="49.02589" lon="7.83777">
        <ele>331</ele>
        <time>2025-05-09T19:28:27.000Z</time>
      </trkpt>
      <trkpt lat="49.02593" lon="7.83761">
        <ele>330</ele>
        <time>2025-05-09T19:28:34.000Z</time>
      </trkpt>
      <trkpt lat="49.02602" lon="7.83736">
        <ele>327</ele>
        <time>2025-05-09T19:28:48.000Z</time>
      </trkpt>
      <trkpt lat="49.02602" lon="7.83681">
        <ele>324</ele>
        <time>2025-05-09T19:29:08.000Z</time>
      </trkpt>
      <trkpt lat="49.02613" lon="7.83651">
        <ele>321</ele>
        <time>2025-05-09T19:29:25.000Z</time>
      </trkpt>
      <trkpt lat="49.02614" lon="7.83634">
        <ele>320</ele>
        <time>2025-05-09T19:29:31.000Z</time>
      </trkpt>
      <trkpt lat="49.02615" lon="7.83618">
        <ele>319</ele>
        <time>2025-05-09T19:29:38.000Z</time>
      </trkpt>
      <trkpt lat="49.02618" lon="7.83604">
        <ele>317</ele>
        <time>2025-05-09T19:29:47.000Z</time>
      </trkpt>
      <trkpt lat="49.02617" lon="7.83597">
        <ele>317</ele>
        <time>2025-05-09T19:29:49.000Z</time>
      </trkpt>
      <trkpt lat="49.0262" lon="7.83583">
        <ele>316</ele>
        <time>2025-05-09T19:29:55.000Z</time>
      </trkpt>
      <trkpt lat="49.02623" lon="7.83569">
        <ele>315</ele>
        <time>2025-05-09T19:30:04.000Z</time>
      </trkpt>
      <trkpt lat="49.02623" lon="7.83544">
        <ele>314</ele>
        <time>2025-05-09T19:30:13.000Z</time>
      </trkpt>
      <trkpt lat="49.02623" lon="7.83532">
        <ele>312</ele>
        <time>2025-05-09T19:30:20.000Z</time>
      </trkpt>
      <trkpt lat="49.02626" lon="7.83516">
        <ele>311</ele>
        <time>2025-05-09T19:30:28.000Z</time>
      </trkpt>
      <trkpt lat="49.02624" lon="7.83503">
        <ele>309</ele>
        <time>2025-05-09T19:30:36.000Z</time>
      </trkpt>
      <trkpt lat="49.02626" lon="7.83496">
        <ele>308</ele>
        <time>2025-05-09T19:30:40.000Z</time>
      </trkpt>
      <trkpt lat="49.02625" lon="7.8349">
        <ele>308</ele>
        <time>2025-05-09T19:30:43.000Z</time>
      </trkpt>
      <trkpt lat="49.0263" lon="7.83451">
        <ele>304</ele>
        <time>2025-05-09T19:30:58.000Z</time>
      </trkpt>
      <trkpt lat="49.02628" lon="7.83437">
        <ele>303</ele>
        <time>2025-05-09T19:31:04.000Z</time>
      </trkpt>
      <trkpt lat="49.02628" lon="7.83415">
        <ele>301</ele>
        <time>2025-05-09T19:31:15.000Z</time>
      </trkpt>
      <trkpt lat="49.02625" lon="7.83407">
        <ele>300</ele>
        <time>2025-05-09T19:31:19.000Z</time>
      </trkpt>
      <trkpt lat="49.02621" lon="7.83365">
        <ele>294</ele>
        <time>2025-05-09T19:31:41.000Z</time>
      </trkpt>
      <trkpt lat="49.02621" lon="7.83356">
        <ele>293</ele>
        <time>2025-05-09T19:31:44.000Z</time>
      </trkpt>
      <trkpt lat="49.0262" lon="7.83344">
        <ele>292</ele>
        <time>2025-05-09T19:31:50.000Z</time>
      </trkpt>
      <trkpt lat="49.02621" lon="7.83327">
        <ele>290</ele>
        <time>2025-05-09T19:31:57.000Z</time>
      </trkpt>
      <trkpt lat="49.02623" lon="7.83321">
        <ele>289</ele>
        <time>2025-05-09T19:31:59.000Z</time>
      </trkpt>
      <trkpt lat="49.02621" lon="7.83313">
        <ele>288</ele>
        <time>2025-05-09T19:32:03.000Z</time>
      </trkpt>
      <trkpt lat="49.02618" lon="7.83306">
        <ele>287</ele>
        <time>2025-05-09T19:32:09.000Z</time>
      </trkpt>
      <trkpt lat="49.02618" lon="7.83297">
        <ele>286</ele>
        <time>2025-05-09T19:32:13.000Z</time>
      </trkpt>
      <trkpt lat="49.02615" lon="7.83283">
        <ele>285</ele>
        <time>2025-05-09T19:32:18.000Z</time>
      </trkpt>
      <trkpt lat="49.02616" lon="7.83275">
        <ele>284</ele>
        <time>2025-05-09T19:32:20.000Z</time>
      </trkpt>
      <trkpt lat="49.02613" lon="7.83267">
        <ele>284</ele>
        <time>2025-05-09T19:32:23.000Z</time>
      </trkpt>
      <trkpt lat="49.02612" lon="7.83239">
        <ele>280</ele>
        <time>2025-05-09T19:32:45.000Z</time>
      </trkpt>
      <trkpt lat="49.02616" lon="7.83213">
        <ele>279</ele>
        <time>2025-05-09T19:32:54.000Z</time>
      </trkpt>
      <trkpt lat="49.02614" lon="7.83205">
        <ele>279</ele>
        <time>2025-05-09T19:32:58.000Z</time>
      </trkpt>
      <trkpt lat="49.02615" lon="7.83179">
        <ele>280</ele>
        <time>2025-05-09T19:33:09.000Z</time>
      </trkpt>
      <trkpt lat="49.0261" lon="7.83159">
        <ele>281</ele>
        <time>2025-05-09T19:33:16.000Z</time>
      </trkpt>
      <trkpt lat="49.02613" lon="7.83144">
        <ele>282</ele>
        <time>2025-05-09T19:33:24.000Z</time>
      </trkpt>
      <trkpt lat="49.02608" lon="7.83127">
        <ele>283</ele>
        <time>2025-05-09T19:33:36.000Z</time>
      </trkpt>
      <trkpt lat="49.02616" lon="7.8309">
        <ele>285</ele>
        <time>2025-05-09T19:33:52.000Z</time>
      </trkpt>
      <trkpt lat="49.02619" lon="7.8308">
        <ele>286</ele>
        <time>2025-05-09T19:34:00.000Z</time>
      </trkpt>
      <trkpt lat="49.02626" lon="7.83068">
        <ele>288</ele>
        <time>2025-05-09T19:34:08.000Z</time>
      </trkpt>
      <trkpt lat="49.02633" lon="7.83064">
        <ele>288</ele>
        <time>2025-05-09T19:34:12.000Z</time>
      </trkpt>
      <trkpt lat="49.02638" lon="7.83068">
        <ele>289</ele>
        <time>2025-05-09T19:34:16.000Z</time>
      </trkpt>
      <trkpt lat="49.02643" lon="7.83064">
        <ele>289</ele>
        <time>2025-05-09T19:34:21.000Z</time>
      </trkpt>
      <trkpt lat="49.02651" lon="7.83067">
        <ele>289</ele>
        <time>2025-05-09T19:34:26.000Z</time>
      </trkpt>
      <trkpt lat="49.02658" lon="7.83065">
        <ele>289</ele>
        <time>2025-05-09T19:34:34.000Z</time>
      </trkpt>
      <trkpt lat="49.02664" lon="7.83065">
        <ele>288</ele>
        <time>2025-05-09T19:34:37.000Z</time>
      </trkpt>
      <trkpt lat="49.0267" lon="7.8306">
        <ele>287</ele>
        <time>2025-05-09T19:34:43.000Z</time>
      </trkpt>
      <trkpt lat="49.02678" lon="7.8306">
        <ele>286</ele>
        <time>2025-05-09T19:34:47.000Z</time>
      </trkpt>
      <trkpt lat="49.02676" lon="7.83067">
        <ele>286</ele>
        <time>2025-05-09T19:34:58.000Z</time>
      </trkpt>
      <trkpt lat="49.02672" lon="7.83071">
        <ele>286</ele>
        <time>2025-05-09T19:35:07.000Z</time>
      </trkpt>
      <trkpt lat="49.02677" lon="7.83052">
        <ele>286</ele>
        <time>2025-05-09T19:35:16.000Z</time>
      </trkpt>
      <trkpt lat="49.02689" lon="7.83047">
        <ele>285</ele>
        <time>2025-05-09T19:35:23.000Z</time>
      </trkpt>
      <trkpt lat="49.02692" lon="7.83041">
        <ele>285</ele>
        <time>2025-05-09T19:35:25.000Z</time>
      </trkpt>
      <trkpt lat="49.02701" lon="7.83033">
        <ele>284</ele>
        <time>2025-05-09T19:35:32.000Z</time>
      </trkpt>
      <trkpt lat="49.02707" lon="7.83027">
        <ele>284</ele>
        <time>2025-05-09T19:35:39.000Z</time>
      </trkpt>
      <trkpt lat="49.02714" lon="7.83006">
        <ele>284</ele>
        <time>2025-05-09T19:35:48.000Z</time>
      </trkpt>
      <trkpt lat="49.02715" lon="7.83">
        <ele>284</ele>
        <time>2025-05-09T19:35:51.000Z</time>
      </trkpt>
      <trkpt lat="49.02716" lon="7.82992">
        <ele>283</ele>
        <time>2025-05-09T19:35:55.000Z</time>
      </trkpt>
      <trkpt lat="49.02718" lon="7.82977">
        <ele>283</ele>
        <time>2025-05-09T19:36:03.000Z</time>
      </trkpt>
      <trkpt lat="49.02722" lon="7.82938">
        <ele>280</ele>
        <time>2025-05-09T19:36:22.000Z</time>
      </trkpt>
      <trkpt lat="49.02723" lon="7.82931">
        <ele>280</ele>
        <time>2025-05-09T19:36:25.000Z</time>
      </trkpt>
      <trkpt lat="49.0273" lon="7.82864">
        <ele>277</ele>
        <time>2025-05-09T19:36:58.000Z</time>
      </trkpt>
      <trkpt lat="49.02734" lon="7.82831">
        <ele>275</ele>
        <time>2025-05-09T19:37:13.000Z</time>
      </trkpt>
      <trkpt lat="49.02735" lon="7.82823">
        <ele>275</ele>
        <time>2025-05-09T19:37:16.000Z</time>
      </trkpt>
      <trkpt lat="49.02736" lon="7.82817">
        <ele>274</ele>
        <time>2025-05-09T19:37:19.000Z</time>
      </trkpt>
      <trkpt lat="49.02749" lon="7.8275">
        <ele>270</ele>
        <time>2025-05-09T19:37:50.000Z</time>
      </trkpt>
      <trkpt lat="49.02751" lon="7.82742">
        <ele>269</ele>
        <time>2025-05-09T19:37:54.000Z</time>
      </trkpt>
      <trkpt lat="49.02758" lon="7.82714">
        <ele>267</ele>
        <time>2025-05-09T19:38:07.000Z</time>
      </trkpt>
      <trkpt lat="49.02757" lon="7.82708">
        <ele>267</ele>
        <time>2025-05-09T19:38:09.000Z</time>
      </trkpt>
      <trkpt lat="49.02758" lon="7.82701">
        <ele>266</ele>
        <time>2025-05-09T19:38:12.000Z</time>
      </trkpt>
      <trkpt lat="49.0276" lon="7.82693">
        <ele>266</ele>
        <time>2025-05-09T19:38:16.000Z</time>
      </trkpt>
      <trkpt lat="49.0276" lon="7.82686">
        <ele>265</ele>
        <time>2025-05-09T19:38:19.000Z</time>
      </trkpt>
      <trkpt lat="49.02762" lon="7.82678">
        <ele>264</ele>
        <time>2025-05-09T19:38:23.000Z</time>
      </trkpt>
      <trkpt lat="49.0277" lon="7.82657">
        <ele>263</ele>
        <time>2025-05-09T19:38:35.000Z</time>
      </trkpt>
      <trkpt lat="49.02773" lon="7.8264">
        <ele>261</ele>
        <time>2025-05-09T19:38:44.000Z</time>
      </trkpt>
      <trkpt lat="49.02774" lon="7.82627">
        <ele>259</ele>
        <time>2025-05-09T19:38:53.000Z</time>
      </trkpt>
      <trkpt lat="49.0278" lon="7.82601">
        <ele>258</ele>
        <time>2025-05-09T19:39:05.000Z</time>
      </trkpt>
      <trkpt lat="49.02788" lon="7.82591">
        <ele>257</ele>
        <time>2025-05-09T19:39:12.000Z</time>
      </trkpt>
      <trkpt lat="49.02791" lon="7.82584">
        <ele>256</ele>
        <time>2025-05-09T19:39:16.000Z</time>
      </trkpt>
      <trkpt lat="49.02792" lon="7.82576">
        <ele>256</ele>
        <time>2025-05-09T19:39:20.000Z</time>
      </trkpt>
      <trkpt lat="49.02795" lon="7.82568">
        <ele>255</ele>
        <time>2025-05-09T19:39:24.000Z</time>
      </trkpt>
      <trkpt lat="49.02796" lon="7.82561">
        <ele>256</ele>
        <time>2025-05-09T19:39:27.000Z</time>
      </trkpt>
      <trkpt lat="49.02797" lon="7.82554">
        <ele>255</ele>
        <time>2025-05-09T19:39:30.000Z</time>
      </trkpt>
      <trkpt lat="49.02799" lon="7.82548">
        <ele>255</ele>
        <time>2025-05-09T19:39:33.000Z</time>
      </trkpt>
      <trkpt lat="49.02799" lon="7.82541">
        <ele>255</ele>
        <time>2025-05-09T19:39:36.000Z</time>
      </trkpt>
      <trkpt lat="49.02807" lon="7.82552">
        <ele>254</ele>
        <time>2025-05-09T19:39:52.000Z</time>
      </trkpt>
      <trkpt lat="49.02813" lon="7.82556">
        <ele>255</ele>
        <time>2025-05-09T19:39:56.000Z</time>
      </trkpt>
      <trkpt lat="49.02817" lon="7.82563">
        <ele>255</ele>
        <time>2025-05-09T19:39:59.000Z</time>
      </trkpt>
      <trkpt lat="49.02819" lon="7.82569">
        <ele>254</ele>
        <time>2025-05-09T19:40:02.000Z</time>
      </trkpt>
      <trkpt lat="49.02824" lon="7.82576">
        <ele>255</ele>
        <time>2025-05-09T19:40:06.000Z</time>
      </trkpt>
      <trkpt lat="49.0283" lon="7.82587">
        <ele>255</ele>
        <time>2025-05-09T19:40:13.000Z</time>
      </trkpt>
      <trkpt lat="49.02847" lon="7.826">
        <ele>256</ele>
        <time>2025-05-09T19:40:28.000Z</time>
      </trkpt>
      <trkpt lat="49.02861" lon="7.82598">
        <ele>257</ele>
        <time>2025-05-09T19:40:38.000Z</time>
      </trkpt>
      <trkpt lat="49.0288" lon="7.82589">
        <ele>258</ele>
        <time>2025-05-09T19:40:52.000Z</time>
      </trkpt>
      <trkpt lat="49.02885" lon="7.82588">
        <ele>259</ele>
        <time>2025-05-09T19:40:57.000Z</time>
      </trkpt>
      <trkpt lat="49.0289" lon="7.82584">
        <ele>259</ele>
        <time>2025-05-09T19:41:00.000Z</time>
      </trkpt>
      <trkpt lat="49.02903" lon="7.82574">
        <ele>259</ele>
        <time>2025-05-09T19:41:08.000Z</time>
      </trkpt>
      <trkpt lat="49.02941" lon="7.82561">
        <ele>264</ele>
        <time>2025-05-09T19:41:39.000Z</time>
      </trkpt>
      <trkpt lat="49.02954" lon="7.82531">
        <ele>266</ele>
        <time>2025-05-09T19:41:51.000Z</time>
      </trkpt>
      <trkpt lat="49.02957" lon="7.82527">
        <ele>266</ele>
        <time>2025-05-09T19:41:55.000Z</time>
      </trkpt>
      <trkpt lat="49.02961" lon="7.82522">
        <ele>266</ele>
        <time>2025-05-09T19:41:59.000Z</time>
      </trkpt>
      <trkpt lat="49.02966" lon="7.82518">
        <ele>266</ele>
        <time>2025-05-09T19:42:02.000Z</time>
      </trkpt>
      <trkpt lat="49.02977" lon="7.82517">
        <ele>267</ele>
        <time>2025-05-09T19:42:14.000Z</time>
      </trkpt>
      <trkpt lat="49.02983" lon="7.82513">
        <ele>268</ele>
        <time>2025-05-09T19:42:17.000Z</time>
      </trkpt>
      <trkpt lat="49.02985" lon="7.82506">
        <ele>268</ele>
        <time>2025-05-09T19:42:20.000Z</time>
      </trkpt>
      <trkpt lat="49.02991" lon="7.82503">
        <ele>269</ele>
        <time>2025-05-09T19:42:24.000Z</time>
      </trkpt>
      <trkpt lat="49.02993" lon="7.82494">
        <ele>270</ele>
        <time>2025-05-09T19:42:28.000Z</time>
      </trkpt>
      <trkpt lat="49.02998" lon="7.82492">
        <ele>270</ele>
        <time>2025-05-09T19:42:32.000Z</time>
      </trkpt>
      <trkpt lat="49.03" lon="7.82487">
        <ele>270</ele>
        <time>2025-05-09T19:42:35.000Z</time>
      </trkpt>
      <trkpt lat="49.03004" lon="7.82482">
        <ele>270</ele>
        <time>2025-05-09T19:42:38.000Z</time>
      </trkpt>
      <trkpt lat="49.03007" lon="7.82475">
        <ele>271</ele>
        <time>2025-05-09T19:42:43.000Z</time>
      </trkpt>
      <trkpt lat="49.03011" lon="7.82466">
        <ele>271</ele>
        <time>2025-05-09T19:42:46.000Z</time>
      </trkpt>
      <trkpt lat="49.03015" lon="7.82465">
        <ele>271</ele>
        <time>2025-05-09T19:42:49.000Z</time>
      </trkpt>
      <trkpt lat="49.03022" lon="7.82454">
        <ele>271</ele>
        <time>2025-05-09T19:42:56.000Z</time>
      </trkpt>
      <trkpt lat="49.03025" lon="7.82448">
        <ele>271</ele>
        <time>2025-05-09T19:43:00.000Z</time>
      </trkpt>
      <trkpt lat="49.03029" lon="7.82432">
        <ele>272</ele>
        <time>2025-05-09T19:43:07.000Z</time>
      </trkpt>
      <trkpt lat="49.03035" lon="7.82431">
        <ele>273</ele>
        <time>2025-05-09T19:43:14.000Z</time>
      </trkpt>
      <trkpt lat="49.03039" lon="7.82424">
        <ele>273</ele>
        <time>2025-05-09T19:43:17.000Z</time>
      </trkpt>
      <trkpt lat="49.03041" lon="7.82415">
        <ele>273</ele>
        <time>2025-05-09T19:43:20.000Z</time>
      </trkpt>
      <trkpt lat="49.03045" lon="7.82412">
        <ele>273</ele>
        <time>2025-05-09T19:43:23.000Z</time>
      </trkpt>
      <trkpt lat="49.03052" lon="7.82398">
        <ele>273</ele>
        <time>2025-05-09T19:43:32.000Z</time>
      </trkpt>
      <trkpt lat="49.03057" lon="7.82382">
        <ele>273</ele>
        <time>2025-05-09T19:43:39.000Z</time>
      </trkpt>
      <trkpt lat="49.0306" lon="7.82378">
        <ele>273</ele>
        <time>2025-05-09T19:43:42.000Z</time>
      </trkpt>
      <trkpt lat="49.03062" lon="7.82369">
        <ele>273</ele>
        <time>2025-05-09T19:43:46.000Z</time>
      </trkpt>
      <trkpt lat="49.03065" lon="7.82364">
        <ele>273</ele>
        <time>2025-05-09T19:43:49.000Z</time>
      </trkpt>
      <trkpt lat="49.03085" lon="7.82333">
        <ele>271</ele>
        <time>2025-05-09T19:44:08.000Z</time>
      </trkpt>
      <trkpt lat="49.03088" lon="7.82329">
        <ele>271</ele>
        <time>2025-05-09T19:44:12.000Z</time>
      </trkpt>
      <trkpt lat="49.03093" lon="7.82323">
        <ele>271</ele>
        <time>2025-05-09T19:44:16.000Z</time>
      </trkpt>
      <trkpt lat="49.03102" lon="7.82319">
        <ele>270</ele>
        <time>2025-05-09T19:44:22.000Z</time>
      </trkpt>
      <trkpt lat="49.03105" lon="7.82314">
        <ele>270</ele>
        <time>2025-05-09T19:44:25.000Z</time>
      </trkpt>
      <trkpt lat="49.03111" lon="7.82312">
        <ele>270</ele>
        <time>2025-05-09T19:44:29.000Z</time>
      </trkpt>
      <trkpt lat="49.03115" lon="7.82308">
        <ele>270</ele>
        <time>2025-05-09T19:44:32.000Z</time>
      </trkpt>
      <trkpt lat="49.0312" lon="7.82306">
        <ele>269</ele>
        <time>2025-05-09T19:44:35.000Z</time>
      </trkpt>
      <trkpt lat="49.03123" lon="7.823">
        <ele>269</ele>
        <time>2025-05-09T19:44:37.000Z</time>
      </trkpt>
      <trkpt lat="49.03127" lon="7.82296">
        <ele>269</ele>
        <time>2025-05-09T19:44:40.000Z</time>
      </trkpt>
      <trkpt lat="49.03143" lon="7.82296">
        <ele>268</ele>
        <time>2025-05-09T19:44:52.000Z</time>
      </trkpt>
      <trkpt lat="49.03147" lon="7.82297">
        <ele>268</ele>
        <time>2025-05-09T19:44:55.000Z</time>
      </trkpt>
      <trkpt lat="49.03151" lon="7.82299">
        <ele>268</ele>
        <time>2025-05-09T19:44:59.000Z</time>
      </trkpt>
      <trkpt lat="49.03168" lon="7.82303">
        <ele>266</ele>
        <time>2025-05-09T19:45:14.000Z</time>
      </trkpt>
      <trkpt lat="49.03174" lon="7.82305">
        <ele>267</ele>
        <time>2025-05-09T19:45:17.000Z</time>
      </trkpt>
      <trkpt lat="49.03179" lon="7.82307">
        <ele>266</ele>
        <time>2025-05-09T19:45:20.000Z</time>
      </trkpt>
      <trkpt lat="49.03184" lon="7.82309">
        <ele>266</ele>
        <time>2025-05-09T19:45:23.000Z</time>
      </trkpt>
      <trkpt lat="49.03192" lon="7.82313">
        <ele>265</ele>
        <time>2025-05-09T19:45:29.000Z</time>
      </trkpt>
      <trkpt lat="49.03197" lon="7.82317">
        <ele>265</ele>
        <time>2025-05-09T19:45:31.000Z</time>
      </trkpt>
      <trkpt lat="49.03203" lon="7.82318">
        <ele>265</ele>
        <time>2025-05-09T19:45:33.000Z</time>
      </trkpt>
      <trkpt lat="49.03207" lon="7.82321">
        <ele>265</ele>
        <time>2025-05-09T19:45:36.000Z</time>
      </trkpt>
      <trkpt lat="49.03227" lon="7.82329">
        <ele>263</ele>
        <time>2025-05-09T19:45:52.000Z</time>
      </trkpt>
      <trkpt lat="49.03236" lon="7.82326">
        <ele>263</ele>
        <time>2025-05-09T19:46:00.000Z</time>
      </trkpt>
      <trkpt lat="49.03241" lon="7.82324">
        <ele>263</ele>
        <time>2025-05-09T19:46:03.000Z</time>
      </trkpt>
      <trkpt lat="49.03245" lon="7.8232">
        <ele>263</ele>
        <time>2025-05-09T19:46:05.000Z</time>
      </trkpt>
      <trkpt lat="49.0325" lon="7.82316">
        <ele>263</ele>
        <time>2025-05-09T19:46:08.000Z</time>
      </trkpt>
      <trkpt lat="49.0328" lon="7.82288">
        <ele>264</ele>
        <time>2025-05-09T19:46:33.000Z</time>
      </trkpt>
      <trkpt lat="49.03285" lon="7.82284">
        <ele>264</ele>
        <time>2025-05-09T19:46:37.000Z</time>
      </trkpt>
      <trkpt lat="49.03288" lon="7.8228">
        <ele>264</ele>
        <time>2025-05-09T19:46:40.000Z</time>
      </trkpt>
      <trkpt lat="49.03298" lon="7.82273">
        <ele>264</ele>
        <time>2025-05-09T19:46:46.000Z</time>
      </trkpt>
      <trkpt lat="49.03302" lon="7.82272">
        <ele>264</ele>
        <time>2025-05-09T19:46:49.000Z</time>
      </trkpt>
      <trkpt lat="49.03306" lon="7.82269">
        <ele>265</ele>
        <time>2025-05-09T19:46:52.000Z</time>
      </trkpt>
      <trkpt lat="49.03315" lon="7.82266">
        <ele>265</ele>
        <time>2025-05-09T19:46:58.000Z</time>
      </trkpt>
      <trkpt lat="49.03323" lon="7.8226">
        <ele>265</ele>
        <time>2025-05-09T19:47:04.000Z</time>
      </trkpt>
      <trkpt lat="49.03327" lon="7.82258">
        <ele>265</ele>
        <time>2025-05-09T19:47:07.000Z</time>
      </trkpt>
      <trkpt lat="49.03331" lon="7.82254">
        <ele>265</ele>
        <time>2025-05-09T19:47:10.000Z</time>
      </trkpt>
      <trkpt lat="49.03336" lon="7.82251">
        <ele>265</ele>
        <time>2025-05-09T19:47:15.000Z</time>
      </trkpt>
      <trkpt lat="49.0334" lon="7.82248">
        <ele>265</ele>
        <time>2025-05-09T19:47:18.000Z</time>
      </trkpt>
      <trkpt lat="49.03348" lon="7.82242">
        <ele>266</ele>
        <time>2025-05-09T19:47:24.000Z</time>
      </trkpt>
      <trkpt lat="49.03352" lon="7.82236">
        <ele>266</ele>
        <time>2025-05-09T19:47:28.000Z</time>
      </trkpt>
      <trkpt lat="49.03356" lon="7.82233">
        <ele>266</ele>
        <time>2025-05-09T19:47:32.000Z</time>
      </trkpt>
      <trkpt lat="49.03373" lon="7.82204">
        <ele>265</ele>
        <time>2025-05-09T19:47:50.000Z</time>
      </trkpt>
      <trkpt lat="49.03377" lon="7.822">
        <ele>265</ele>
        <time>2025-05-09T19:47:54.000Z</time>
      </trkpt>
      <trkpt lat="49.03381" lon="7.82203">
        <ele>265</ele>
        <time>2025-05-09T19:47:57.000Z</time>
      </trkpt>
      <trkpt lat="49.03387" lon="7.82203">
        <ele>265</ele>
        <time>2025-05-09T19:48:01.000Z</time>
      </trkpt>
      <trkpt lat="49.03392" lon="7.82201">
        <ele>265</ele>
        <time>2025-05-09T19:48:05.000Z</time>
      </trkpt>
      <trkpt lat="49.03396" lon="7.82198">
        <ele>265</ele>
        <time>2025-05-09T19:48:08.000Z</time>
      </trkpt>
      <trkpt lat="49.03406" lon="7.82191">
        <ele>266</ele>
        <time>2025-05-09T19:48:14.000Z</time>
      </trkpt>
      <trkpt lat="49.03437" lon="7.82162">
        <ele>266</ele>
        <time>2025-05-09T19:48:53.000Z</time>
      </trkpt>
      <trkpt lat="49.03439" lon="7.82154">
        <ele>266</ele>
        <time>2025-05-09T19:48:57.000Z</time>
      </trkpt>
      <trkpt lat="49.0344" lon="7.82142">
        <ele>265</ele>
        <time>2025-05-09T19:48:59.000Z</time>
      </trkpt>
      <trkpt lat="49.0345" lon="7.82126">
        <ele>265</ele>
        <time>2025-05-09T19:49:10.000Z</time>
      </trkpt>
      <trkpt lat="49.03453" lon="7.82121">
        <ele>265</ele>
        <time>2025-05-09T19:49:14.000Z</time>
      </trkpt>
      <trkpt lat="49.03457" lon="7.82117">
        <ele>266</ele>
        <time>2025-05-09T19:49:19.000Z</time>
      </trkpt>
      <trkpt lat="49.03464" lon="7.82103">
        <ele>266</ele>
        <time>2025-05-09T19:49:27.000Z</time>
      </trkpt>
      <trkpt lat="49.03473" lon="7.82086">
        <ele>265</ele>
        <time>2025-05-09T19:49:35.000Z</time>
      </trkpt>
      <trkpt lat="49.03475" lon="7.82079">
        <ele>265</ele>
        <time>2025-05-09T19:49:39.000Z</time>
      </trkpt>
      <trkpt lat="49.03477" lon="7.82072">
        <ele>265</ele>
        <time>2025-05-09T19:49:43.000Z</time>
      </trkpt>
      <trkpt lat="49.03479" lon="7.82065">
        <ele>266</ele>
        <time>2025-05-09T19:49:46.000Z</time>
      </trkpt>
      <trkpt lat="49.03489" lon="7.82027">
        <ele>266</ele>
        <time>2025-05-09T19:50:04.000Z</time>
      </trkpt>
      <trkpt lat="49.03505" lon="7.81955">
        <ele>267</ele>
        <time>2025-05-09T19:50:36.000Z</time>
      </trkpt>
      <trkpt lat="49.03521" lon="7.81884">
        <ele>268</ele>
        <time>2025-05-09T19:51:08.000Z</time>
      </trkpt>
      <trkpt lat="49.03524" lon="7.8187">
        <ele>268</ele>
        <time>2025-05-09T19:51:14.000Z</time>
      </trkpt>
      <trkpt lat="49.03533" lon="7.8185">
        <ele>268</ele>
        <time>2025-05-09T19:51:24.000Z</time>
      </trkpt>
      <trkpt lat="49.03545" lon="7.81828">
        <ele>269</ele>
        <time>2025-05-09T19:51:38.000Z</time>
      </trkpt>
      <trkpt lat="49.03548" lon="7.81823">
        <ele>270</ele>
        <time>2025-05-09T19:51:41.000Z</time>
      </trkpt>
      <trkpt lat="49.03552" lon="7.81819">
        <ele>270</ele>
        <time>2025-05-09T19:51:44.000Z</time>
      </trkpt>
      <trkpt lat="49.03559" lon="7.81809">
        <ele>269</ele>
        <time>2025-05-09T19:51:50.000Z</time>
      </trkpt>
      <trkpt lat="49.03566" lon="7.81801">
        <ele>268</ele>
        <time>2025-05-09T19:51:59.000Z</time>
      </trkpt>
      <trkpt lat="49.03608" lon="7.81757">
        <ele>268</ele>
        <time>2025-05-09T19:52:30.000Z</time>
      </trkpt>
      <trkpt lat="49.03612" lon="7.81753">
        <ele>268</ele>
        <time>2025-05-09T19:52:34.000Z</time>
      </trkpt>
      <trkpt lat="49.03616" lon="7.8175">
        <ele>268</ele>
        <time>2025-05-09T19:52:37.000Z</time>
      </trkpt>
      <trkpt lat="49.0362" lon="7.81746">
        <ele>267</ele>
        <time>2025-05-09T19:52:41.000Z</time>
      </trkpt>
      <trkpt lat="49.03658" lon="7.81712">
        <ele>270</ele>
        <time>2025-05-09T19:53:15.000Z</time>
      </trkpt>
      <trkpt lat="49.03678" lon="7.81695">
        <ele>271</ele>
        <time>2025-05-09T19:53:31.000Z</time>
      </trkpt>
      <trkpt lat="49.03684" lon="7.81693">
        <ele>271</ele>
        <time>2025-05-09T19:53:42.000Z</time>
      </trkpt>
      <trkpt lat="49.03691" lon="7.81694">
        <ele>271</ele>
        <time>2025-05-09T19:53:45.000Z</time>
      </trkpt>
      <trkpt lat="49.03698" lon="7.81687">
        <ele>272</ele>
        <time>2025-05-09T19:53:51.000Z</time>
      </trkpt>
      <trkpt lat="49.037" lon="7.81678">
        <ele>272</ele>
        <time>2025-05-09T19:53:55.000Z</time>
      </trkpt>
      <trkpt lat="49.03708" lon="7.8167">
        <ele>272</ele>
        <time>2025-05-09T19:53:59.000Z</time>
      </trkpt>
      <trkpt lat="49.03755" lon="7.81651">
        <ele>273</ele>
        <time>2025-05-09T19:54:32.000Z</time>
      </trkpt>
      <trkpt lat="49.03795" lon="7.81643">
        <ele>274</ele>
        <time>2025-05-09T19:55:04.000Z</time>
      </trkpt>
      <trkpt lat="49.038" lon="7.81638">
        <ele>274</ele>
        <time>2025-05-09T19:55:14.000Z</time>
      </trkpt>
      <trkpt lat="49.03806" lon="7.81638">
        <ele>274</ele>
        <time>2025-05-09T19:55:17.000Z</time>
      </trkpt>
      <trkpt lat="49.03826" lon="7.81651">
        <ele>274</ele>
        <time>2025-05-09T19:55:28.000Z</time>
      </trkpt>
      <trkpt lat="49.03844" lon="7.81655">
        <ele>275</ele>
        <time>2025-05-09T19:55:43.000Z</time>
      </trkpt>
      <trkpt lat="49.03849" lon="7.81659">
        <ele>275</ele>
        <time>2025-05-09T19:55:47.000Z</time>
      </trkpt>
      <trkpt lat="49.03856" lon="7.81661">
        <ele>276</ele>
        <time>2025-05-09T19:55:52.000Z</time>
      </trkpt>
      <trkpt lat="49.03861" lon="7.81664">
        <ele>276</ele>
        <time>2025-05-09T19:55:55.000Z</time>
      </trkpt>
      <trkpt lat="49.03871" lon="7.81665">
        <ele>276</ele>
        <time>2025-05-09T19:55:59.000Z</time>
      </trkpt>
      <trkpt lat="49.03879" lon="7.81674">
        <ele>276</ele>
        <time>2025-05-09T19:56:10.000Z</time>
      </trkpt>
      <trkpt lat="49.03883" lon="7.81668">
        <ele>277</ele>
        <time>2025-05-09T19:56:13.000Z</time>
      </trkpt>
      <trkpt lat="49.03892" lon="7.81675">
        <ele>278</ele>
        <time>2025-05-09T19:56:24.000Z</time>
      </trkpt>
      <trkpt lat="49.03896" lon="7.8167">
        <ele>277</ele>
        <time>2025-05-09T19:56:29.000Z</time>
      </trkpt>
      <trkpt lat="49.03907" lon="7.81656">
        <ele>277</ele>
        <time>2025-05-09T19:56:41.000Z</time>
      </trkpt>
      <trkpt lat="49.03912" lon="7.81647">
        <ele>277</ele>
        <time>2025-05-09T19:56:45.000Z</time>
      </trkpt>
      <trkpt lat="49.03916" lon="7.81643">
        <ele>278</ele>
        <time>2025-05-09T19:56:48.000Z</time>
      </trkpt>
      <trkpt lat="49.03917" lon="7.81637">
        <ele>277</ele>
        <time>2025-05-09T19:56:52.000Z</time>
      </trkpt>
      <trkpt lat="49.03924" lon="7.81628">
        <ele>276</ele>
        <time>2025-05-09T19:56:59.000Z</time>
      </trkpt>
      <trkpt lat="49.03932" lon="7.81612">
        <ele>275</ele>
        <time>2025-05-09T19:57:08.000Z</time>
      </trkpt>
      <trkpt lat="49.03936" lon="7.81601">
        <ele>275</ele>
        <time>2025-05-09T19:57:10.000Z</time>
      </trkpt>
      <trkpt lat="49.03937" lon="7.81592">
        <ele>275</ele>
        <time>2025-05-09T19:57:14.000Z</time>
      </trkpt>
      <trkpt lat="49.03939" lon="7.81584">
        <ele>275</ele>
        <time>2025-05-09T19:57:19.000Z</time>
      </trkpt>
      <trkpt lat="49.0395" lon="7.81568">
        <ele>276</ele>
        <time>2025-05-09T19:57:29.000Z</time>
      </trkpt>
      <trkpt lat="49.03962" lon="7.81564">
        <ele>276</ele>
        <time>2025-05-09T19:57:37.000Z</time>
      </trkpt>
      <trkpt lat="49.03963" lon="7.81554">
        <ele>276</ele>
        <time>2025-05-09T19:57:39.000Z</time>
      </trkpt>
      <trkpt lat="49.03974" lon="7.81546">
        <ele>277</ele>
        <time>2025-05-09T19:57:48.000Z</time>
      </trkpt>
      <trkpt lat="49.03984" lon="7.81525">
        <ele>278</ele>
        <time>2025-05-09T19:58:03.000Z</time>
      </trkpt>
      <trkpt lat="49.03988" lon="7.81521">
        <ele>278</ele>
        <time>2025-05-09T19:58:05.000Z</time>
      </trkpt>
      <trkpt lat="49.03993" lon="7.81522">
        <ele>278</ele>
        <time>2025-05-09T19:58:09.000Z</time>
      </trkpt>
      <trkpt lat="49.04001" lon="7.8151">
        <ele>279</ele>
        <time>2025-05-09T19:58:16.000Z</time>
      </trkpt>
      <trkpt lat="49.04005" lon="7.81504">
        <ele>279</ele>
        <time>2025-05-09T19:58:20.000Z</time>
      </trkpt>
      <trkpt lat="49.04008" lon="7.81497">
        <ele>278</ele>
        <time>2025-05-09T19:58:25.000Z</time>
      </trkpt>
      <trkpt lat="49.04015" lon="7.81479">
        <ele>279</ele>
        <time>2025-05-09T19:58:34.000Z</time>
      </trkpt>
      <trkpt lat="49.0402" lon="7.81474">
        <ele>279</ele>
        <time>2025-05-09T19:58:37.000Z</time>
      </trkpt>
      <trkpt lat="49.04025" lon="7.8147">
        <ele>280</ele>
        <time>2025-05-09T19:58:41.000Z</time>
      </trkpt>
      <trkpt lat="49.04034" lon="7.81463">
        <ele>280</ele>
        <time>2025-05-09T19:58:49.000Z</time>
      </trkpt>
      <trkpt lat="49.04045" lon="7.81441">
        <ele>280</ele>
        <time>2025-05-09T19:59:01.000Z</time>
      </trkpt>
      <trkpt lat="49.04056" lon="7.81431">
        <ele>280</ele>
        <time>2025-05-09T19:59:11.000Z</time>
      </trkpt>
      <trkpt lat="49.04062" lon="7.81428">
        <ele>281</ele>
        <time>2025-05-09T19:59:16.000Z</time>
      </trkpt>
      <trkpt lat="49.04076" lon="7.81425">
        <ele>281</ele>
        <time>2025-05-09T19:59:25.000Z</time>
      </trkpt>
      <trkpt lat="49.04086" lon="7.81419">
        <ele>282</ele>
        <time>2025-05-09T19:59:32.000Z</time>
      </trkpt>
      <trkpt lat="49.0409" lon="7.81415">
        <ele>282</ele>
        <time>2025-05-09T19:59:37.000Z</time>
      </trkpt>
      <trkpt lat="49.04104" lon="7.81406">
        <ele>282</ele>
        <time>2025-05-09T19:59:44.000Z</time>
      </trkpt>
      <trkpt lat="49.0411" lon="7.81396">
        <ele>283</ele>
        <time>2025-05-09T19:59:56.000Z</time>
      </trkpt>
      <trkpt lat="49.04119" lon="7.81379">
        <ele>283</ele>
        <time>2025-05-09T20:00:03.000Z</time>
      </trkpt>
      <trkpt lat="49.04132" lon="7.81371">
        <ele>284</ele>
        <time>2025-05-09T20:00:14.000Z</time>
      </trkpt>
      <trkpt lat="49.0414" lon="7.81372">
        <ele>284</ele>
        <time>2025-05-09T20:00:20.000Z</time>
      </trkpt>
      <trkpt lat="49.04158" lon="7.8137">
        <ele>284</ele>
        <time>2025-05-09T20:00:31.000Z</time>
      </trkpt>
      <trkpt lat="49.04168" lon="7.81374">
        <ele>284</ele>
        <time>2025-05-09T20:00:36.000Z</time>
      </trkpt>
      <trkpt lat="49.04215" lon="7.81356">
        <ele>284</ele>
        <time>2025-05-09T20:01:09.000Z</time>
      </trkpt>
      <trkpt lat="49.04222" lon="7.8136">
        <ele>284</ele>
        <time>2025-05-09T20:01:13.000Z</time>
      </trkpt>
      <trkpt lat="49.04234" lon="7.81365">
        <ele>284</ele>
        <time>2025-05-09T20:01:23.000Z</time>
      </trkpt>
      <trkpt lat="49.04249" lon="7.81378">
        <ele>284</ele>
        <time>2025-05-09T20:01:37.000Z</time>
      </trkpt>
      <trkpt lat="49.04256" lon="7.81377">
        <ele>284</ele>
        <time>2025-05-09T20:01:41.000Z</time>
      </trkpt>
      <trkpt lat="49.04262" lon="7.81374">
        <ele>284</ele>
        <time>2025-05-09T20:01:48.000Z</time>
      </trkpt>
      <trkpt lat="49.04268" lon="7.81376">
        <ele>284</ele>
        <time>2025-05-09T20:01:52.000Z</time>
      </trkpt>
      <trkpt lat="49.04275" lon="7.8138">
        <ele>284</ele>
        <time>2025-05-09T20:01:54.000Z</time>
      </trkpt>
      <trkpt lat="49.04281" lon="7.8138">
        <ele>284</ele>
        <time>2025-05-09T20:01:59.000Z</time>
      </trkpt>
      <trkpt lat="49.04286" lon="7.81377">
        <ele>284</ele>
        <time>2025-05-09T20:02:03.000Z</time>
      </trkpt>
      <trkpt lat="49.04293" lon="7.81371">
        <ele>284</ele>
        <time>2025-05-09T20:02:13.000Z</time>
      </trkpt>
      <trkpt lat="49.04301" lon="7.81367">
        <ele>284</ele>
        <time>2025-05-09T20:02:17.000Z</time>
      </trkpt>
      <trkpt lat="49.04309" lon="7.81374">
        <ele>284</ele>
        <time>2025-05-09T20:02:26.000Z</time>
      </trkpt>
      <trkpt lat="49.04315" lon="7.81374">
        <ele>285</ele>
        <time>2025-05-09T20:02:29.000Z</time>
      </trkpt>
      <trkpt lat="49.04344" lon="7.8138">
        <ele>285</ele>
        <time>2025-05-09T20:02:44.000Z</time>
      </trkpt>
      <trkpt lat="49.04343" lon="7.8137">
        <ele>285</ele>
        <time>2025-05-09T20:02:49.000Z</time>
      </trkpt>
      <trkpt lat="49.04339" lon="7.81355">
        <ele>285</ele>
        <time>2025-05-09T20:02:54.000Z</time>
      </trkpt>
      <trkpt lat="49.04334" lon="7.8135">
        <ele>285</ele>
        <time>2025-05-09T20:02:57.000Z</time>
      </trkpt>
      <trkpt lat="49.04328" lon="7.81351">
        <ele>285</ele>
        <time>2025-05-09T20:03:02.000Z</time>
      </trkpt>
      <trkpt lat="49.04324" lon="7.81356">
        <ele>285</ele>
        <time>2025-05-09T20:03:05.000Z</time>
      </trkpt>
      <trkpt lat="49.04318" lon="7.81358">
        <ele>285</ele>
        <time>2025-05-09T20:03:09.000Z</time>
      </trkpt>
      <trkpt lat="49.04313" lon="7.81363">
        <ele>285</ele>
        <time>2025-05-09T20:03:12.000Z</time>
      </trkpt>
      <trkpt lat="49.04308" lon="7.81365">
        <ele>285</ele>
        <time>2025-05-09T20:03:15.000Z</time>
      </trkpt>
      <trkpt lat="49.04308" lon="7.81356">
        <ele>285</ele>
        <time>2025-05-09T20:03:17.000Z</time>
      </trkpt>
      <trkpt lat="49.04312" lon="7.81341">
        <ele>285</ele>
        <time>2025-05-09T20:03:21.000Z</time>
      </trkpt>
      <trkpt lat="49.04317" lon="7.81343">
        <ele>286</ele>
        <time>2025-05-09T20:03:30.000Z</time>
      </trkpt>
      <trkpt lat="49.04322" lon="7.8134">
        <ele>286</ele>
        <time>2025-05-09T20:03:33.000Z</time>
      </trkpt>
      <trkpt lat="49.04329" lon="7.8134">
        <ele>286</ele>
        <time>2025-05-09T20:03:39.000Z</time>
      </trkpt>
      <trkpt lat="49.04334" lon="7.81337">
        <ele>286</ele>
        <time>2025-05-09T20:03:42.000Z</time>
      </trkpt>
      <trkpt lat="49.04337" lon="7.81332">
        <ele>287</ele>
        <time>2025-05-09T20:03:45.000Z</time>
      </trkpt>
      <trkpt lat="49.04348" lon="7.81329">
        <ele>288</ele>
        <time>2025-05-09T20:03:57.000Z</time>
      </trkpt>
      <trkpt lat="49.04358" lon="7.81328">
        <ele>289</ele>
        <time>2025-05-09T20:04:05.000Z</time>
      </trkpt>
      <trkpt lat="49.04362" lon="7.81327">
        <ele>289</ele>
        <time>2025-05-09T20:04:08.000Z</time>
      </trkpt>
      <trkpt lat="49.04381" lon="7.81314">
        <ele>290</ele>
        <time>2025-05-09T20:04:18.000Z</time>
      </trkpt>
      <trkpt lat="49.044" lon="7.81305">
        <ele>290</ele>
        <time>2025-05-09T20:04:26.000Z</time>
      </trkpt>
      <trkpt lat="49.04405" lon="7.813">
        <ele>290</ele>
        <time>2025-05-09T20:04:29.000Z</time>
      </trkpt>
      <trkpt lat="49.04412" lon="7.813">
        <ele>290</ele>
        <time>2025-05-09T20:04:33.000Z</time>
      </trkpt>
      <trkpt lat="49.04418" lon="7.81304">
        <ele>290</ele>
        <time>2025-05-09T20:04:37.000Z</time>
      </trkpt>
      <trkpt lat="49.04434" lon="7.81312">
        <ele>290</ele>
        <time>2025-05-09T20:04:45.000Z</time>
      </trkpt>
      <trkpt lat="49.04452" lon="7.81308">
        <ele>292</ele>
        <time>2025-05-09T20:05:03.000Z</time>
      </trkpt>
      <trkpt lat="49.04482" lon="7.81319">
        <ele>293</ele>
        <time>2025-05-09T20:05:24.000Z</time>
      </trkpt>
      <trkpt lat="49.04487" lon="7.81325">
        <ele>294</ele>
        <time>2025-05-09T20:05:31.000Z</time>
      </trkpt>
      <trkpt lat="49.04498" lon="7.81324">
        <ele>294</ele>
        <time>2025-05-09T20:05:36.000Z</time>
      </trkpt>
      <trkpt lat="49.04516" lon="7.81324">
        <ele>294</ele>
        <time>2025-05-09T20:05:49.000Z</time>
      </trkpt>
      <trkpt lat="49.04524" lon="7.81325">
        <ele>293</ele>
        <time>2025-05-09T20:05:56.000Z</time>
      </trkpt>
      <trkpt lat="49.04529" lon="7.81328">
        <ele>294</ele>
        <time>2025-05-09T20:06:01.000Z</time>
      </trkpt>
      <trkpt lat="49.04535" lon="7.81327">
        <ele>293</ele>
        <time>2025-05-09T20:06:09.000Z</time>
      </trkpt>
      <trkpt lat="49.0454" lon="7.8133">
        <ele>293</ele>
        <time>2025-05-09T20:06:14.000Z</time>
      </trkpt>
      <trkpt lat="49.04552" lon="7.81326">
        <ele>293</ele>
        <time>2025-05-09T20:06:25.000Z</time>
      </trkpt>
      <trkpt lat="49.04556" lon="7.81327">
        <ele>293</ele>
        <time>2025-05-09T20:06:28.000Z</time>
      </trkpt>
      <trkpt lat="49.0457" lon="7.81321">
        <ele>293</ele>
        <time>2025-05-09T20:06:37.000Z</time>
      </trkpt>
      <trkpt lat="49.04574" lon="7.81318">
        <ele>294</ele>
        <time>2025-05-09T20:06:41.000Z</time>
      </trkpt>
      <trkpt lat="49.04578" lon="7.81316">
        <ele>294</ele>
        <time>2025-05-09T20:06:45.000Z</time>
      </trkpt>
      <trkpt lat="49.04582" lon="7.81311">
        <ele>295</ele>
        <time>2025-05-09T20:06:48.000Z</time>
      </trkpt>
      <trkpt lat="49.04586" lon="7.81304">
        <ele>295</ele>
        <time>2025-05-09T20:06:51.000Z</time>
      </trkpt>
      <trkpt lat="49.0459" lon="7.81302">
        <ele>295</ele>
        <time>2025-05-09T20:06:54.000Z</time>
      </trkpt>
      <trkpt lat="49.04594" lon="7.81299">
        <ele>296</ele>
        <time>2025-05-09T20:06:57.000Z</time>
      </trkpt>
      <trkpt lat="49.04599" lon="7.81294">
        <ele>296</ele>
        <time>2025-05-09T20:07:03.000Z</time>
      </trkpt>
      <trkpt lat="49.04608" lon="7.81291">
        <ele>296</ele>
        <time>2025-05-09T20:07:11.000Z</time>
      </trkpt>
      <trkpt lat="49.04613" lon="7.81289">
        <ele>296</ele>
        <time>2025-05-09T20:07:14.000Z</time>
      </trkpt>
      <trkpt lat="49.04617" lon="7.81287">
        <ele>296</ele>
        <time>2025-05-09T20:07:17.000Z</time>
      </trkpt>
      <trkpt lat="49.04621" lon="7.81283">
        <ele>296</ele>
        <time>2025-05-09T20:07:20.000Z</time>
      </trkpt>
      <trkpt lat="49.04636" lon="7.81267">
        <ele>296</ele>
        <time>2025-05-09T20:07:30.000Z</time>
      </trkpt>
      <trkpt lat="49.04641" lon="7.81265">
        <ele>296</ele>
        <time>2025-05-09T20:07:33.000Z</time>
      </trkpt>
      <trkpt lat="49.04652" lon="7.81265">
        <ele>296</ele>
        <time>2025-05-09T20:07:38.000Z</time>
      </trkpt>
      <trkpt lat="49.04657" lon="7.81268">
        <ele>296</ele>
        <time>2025-05-09T20:07:42.000Z</time>
      </trkpt>
      <trkpt lat="49.04661" lon="7.81266">
        <ele>296</ele>
        <time>2025-05-09T20:07:45.000Z</time>
      </trkpt>
      <trkpt lat="49.0469" lon="7.81283">
        <ele>297</ele>
        <time>2025-05-09T20:08:11.000Z</time>
      </trkpt>
      <trkpt lat="49.04694" lon="7.81285">
        <ele>297</ele>
        <time>2025-05-09T20:08:16.000Z</time>
      </trkpt>
      <trkpt lat="49.04708" lon="7.81284">
        <ele>298</ele>
        <time>2025-05-09T20:08:30.000Z</time>
      </trkpt>
      <trkpt lat="49.04713" lon="7.81283">
        <ele>298</ele>
        <time>2025-05-09T20:08:34.000Z</time>
      </trkpt>
      <trkpt lat="49.04724" lon="7.81286">
        <ele>299</ele>
        <time>2025-05-09T20:08:41.000Z</time>
      </trkpt>
      <trkpt lat="49.04742" lon="7.81284">
        <ele>300</ele>
        <time>2025-05-09T20:08:52.000Z</time>
      </trkpt>
      <trkpt lat="49.04747" lon="7.81274">
        <ele>300</ele>
        <time>2025-05-09T20:08:55.000Z</time>
      </trkpt>
      <trkpt lat="49.04758" lon="7.81271">
        <ele>301</ele>
        <time>2025-05-09T20:09:02.000Z</time>
      </trkpt>
      <trkpt lat="49.0476" lon="7.81276">
        <ele>301</ele>
        <time>2025-05-09T20:09:04.000Z</time>
      </trkpt>
      <trkpt lat="49.04766" lon="7.81276">
        <ele>301</ele>
        <time>2025-05-09T20:09:08.000Z</time>
      </trkpt>
      <trkpt lat="49.04788" lon="7.81263">
        <ele>304</ele>
        <time>2025-05-09T20:09:33.000Z</time>
      </trkpt>
      <trkpt lat="49.04797" lon="7.8126">
        <ele>305</ele>
        <time>2025-05-09T20:09:39.000Z</time>
      </trkpt>
      <trkpt lat="49.04802" lon="7.81256">
        <ele>306</ele>
        <time>2025-05-09T20:09:43.000Z</time>
      </trkpt>
      <trkpt lat="49.04819" lon="7.81244">
        <ele>307</ele>
        <time>2025-05-09T20:09:54.000Z</time>
      </trkpt>
      <trkpt lat="49.04824" lon="7.81239">
        <ele>307</ele>
        <time>2025-05-09T20:09:56.000Z</time>
      </trkpt>
      <trkpt lat="49.04855" lon="7.81233">
        <ele>309</ele>
        <time>2025-05-09T20:10:16.000Z</time>
      </trkpt>
      <trkpt lat="49.04863" lon="7.81223">
        <ele>311</ele>
        <time>2025-05-09T20:10:28.000Z</time>
      </trkpt>
      <trkpt lat="49.04869" lon="7.81218">
        <ele>311</ele>
        <time>2025-05-09T20:10:33.000Z</time>
      </trkpt>
      <trkpt lat="49.04873" lon="7.81212">
        <ele>311</ele>
        <time>2025-05-09T20:10:35.000Z</time>
      </trkpt>
      <trkpt lat="49.049" lon="7.81201">
        <ele>314</ele>
        <time>2025-05-09T20:10:54.000Z</time>
      </trkpt>
      <trkpt lat="49.04908" lon="7.81184">
        <ele>315</ele>
        <time>2025-05-09T20:11:04.000Z</time>
      </trkpt>
      <trkpt lat="49.04909" lon="7.81174">
        <ele>315</ele>
        <time>2025-05-09T20:11:10.000Z</time>
      </trkpt>
      <trkpt lat="49.04907" lon="7.81164">
        <ele>316</ele>
        <time>2025-05-09T20:11:13.000Z</time>
      </trkpt>
      <trkpt lat="49.04909" lon="7.81154">
        <ele>316</ele>
        <time>2025-05-09T20:11:17.000Z</time>
      </trkpt>
      <trkpt lat="49.04906" lon="7.81148">
        <ele>317</ele>
        <time>2025-05-09T20:11:19.000Z</time>
      </trkpt>
      <trkpt lat="49.04904" lon="7.81135">
        <ele>317</ele>
        <time>2025-05-09T20:11:27.000Z</time>
      </trkpt>
      <trkpt lat="49.04906" lon="7.81129">
        <ele>318</ele>
        <time>2025-05-09T20:11:31.000Z</time>
      </trkpt>
      <trkpt lat="49.04925" lon="7.81096">
        <ele>321</ele>
        <time>2025-05-09T20:11:53.000Z</time>
      </trkpt>
      <trkpt lat="49.04934" lon="7.81085">
        <ele>322</ele>
        <time>2025-05-09T20:12:04.000Z</time>
      </trkpt>
      <trkpt lat="49.04937" lon="7.81077">
        <ele>323</ele>
        <time>2025-05-09T20:12:09.000Z</time>
      </trkpt>
      <trkpt lat="49.04938" lon="7.81067">
        <ele>324</ele>
        <time>2025-05-09T20:12:15.000Z</time>
      </trkpt>
      <trkpt lat="49.04948" lon="7.81044">
        <ele>325</ele>
        <time>2025-05-09T20:12:28.000Z</time>
      </trkpt>
      <trkpt lat="49.04947" lon="7.81036">
        <ele>325</ele>
        <time>2025-05-09T20:12:31.000Z</time>
      </trkpt>
      <trkpt lat="49.04955" lon="7.81022">
        <ele>326</ele>
        <time>2025-05-09T20:12:41.000Z</time>
      </trkpt>
      <trkpt lat="49.04955" lon="7.81006">
        <ele>327</ele>
        <time>2025-05-09T20:12:51.000Z</time>
      </trkpt>
      <trkpt lat="49.04952" lon="7.80996">
        <ele>328</ele>
        <time>2025-05-09T20:12:55.000Z</time>
      </trkpt>
      <trkpt lat="49.04953" lon="7.80981">
        <ele>329</ele>
        <time>2025-05-09T20:13:04.000Z</time>
      </trkpt>
      <trkpt lat="49.04958" lon="7.80964">
        <ele>330</ele>
        <time>2025-05-09T20:13:13.000Z</time>
      </trkpt>
      <trkpt lat="49.04956" lon="7.80955">
        <ele>331</ele>
        <time>2025-05-09T20:13:20.000Z</time>
      </trkpt>
      <trkpt lat="49.0496" lon="7.80928">
        <ele>332</ele>
        <time>2025-05-09T20:13:30.000Z</time>
      </trkpt>
      <trkpt lat="49.04957" lon="7.80918">
        <ele>333</ele>
        <time>2025-05-09T20:13:34.000Z</time>
      </trkpt>
      <trkpt lat="49.04958" lon="7.80902">
        <ele>333</ele>
        <time>2025-05-09T20:13:41.000Z</time>
      </trkpt>
      <trkpt lat="49.04962" lon="7.80893">
        <ele>334</ele>
        <time>2025-05-09T20:13:45.000Z</time>
      </trkpt>
      <trkpt lat="49.04967" lon="7.8089">
        <ele>334</ele>
        <time>2025-05-09T20:13:48.000Z</time>
      </trkpt>
      <trkpt lat="49.04984" lon="7.80887">
        <ele>335</ele>
        <time>2025-05-09T20:13:59.000Z</time>
      </trkpt>
      <trkpt lat="49.04989" lon="7.80884">
        <ele>335</ele>
        <time>2025-05-09T20:14:03.000Z</time>
      </trkpt>
      <trkpt lat="49.04995" lon="7.80877">
        <ele>336</ele>
        <time>2025-05-09T20:14:08.000Z</time>
      </trkpt>
      <trkpt lat="49.05005" lon="7.80871">
        <ele>337</ele>
        <time>2025-05-09T20:14:16.000Z</time>
      </trkpt>
      <trkpt lat="49.05012" lon="7.80859">
        <ele>338</ele>
        <time>2025-05-09T20:14:24.000Z</time>
      </trkpt>
      <trkpt lat="49.05016" lon="7.80846">
        <ele>339</ele>
        <time>2025-05-09T20:14:35.000Z</time>
      </trkpt>
      <trkpt lat="49.05019" lon="7.80841">
        <ele>339</ele>
        <time>2025-05-09T20:14:38.000Z</time>
      </trkpt>
      <trkpt lat="49.0503" lon="7.80826">
        <ele>340</ele>
        <time>2025-05-09T20:14:50.000Z</time>
      </trkpt>
      <trkpt lat="49.05035" lon="7.80807">
        <ele>342</ele>
        <time>2025-05-09T20:15:01.000Z</time>
      </trkpt>
      <trkpt lat="49.05036" lon="7.80786">
        <ele>343</ele>
        <time>2025-05-09T20:15:13.000Z</time>
      </trkpt>
      <trkpt lat="49.05036" lon="7.80776">
        <ele>343</ele>
        <time>2025-05-09T20:15:16.000Z</time>
      </trkpt>
      <trkpt lat="49.05033" lon="7.80756">
        <ele>344</ele>
        <time>2025-05-09T20:15:26.000Z</time>
      </trkpt>
      <trkpt lat="49.05033" lon="7.80747">
        <ele>345</ele>
        <time>2025-05-09T20:15:30.000Z</time>
      </trkpt>
      <trkpt lat="49.05032" lon="7.80741">
        <ele>345</ele>
        <time>2025-05-09T20:15:32.000Z</time>
      </trkpt>
      <trkpt lat="49.05031" lon="7.80734">
        <ele>345</ele>
        <time>2025-05-09T20:15:36.000Z</time>
      </trkpt>
      <trkpt lat="49.05029" lon="7.80728">
        <ele>346</ele>
        <time>2025-05-09T20:15:39.000Z</time>
      </trkpt>
      <trkpt lat="49.05026" lon="7.80705">
        <ele>348</ele>
        <time>2025-05-09T20:15:53.000Z</time>
      </trkpt>
      <trkpt lat="49.05021" lon="7.80701">
        <ele>347</ele>
        <time>2025-05-09T20:15:57.000Z</time>
      </trkpt>
      <trkpt lat="49.05019" lon="7.80692">
        <ele>349</ele>
        <time>2025-05-09T20:16:05.000Z</time>
      </trkpt>
      <trkpt lat="49.05017" lon="7.80687">
        <ele>349</ele>
        <time>2025-05-09T20:16:09.000Z</time>
      </trkpt>
      <trkpt lat="49.05017" lon="7.80679">
        <ele>349</ele>
        <time>2025-05-09T20:16:13.000Z</time>
      </trkpt>
      <trkpt lat="49.05015" lon="7.80665">
        <ele>350</ele>
        <time>2025-05-09T20:16:21.000Z</time>
      </trkpt>
      <trkpt lat="49.05012" lon="7.80651">
        <ele>351</ele>
        <time>2025-05-09T20:16:25.000Z</time>
      </trkpt>
      <trkpt lat="49.05011" lon="7.80644">
        <ele>351</ele>
        <time>2025-05-09T20:16:28.000Z</time>
      </trkpt>
      <trkpt lat="49.05012" lon="7.80634">
        <ele>351</ele>
        <time>2025-05-09T20:16:31.000Z</time>
      </trkpt>
      <trkpt lat="49.05008" lon="7.80618">
        <ele>353</ele>
        <time>2025-05-09T20:16:40.000Z</time>
      </trkpt>
      <trkpt lat="49.05004" lon="7.80604">
        <ele>353</ele>
        <time>2025-05-09T20:16:47.000Z</time>
      </trkpt>
      <trkpt lat="49.05001" lon="7.80579">
        <ele>355</ele>
        <time>2025-05-09T20:17:00.000Z</time>
      </trkpt>
      <trkpt lat="49.0499" lon="7.80536">
        <ele>358</ele>
        <time>2025-05-09T20:17:19.000Z</time>
      </trkpt>
      <trkpt lat="49.04993" lon="7.80529">
        <ele>358</ele>
        <time>2025-05-09T20:17:22.000Z</time>
      </trkpt>
      <trkpt lat="49.05003" lon="7.80501">
        <ele>360</ele>
        <time>2025-05-09T20:17:33.000Z</time>
      </trkpt>
      <trkpt lat="49.05016" lon="7.80506">
        <ele>361</ele>
        <time>2025-05-09T20:17:42.000Z</time>
      </trkpt>
      <trkpt lat="49.0502" lon="7.80513">
        <ele>361</ele>
        <time>2025-05-09T20:17:46.000Z</time>
      </trkpt>
      <trkpt lat="49.05024" lon="7.80522">
        <ele>362</ele>
        <time>2025-05-09T20:17:49.000Z</time>
      </trkpt>
      <trkpt lat="49.05031" lon="7.80526">
        <ele>363</ele>
        <time>2025-05-09T20:17:53.000Z</time>
      </trkpt>
      <trkpt lat="49.05038" lon="7.80535">
        <ele>363</ele>
        <time>2025-05-09T20:17:58.000Z</time>
      </trkpt>
      <trkpt lat="49.05049" lon="7.8053">
        <ele>364</ele>
        <time>2025-05-09T20:18:06.000Z</time>
      </trkpt>
      <trkpt lat="49.05054" lon="7.80512">
        <ele>366</ele>
        <time>2025-05-09T20:18:14.000Z</time>
      </trkpt>
      <trkpt lat="49.05053" lon="7.80505">
        <ele>366</ele>
        <time>2025-05-09T20:18:16.000Z</time>
      </trkpt>
      <trkpt lat="49.05053" lon="7.80499">
        <ele>366</ele>
        <time>2025-05-09T20:18:20.000Z</time>
      </trkpt>
      <trkpt lat="49.0505" lon="7.80484">
        <ele>367</ele>
        <time>2025-05-09T20:18:25.000Z</time>
      </trkpt>
      <trkpt lat="49.05047" lon="7.80477">
        <ele>367</ele>
        <time>2025-05-09T20:18:29.000Z</time>
      </trkpt>
      <trkpt lat="49.05046" lon="7.80467">
        <ele>368</ele>
        <time>2025-05-09T20:18:37.000Z</time>
      </trkpt>
      <trkpt lat="49.05046" lon="7.8046">
        <ele>368</ele>
        <time>2025-05-09T20:18:41.000Z</time>
      </trkpt>
      <trkpt lat="49.05047" lon="7.80453">
        <ele>368</ele>
        <time>2025-05-09T20:18:45.000Z</time>
      </trkpt>
      <trkpt lat="49.05049" lon="7.80447">
        <ele>369</ele>
        <time>2025-05-09T20:18:49.000Z</time>
      </trkpt>
      <trkpt lat="49.05049" lon="7.8044">
        <ele>369</ele>
        <time>2025-05-09T20:18:52.000Z</time>
      </trkpt>
      <trkpt lat="49.05053" lon="7.80425">
        <ele>370</ele>
        <time>2025-05-09T20:19:00.000Z</time>
      </trkpt>
      <trkpt lat="49.05058" lon="7.80412">
        <ele>370</ele>
        <time>2025-05-09T20:19:08.000Z</time>
      </trkpt>
      <trkpt lat="49.05062" lon="7.80395">
        <ele>371</ele>
        <time>2025-05-09T20:19:16.000Z</time>
      </trkpt>
      <trkpt lat="49.05066" lon="7.80389">
        <ele>371</ele>
        <time>2025-05-09T20:19:19.000Z</time>
      </trkpt>
      <trkpt lat="49.05068" lon="7.80383">
        <ele>371</ele>
        <time>2025-05-09T20:19:22.000Z</time>
      </trkpt>
      <trkpt lat="49.0507" lon="7.80376">
        <ele>371</ele>
        <time>2025-05-09T20:19:25.000Z</time>
      </trkpt>
      <trkpt lat="49.05072" lon="7.80371">
        <ele>372</ele>
        <time>2025-05-09T20:19:29.000Z</time>
      </trkpt>
      <trkpt lat="49.05077" lon="7.80367">
        <ele>372</ele>
        <time>2025-05-09T20:19:33.000Z</time>
      </trkpt>
      <trkpt lat="49.0508" lon="7.8036">
        <ele>373</ele>
        <time>2025-05-09T20:19:36.000Z</time>
      </trkpt>
      <trkpt lat="49.0508" lon="7.80351">
        <ele>373</ele>
        <time>2025-05-09T20:19:39.000Z</time>
      </trkpt>
      <trkpt lat="49.05083" lon="7.80338">
        <ele>374</ele>
        <time>2025-05-09T20:19:44.000Z</time>
      </trkpt>
      <trkpt lat="49.05084" lon="7.80331">
        <ele>374</ele>
        <time>2025-05-09T20:19:48.000Z</time>
      </trkpt>
      <trkpt lat="49.05082" lon="7.80313">
        <ele>374</ele>
        <time>2025-05-09T20:19:55.000Z</time>
      </trkpt>
      <trkpt lat="49.05082" lon="7.80305">
        <ele>374</ele>
        <time>2025-05-09T20:19:59.000Z</time>
      </trkpt>
      <trkpt lat="49.05086" lon="7.80301">
        <ele>375</ele>
        <time>2025-05-09T20:20:03.000Z</time>
      </trkpt>
      <trkpt lat="49.05086" lon="7.8029">
        <ele>375</ele>
        <time>2025-05-09T20:20:08.000Z</time>
      </trkpt>
      <trkpt lat="49.05085" lon="7.80284">
        <ele>375</ele>
        <time>2025-05-09T20:20:11.000Z</time>
      </trkpt>
      <trkpt lat="49.05093" lon="7.80245">
        <ele>377</ele>
        <time>2025-05-09T20:20:35.000Z</time>
      </trkpt>
      <trkpt lat="49.05092" lon="7.80237">
        <ele>377</ele>
        <time>2025-05-09T20:20:39.000Z</time>
      </trkpt>
      <trkpt lat="49.05092" lon="7.80227">
        <ele>377</ele>
        <time>2025-05-09T20:20:43.000Z</time>
      </trkpt>
      <trkpt lat="49.05093" lon="7.80212">
        <ele>377</ele>
        <time>2025-05-09T20:20:49.000Z</time>
      </trkpt>
      <trkpt lat="49.05092" lon="7.80197">
        <ele>378</ele>
        <time>2025-05-09T20:20:57.000Z</time>
      </trkpt>
      <trkpt lat="49.05088" lon="7.80176">
        <ele>378</ele>
        <time>2025-05-09T20:21:10.000Z</time>
      </trkpt>
      <trkpt lat="49.05088" lon="7.80169">
        <ele>378</ele>
        <time>2025-05-09T20:21:13.000Z</time>
      </trkpt>
      <trkpt lat="49.05087" lon="7.80161">
        <ele>378</ele>
        <time>2025-05-09T20:21:16.000Z</time>
      </trkpt>
      <trkpt lat="49.0508" lon="7.80118">
        <ele>380</ele>
        <time>2025-05-09T20:21:39.000Z</time>
      </trkpt>
      <trkpt lat="49.05081" lon="7.80108">
        <ele>380</ele>
        <time>2025-05-09T20:21:43.000Z</time>
      </trkpt>
      <trkpt lat="49.05077" lon="7.80098">
        <ele>380</ele>
        <time>2025-05-09T20:21:49.000Z</time>
      </trkpt>
      <trkpt lat="49.05075" lon="7.80088">
        <ele>380</ele>
        <time>2025-05-09T20:21:52.000Z</time>
      </trkpt>
      <trkpt lat="49.05076" lon="7.80067">
        <ele>381</ele>
        <time>2025-05-09T20:22:02.000Z</time>
      </trkpt>
      <trkpt lat="49.05076" lon="7.80057">
        <ele>380</ele>
        <time>2025-05-09T20:22:07.000Z</time>
      </trkpt>
      <trkpt lat="49.05075" lon="7.80045">
        <ele>381</ele>
        <time>2025-05-09T20:22:12.000Z</time>
      </trkpt>
      <trkpt lat="49.05078" lon="7.80032">
        <ele>381</ele>
        <time>2025-05-09T20:22:16.000Z</time>
      </trkpt>
      <trkpt lat="49.05076" lon="7.80018">
        <ele>382</ele>
        <time>2025-05-09T20:22:21.000Z</time>
      </trkpt>
      <trkpt lat="49.05087" lon="7.80009">
        <ele>382</ele>
        <time>2025-05-09T20:22:29.000Z</time>
      </trkpt>
      <trkpt lat="49.05096" lon="7.80003">
        <ele>382</ele>
        <time>2025-05-09T20:22:34.000Z</time>
      </trkpt>
      <trkpt lat="49.05105" lon="7.80003">
        <ele>383</ele>
        <time>2025-05-09T20:22:38.000Z</time>
      </trkpt>
      <trkpt lat="49.05112" lon="7.80004">
        <ele>383</ele>
        <time>2025-05-09T20:22:42.000Z</time>
      </trkpt>
      <trkpt lat="49.05119" lon="7.80008">
        <ele>383</ele>
        <time>2025-05-09T20:22:46.000Z</time>
      </trkpt>
      <trkpt lat="49.05123" lon="7.80015">
        <ele>383</ele>
        <time>2025-05-09T20:22:52.000Z</time>
      </trkpt>
      <trkpt lat="49.05131" lon="7.80017">
        <ele>383</ele>
        <time>2025-05-09T20:22:59.000Z</time>
      </trkpt>
      <trkpt lat="49.05139" lon="7.80015">
        <ele>382</ele>
        <time>2025-05-09T20:23:05.000Z</time>
      </trkpt>
      <trkpt lat="49.05154" lon="7.80013">
        <ele>381</ele>
        <time>2025-05-09T20:23:12.000Z</time>
      </trkpt>
      <trkpt lat="49.05159" lon="7.80014">
        <ele>380</ele>
        <time>2025-05-09T20:23:16.000Z</time>
      </trkpt>
      <trkpt lat="49.0517" lon="7.80021">
        <ele>378</ele>
        <time>2025-05-09T20:23:23.000Z</time>
      </trkpt>
      <trkpt lat="49.05183" lon="7.80021">
        <ele>376</ele>
        <time>2025-05-09T20:23:32.000Z</time>
      </trkpt>
      <trkpt lat="49.05187" lon="7.80027">
        <ele>376</ele>
        <time>2025-05-09T20:23:36.000Z</time>
      </trkpt>
      <trkpt lat="49.05212" lon="7.80031">
        <ele>372</ele>
        <time>2025-05-09T20:23:53.000Z</time>
      </trkpt>
      <trkpt lat="49.0522" lon="7.80027">
        <ele>372</ele>
        <time>2025-05-09T20:23:57.000Z</time>
      </trkpt>
      <trkpt lat="49.05218" lon="7.80035">
        <ele>372</ele>
        <time>2025-05-09T20:23:59.000Z</time>
      </trkpt>
      <trkpt lat="49.05224" lon="7.80032">
        <ele>371</ele>
        <time>2025-05-09T20:24:04.000Z</time>
      </trkpt>
      <trkpt lat="49.05229" lon="7.80027">
        <ele>370</ele>
        <time>2025-05-09T20:24:08.000Z</time>
      </trkpt>
      <trkpt lat="49.05232" lon="7.80024">
        <ele>370</ele>
        <time>2025-05-09T20:24:11.000Z</time>
      </trkpt>
      <trkpt lat="49.05236" lon="7.8002">
        <ele>370</ele>
        <time>2025-05-09T20:24:14.000Z</time>
      </trkpt>
      <trkpt lat="49.05239" lon="7.80014">
        <ele>369</ele>
        <time>2025-05-09T20:24:18.000Z</time>
      </trkpt>
      <trkpt lat="49.0526" lon="7.79985">
        <ele>365</ele>
        <time>2025-05-09T20:24:41.000Z</time>
      </trkpt>
      <trkpt lat="49.05264" lon="7.79981">
        <ele>366</ele>
        <time>2025-05-09T20:24:44.000Z</time>
      </trkpt>
      <trkpt lat="49.05274" lon="7.79956">
        <ele>364</ele>
        <time>2025-05-09T20:24:55.000Z</time>
      </trkpt>
      <trkpt lat="49.05274" lon="7.79945">
        <ele>363</ele>
        <time>2025-05-09T20:25:00.000Z</time>
      </trkpt>
      <trkpt lat="49.05277" lon="7.79935">
        <ele>363</ele>
        <time>2025-05-09T20:25:04.000Z</time>
      </trkpt>
      <trkpt lat="49.05301" lon="7.79903">
        <ele>359</ele>
        <time>2025-05-09T20:25:25.000Z</time>
      </trkpt>
      <trkpt lat="49.05335" lon="7.79891">
        <ele>355</ele>
        <time>2025-05-09T20:25:48.000Z</time>
      </trkpt>
      <trkpt lat="49.05346" lon="7.7989">
        <ele>354</ele>
        <time>2025-05-09T20:25:54.000Z</time>
      </trkpt>
      <trkpt lat="49.05365" lon="7.79885">
        <ele>353</ele>
        <time>2025-05-09T20:26:05.000Z</time>
      </trkpt>
      <trkpt lat="49.05371" lon="7.79891">
        <ele>353</ele>
        <time>2025-05-09T20:26:08.000Z</time>
      </trkpt>
      <trkpt lat="49.05375" lon="7.79895">
        <ele>352</ele>
        <time>2025-05-09T20:26:11.000Z</time>
      </trkpt>
      <trkpt lat="49.05386" lon="7.79899">
        <ele>350</ele>
        <time>2025-05-09T20:26:35.000Z</time>
      </trkpt>
      <trkpt lat="49.05391" lon="7.79894">
        <ele>349</ele>
        <time>2025-05-09T20:26:37.000Z</time>
      </trkpt>
      <trkpt lat="49.05393" lon="7.79889">
        <ele>349</ele>
        <time>2025-05-09T20:26:41.000Z</time>
      </trkpt>
      <trkpt lat="49.05399" lon="7.79887">
        <ele>349</ele>
        <time>2025-05-09T20:26:45.000Z</time>
      </trkpt>
      <trkpt lat="49.05407" lon="7.79874">
        <ele>348</ele>
        <time>2025-05-09T20:26:56.000Z</time>
      </trkpt>
      <trkpt lat="49.0541" lon="7.79868">
        <ele>348</ele>
        <time>2025-05-09T20:27:00.000Z</time>
      </trkpt>
      <trkpt lat="49.05419" lon="7.79864">
        <ele>346</ele>
        <time>2025-05-09T20:27:06.000Z</time>
      </trkpt>
      <trkpt lat="49.05423" lon="7.79863">
        <ele>346</ele>
        <time>2025-05-09T20:27:09.000Z</time>
      </trkpt>
      <trkpt lat="49.05428" lon="7.79859">
        <ele>346</ele>
        <time>2025-05-09T20:27:12.000Z</time>
      </trkpt>
      <trkpt lat="49.05457" lon="7.79875">
        <ele>349</ele>
        <time>2025-05-09T20:27:40.000Z</time>
      </trkpt>
      <trkpt lat="49.05426" lon="7.79874">
        <ele>347</ele>
        <time>2025-05-09T20:28:10.000Z</time>
      </trkpt>
      <trkpt lat="49.05418" lon="7.79871">
        <ele>346</ele>
        <time>2025-05-09T20:28:19.000Z</time>
      </trkpt>
      <trkpt lat="49.05417" lon="7.79863">
        <ele>346</ele>
        <time>2025-05-09T20:28:24.000Z</time>
      </trkpt>
      <trkpt lat="49.05416" lon="7.79856">
        <ele>346</ele>
        <time>2025-05-09T20:28:37.000Z</time>
      </trkpt>
      <trkpt lat="49.05413" lon="7.79852">
        <ele>346</ele>
        <time>2025-05-09T20:28:41.000Z</time>
      </trkpt>
      <trkpt lat="49.05411" lon="7.79845">
        <ele>347</ele>
        <time>2025-05-09T20:28:45.000Z</time>
      </trkpt>
      <trkpt lat="49.05412" lon="7.79822">
        <ele>348</ele>
        <time>2025-05-09T20:28:57.000Z</time>
      </trkpt>
      <trkpt lat="49.0541" lon="7.79805">
        <ele>349</ele>
        <time>2025-05-09T20:29:05.000Z</time>
      </trkpt>
      <trkpt lat="49.05409" lon="7.79784">
        <ele>348</ele>
        <time>2025-05-09T20:29:15.000Z</time>
      </trkpt>
      <trkpt lat="49.05409" lon="7.79775">
        <ele>348</ele>
        <time>2025-05-09T20:29:19.000Z</time>
      </trkpt>
      <trkpt lat="49.05409" lon="7.79767">
        <ele>348</ele>
        <time>2025-05-09T20:29:23.000Z</time>
      </trkpt>
      <trkpt lat="49.05406" lon="7.79759">
        <ele>348</ele>
        <time>2025-05-09T20:29:27.000Z</time>
      </trkpt>
      <trkpt lat="49.05406" lon="7.79751">
        <ele>348</ele>
        <time>2025-05-09T20:29:30.000Z</time>
      </trkpt>
      <trkpt lat="49.05399" lon="7.79728">
        <ele>348</ele>
        <time>2025-05-09T20:29:40.000Z</time>
      </trkpt>
      <trkpt lat="49.05399" lon="7.7972">
        <ele>347</ele>
        <time>2025-05-09T20:29:43.000Z</time>
      </trkpt>
      <trkpt lat="49.05398" lon="7.79712">
        <ele>347</ele>
        <time>2025-05-09T20:29:48.000Z</time>
      </trkpt>
      <trkpt lat="49.05395" lon="7.79705">
        <ele>347</ele>
        <time>2025-05-09T20:29:51.000Z</time>
      </trkpt>
      <trkpt lat="49.05394" lon="7.79697">
        <ele>347</ele>
        <time>2025-05-09T20:29:55.000Z</time>
      </trkpt>
      <trkpt lat="49.05391" lon="7.79691">
        <ele>348</ele>
        <time>2025-05-09T20:29:58.000Z</time>
      </trkpt>
      <trkpt lat="49.05389" lon="7.79683">
        <ele>347</ele>
        <time>2025-05-09T20:30:02.000Z</time>
      </trkpt>
      <trkpt lat="49.05382" lon="7.79654">
        <ele>347</ele>
        <time>2025-05-09T20:30:13.000Z</time>
      </trkpt>
      <trkpt lat="49.05381" lon="7.79648">
        <ele>347</ele>
        <time>2025-05-09T20:30:16.000Z</time>
      </trkpt>
      <trkpt lat="49.05379" lon="7.79642">
        <ele>347</ele>
        <time>2025-05-09T20:30:20.000Z</time>
      </trkpt>
      <trkpt lat="49.05377" lon="7.79635">
        <ele>347</ele>
        <time>2025-05-09T20:30:23.000Z</time>
      </trkpt>
      <trkpt lat="49.05376" lon="7.79629">
        <ele>347</ele>
        <time>2025-05-09T20:30:26.000Z</time>
      </trkpt>
      <trkpt lat="49.05374" lon="7.79622">
        <ele>347</ele>
        <time>2025-05-09T20:30:30.000Z</time>
      </trkpt>
      <trkpt lat="49.05375" lon="7.79614">
        <ele>347</ele>
        <time>2025-05-09T20:30:34.000Z</time>
      </trkpt>
      <trkpt lat="49.0537" lon="7.79584">
        <ele>346</ele>
        <time>2025-05-09T20:30:49.000Z</time>
      </trkpt>
      <trkpt lat="49.05371" lon="7.79577">
        <ele>347</ele>
        <time>2025-05-09T20:30:52.000Z</time>
      </trkpt>
      <trkpt lat="49.05369" lon="7.7957">
        <ele>346</ele>
        <time>2025-05-09T20:30:55.000Z</time>
      </trkpt>
      <trkpt lat="49.05365" lon="7.79557">
        <ele>346</ele>
        <time>2025-05-09T20:31:01.000Z</time>
      </trkpt>
      <trkpt lat="49.05362" lon="7.79537">
        <ele>346</ele>
        <time>2025-05-09T20:31:10.000Z</time>
      </trkpt>
      <trkpt lat="49.05359" lon="7.79531">
        <ele>346</ele>
        <time>2025-05-09T20:31:13.000Z</time>
      </trkpt>
      <trkpt lat="49.05359" lon="7.79517">
        <ele>346</ele>
        <time>2025-05-09T20:31:19.000Z</time>
      </trkpt>
      <trkpt lat="49.05358" lon="7.7951">
        <ele>346</ele>
        <time>2025-05-09T20:31:24.000Z</time>
      </trkpt>
      <trkpt lat="49.05356" lon="7.79502">
        <ele>346</ele>
        <time>2025-05-09T20:31:28.000Z</time>
      </trkpt>
      <trkpt lat="49.05355" lon="7.79495">
        <ele>346</ele>
        <time>2025-05-09T20:31:31.000Z</time>
      </trkpt>
      <trkpt lat="49.05352" lon="7.79488">
        <ele>346</ele>
        <time>2025-05-09T20:31:35.000Z</time>
      </trkpt>
      <trkpt lat="49.0535" lon="7.79474">
        <ele>345</ele>
        <time>2025-05-09T20:31:42.000Z</time>
      </trkpt>
      <trkpt lat="49.05349" lon="7.79466">
        <ele>346</ele>
        <time>2025-05-09T20:31:45.000Z</time>
      </trkpt>
      <trkpt lat="49.05347" lon="7.79459">
        <ele>345</ele>
        <time>2025-05-09T20:31:49.000Z</time>
      </trkpt>
      <trkpt lat="49.05343" lon="7.79444">
        <ele>345</ele>
        <time>2025-05-09T20:31:56.000Z</time>
      </trkpt>
      <trkpt lat="49.05342" lon="7.79437">
        <ele>345</ele>
        <time>2025-05-09T20:32:00.000Z</time>
      </trkpt>
      <trkpt lat="49.05336" lon="7.79424">
        <ele>345</ele>
        <time>2025-05-09T20:32:08.000Z</time>
      </trkpt>
      <trkpt lat="49.05336" lon="7.79417">
        <ele>345</ele>
        <time>2025-05-09T20:32:11.000Z</time>
      </trkpt>
      <trkpt lat="49.05328" lon="7.79398">
        <ele>344</ele>
        <time>2025-05-09T20:32:20.000Z</time>
      </trkpt>
      <trkpt lat="49.05327" lon="7.79392">
        <ele>344</ele>
        <time>2025-05-09T20:32:23.000Z</time>
      </trkpt>
      <trkpt lat="49.05324" lon="7.79386">
        <ele>344</ele>
        <time>2025-05-09T20:32:27.000Z</time>
      </trkpt>
      <trkpt lat="49.05321" lon="7.7938">
        <ele>344</ele>
        <time>2025-05-09T20:32:30.000Z</time>
      </trkpt>
      <trkpt lat="49.05318" lon="7.79375">
        <ele>344</ele>
        <time>2025-05-09T20:32:33.000Z</time>
      </trkpt>
      <trkpt lat="49.05309" lon="7.79327">
        <ele>343</ele>
        <time>2025-05-09T20:32:56.000Z</time>
      </trkpt>
      <trkpt lat="49.05302" lon="7.79308">
        <ele>344</ele>
        <time>2025-05-09T20:33:08.000Z</time>
      </trkpt>
      <trkpt lat="49.05308" lon="7.79299">
        <ele>344</ele>
        <time>2025-05-09T20:33:19.000Z</time>
      </trkpt>
      <trkpt lat="49.05308" lon="7.79284">
        <ele>345</ele>
        <time>2025-05-09T20:33:27.000Z</time>
      </trkpt>
      <trkpt lat="49.05307" lon="7.79277">
        <ele>344</ele>
        <time>2025-05-09T20:33:31.000Z</time>
      </trkpt>
      <trkpt lat="49.05306" lon="7.79263">
        <ele>346</ele>
        <time>2025-05-09T20:33:39.000Z</time>
      </trkpt>
      <trkpt lat="49.05305" lon="7.79254">
        <ele>346</ele>
        <time>2025-05-09T20:33:42.000Z</time>
      </trkpt>
      <trkpt lat="49.0531" lon="7.79252">
        <ele>347</ele>
        <time>2025-05-09T20:33:45.000Z</time>
      </trkpt>
      <trkpt lat="49.0531" lon="7.79243">
        <ele>347</ele>
        <time>2025-05-09T20:33:50.000Z</time>
      </trkpt>
      <trkpt lat="49.05308" lon="7.79233">
        <ele>348</ele>
        <time>2025-05-09T20:33:55.000Z</time>
      </trkpt>
      <trkpt lat="49.05307" lon="7.79225">
        <ele>348</ele>
        <time>2025-05-09T20:33:57.000Z</time>
      </trkpt>
      <trkpt lat="49.05308" lon="7.79219">
        <ele>348</ele>
        <time>2025-05-09T20:34:00.000Z</time>
      </trkpt>
      <trkpt lat="49.05313" lon="7.79213">
        <ele>349</ele>
        <time>2025-05-09T20:34:03.000Z</time>
      </trkpt>
      <trkpt lat="49.05311" lon="7.79155">
        <ele>355</ele>
        <time>2025-05-09T20:34:36.000Z</time>
      </trkpt>
      <trkpt lat="49.05311" lon="7.79141">
        <ele>356</ele>
        <time>2025-05-09T20:34:44.000Z</time>
      </trkpt>
      <trkpt lat="49.05312" lon="7.79127">
        <ele>358</ele>
        <time>2025-05-09T20:34:56.000Z</time>
      </trkpt>
      <trkpt lat="49.05305" lon="7.79111">
        <ele>360</ele>
        <time>2025-05-09T20:35:07.000Z</time>
      </trkpt>
      <trkpt lat="49.05294" lon="7.79099">
        <ele>361</ele>
        <time>2025-05-09T20:35:20.000Z</time>
      </trkpt>
      <trkpt lat="49.0528" lon="7.79077">
        <ele>363</ele>
        <time>2025-05-09T20:35:38.000Z</time>
      </trkpt>
      <trkpt lat="49.05274" lon="7.79074">
        <ele>364</ele>
        <time>2025-05-09T20:35:41.000Z</time>
      </trkpt>
      <trkpt lat="49.05269" lon="7.79075">
        <ele>365</ele>
        <time>2025-05-09T20:35:49.000Z</time>
      </trkpt>
      <trkpt lat="49.05266" lon="7.79067">
        <ele>366</ele>
        <time>2025-05-09T20:35:56.000Z</time>
      </trkpt>
      <trkpt lat="49.0526" lon="7.79068">
        <ele>367</ele>
        <time>2025-05-09T20:35:59.000Z</time>
      </trkpt>
      <trkpt lat="49.05252" lon="7.79057">
        <ele>368</ele>
        <time>2025-05-09T20:36:06.000Z</time>
      </trkpt>
      <trkpt lat="49.0525" lon="7.79048">
        <ele>369</ele>
        <time>2025-05-09T20:36:11.000Z</time>
      </trkpt>
      <trkpt lat="49.05241" lon="7.79033">
        <ele>371</ele>
        <time>2025-05-09T20:36:18.000Z</time>
      </trkpt>
      <trkpt lat="49.05232" lon="7.79025">
        <ele>373</ele>
        <time>2025-05-09T20:36:29.000Z</time>
      </trkpt>
      <trkpt lat="49.05231" lon="7.79019">
        <ele>373</ele>
        <time>2025-05-09T20:36:32.000Z</time>
      </trkpt>
      <trkpt lat="49.05222" lon="7.7901">
        <ele>375</ele>
        <time>2025-05-09T20:36:46.000Z</time>
      </trkpt>
      <trkpt lat="49.05215" lon="7.79007">
        <ele>376</ele>
        <time>2025-05-09T20:36:50.000Z</time>
      </trkpt>
      <trkpt lat="49.05212" lon="7.78997">
        <ele>377</ele>
        <time>2025-05-09T20:36:57.000Z</time>
      </trkpt>
      <trkpt lat="49.05205" lon="7.78996">
        <ele>379</ele>
        <time>2025-05-09T20:37:05.000Z</time>
      </trkpt>
      <trkpt lat="49.05193" lon="7.78987">
        <ele>381</ele>
        <time>2025-05-09T20:37:15.000Z</time>
      </trkpt>
      <trkpt lat="49.0519" lon="7.78978">
        <ele>381</ele>
        <time>2025-05-09T20:37:20.000Z</time>
      </trkpt>
      <trkpt lat="49.05183" lon="7.78975">
        <ele>382</ele>
        <time>2025-05-09T20:37:26.000Z</time>
      </trkpt>
      <trkpt lat="49.05163" lon="7.78949">
        <ele>386</ele>
        <time>2025-05-09T20:37:50.000Z</time>
      </trkpt>
      <trkpt lat="49.05158" lon="7.78938">
        <ele>388</ele>
        <time>2025-05-09T20:38:01.000Z</time>
      </trkpt>
      <trkpt lat="49.05152" lon="7.78938">
        <ele>389</ele>
        <time>2025-05-09T20:38:04.000Z</time>
      </trkpt>
      <trkpt lat="49.05142" lon="7.78928">
        <ele>390</ele>
        <time>2025-05-09T20:38:11.000Z</time>
      </trkpt>
      <trkpt lat="49.05137" lon="7.78926">
        <ele>391</ele>
        <time>2025-05-09T20:38:17.000Z</time>
      </trkpt>
      <trkpt lat="49.05133" lon="7.78921">
        <ele>391</ele>
        <time>2025-05-09T20:38:20.000Z</time>
      </trkpt>
      <trkpt lat="49.05131" lon="7.78912">
        <ele>393</ele>
        <time>2025-05-09T20:38:29.000Z</time>
      </trkpt>
      <trkpt lat="49.05131" lon="7.78903">
        <ele>394</ele>
        <time>2025-05-09T20:38:32.000Z</time>
      </trkpt>
      <trkpt lat="49.05109" lon="7.78864">
        <ele>400</ele>
        <time>2025-05-09T20:39:05.000Z</time>
      </trkpt>
      <trkpt lat="49.05101" lon="7.78854">
        <ele>401</ele>
        <time>2025-05-09T20:39:14.000Z</time>
      </trkpt>
      <trkpt lat="49.05097" lon="7.78852">
        <ele>402</ele>
        <time>2025-05-09T20:39:19.000Z</time>
      </trkpt>
      <trkpt lat="49.05091" lon="7.78844">
        <ele>404</ele>
        <time>2025-05-09T20:39:31.000Z</time>
      </trkpt>
      <trkpt lat="49.05081" lon="7.78828">
        <ele>405</ele>
        <time>2025-05-09T20:39:41.000Z</time>
      </trkpt>
      <trkpt lat="49.05075" lon="7.78822">
        <ele>406</ele>
        <time>2025-05-09T20:39:49.000Z</time>
      </trkpt>
      <trkpt lat="49.05074" lon="7.78812">
        <ele>409</ele>
        <time>2025-05-09T20:39:58.000Z</time>
      </trkpt>
      <trkpt lat="49.05061" lon="7.78779">
        <ele>411</ele>
        <time>2025-05-09T20:40:15.000Z</time>
      </trkpt>
      <trkpt lat="49.05059" lon="7.7877">
        <ele>412</ele>
        <time>2025-05-09T20:40:20.000Z</time>
      </trkpt>
      <trkpt lat="49.05051" lon="7.78746">
        <ele>415</ele>
        <time>2025-05-09T20:40:37.000Z</time>
      </trkpt>
      <trkpt lat="49.0505" lon="7.78739">
        <ele>416</ele>
        <time>2025-05-09T20:40:44.000Z</time>
      </trkpt>
      <trkpt lat="49.05049" lon="7.78731">
        <ele>416</ele>
        <time>2025-05-09T20:40:47.000Z</time>
      </trkpt>
      <trkpt lat="49.05056" lon="7.78709">
        <ele>419</ele>
        <time>2025-05-09T20:41:01.000Z</time>
      </trkpt>
      <trkpt lat="49.05061" lon="7.78702">
        <ele>421</ele>
        <time>2025-05-09T20:41:08.000Z</time>
      </trkpt>
      <trkpt lat="49.05069" lon="7.78682">
        <ele>423</ele>
        <time>2025-05-09T20:41:21.000Z</time>
      </trkpt>
      <trkpt lat="49.0507" lon="7.78672">
        <ele>424</ele>
        <time>2025-05-09T20:41:27.000Z</time>
      </trkpt>
      <trkpt lat="49.05081" lon="7.78651">
        <ele>427</ele>
        <time>2025-05-09T20:41:44.000Z</time>
      </trkpt>
      <trkpt lat="49.05084" lon="7.78642">
        <ele>428</ele>
        <time>2025-05-09T20:41:51.000Z</time>
      </trkpt>
      <trkpt lat="49.05088" lon="7.78638">
        <ele>429</ele>
        <time>2025-05-09T20:41:56.000Z</time>
      </trkpt>
      <trkpt lat="49.05111" lon="7.78616">
        <ele>433</ele>
        <time>2025-05-09T20:42:23.000Z</time>
      </trkpt>
      <trkpt lat="49.05123" lon="7.7861">
        <ele>436</ele>
        <time>2025-05-09T20:42:37.000Z</time>
      </trkpt>
      <trkpt lat="49.0513" lon="7.78609">
        <ele>437</ele>
        <time>2025-05-09T20:42:40.000Z</time>
      </trkpt>
      <trkpt lat="49.05144" lon="7.78596">
        <ele>439</ele>
        <time>2025-05-09T20:42:59.000Z</time>
      </trkpt>
      <trkpt lat="49.05149" lon="7.78598">
        <ele>439</ele>
        <time>2025-05-09T20:43:01.000Z</time>
      </trkpt>
      <trkpt lat="49.05149" lon="7.7859">
        <ele>440</ele>
        <time>2025-05-09T20:43:06.000Z</time>
      </trkpt>
      <trkpt lat="49.05153" lon="7.78584">
        <ele>440</ele>
        <time>2025-05-09T20:43:13.000Z</time>
      </trkpt>
      <trkpt lat="49.05157" lon="7.7858">
        <ele>441</ele>
        <time>2025-05-09T20:43:18.000Z</time>
      </trkpt>
      <trkpt lat="49.05162" lon="7.78579">
        <ele>441</ele>
        <time>2025-05-09T20:43:23.000Z</time>
      </trkpt>
      <trkpt lat="49.05166" lon="7.78573">
        <ele>441</ele>
        <time>2025-05-09T20:43:28.000Z</time>
      </trkpt>
      <trkpt lat="49.0517" lon="7.78569">
        <ele>442</ele>
        <time>2025-05-09T20:43:32.000Z</time>
      </trkpt>
      <trkpt lat="49.05178" lon="7.78562">
        <ele>443</ele>
        <time>2025-05-09T20:43:40.000Z</time>
      </trkpt>
      <trkpt lat="49.05183" lon="7.78561">
        <ele>443</ele>
        <time>2025-05-09T20:43:44.000Z</time>
      </trkpt>
      <trkpt lat="49.05188" lon="7.78557">
        <ele>444</ele>
        <time>2025-05-09T20:43:48.000Z</time>
      </trkpt>
      <trkpt lat="49.05192" lon="7.78553">
        <ele>444</ele>
        <time>2025-05-09T20:43:51.000Z</time>
      </trkpt>
      <trkpt lat="49.05235" lon="7.78514">
        <ele>445</ele>
        <time>2025-05-09T20:44:25.000Z</time>
      </trkpt>
      <trkpt lat="49.05238" lon="7.7851">
        <ele>446</ele>
        <time>2025-05-09T20:44:28.000Z</time>
      </trkpt>
      <trkpt lat="49.05242" lon="7.78505">
        <ele>446</ele>
        <time>2025-05-09T20:44:31.000Z</time>
      </trkpt>
      <trkpt lat="49.05245" lon="7.78499">
        <ele>446</ele>
        <time>2025-05-09T20:44:34.000Z</time>
      </trkpt>
      <trkpt lat="49.05256" lon="7.78492">
        <ele>447</ele>
        <time>2025-05-09T20:44:43.000Z</time>
      </trkpt>
      <trkpt lat="49.05265" lon="7.7848">
        <ele>447</ele>
        <time>2025-05-09T20:44:50.000Z</time>
      </trkpt>
      <trkpt lat="49.0527" lon="7.78481">
        <ele>448</ele>
        <time>2025-05-09T20:44:53.000Z</time>
      </trkpt>
      <trkpt lat="49.05274" lon="7.78478">
        <ele>448</ele>
        <time>2025-05-09T20:44:56.000Z</time>
      </trkpt>
      <trkpt lat="49.05281" lon="7.78469">
        <ele>449</ele>
        <time>2025-05-09T20:45:04.000Z</time>
      </trkpt>
      <trkpt lat="49.05284" lon="7.78463">
        <ele>449</ele>
        <time>2025-05-09T20:45:07.000Z</time>
      </trkpt>
      <trkpt lat="49.05288" lon="7.78458">
        <ele>450</ele>
        <time>2025-05-09T20:45:11.000Z</time>
      </trkpt>
      <trkpt lat="49.0529" lon="7.78452">
        <ele>450</ele>
        <time>2025-05-09T20:45:15.000Z</time>
      </trkpt>
      <trkpt lat="49.05294" lon="7.78446">
        <ele>451</ele>
        <time>2025-05-09T20:45:22.000Z</time>
      </trkpt>
      <trkpt lat="49.053" lon="7.78446">
        <ele>452</ele>
        <time>2025-05-09T20:45:27.000Z</time>
      </trkpt>
      <trkpt lat="49.05303" lon="7.78439">
        <ele>452</ele>
        <time>2025-05-09T20:45:31.000Z</time>
      </trkpt>
      <trkpt lat="49.05322" lon="7.78419">
        <ele>454</ele>
        <time>2025-05-09T20:45:47.000Z</time>
      </trkpt>
      <trkpt lat="49.0533" lon="7.78409">
        <ele>455</ele>
        <time>2025-05-09T20:45:58.000Z</time>
      </trkpt>
      <trkpt lat="49.05332" lon="7.78402">
        <ele>455</ele>
        <time>2025-05-09T20:46:00.000Z</time>
      </trkpt>
      <trkpt lat="49.0534" lon="7.78389">
        <ele>456</ele>
        <time>2025-05-09T20:46:09.000Z</time>
      </trkpt>
      <trkpt lat="49.05343" lon="7.78378">
        <ele>457</ele>
        <time>2025-05-09T20:46:16.000Z</time>
      </trkpt>
      <trkpt lat="49.05348" lon="7.78368">
        <ele>457</ele>
        <time>2025-05-09T20:46:21.000Z</time>
      </trkpt>
      <trkpt lat="49.05353" lon="7.78362">
        <ele>458</ele>
        <time>2025-05-09T20:46:27.000Z</time>
      </trkpt>
      <trkpt lat="49.05354" lon="7.78355">
        <ele>458</ele>
        <time>2025-05-09T20:46:32.000Z</time>
      </trkpt>
      <trkpt lat="49.05358" lon="7.78358">
        <ele>458</ele>
        <time>2025-05-09T20:46:35.000Z</time>
      </trkpt>
      <trkpt lat="49.0536" lon="7.78349">
        <ele>459</ele>
        <time>2025-05-09T20:46:41.000Z</time>
      </trkpt>
      <trkpt lat="49.05381" lon="7.78309">
        <ele>463</ele>
        <time>2025-05-09T20:47:11.000Z</time>
      </trkpt>
      <trkpt lat="49.05387" lon="7.78296">
        <ele>464</ele>
        <time>2025-05-09T20:47:20.000Z</time>
      </trkpt>
      <trkpt lat="49.05392" lon="7.78292">
        <ele>465</ele>
        <time>2025-05-09T20:47:24.000Z</time>
      </trkpt>
      <trkpt lat="49.05396" lon="7.78287">
        <ele>465</ele>
        <time>2025-05-09T20:47:28.000Z</time>
      </trkpt>
      <trkpt lat="49.05399" lon="7.78278">
        <ele>466</ele>
        <time>2025-05-09T20:47:31.000Z</time>
      </trkpt>
      <trkpt lat="49.0541" lon="7.78263">
        <ele>467</ele>
        <time>2025-05-09T20:47:41.000Z</time>
      </trkpt>
      <trkpt lat="49.05414" lon="7.78256">
        <ele>467</ele>
        <time>2025-05-09T20:47:47.000Z</time>
      </trkpt>
      <trkpt lat="49.05417" lon="7.78248">
        <ele>468</ele>
        <time>2025-05-09T20:47:49.000Z</time>
      </trkpt>
      <trkpt lat="49.05419" lon="7.78242">
        <ele>468</ele>
        <time>2025-05-09T20:47:52.000Z</time>
      </trkpt>
      <trkpt lat="49.05425" lon="7.78229">
        <ele>469</ele>
        <time>2025-05-09T20:48:01.000Z</time>
      </trkpt>
      <trkpt lat="49.05429" lon="7.78225">
        <ele>470</ele>
        <time>2025-05-09T20:48:06.000Z</time>
      </trkpt>
      <trkpt lat="49.0543" lon="7.78218">
        <ele>470</ele>
        <time>2025-05-09T20:48:10.000Z</time>
      </trkpt>
      <trkpt lat="49.0543" lon="7.78211">
        <ele>471</ele>
        <time>2025-05-09T20:48:12.000Z</time>
      </trkpt>
      <trkpt lat="49.05439" lon="7.78193">
        <ele>472</ele>
        <time>2025-05-09T20:48:25.000Z</time>
      </trkpt>
      <trkpt lat="49.05439" lon="7.78168">
        <ele>474</ele>
        <time>2025-05-09T20:48:36.000Z</time>
      </trkpt>
      <trkpt lat="49.05444" lon="7.78139">
        <ele>477</ele>
        <time>2025-05-09T20:48:54.000Z</time>
      </trkpt>
      <trkpt lat="49.05443" lon="7.78122">
        <ele>478</ele>
        <time>2025-05-09T20:49:03.000Z</time>
      </trkpt>
      <trkpt lat="49.05447" lon="7.78115">
        <ele>479</ele>
        <time>2025-05-09T20:49:09.000Z</time>
      </trkpt>
      <trkpt lat="49.05451" lon="7.78111">
        <ele>480</ele>
        <time>2025-05-09T20:49:12.000Z</time>
      </trkpt>
      <trkpt lat="49.05449" lon="7.78102">
        <ele>481</ele>
        <time>2025-05-09T20:49:20.000Z</time>
      </trkpt>
      <trkpt lat="49.05446" lon="7.78098">
        <ele>480</ele>
        <time>2025-05-09T20:49:24.000Z</time>
      </trkpt>
      <trkpt lat="49.05441" lon="7.78098">
        <ele>479</ele>
        <time>2025-05-09T20:49:38.000Z</time>
      </trkpt>
      <trkpt lat="49.05436" lon="7.78099">
        <ele>478</ele>
        <time>2025-05-09T20:49:50.000Z</time>
      </trkpt>
      <trkpt lat="49.05433" lon="7.78094">
        <ele>478</ele>
        <time>2025-05-09T20:49:57.000Z</time>
      </trkpt>
      <trkpt lat="49.05427" lon="7.78084">
        <ele>477</ele>
        <time>2025-05-09T20:50:06.000Z</time>
      </trkpt>
      <trkpt lat="49.0542" lon="7.78075">
        <ele>475</ele>
        <time>2025-05-09T20:50:17.000Z</time>
      </trkpt>
      <trkpt lat="49.05416" lon="7.7807">
        <ele>475</ele>
        <time>2025-05-09T20:50:22.000Z</time>
      </trkpt>
      <trkpt lat="49.05415" lon="7.78063">
        <ele>474</ele>
        <time>2025-05-09T20:50:25.000Z</time>
      </trkpt>
      <trkpt lat="49.05416" lon="7.78056">
        <ele>473</ele>
        <time>2025-05-09T20:50:28.000Z</time>
      </trkpt>
      <trkpt lat="49.05414" lon="7.7804">
        <ele>470</ele>
        <time>2025-05-09T20:50:36.000Z</time>
      </trkpt>
      <trkpt lat="49.05396" lon="7.7802">
        <ele>465</ele>
        <time>2025-05-09T20:50:55.000Z</time>
      </trkpt>
      <trkpt lat="49.05393" lon="7.78014">
        <ele>464</ele>
        <time>2025-05-09T20:50:58.000Z</time>
      </trkpt>
      <trkpt lat="49.05391" lon="7.78008">
        <ele>463</ele>
        <time>2025-05-09T20:51:00.000Z</time>
      </trkpt>
      <trkpt lat="49.05382" lon="7.78001">
        <ele>461</ele>
        <time>2025-05-09T20:51:09.000Z</time>
      </trkpt>
      <trkpt lat="49.05372" lon="7.77993">
        <ele>458</ele>
        <time>2025-05-09T20:51:20.000Z</time>
      </trkpt>
      <trkpt lat="49.05369" lon="7.77987">
        <ele>457</ele>
        <time>2025-05-09T20:51:23.000Z</time>
      </trkpt>
      <trkpt lat="49.05364" lon="7.77987">
        <ele>456</ele>
        <time>2025-05-09T20:51:27.000Z</time>
      </trkpt>
      <trkpt lat="49.05341" lon="7.77959">
        <ele>453</ele>
        <time>2025-05-09T20:51:49.000Z</time>
      </trkpt>
      <trkpt lat="49.05335" lon="7.77948">
        <ele>451</ele>
        <time>2025-05-09T20:51:56.000Z</time>
      </trkpt>
      <trkpt lat="49.05325" lon="7.77942">
        <ele>449</ele>
        <time>2025-05-09T20:52:05.000Z</time>
      </trkpt>
      <trkpt lat="49.05322" lon="7.77937">
        <ele>449</ele>
        <time>2025-05-09T20:52:08.000Z</time>
      </trkpt>
      <trkpt lat="49.05314" lon="7.77927">
        <ele>448</ele>
        <time>2025-05-09T20:52:14.000Z</time>
      </trkpt>
      <trkpt lat="49.05309" lon="7.77924">
        <ele>447</ele>
        <time>2025-05-09T20:52:18.000Z</time>
      </trkpt>
      <trkpt lat="49.05305" lon="7.77924">
        <ele>446</ele>
        <time>2025-05-09T20:52:23.000Z</time>
      </trkpt>
      <trkpt lat="49.05298" lon="7.77914">
        <ele>445</ele>
        <time>2025-05-09T20:52:32.000Z</time>
      </trkpt>
      <trkpt lat="49.05291" lon="7.77907">
        <ele>443</ele>
        <time>2025-05-09T20:52:41.000Z</time>
      </trkpt>
      <trkpt lat="49.05271" lon="7.77887">
        <ele>440</ele>
        <time>2025-05-09T20:52:54.000Z</time>
      </trkpt>
      <trkpt lat="49.05249" lon="7.7787">
        <ele>436</ele>
        <time>2025-05-09T20:53:14.000Z</time>
      </trkpt>
      <trkpt lat="49.05237" lon="7.77858">
        <ele>434</ele>
        <time>2025-05-09T20:53:27.000Z</time>
      </trkpt>
      <trkpt lat="49.0523" lon="7.77852">
        <ele>433</ele>
        <time>2025-05-09T20:53:34.000Z</time>
      </trkpt>
      <trkpt lat="49.05224" lon="7.77845">
        <ele>432</ele>
        <time>2025-05-09T20:53:37.000Z</time>
      </trkpt>
      <trkpt lat="49.05218" lon="7.7784">
        <ele>430</ele>
        <time>2025-05-09T20:53:45.000Z</time>
      </trkpt>
      <trkpt lat="49.05213" lon="7.77839">
        <ele>430</ele>
        <time>2025-05-09T20:53:48.000Z</time>
      </trkpt>
      <trkpt lat="49.0521" lon="7.77836">
        <ele>429</ele>
        <time>2025-05-09T20:53:52.000Z</time>
      </trkpt>
      <trkpt lat="49.05206" lon="7.7783">
        <ele>429</ele>
        <time>2025-05-09T20:53:55.000Z</time>
      </trkpt>
      <trkpt lat="49.05178" lon="7.77807">
        <ele>424</ele>
        <time>2025-05-09T20:54:19.000Z</time>
      </trkpt>
      <trkpt lat="49.05172" lon="7.77797">
        <ele>423</ele>
        <time>2025-05-09T20:54:27.000Z</time>
      </trkpt>
      <trkpt lat="49.05154" lon="7.77785">
        <ele>421</ele>
        <time>2025-05-09T20:54:44.000Z</time>
      </trkpt>
      <trkpt lat="49.05152" lon="7.77781">
        <ele>420</ele>
        <time>2025-05-09T20:54:47.000Z</time>
      </trkpt>
      <trkpt lat="49.05147" lon="7.77778">
        <ele>420</ele>
        <time>2025-05-09T20:54:51.000Z</time>
      </trkpt>
      <trkpt lat="49.05137" lon="7.77774">
        <ele>418</ele>
        <time>2025-05-09T20:55:00.000Z</time>
      </trkpt>
      <trkpt lat="49.05133" lon="7.77768">
        <ele>417</ele>
        <time>2025-05-09T20:55:04.000Z</time>
      </trkpt>
      <trkpt lat="49.05124" lon="7.77758">
        <ele>416</ele>
        <time>2025-05-09T20:55:12.000Z</time>
      </trkpt>
      <trkpt lat="49.05095" lon="7.77721">
        <ele>410</ele>
        <time>2025-05-09T20:55:42.000Z</time>
      </trkpt>
      <trkpt lat="49.0509" lon="7.7771">
        <ele>409</ele>
        <time>2025-05-09T20:55:47.000Z</time>
      </trkpt>
      <trkpt lat="49.05083" lon="7.77705">
        <ele>408</ele>
        <time>2025-05-09T20:55:56.000Z</time>
      </trkpt>
      <trkpt lat="49.05079" lon="7.77702">
        <ele>407</ele>
        <time>2025-05-09T20:55:58.000Z</time>
      </trkpt>
      <trkpt lat="49.05074" lon="7.77697">
        <ele>407</ele>
        <time>2025-05-09T20:56:01.000Z</time>
      </trkpt>
      <trkpt lat="49.0507" lon="7.77698">
        <ele>406</ele>
        <time>2025-05-09T20:56:05.000Z</time>
      </trkpt>
      <trkpt lat="49.05059" lon="7.7768">
        <ele>404</ele>
        <time>2025-05-09T20:56:15.000Z</time>
      </trkpt>
      <trkpt lat="49.05059" lon="7.77669">
        <ele>403</ele>
        <time>2025-05-09T20:56:23.000Z</time>
      </trkpt>
      <trkpt lat="49.05055" lon="7.77663">
        <ele>402</ele>
        <time>2025-05-09T20:56:29.000Z</time>
      </trkpt>
      <trkpt lat="49.05045" lon="7.77654">
        <ele>400</ele>
        <time>2025-05-09T20:56:42.000Z</time>
      </trkpt>
      <trkpt lat="49.05033" lon="7.77638">
        <ele>398</ele>
        <time>2025-05-09T20:56:54.000Z</time>
      </trkpt>
      <trkpt lat="49.05027" lon="7.77627">
        <ele>398</ele>
        <time>2025-05-09T20:57:00.000Z</time>
      </trkpt>
      <trkpt lat="49.05022" lon="7.77625">
        <ele>396</ele>
        <time>2025-05-09T20:57:04.000Z</time>
      </trkpt>
      <trkpt lat="49.05018" lon="7.77621">
        <ele>396</ele>
        <time>2025-05-09T20:57:07.000Z</time>
      </trkpt>
      <trkpt lat="49.05002" lon="7.77614">
        <ele>394</ele>
        <time>2025-05-09T20:57:16.000Z</time>
      </trkpt>
      <trkpt lat="49.04983" lon="7.77591">
        <ele>391</ele>
        <time>2025-05-09T20:57:32.000Z</time>
      </trkpt>
      <trkpt lat="49.04978" lon="7.7759">
        <ele>389</ele>
        <time>2025-05-09T20:57:38.000Z</time>
      </trkpt>
      <trkpt lat="49.04973" lon="7.77586">
        <ele>388</ele>
        <time>2025-05-09T20:57:43.000Z</time>
      </trkpt>
      <trkpt lat="49.0497" lon="7.7758">
        <ele>388</ele>
        <time>2025-05-09T20:57:45.000Z</time>
      </trkpt>
      <trkpt lat="49.04946" lon="7.77559">
        <ele>384</ele>
        <time>2025-05-09T20:58:06.000Z</time>
      </trkpt>
      <trkpt lat="49.04936" lon="7.77554">
        <ele>383</ele>
        <time>2025-05-09T20:58:16.000Z</time>
      </trkpt>
      <trkpt lat="49.0493" lon="7.77551">
        <ele>383</ele>
        <time>2025-05-09T20:58:21.000Z</time>
      </trkpt>
      <trkpt lat="49.04924" lon="7.77549">
        <ele>382</ele>
        <time>2025-05-09T20:58:27.000Z</time>
      </trkpt>
      <trkpt lat="49.0492" lon="7.77544">
        <ele>381</ele>
        <time>2025-05-09T20:58:30.000Z</time>
      </trkpt>
      <trkpt lat="49.04911" lon="7.77538">
        <ele>379</ele>
        <time>2025-05-09T20:58:39.000Z</time>
      </trkpt>
      <trkpt lat="49.04907" lon="7.77532">
        <ele>378</ele>
        <time>2025-05-09T20:58:41.000Z</time>
      </trkpt>
      <trkpt lat="49.04902" lon="7.77532">
        <ele>377</ele>
        <time>2025-05-09T20:58:47.000Z</time>
      </trkpt>
      <trkpt lat="49.04888" lon="7.77525">
        <ele>375</ele>
        <time>2025-05-09T20:59:03.000Z</time>
      </trkpt>
      <trkpt lat="49.04883" lon="7.77521">
        <ele>374</ele>
        <time>2025-05-09T20:59:05.000Z</time>
      </trkpt>
      <trkpt lat="49.04876" lon="7.77518">
        <ele>373</ele>
        <time>2025-05-09T20:59:14.000Z</time>
      </trkpt>
      <trkpt lat="49.04869" lon="7.77511">
        <ele>372</ele>
        <time>2025-05-09T20:59:21.000Z</time>
      </trkpt>
      <trkpt lat="49.04864" lon="7.77514">
        <ele>371</ele>
        <time>2025-05-09T20:59:25.000Z</time>
      </trkpt>
      <trkpt lat="49.04859" lon="7.77508">
        <ele>371</ele>
        <time>2025-05-09T20:59:29.000Z</time>
      </trkpt>
      <trkpt lat="49.04838" lon="7.77497">
        <ele>367</ele>
        <time>2025-05-09T20:59:50.000Z</time>
      </trkpt>
      <trkpt lat="49.04835" lon="7.77494">
        <ele>367</ele>
        <time>2025-05-09T20:59:53.000Z</time>
      </trkpt>
      <trkpt lat="49.04823" lon="7.77487">
        <ele>366</ele>
        <time>2025-05-09T21:00:01.000Z</time>
      </trkpt>
      <trkpt lat="49.04821" lon="7.7748">
        <ele>365</ele>
        <time>2025-05-09T21:00:04.000Z</time>
      </trkpt>
      <trkpt lat="49.04816" lon="7.77474">
        <ele>364</ele>
        <time>2025-05-09T21:00:09.000Z</time>
      </trkpt>
      <trkpt lat="49.04811" lon="7.7747">
        <ele>362</ele>
        <time>2025-05-09T21:00:17.000Z</time>
      </trkpt>
      <trkpt lat="49.04809" lon="7.77465">
        <ele>362</ele>
        <time>2025-05-09T21:00:20.000Z</time>
      </trkpt>
      <trkpt lat="49.04804" lon="7.77459">
        <ele>361</ele>
        <time>2025-05-09T21:00:23.000Z</time>
      </trkpt>
      <trkpt lat="49.04793" lon="7.77453">
        <ele>359</ele>
        <time>2025-05-09T21:00:33.000Z</time>
      </trkpt>
      <trkpt lat="49.04788" lon="7.77456">
        <ele>357</ele>
        <time>2025-05-09T21:00:42.000Z</time>
      </trkpt>
      <trkpt lat="49.04782" lon="7.77452">
        <ele>356</ele>
        <time>2025-05-09T21:00:47.000Z</time>
      </trkpt>
      <trkpt lat="49.04777" lon="7.77451">
        <ele>355</ele>
        <time>2025-05-09T21:00:51.000Z</time>
      </trkpt>
      <trkpt lat="49.04766" lon="7.7744">
        <ele>352</ele>
        <time>2025-05-09T21:01:03.000Z</time>
      </trkpt>
      <trkpt lat="49.04754" lon="7.77451">
        <ele>351</ele>
        <time>2025-05-09T21:01:15.000Z</time>
      </trkpt>
      <trkpt lat="49.0475" lon="7.77457">
        <ele>351</ele>
        <time>2025-05-09T21:01:18.000Z</time>
      </trkpt>
      <trkpt lat="49.04743" lon="7.77461">
        <ele>350</ele>
        <time>2025-05-09T21:01:27.000Z</time>
      </trkpt>
      <trkpt lat="49.04729" lon="7.77487">
        <ele>348</ele>
        <time>2025-05-09T21:01:45.000Z</time>
      </trkpt>
      <trkpt lat="49.0472" lon="7.77491">
        <ele>348</ele>
        <time>2025-05-09T21:01:51.000Z</time>
      </trkpt>
      <trkpt lat="49.04716" lon="7.77486">
        <ele>347</ele>
        <time>2025-05-09T21:01:54.000Z</time>
      </trkpt>
      <trkpt lat="49.04712" lon="7.7748">
        <ele>347</ele>
        <time>2025-05-09T21:01:58.000Z</time>
      </trkpt>
    </trkseg>
  </trk>
</gpx>